              Height (m), 1500.0000, 1650.0000, 1800.0000, 1950.0000, 2100.0000, 2250.0000, 2400.0000, 2550.0000, 2700.0000, 2850.0000, 3000.0000, 3150.0000, 3300.0000, 3450.0000, 3600.0000, 3750.0000, 3900.0000, 4050.0000, 4200.0000, 4350.0000, 4500.0000, 4650.0000, 4800.0000, 4950.0000, 5100.0000, 5250.0000, 5400.0000, 5550.0000, 5700.0000, 5850.0000, 6000.0000, 6150.0000, 6300.0000, 6450.0000, 6600.0000, 6750.0000, 6900.0000, 7050.0000, 7200.0000, 7350.0000, 7500.0000, 7650.0000, 7800.0000, 7950.0000, 8100.0000, 8250.0000, 8400.0000, 8550.0000, 8700.0000, 8850.0000, 9000.0000, 9150.0000, 9300.0000, 9450.0000, 9600.0000, 9750.0000, 9900.0000,10050.0000,10200.0000,10350.0000,10500.0000,10650.0000,10800.0000,10950.0000,11100.0000,
24-SEP-2002 00:01:27.99 ,    0.5626,    1.9539,    2.5259,    3.8262,    4.6639,    3.5760,    3.6395,    3.5207,    4.1882,    5.1144,    6.6032,    7.2218,    8.6390,   10.9722,   12.1243,   12.0819,   12.3648,   13.1530,   13.3428,   13.6507,   14.5188,   15.8643,   16.2987,   15.3513,   16.6585,   17.3790,   17.7676,   19.5367,   20.7724,   21.3710,   22.3450,   22.6689,   22.2925,   21.5157,   21.8737,   22.6098,   23.3220,   24.4758,   25.4927,   26.7241,   27.3962,   27.6592,   28.1633,   27.7783,   25.6438,   24.9862,   26.0364,   26.7586,   26.8103,   27.7691,   28.3922,   29.7554,   30.9921,   32.8328,   33.0381,   31.7100,   32.1839,   34.2759,   34.2580,   34.3299,   35.8610,   36.1878,   37.0541,   40.1363,   40.4662,
24-SEP-2002 00:04:09.62 ,    0.6988,    1.4016,    2.6899,    3.4226,    4.0045,    3.3639,    3.2323,    3.2464,    4.1185,    5.7906,    7.7412,    8.7583,    9.6576,   10.7865,   11.9776,   12.0335,   12.4157,   12.8620,   13.3072,   14.1132,   15.1399,   16.3713,   16.7224,   15.9803,   16.5191,   17.3157,   18.5794,   20.1521,   21.5994,   21.8169,   22.5007,   22.8594,   22.5602,   22.4948,   22.5368,   22.2940,   22.7960,   24.4844,   25.8034,   27.0385,   27.2242,   27.8837,   28.0455,   26.6255,   25.7699,   25.7636,   26.8773,   26.8252,   26.3408,   27.6942,   26.6787,   28.9280,   30.4186,   32.5592,   32.2262,   32.7581,   32.9409,   33.8845,   33.0567,   33.0976,   35.2362,   38.5647,   38.5745,   39.9854,   39.8720,
24-SEP-2002 00:06:50.88 ,    2.0305,    2.4315,    2.8647,    3.4006,    4.2995,    3.2471,    3.4296,    3.3925,    3.9108,    5.2984,    7.3670,    8.6354,    9.5235,   10.5475,   11.8265,   11.6255,   12.2689,   12.7453,   12.6865,   13.3258,   14.7468,   16.2549,   14.8805,   16.5735,   16.9327,   17.6572,   18.9326,   19.8612,   20.2674,   21.6349,   21.8109,   22.2845,   22.3224,   22.3546,   22.4162,   22.5068,   23.9140,   24.5656,   25.4709,   25.7754,   26.8182,   28.2688,   28.2389,   26.4399,   26.6553,   27.0073,   27.0405,   26.7737,   27.4846,   27.1028,   27.0171,   27.0652,   29.6756,   32.1907,   32.7531,   33.1051,   32.9417,   33.6342,   33.0146,   34.2016,   35.1373,   38.2556,   39.6886,   41.0079,   45.5561,
24-SEP-2002 00:09:32.45 ,    1.3937,    1.7236,    1.9727,    2.4790,    3.0722,    3.2365,    3.2796,    3.7058,    3.9762,    5.5386,    7.8405,    8.8848,   10.1310,   11.3522,   12.5802,   12.2498,   12.7436,   13.1470,   12.7712,   12.7217,   14.3386,   16.3361,   14.7660,   16.0733,   16.5884,   17.3754,   18.7984,   19.9695,   20.4431,   21.0525,   21.8364,   22.7944,   22.9002,   22.4446,   22.8478,   23.2630,   23.8826,   23.6140,   25.4378,   25.7953,   27.7690,   28.7612,   28.3956,   27.7243,   27.5151,   27.2527,   28.0364,   28.4227,   29.1051,   29.2685,   29.4822,   28.5999,   30.1176,   32.4058,   33.0333,   33.4872,   33.2853,   33.3562,   33.7090,   35.1783,   36.5693,   38.6715,   41.1059,   41.6042,   44.1197,
24-SEP-2002 00:12:13.89 ,    0.4498,    1.4864,    2.0662,    2.3821,    3.2867,    3.6869,    3.5320,    4.1105,    4.5216,    6.0903,    8.0058,    9.1673,   10.5711,   11.9416,   12.9223,   12.6470,   12.8996,   13.2170,   13.2992,   13.9710,   15.4052,   16.5390,   14.8160,   16.0676,   16.1382,   17.0182,   18.7887,   19.8477,   20.3872,   20.6185,   20.7707,   22.0458,   22.1428,   22.0597,   22.4317,   22.7110,   23.1489,   24.6827,   25.9567,   27.3210,   28.4584,   28.7420,   28.2046,   27.7249,   28.2111,   27.3170,   28.0123,   28.3775,   28.7308,   29.0674,   29.1765,   29.2742,   30.4599,   31.8099,   32.1354,   32.7478,   33.1263,   34.4127,   33.6733,   34.5484,   37.2012,   38.7868,   40.2337,   29.6464,   31.4852,
24-SEP-2002 00:14:56.25 ,    0.3465,    1.5100,    2.0620,    2.1987,    3.8753,    3.8623,    3.9563,    4.0319,    4.8423,    6.0894,    7.6294,    9.1440,   10.5562,   12.4411,   13.3374,   12.7054,   12.5399,   12.7926,   12.9562,   13.8285,   15.5728,   16.2943,   14.9006,   16.2608,   16.5653,   17.0778,   18.8632,   19.8908,   20.5036,   20.5310,   21.0243,   22.1501,   22.8387,   23.0353,   22.8107,   22.5149,   23.0021,   24.8120,   25.6349,   26.5467,   27.0481,   27.4001,   28.5566,   28.0223,   27.6379,   26.9891,   27.4775,   27.6732,   27.8256,   27.7583,   27.2040,   27.7315,   28.0839,   31.0040,   31.7896,   32.8389,   33.3197,   33.9585,   34.3860,   34.6271,   38.7475,   41.0507,   41.7143,    6.3956,    8.4319,
24-SEP-2002 00:17:37.75 ,    0.5147,    1.1155,    1.5416,    1.3353,    2.4636,    3.0465,    3.0568,    3.3384,    4.2164,    5.5885,    7.8589,    9.1005,    9.9264,   11.5671,   13.0857,   12.5239,   12.4478,   12.7057,   13.1214,   13.5541,   15.0792,   16.0197,   14.1841,   15.4508,   16.5297,   17.6127,   18.3304,   18.9724,   19.6126,   20.5170,   21.8837,   22.4940,   22.6297,   22.6660,   22.2091,   21.0403,   22.1719,   23.7738,   24.9493,   25.8439,   26.5342,   27.0630,   27.2672,   26.3220,   26.5399,   25.9468,   26.2576,   26.4507,   26.2472,   26.5229,   25.3784,   25.8256,   27.4920,   31.3696,   32.2837,   34.0008,   34.0837,   33.6169,   33.3849,   33.3521,   35.6734,   38.8495,   40.6987,   40.1866,   41.8892,
24-SEP-2002 00:20:18.80 ,    0.4760,    1.0374,    1.3729,    1.1533,    2.3236,    2.4072,    2.5866,    3.0402,    3.5787,    5.0971,    7.3589,    8.1485,    8.5083,   10.2904,   12.6514,   12.6953,   12.6530,   13.0833,   13.9670,   14.3367,   15.1477,   15.9040,   14.8626,   15.4900,   15.9547,   17.0466,   18.5834,   19.9374,   20.3195,   20.6694,   21.9216,   22.2467,   22.2161,   21.8627,   21.6309,   21.8877,   22.5042,   23.6932,   24.9455,   25.2922,   25.7473,   26.2216,   26.5146,   25.4322,   25.7683,   25.3560,   25.9068,   26.2588,   26.3241,   26.8201,   26.6225,   26.1535,   27.7011,   30.7620,   31.9134,   33.0423,   33.3120,   32.8809,   32.7715,   34.3269,   35.9752,   38.2198,   39.6177,   40.1890,   42.3581,
24-SEP-2002 00:23:00.08 ,    0.8201,    1.3305,    1.8003,    1.9744,    2.3806,    3.0051,    3.1297,    3.3061,    3.8341,    5.0597,    6.3984,    7.4061,    8.1734,   10.0639,   12.2959,   12.6712,   12.6001,   13.1409,   14.3688,   15.0702,   15.7651,   16.3127,   14.7218,   15.5211,   16.3087,   17.6589,   19.1359,   20.6309,   20.8269,   21.2009,   21.5676,   21.8482,   21.9934,   21.7112,   21.4896,   22.2678,   22.5841,   23.3621,   24.5879,   25.0579,   25.7056,   26.1859,   26.2704,   26.0112,   25.3234,   26.0678,   26.2633,   26.5208,   27.0159,   27.0675,   26.9881,   30.7076,   30.8297,   29.8260,   31.1416,   32.8359,   32.9980,   31.3936,   32.2659,   33.9324,   39.9078,   36.8690,   38.3553,   40.9283,   40.5568,
24-SEP-2002 00:25:41.61 ,   -8.2869,  999.0000,  999.0000,  999.0000,   15.2498,   13.1255,   10.3418,    8.7625,    7.1458,  999.0000,    6.6024,    7.3561,    8.3220,   10.6167,   12.1714,   12.0381,   11.9163,   12.6096,   13.9562,   14.8846,   15.4642,   16.1622,   16.8305,   17.5316,   18.3528,   19.4723,   19.0166,   20.2504,   20.2940,   21.4435,   22.3188,   21.9807,   21.6535,   21.7319,   21.5124,   22.2381,   22.7080,   24.2053,   24.7407,   25.0904,   26.3091,   26.9244,   27.0044,   26.7328,   25.6670,   25.4432,   25.6017,   25.9571,   26.3785,   27.2211,   27.6246,   28.6747,   30.5348,   30.7093,   30.4568,   31.7351,   32.7782,   30.8603,   31.4836,   31.7564,   33.0703,   36.3910,   37.9171,   38.5867,   40.0783,
24-SEP-2002 00:28:23.50 ,   -9.7701,  999.0000,  999.0000,  999.0000,   18.4799,   15.3383,   12.0630,    9.9151,    8.0293,  999.0000,    7.7839,    8.2951,    9.2933,   11.2262,   12.6327,   12.7606,   12.4916,   13.2099,   14.0255,   14.4988,   14.9101,   15.8783,   17.3692,   18.2530,   17.1771,   18.3228,   19.2472,   19.5801,   19.8200,   21.0321,   21.9206,   22.0231,   21.7798,   21.2181,   22.1017,   22.0011,   23.0608,   24.6611,   25.4117,   25.6366,   26.8361,   26.9674,   27.4416,   27.1937,   25.9029,   25.3750,   25.7404,   26.3063,   26.1757,   26.5427,   26.7652,   28.1733,   29.8756,   30.7862,   30.6375,   30.5961,   31.8881,   32.2258,   31.8908,   32.0206,   33.8535,   36.5269,   37.6010,   38.1715,   38.6815,
24-SEP-2002 00:31:05.08 ,    1.6575,    1.8373,    2.0481,    2.2422,    2.5329,    3.3966,    3.2469,    3.3466,    4.5087,    6.6459,    7.5255,    7.9287,    8.5331,   10.4563,   12.6193,   12.7751,   13.0580,   14.0812,   14.4997,   15.3677,   16.2859,   16.5866,   15.8407,   16.7077,   17.6057,   18.7273,   19.7282,   20.2955,   20.9405,   21.4500,   21.6073,   22.4034,   22.7759,   22.3390,   21.3475,   22.9204,   23.7291,   24.6490,   24.8962,   25.4920,   26.8673,   27.1521,   27.7359,   27.6686,   26.0360,   25.6264,   26.6847,   26.6037,   25.8308,   26.2797,   26.8182,   27.8176,   27.8092,   29.7915,   30.7645,   30.6080,   30.6362,   32.2967,   31.2341,   31.8180,   34.9997,   36.1342,   36.9323,   37.4018,   37.9674,
24-SEP-2002 00:33:46.48 ,    1.0640,    0.9576,    1.1992,    1.8806,    3.0611,    3.3759,    3.1237,    3.2494,    4.0510,    5.6453,    6.5995,    7.0756,    8.0432,   10.2471,   12.2152,   12.1517,   12.8479,   13.9399,   14.3727,   15.4563,   16.2798,   16.3025,   15.9375,   16.8150,   16.9760,   18.3954,   19.6609,   19.9141,   20.7474,   21.7157,   22.0507,   22.5542,   22.3903,   21.3179,   20.6059,   20.6249,   20.7526,   21.6445,   22.0673,   23.0073,   23.0265,   23.5777,   25.6233,   25.7529,   25.3181,   24.7402,   25.7938,   26.2958,   26.2378,   27.1315,   27.0790,   27.7584,   28.6387,   31.8010,   31.9099,   31.1524,   30.0995,   30.4292,   31.0376,   32.1580,   34.9905,   35.9876,   35.7143,   37.1530,   37.9151,
24-SEP-2002 00:36:28.56 ,    0.8315,    0.7330,    1.2195,    2.0885,    3.2761,    3.4683,    3.2550,    3.8119,    4.1820,    5.2639,    6.8866,    7.4764,    8.7045,   10.4152,   11.8754,   11.8035,   12.4270,   13.4330,   13.9980,   14.8612,   15.5821,   16.2104,   15.9648,   16.6623,   17.3668,   18.4848,   19.5489,   20.0347,   20.7123,   21.6633,   21.8718,   22.1268,   21.8246,   19.7810,   17.2109,   16.3250,   15.4853,   15.9480,   16.3616,   16.7116,   16.6361,   17.8687,   21.7030,   22.1130,   25.2743,   23.9505,   25.4644,   26.1148,   25.9103,   26.4609,   27.2483,   27.8468,   28.9035,   29.9997,   30.1731,   29.9399,   28.9898,   29.3726,   31.9945,   33.0448,   32.8756,   35.3130,   37.1254,   38.7553,   41.3226,
24-SEP-2002 00:39:10.20 ,    1.1009,    1.2321,    1.4488,    2.2546,    2.4228,    3.3547,    3.3978,    4.0024,    4.3541,    5.4649,    6.6649,    6.9675,    7.6497,    9.5802,   11.6707,   11.5769,   12.4624,   13.9721,   14.1691,   14.9563,   16.2190,   16.5003,   17.0534,   18.0396,   17.6533,   18.3143,   19.7139,   20.4428,   20.4849,   21.4582,   22.0325,   22.2170,   22.4352,   22.1014,   21.3662,   21.4636,   22.8075,   23.8219,   23.3918,   24.5748,   25.5888,   26.9328,   27.3849,   26.8272,   25.5787,   23.7834,   24.4076,   25.8076,   24.9811,   25.5491,   26.9693,   26.8604,   27.1905,   28.6145,   30.6784,   29.7126,   29.3736,   30.3021,   31.8398,   32.9983,   32.9900,   34.2917,   36.6215,   38.2289,   38.4530,
24-SEP-2002 00:41:52.34 ,    1.6486,    1.2562,    1.1487,    2.1830,    2.3370,    3.1073,    3.4504,    3.8409,    4.2901,    5.1854,    6.2760,    6.8678,    7.2297,    8.6793,   11.5737,   11.6068,   12.3783,   13.9435,   14.3252,   15.1640,   16.2484,   16.4191,   15.6196,   16.1558,   16.9478,   17.9799,   19.1238,   20.0301,   20.4912,   20.9505,   21.9077,   22.1541,   21.8660,   21.9538,   21.7886,   21.9692,   23.2394,   24.4430,   25.1733,   25.4495,   25.0741,   26.0015,   26.0953,   26.1220,   26.3290,   24.4036,   24.9490,   25.4462,   24.0961,   25.5788,   26.5086,   26.4784,   27.5345,   28.5666,   29.9198,   29.3913,   29.1960,   31.3343,   30.4752,   31.1798,   32.0219,   34.3694,   37.4310,   37.5607,   37.1279,
24-SEP-2002 00:44:35.29 ,    1.6187,    1.3894,    1.4541,    2.1731,    2.5511,    3.3766,    3.3432,    3.6383,    3.9497,    4.7694,    6.5155,    7.9597,    8.8974,    9.6864,   11.6589,   11.7460,   11.8009,   12.6045,   13.5494,   14.4423,   15.3941,   16.3330,   13.5574,   14.1016,   14.5153,   15.6513,   16.8379,   17.3474,   17.5702,   17.6830,   18.5322,   19.1445,   19.0862,   19.1923,   19.4022,   19.2692,   20.3372,   21.5648,   21.9708,   22.1593,   21.8308,   23.1700,   24.4582,   26.1238,   24.9889,   24.3800,   24.3918,   24.8764,   24.5704,   25.4063,   26.4348,   26.3398,   28.0660,   29.7373,   30.8001,   29.9047,   29.8894,   30.9197,   31.7066,   32.9190,   33.2580,   35.0320,   37.7807,   38.4929,   38.3375,
24-SEP-2002 00:47:17.17 ,    1.1676,    1.7058,    1.8881,    2.4624,    2.7724,    3.1891,    2.5644,    3.4546,    3.7589,    4.7267,    6.2664,    7.8214,    8.6418,    9.6493,   11.3506,   11.7647,   12.1025,   12.6254,   13.1742,   14.0441,   15.2913,   16.0571,    9.7074,   10.2487,   10.5119,   10.8163,   10.9667,   10.8383,   10.6759,   10.6163,   10.8277,   11.0818,   11.3290,   11.5274,   11.2836,   11.1996,   12.3685,   13.7241,   14.1331,   14.5832,   15.5688,   18.9559,   21.4927,   25.2382,   25.8097,   24.7462,   25.0091,   25.6420,   24.5839,   25.5786,   26.6107,   26.4729,   27.7578,   30.3110,   30.9654,   30.2723,   31.7304,   32.6033,   31.1947,   31.6796,   32.8425,   34.5042,   37.1248,   38.0291,   38.3077,
24-SEP-2002 00:49:59.54 ,    1.5431,    1.8314,    2.2771,    2.3723,    2.6454,    2.6806,    2.2185,    3.3847,    3.8514,    5.1365,    7.0202,    7.9135,    8.4167,    9.3190,   11.3316,   11.7621,   11.9419,   12.6323,   13.3791,   14.4394,   15.7249,   15.8983,   15.3655,   16.0368,   15.5173,   14.6037,   14.2397,   13.8943,   13.4753,   13.3994,   13.3357,   13.1915,   12.9165,   12.7338,   12.9767,   13.3120,   13.8195,   15.5848,   15.9691,   17.3299,   20.6019,   26.4423,   26.0757,   26.4052,   25.7326,   24.9612,   24.9452,   24.8804,   24.1607,   25.2709,   25.8825,   26.9380,   27.6746,   29.4306,   31.2119,   31.4248,   30.8158,   31.2344,   31.4224,   31.0816,   33.6162,   36.5498,   37.9373,   38.8825,   39.5221,
24-SEP-2002 00:52:41.25 ,    1.7351,    1.9683,    2.3732,    2.6945,    3.4254,    3.0946,    3.2685,    3.6156,    3.7318,    4.3262,    6.6756,    7.9596,    9.1711,   11.0039,   12.1374,   11.6548,   11.8115,   12.7514,   13.8433,   15.1718,   16.1960,   16.5285,   16.0096,   16.8660,   17.6590,   18.3908,   18.4907,   18.4694,   18.6291,   19.0666,   19.4127,   19.9882,   19.8898,   20.2555,   20.6456,   21.3660,   22.4826,   23.1585,   22.8198,   23.9938,   24.9024,   25.6506,   26.5299,   25.4670,   25.3236,   23.9639,   23.8876,   24.3516,   24.2116,   24.7191,   25.6564,   26.6820,   27.4450,   29.3891,   30.9131,   30.9949,   31.2102,   31.2234,   31.0383,   31.0749,   32.7677,   34.7631,   35.7463,   37.9477,   40.4743,
24-SEP-2002 00:55:23.15 ,    1.7135,    1.7857,    1.9460,    2.6095,    3.2661,    3.2751,    2.9520,    3.4993,    3.6492,    3.9239,    5.5700,    7.0101,    8.6169,   11.3770,   12.3240,   12.1633,   12.6846,   13.6571,   14.8636,   16.0708,   16.5710,   16.9083,   16.8310,   17.1951,   17.5945,   17.6015,   16.7724,   15.9115,   14.6499,   14.0442,   14.0043,   15.9141,   16.8815,   19.6488,   21.0284,   21.2387,   22.1877,   22.9885,   22.8226,   24.0703,   24.9030,   25.3876,   26.0913,   25.2340,   25.4400,   24.8858,   23.1017,   24.2705,   24.3250,   25.8496,   26.7553,   26.5585,   26.7706,   29.2628,   30.5166,   30.8654,   31.6334,   31.6513,   31.1503,   31.4834,   32.8037,   34.7428,   36.5512,   39.8329,   39.0979,
24-SEP-2002 00:58:05.51 ,    1.8253,    1.9606,    2.4033,    2.7082,    3.1160,    3.3006,    2.3897,    3.1728,    3.4415,    3.9733,    5.2419,    6.7780,    8.7590,   10.8671,   11.4337,   11.9678,   12.3371,   13.3104,   14.6880,   15.3865,   15.8086,   16.5145,   16.3446,   17.2786,   17.0727,   16.9237,   17.3345,   17.8999,   18.3692,   18.2219,   18.1981,   18.7656,   18.7864,   18.0204,   17.7734,   18.4875,   19.6886,   20.4987,   21.2446,   20.9458,   21.2898,   22.6097,   23.5798,   24.9103,   24.8064,   24.2144,   23.3023,   24.3920,   24.4706,   24.8673,   25.6575,   26.4974,   26.7070,   27.8311,   29.6291,   31.1731,   31.2753,   31.2831,   30.9010,   32.4826,   32.7160,   35.3186,   39.0224,   40.9758,   40.9830,
24-SEP-2002 01:00:53.24 ,    1.6509,    1.9837,    2.4428,    2.9678,    3.4524,    2.8888,    1.9252,    3.1188,    3.7226,    4.1600,    4.7191,    5.9137,    8.0776,   10.2727,   10.7227,   11.2244,   11.9505,   12.7221,   14.2079,   14.8841,   14.8660,   16.2296,   15.5732,   16.1701,   15.4949,   14.4195,   14.0752,   13.2113,   12.8657,   12.9006,   13.1790,   13.5346,   13.8210,   13.1964,   12.6982,   12.7946,   13.6090,   13.9993,   14.1698,   15.0622,   15.7532,   19.5429,   21.3886,   24.3551,   25.3572,   25.6231,   24.3476,   25.4403,   25.1926,   25.3822,   25.9897,   26.5011,   26.9328,   27.9325,   29.3969,   31.8820,   33.0518,   31.6895,   30.5345,   32.1451,   32.1426,   34.4820,   36.8677,   37.7830,   39.0193,
24-SEP-2002 01:03:49.01 ,    1.4159,    2.0848,    2.4851,    3.2233,    3.4547,    2.9584,    2.2200,    3.1743,    4.0917,    4.6503,    5.5535,    6.4788,    8.2790,   10.6490,   11.3197,   11.6887,   12.3294,   12.7000,   13.5943,   14.5034,   15.1594,   16.5150,   16.1966,   16.8067,   17.2606,   18.1569,   18.9653,   20.3106,   20.9636,   21.0875,   21.1510,   21.2202,   21.0909,   20.4394,   20.1210,   20.1223,   20.5860,   21.1164,   21.6665,   22.4897,   23.0983,   24.0805,   24.1369,   25.1268,   24.9573,   25.6024,   25.0966,   24.8651,   24.9966,   26.2044,   26.3320,   26.1894,   27.2581,   27.9189,   29.4676,   31.2470,   31.7056,   31.9206,   30.9239,   31.6946,   33.2242,   36.9094,   37.7015,   38.1953,   38.5968,
24-SEP-2002 01:06:30.35 ,    1.3765,    2.1478,    2.6596,    3.2347,    3.3749,    3.4188,    3.1343,    3.1794,    3.6029,    4.2561,    5.1699,    5.5276,    6.8029,    8.8538,    9.5254,   10.7485,   11.8679,   12.2828,   12.6749,   13.7784,   15.1770,   16.3036,   16.9376,   17.0027,   18.0999,   18.9826,   19.7384,   20.5310,   20.9916,   21.1066,   21.0604,   21.5849,   21.2709,   20.1816,   20.2023,   21.0051,   20.7475,   21.8818,   22.8874,   22.2193,   22.0816,   22.8031,   23.6016,   24.0717,   24.4491,   24.4983,   23.8471,   23.4233,   23.7766,   23.9594,   26.3635,   26.1953,   26.7425,   27.6252,   29.0894,   30.2750,   31.0744,   31.5084,   30.8218,   31.7775,   33.6195,   34.2733,   37.9122,   39.2108,   37.6091,
24-SEP-2002 01:09:12.21 ,    1.7063,    2.2769,    2.7919,    3.3510,    3.5513,    3.6325,    4.1172,    4.0609,    3.5337,    3.8871,    4.6707,    5.4016,    6.6192,    8.1036,    8.6066,    9.7668,   11.6257,   12.1437,   12.7727,   13.7558,   15.0692,   16.0347,   12.3481,   13.5214,   14.6168,   15.7127,   17.0570,   17.5289,   17.6898,   18.2083,   18.7035,   19.5541,   19.1531,   17.4594,   17.4863,   17.6236,   16.2158,   20.0344,   17.7463,   19.7489,   20.7432,   20.5492,   20.4465,   21.9651,   22.2287,   23.9438,   23.7654,   24.2919,   24.0900,   24.3325,   25.5175,   26.3841,   27.3136,   28.2554,   29.8239,   31.2730,   31.1708,   32.3240,   32.7208,   32.3946,   32.3656,   34.7468,   37.4029,   38.7642,   39.5640,
24-SEP-2002 01:11:53.64 ,    1.9643,    3.0630,    4.0238,    4.6373,    4.8805,    4.6064,    5.0715,    4.6630,    4.3173,    5.2502,    6.3856,    7.6059,    9.4470,   11.0429,   10.9815,   11.1065,   11.9918,   12.1127,   13.0702,   14.0105,   15.2102,   15.9966,    7.0313,    9.0936,    9.6211,   10.1141,    9.7450,    9.6112,    9.6540,    9.6094,    9.9873,   10.2116,   10.2780,    9.1857,    9.0926,    7.0872,    3.2685,   23.4006,    5.1969,    9.2354,   12.4301,   14.3327,   13.7002,   17.7808,   19.0935,   20.6352,   20.6090,   23.2903,   24.7636,   25.3698,   25.8712,   27.0049,   27.3574,   27.8876,   29.3660,   30.5156,   30.1478,   31.8014,   32.6149,   31.9093,   32.3728,   33.8114,   35.8953,   37.7713,   39.5608,
24-SEP-2002 01:14:35.09 ,    1.7756,    2.9247,    3.9007,    4.6564,    4.5037,    4.4127,    5.1743,    4.7963,    4.8788,    5.9686,    6.7890,    8.3288,    9.4891,    9.6676,   10.3376,   11.0731,   12.1740,   12.6063,   13.4115,   14.1881,   15.2859,   16.1996,   16.5954,   16.5376,   17.1381,   17.1451,   16.1750,   15.5994,   14.4610,   12.7104,   12.5830,   13.1825,   13.2545,   12.7730,   12.3254,   11.7356,   12.0085,   13.2213,   13.7563,   14.1368,   13.8381,   25.4975,   17.8237,   21.0520,   25.5176,   25.5242,   24.5780,   24.5232,   26.0505,   25.9872,   26.3019,   26.8359,   27.3099,   28.5812,   29.6454,   31.7049,   32.0206,   32.3629,   31.9634,   31.0658,   32.1425,   34.7253,   38.3761,   40.3858,   40.0539,
24-SEP-2002 01:17:19.37 ,    1.8494,    2.2584,    2.5717,    3.4170,    3.3647,    3.1415,    4.2102,    4.6434,    5.0541,    6.0067,    7.3128,    8.1886,    9.0189,    9.8823,   10.6940,   11.4163,   12.5590,   13.4263,   13.7999,   14.2883,   15.2578,   16.5518,   15.1132,   15.9420,   16.8212,   18.9217,   20.2208,   20.9311,   21.3877,   21.3356,   22.0911,   22.6509,   22.6842,   22.2022,   21.8420,   21.2509,   20.6553,   20.9329,   20.3813,   20.6661,   20.4341,   20.0379,   20.5767,   21.7323,   25.7939,   23.9763,   25.1087,   24.0937,   24.1187,   24.9281,   25.2324,   26.2715,   27.2144,   28.2875,   30.7658,   32.2991,   31.8174,   32.7758,   32.0175,   31.7134,   32.9595,   34.6307,   37.9086,   40.2028,   40.5694,
24-SEP-2002 01:20:00.80 ,    1.6737,    1.6875,    1.8132,    2.1996,    2.8010,    2.7015,    3.2687,    3.3941,    4.1899,    6.1141,    7.4271,    7.3794,    8.5062,   10.7389,   11.1921,   11.5934,   12.2368,   12.6876,   12.9115,   13.8645,   15.5113,   16.7386,   17.6610,   16.1380,   16.8896,   17.6848,   18.1483,   18.4553,   18.6128,   18.2954,   18.5223,   19.1055,   19.1438,   17.5889,   16.5883,   15.6542,   13.8265,   12.0613,    9.4026,    9.3027,    9.7973,    9.3148,    8.6027,   12.8580,   23.7934,   20.1709,   25.7525,   23.9984,   24.2799,   25.3563,   26.1188,   26.7536,   27.9156,   28.7324,   31.6373,   32.9515,   33.1561,   34.1345,   32.4001,   31.8306,   33.4491,   35.8017,   37.2731,   39.0881,   39.0362,
24-SEP-2002 01:22:42.25 ,    2.1081,    2.2168,    2.5742,    2.6600,    3.1961,    3.5235,    3.8309,    3.4141,    3.8931,    6.1210,    6.9482,    7.0598,    8.2818,   10.7964,   11.0566,   11.2844,   12.1451,   12.5875,   12.9728,   13.7789,   15.2538,   16.3587,   15.4999,   16.6876,   16.2200,   15.1753,   14.6662,   14.0021,   12.8853,   12.8018,   12.5325,   12.7623,   13.1854,   10.5787,    8.2862,    5.9299,    5.3154,    5.5602,    5.6844,    5.6794,    5.6818,    5.7998,    3.1168,   25.8973,   24.7524,   23.9198,   23.8037,   24.5173,   25.3217,   26.2167,   25.5218,   25.9377,   27.1451,   28.8385,   30.1374,   31.4920,   32.0840,   32.6205,   32.1451,   32.0025,   33.3968,   35.4962,   37.2289,   39.7557,   40.1450,
24-SEP-2002 01:25:24.05 ,    2.3137,    2.8228,    3.3346,    3.1891,    3.8667,    4.3888,    4.0603,    4.3002,    4.8457,    6.5198,    6.5513,    6.9372,    7.8123,   10.2631,   10.8954,   11.2181,   12.1289,   12.8530,   13.3411,   13.8339,   15.0648,   16.1925,   16.7894,   16.8187,   17.3792,   18.3084,   19.5578,   19.9701,   20.2333,   21.1069,   21.5161,   21.8450,   21.1270,   20.6085,   20.4317,   21.1114,   21.7703,   22.4570,   23.0519,   23.2896,   23.1571,   23.5146,   26.1518,   27.0436,   25.5152,   20.3217,   21.8248,   22.4999,   26.2378,   26.9208,   25.9399,   25.6349,   26.5197,   28.5325,   30.2953,   31.0973,   32.0281,   33.8461,   32.5237,   31.9169,   32.9510,   34.8008,   37.7593,   39.9321,   40.8036,
24-SEP-2002 01:28:05.36 ,    2.3335,    2.7589,    3.1119,    3.1560,    3.8883,    4.3831,    3.8864,    4.3881,    4.6851,    5.1954,    5.9606,    6.6892,    7.2857,    9.9393,   11.0000,   11.4413,   12.2650,   13.0202,   13.5989,   14.2109,   15.1419,   16.0573,   16.7637,   16.1249,   17.0684,   18.6350,   19.9112,   20.2634,   21.4505,   22.0304,   22.3109,   22.1307,   20.9256,   20.6888,   21.0503,   21.8822,   22.8058,   22.6562,   23.4075,   23.1721,   23.1524,   23.2362,   23.5497,   24.8925,   26.2266,   26.2093,   25.7799,   25.3316,   25.8401,   26.5918,   26.0148,   25.2376,   26.4413,   28.6018,   29.2532,   30.5860,   32.1112,   33.6564,   32.2890,   32.9495,   33.8637,   35.0456,   37.2499,   38.0509,   39.3282,
24-SEP-2002 01:30:46.78 ,    3.1327,    3.5886,    4.0981,    4.1986,    4.4723,    4.1612,    3.3834,    3.3669,    3.6453,    4.0384,    5.1657,    6.0129,    6.8893,    9.4311,   10.6389,   11.1753,   12.0947,   12.8483,   13.4908,   14.4541,   15.1492,   15.6313,   16.6497,   15.9086,   16.7864,   17.9306,   19.0072,   20.4753,   21.6400,   21.8088,   22.2639,   21.9835,   21.4466,   21.6562,   22.1440,   23.1280,   23.5338,   23.4781,   23.6813,   23.7546,   23.5503,   23.2859,   22.9692,   23.9820,   25.7108,   26.0016,   24.5256,   24.1778,   25.9545,   26.4954,   25.8982,   25.0822,   26.7288,   28.2011,   29.2409,   30.3943,   31.4350,   32.0973,   32.0917,   32.5283,   33.4009,   36.1272,   38.1452,   38.9759,   39.6422,
24-SEP-2002 01:33:28.80 ,    3.2658,    3.7600,    4.2290,    4.2892,    4.4283,    4.3254,    4.6180,    4.4065,    4.8358,    5.7534,    6.3537,    6.5017,    7.2099,    8.9737,   10.1917,   10.9198,   11.9073,   12.4770,   13.1384,   14.1762,   15.3737,   16.3642,   14.8232,   15.4240,   16.1645,   17.6767,   18.8061,   20.6250,   21.6647,   21.7544,   21.8359,   21.5481,   21.7325,   21.6755,   21.5451,   22.5463,   23.4218,   23.9199,   23.4974,   23.5260,   22.8336,   22.8836,   23.9596,   24.9214,   26.0418,   26.2470,   23.7842,   23.3727,   25.2831,   26.7280,   26.8110,   26.7343,   27.5296,   28.6635,   28.8106,   30.3024,   30.3866,   31.1530,   32.3036,   32.8811,   34.2445,   36.6162,   38.3479,   38.5366,   39.3389,
24-SEP-2002 01:36:10.38 ,    2.1990,    2.6258,    3.0411,    3.2259,    3.9115,    4.4843,    5.0601,    4.8108,    4.7846,    5.2586,    6.0724,    7.2965,    8.3707,    8.9563,    9.8384,   10.5097,   11.6390,   12.5197,   13.5004,   14.2460,   15.3785,   16.8099,   18.1487,   16.5204,   17.3838,   18.8548,   19.9163,   20.7378,   21.4437,   21.7818,   21.8591,   21.8619,   21.7674,   21.7118,   22.3848,   23.4260,   23.8952,   24.0702,   22.9981,   23.0942,   22.8478,   23.0055,   24.2236,   25.2640,   25.5687,   25.9097,   24.6187,   25.0463,   25.5788,   26.2782,   25.6117,   26.4557,   27.4890,   30.0693,   30.9179,   32.0021,   31.3356,   33.3097,   34.1091,   34.1825,   34.7656,   37.8576,   38.5710,   39.2324,   39.7722,
24-SEP-2002 01:38:52.41 ,    2.0442,    2.2794,    2.9028,    3.1833,    3.9413,    4.2966,    4.0230,    3.6723,    3.7121,    4.8664,    5.7786,    6.8670,    7.9280,    8.9848,   10.0567,   10.6721,   11.7597,   12.4864,   13.2917,   14.2682,   15.5592,   16.4463,   17.2321,   16.5698,   17.2267,   18.5804,   19.6300,   20.1998,   20.6780,   21.4921,   21.6504,   21.5003,   20.9126,   20.9447,   20.7854,   20.8053,   20.6009,   21.0859,   20.1415,   20.1397,   20.4363,   20.3743,   21.2086,   24.9142,   24.7814,   24.4932,   25.2963,   25.4177,   26.0367,   25.9834,   26.8915,   26.4256,   26.6454,   28.8921,   30.3925,   30.8706,   32.3532,   33.7201,   33.5137,   33.8918,   32.7111,   35.0816,   37.2097,   37.2590,   38.1857,
24-SEP-2002 01:41:34.34 ,    2.8724,    3.0531,    3.3674,    3.7631,    4.0419,    4.4968,    4.3820,    4.4003,    4.7325,    6.1703,    6.8666,    7.2260,    7.9429,    9.3471,   10.7280,   11.5056,   12.1639,   12.5585,   13.2436,   14.5376,   15.8755,   16.7016,   17.3071,   16.2988,   17.6529,   18.8489,   18.9871,   19.1692,   20.0281,   20.9000,   21.3266,   21.7488,   21.5201,   21.1826,   18.4987,   17.4286,   18.0610,   17.2377,   15.8109,   13.9867,   14.0972,   14.7718,   15.5714,   26.9779,   25.2810,   21.2992,   26.3999,   26.4950,   26.3011,   26.7179,   27.1743,   26.0277,   25.4624,   27.9652,   29.4420,   31.6070,   31.1335,   32.3289,   33.2237,   33.3330,   33.1418,   34.5385,   37.1860,   36.2805,   37.7836,
24-SEP-2002 01:44:15.64 ,    2.7823,    3.1547,    3.2094,    3.7201,    3.7879,    3.3091,    3.6020,    4.4713,    4.8506,    6.3091,    6.9445,    7.7832,    8.9689,   10.0620,   10.6819,   11.5909,   12.2622,   12.5892,   13.9407,   15.2900,   15.8336,   16.9436,   15.2302,   15.9302,   17.3614,   19.0166,   19.0331,   19.3450,   19.8020,   20.1913,   20.6874,   21.2211,   20.5347,   20.3728,   19.9554,   19.5579,   20.2069,   19.5977,   19.7626,   20.0161,   20.1993,   23.3849,   22.3635,   23.7616,   24.6318,   25.1661,   24.7792,   24.2190,   25.1809,   25.9296,   25.1694,   25.3846,   25.9385,   28.6331,   29.0078,   30.1078,   31.2485,   32.5560,   33.5809,   33.3560,   32.6650,   34.7841,   37.1071,   37.8383,   39.2215,
24-SEP-2002 01:46:57.52 ,    2.4402,    2.9312,    2.9993,    3.3024,    3.2378,    2.7643,    2.8694,    3.3559,    3.9381,    6.2368,    7.1632,    7.5921,    8.2482,    9.7323,   10.4744,   11.4055,   12.3810,   12.7537,   13.6651,   14.4773,   15.1885,   16.3441,   14.9672,   15.5414,   17.0159,   18.9801,   19.5570,   19.4294,   19.5135,   19.9906,   20.2458,   20.5051,   20.1378,   20.5111,   19.1573,   15.4010,   14.4000,   14.0804,   13.4235,   13.0936,   13.5610,   23.9921,   20.1769,   24.2999,   25.7404,   25.8675,   24.7736,   24.3221,   25.0173,   26.0403,   25.6706,   25.2488,   26.0058,   28.6610,   29.9085,   30.6943,   31.0039,   32.6953,   32.2316,   32.8741,   32.9450,   34.5449,   35.6664,   36.3068,   37.8941,
24-SEP-2002 01:49:39.46 ,  -10.1453,  999.0000,  999.0000,    3.9463,    4.3138,    4.1691,    3.8451,    3.6411,    4.1966,    6.7828,    8.7823,    8.3470,    8.5121,   10.2598,   10.8269,   11.5828,   12.4421,   12.8758,   13.2549,   13.7361,   14.5964,   15.2860,   14.8281,   15.6163,   16.1650,   17.6523,   19.0311,   19.6627,   19.6737,   20.0820,   20.0183,   19.9851,   19.7150,   19.9781,   20.5212,   21.0953,   22.0786,   21.9781,   21.8882,   21.2138,   21.4665,   22.6264,   23.4130,   24.7510,   25.1774,   25.2139,   24.3899,   24.1169,   24.5372,   25.2885,   25.9552,   25.9413,   26.6819,   28.8957,   30.5718,   31.5346,   30.7575,   32.4844,   31.9714,   32.7520,   33.3460,   34.4247,   37.1059,   37.6608,   39.2697,
24-SEP-2002 01:52:21.16 ,  -12.7431,  999.0000,  999.0000,    3.7861,    4.3044,    4.1345,    3.8728,    3.7240,    4.3683,    6.5989,    8.7362,    8.6145,    8.2902,   10.3664,   10.8725,   11.5545,   12.0086,   12.2290,   12.6927,   13.3751,   14.1080,   14.6767,   14.0369,   14.6521,   15.1759,   16.9945,   18.5002,   19.2140,   19.6157,   19.4437,   19.8017,   20.1048,   19.9252,   20.2973,   20.8502,   21.3705,   21.9326,   21.9995,   22.5229,   21.9625,   22.4573,   22.7382,   23.3901,   24.1755,   24.8232,   24.7477,   23.9996,   24.4302,   24.3040,   23.7417,   25.8304,   26.1103,   26.6457,   28.8145,   31.3724,   32.5789,   31.9022,   32.2291,   31.7173,   32.3017,   33.5336,   35.2180,   36.8632,   39.0701,   40.6860,
24-SEP-2002 01:55:03.52 ,    2.7563,    2.4434,    3.2144,    3.3744,    3.6281,    4.3475,    4.0618,    3.7175,    4.1371,    5.4581,    6.6285,    7.8420,    8.4385,   10.0842,   10.5732,   11.1897,   11.7272,   12.2379,   12.7076,   13.4849,   14.3079,   14.9441,   14.3502,   14.7249,   15.5028,   17.0980,   18.1174,   18.2714,   18.9128,   19.1567,   19.4388,   20.3200,   19.6914,   19.8041,   21.4012,   21.6184,   21.4779,   22.3833,   22.7906,   22.6577,   22.2020,   22.8117,   23.9466,   24.9747,   25.5853,   25.7027,   24.8313,   24.2720,   24.5138,   24.6392,   26.2630,   26.4703,   26.3406,   27.7436,   29.6262,   30.7800,   31.7169,   32.3013,   31.3604,   32.6763,   33.4138,   35.3393,   38.7114,   39.6440,   40.7320,
24-SEP-2002 01:57:45.35 ,    2.7710,    2.9695,    3.7015,    3.6817,    3.8268,    4.6406,    4.2174,    5.2877,    5.0421,    6.4103,    7.1923,    8.3042,    9.6419,   10.3316,   10.6369,   11.0368,   11.6776,   12.4590,   13.5699,   14.9987,   15.4165,   15.7281,   10.6769,   11.1832,   11.8812,   13.3968,   14.5449,   14.8706,   15.0266,   15.3124,   15.4058,   15.2735,   15.2749,   14.6638,   16.5430,   17.9094,   18.6284,   19.5373,   19.8027,   19.5941,   19.3539,   22.6812,   23.0230,   25.5994,   25.5702,   25.3766,   25.0546,   24.6708,   24.3570,   24.6788,   25.9676,   24.7049,   25.2263,   27.4691,   29.3440,   30.1615,   31.8209,   32.6274,   32.0555,   32.7634,   33.9670,   36.1058,   38.1166,   37.9483,   39.6417,
24-SEP-2002 02:00:27.42 ,    3.0874,    3.4602,    3.7656,    3.7560,    4.0804,    4.8921,    4.3042,    5.4791,    5.3059,    6.8605,    7.5083,    8.2816,    9.7858,   10.2266,   10.4890,   11.0567,   11.5414,   11.9665,   13.5736,   15.3394,   15.5396,   16.1823,    3.9512,    4.0302,    3.9866,    3.7128,    3.4119,    3.0166,    2.7651,    2.5249,    2.3971,    2.4151,    2.4687,    1.7366,    4.5027,    6.9571,   10.5405,   11.1236,   11.1305,   12.4125,   12.6420,   24.8659,   19.4770,   24.5377,   25.7167,   25.8763,   24.8109,   24.9175,   24.3907,   25.4732,   26.0418,   25.8055,   26.3367,   27.9540,   29.4347,   31.3711,   31.5526,   31.6695,   31.7022,   32.5827,   33.4499,   35.0780,   36.5904,   38.3950,   39.7977,
24-SEP-2002 02:03:08.97 ,    2.8573,    3.3314,    3.6813,    3.8591,    4.3134,    4.8610,    4.5801,    4.1395,    4.1868,    4.8814,    6.1869,    7.8725,    9.5223,   10.3681,   10.4653,   11.0613,   11.4427,   11.8939,   12.9899,   14.1559,   14.6917,   15.9899,   15.6210,   16.4780,   17.0320,   16.3074,   15.1318,   13.9772,   12.3791,   12.1697,   12.5019,   12.6548,   12.4516,   11.9470,   12.7796,   13.0828,   13.5133,   13.7013,   13.3964,   23.2811,   17.5246,   24.3698,   23.7450,   24.7258,   25.2164,   25.5621,   23.9993,   23.8432,   24.4517,   25.0937,   24.9180,   25.5717,   25.4786,   27.3289,   29.4742,   31.4379,   31.5453,   30.9900,   32.1214,   31.8961,   31.7835,   33.8031,   36.7053,   38.1939,   39.6171,
24-SEP-2002 02:05:52.01 ,    2.6708,    2.9059,    3.4527,    3.9082,    4.3731,    4.4156,    5.7478,    5.6122,    5.6241,    6.1769,    7.2231,    8.2797,    9.6180,   10.7684,   11.2026,   11.9813,   11.8316,   12.5432,   13.1319,   13.5985,   14.4359,   16.1661,   15.1092,   16.2642,   16.8034,   18.2160,   19.1493,   19.6139,   19.7860,   20.3401,   20.6202,   20.7750,   20.7900,   20.7041,   21.6659,   22.7214,   22.3344,   21.9726,   21.2108,   20.7846,   21.2952,   21.8070,   23.5148,   24.5887,   24.8876,   25.4496,   24.3663,   24.6720,   25.1608,   25.4413,   25.6089,   25.7113,   26.7084,   27.7296,   28.7283,   30.2004,   30.8086,   30.3950,   32.0508,   31.0437,   31.9966,   33.3164,   34.5083,   37.8218,   39.4261,
24-SEP-2002 02:08:33.30 ,    2.6387,    3.0467,    3.3858,    3.7857,    4.2988,    4.2585,    6.1927,    5.9789,    6.2665,    6.8472,    7.8871,    8.0773,    9.1547,   10.4370,   11.4447,   12.5038,   12.2086,   12.9961,   13.5992,   13.9796,   14.7240,   16.2304,   17.5452,   16.1158,   16.5024,   17.5687,   18.6977,   19.0905,   19.5023,   19.6607,   20.2075,   21.0175,   20.8735,   20.0527,   20.6635,   21.9627,   22.1466,   21.9711,   21.3799,   20.0008,   20.3588,   21.5066,   23.0319,   23.7382,   23.9536,   24.2279,   23.8686,   24.8729,   24.7127,   25.5235,   26.1518,   25.8407,   25.8984,   27.3605,   28.5096,   29.9928,   31.7030,   31.3101,   31.3509,   31.9905,   33.0235,   33.8323,   36.1583,   37.8188,   39.6071,
24-SEP-2002 02:11:17.48 ,    2.5114,    2.8534,    2.9967,    2.8691,    3.2951,    4.2748,    4.4181,    4.3334,    5.1778,    6.4671,    7.7164,    7.7582,    8.6959,   10.3977,   10.8917,   11.8194,   12.1702,   12.4265,   12.9408,   13.7283,   14.8066,   16.1178,   14.4029,   15.8341,   16.7827,   17.8468,   18.9436,   19.1182,   19.4422,   19.6515,   20.4785,   21.1125,   20.9722,   21.2003,   21.5725,   21.9844,   22.0792,   21.6740,   20.5625,   20.4435,   20.5424,   20.9449,   22.5975,   24.0674,   24.6453,   24.0349,   23.5685,   24.4515,   24.1277,   23.9932,   25.1380,   24.3925,   24.9026,   25.6239,   26.5152,   28.3522,   31.3457,   32.8543,   32.1868,   32.6360,   32.9706,   33.7204,   36.8683,   36.2853,   37.4730,
24-SEP-2002 02:14:00.65 ,    2.5620,    1.7586,    1.9111,    1.9890,    2.5457,    3.5622,    3.5642,    3.6612,    4.6440,    6.2079,    7.3857,    7.4739,    8.5032,    9.8715,   10.3346,   11.1220,   11.6898,   12.0675,   12.7164,   13.5228,   14.5402,   15.7913,   16.7950,   15.6146,   16.4649,   17.7155,   18.9163,   19.2958,   19.2897,   19.1700,   19.7509,   20.0749,   20.1519,   19.8082,   20.2575,   21.6315,   21.9944,   21.5197,   20.7630,   20.9210,   21.1656,   21.7015,   21.9453,   23.2529,   24.5334,   25.4367,   24.4680,   24.5758,   24.7759,   25.2671,   25.4441,   23.9153,   25.5178,   26.9078,   26.7089,   28.4052,   31.1525,   32.2503,   32.1584,   31.8794,   33.0163,   37.0024,   35.8612,   36.5786,   37.7634,
24-SEP-2002 02:16:43.83 ,    2.3160,    1.6839,    2.3820,    2.6818,    2.9982,    3.3347,    4.1013,    3.8056,    4.4568,    5.7648,    7.0239,    7.3200,    8.4220,    9.3467,   10.0793,   11.1030,   11.8978,   12.4106,   13.2931,   13.9432,   14.4765,   15.7011,   14.4083,   15.3557,   16.5836,   17.8585,   18.8503,   19.1264,   19.1070,   19.8202,   20.6892,   20.4324,   19.3508,   18.9471,   20.3529,   21.3655,   21.8204,   20.7990,   20.4013,   21.6592,   22.2007,   22.1846,   22.7321,   24.2314,   25.4866,   26.0839,   24.9946,   25.2222,   25.4857,   26.0703,   26.0715,   25.2767,   26.6978,   26.8491,   26.7401,   28.4529,   30.9512,   32.3441,   32.3287,   31.1213,   31.0644,   32.1342,   34.9466,   36.4916,   37.9263,
24-SEP-2002 02:21:34.98 ,  999.0000,  999.0000,  999.0000,    4.0645,    3.6054,    3.7719,    5.2101,    4.7368,    5.3184,    6.8678,    7.7244,    8.2673,    9.3876,   10.2536,   11.0762,   12.2145,   13.3486,   13.7690,   14.6150,   15.4781,   15.6762,   16.5675,   14.5747,   16.0324,   17.5398,   18.1678,   18.9473,   19.4523,   19.9602,   20.4329,   21.0574,   21.0073,   19.9058,   19.8456,   21.1683,   22.4886,   21.6772,   21.1387,   21.8745,   22.0171,   21.7162,   21.4971,   22.4335,   23.2812,   24.4716,   24.9047,   25.0140,   25.4345,   25.4114,   25.0781,   25.4373,   25.1172,   25.4326,   25.9094,   26.1931,   27.3850,   29.7987,   31.8991,   31.9203,   30.4068,   31.3093,   32.3202,   33.4218,   36.4396,   37.8099,
24-SEP-2002 02:24:16.75 ,  999.0000,  999.0000,  999.0000,    4.4290,    4.1874,    4.6658,    5.5605,    5.2632,    5.6239,    6.8322,    8.5811,    9.6708,   10.4589,   10.8226,   11.3577,   11.9944,   13.0209,   13.9402,   14.5551,   15.2734,   15.7538,   16.7335,   17.7976,   16.6987,   18.4332,   18.4731,   19.1376,   19.8255,   20.3835,   20.7930,   21.1041,   20.5351,   19.5142,   19.8510,   21.8490,   22.6401,   21.7030,   21.1177,   21.0489,   21.3368,   21.6690,   21.4284,   21.6305,   22.4786,   24.2890,   25.2578,   24.5188,   24.9361,   25.6395,   24.8597,   26.0238,   25.8425,   25.6157,   26.0181,   27.2164,   30.0013,   29.4236,   30.9848,   32.5242,   33.0159,   32.8994,   33.5566,   34.9229,   37.8994,   39.1637,
24-SEP-2002 02:26:59.20 ,    2.9723,    3.6584,    4.3545,    4.6492,    4.7385,    5.3216,    5.6756,    5.7726,    6.2778,    7.7717,    9.1393,   10.1630,   10.9918,   11.2320,   11.6662,   12.0081,   12.6631,   13.7217,   14.2362,   14.6027,   15.4481,   16.5510,   15.5656,   16.6392,   17.4775,   18.4365,   19.2072,   19.9349,   20.5487,   20.6897,   20.6958,   20.2143,   19.8715,   20.9537,   22.0281,   22.3152,   21.5766,   21.7321,   21.5997,   21.5979,   21.8326,   21.0319,   20.6315,   21.9764,   23.4124,   24.7567,   23.6496,   23.8241,   24.2937,   24.3226,   24.1808,   24.1937,   25.2096,   26.4589,   26.1697,   26.8498,   29.7239,   31.4673,   31.7737,   33.2105,   33.0783,   33.7219,   36.1498,   37.4814,   39.0518,
24-SEP-2002 02:29:42.94 ,    2.8069,    3.3469,    3.6982,    3.9161,    4.4433,    4.8583,    5.1399,    5.8222,    7.0174,    8.5635,    9.0664,    9.2876,   10.0123,   10.9106,   11.9498,   12.2860,   12.4052,   13.2250,   14.1509,   14.6375,   15.3253,   16.2924,   17.3435,   16.9503,   17.5083,   19.1646,   19.9995,   19.5801,   19.9128,   20.2936,   20.5239,   19.9658,   19.8195,   20.5257,   21.7009,   22.3094,   21.6288,   21.6615,   21.2233,   20.4879,   20.6011,   20.8553,   21.5981,   22.8019,   23.8231,   24.5366,   23.8534,   23.2741,   23.5597,   24.9199,   24.8803,   24.5851,   25.4181,   25.5011,   26.1119,   27.0553,   29.6405,   31.3851,   32.8314,   32.8311,   32.7106,   33.7771,   34.8497,   36.2190,   37.6217,
24-SEP-2002 02:32:24.54 ,    2.7541,    2.8673,    2.9045,    3.1355,    3.5921,    4.0045,    5.0695,    5.4814,    6.6061,    7.9569,    7.9318,    8.6004,    9.8456,   10.5501,   11.8305,   12.3063,   12.6229,   13.2049,   14.3173,   15.5292,   16.0712,   16.4781,   17.4772,   18.7467,   18.0475,   18.9528,   19.9999,   20.0976,   20.3978,   21.0618,   21.2497,   20.8718,   20.4988,   21.2024,   22.1886,   22.6750,   22.0313,   21.2040,   21.0594,   21.1280,   20.7831,   20.4140,   21.1520,   22.0873,   23.3532,   24.2673,   23.8876,   23.6956,   23.8725,   25.0554,   25.3531,   25.3428,   25.6381,   26.5375,   27.0898,   27.5799,   30.3392,   31.9638,   32.3602,   32.4389,   34.0725,   34.4805,   35.1001,   37.1086,   38.4059,
24-SEP-2002 02:35:06.48 ,    4.6074,    4.8322,    5.2476,    5.5312,    5.5237,    5.8424,    6.7512,    6.4752,    7.0985,    8.2842,    8.3223,    9.1826,   10.6793,   10.5801,   11.5822,   12.2438,   13.0685,   13.7124,   14.4661,   15.5494,   15.8691,   16.1751,   16.5281,   17.9264,   18.3435,   19.2288,   19.9916,   20.2955,   20.9768,   22.1135,   21.7207,   21.3550,   21.6819,   21.7569,   21.2117,   21.6171,   22.2311,   21.6552,   20.9252,   20.7974,   20.4194,   20.7423,   21.5425,   22.4855,   23.6729,   24.0793,   23.9933,   24.2236,   25.2853,   25.4609,   25.5792,   25.5968,   25.7505,   25.0586,   25.6552,   26.7423,   30.5253,   31.6711,   31.5881,   32.1063,   34.2926,   34.4664,   35.2054,   36.7024,   37.7265,
24-SEP-2002 02:37:47.96 ,    5.3823,    5.9263,    6.4170,    6.7677,    6.5393,    6.5361,    6.9527,    6.6579,    7.7919,    8.3919,    8.2946,    8.7740,   10.3452,   11.2206,   11.9702,   12.7935,   13.5191,   13.8131,   14.3932,   14.8314,   14.9015,   15.9154,   16.1933,   17.6759,   18.8083,   19.4045,   19.6204,   20.3981,   20.9560,   21.7203,   21.4148,   21.0859,   21.1256,   22.2573,   22.7023,   22.0656,   21.7782,   21.5064,   20.7087,   20.2017,   20.1246,   21.3711,   22.0687,   23.0060,   23.9527,   23.7681,   22.8311,   24.0429,   25.3088,   26.2772,   26.5455,   26.3426,   26.6332,   26.3188,   26.9402,   28.4518,   29.7866,   31.6671,   31.5302,   32.0863,   33.1085,   33.7443,   34.7843,   37.0041,   38.4289,
24-SEP-2002 02:40:29.45 ,    2.6933,    3.4002,    4.1745,    4.3921,    3.8491,    3.8157,    4.2494,    5.2236,    7.0494,    8.2319,    7.8558,    7.6190,    9.4214,   11.1534,   12.2816,   13.4858,   14.3241,   14.4283,   14.6418,   14.5748,   14.7490,   16.1871,   15.7007,   17.3638,   18.7416,   19.4800,   20.1147,   20.4224,   20.1512,   20.4759,   19.8823,   20.3676,   20.1023,   21.2024,   22.7109,   22.8432,   22.9145,   21.7437,   21.2343,   21.2098,   21.1679,   22.1285,   22.3014,   23.1422,   24.3261,   26.0183,   25.1574,   25.0374,   25.0425,   26.2641,   27.3804,   26.3200,   26.7901,   26.0768,   27.3357,   28.7019,   29.5789,   31.6416,   30.5209,   31.4245,   31.5592,   33.7586,   34.8176,   36.3395,   37.2142,
24-SEP-2002 02:43:11.12 ,    2.5570,    3.2021,    4.0213,    4.2552,    3.8568,    4.2167,    4.3719,    5.7146,    6.8618,    8.5299,    8.2174,    9.0545,   11.0201,   11.5410,   12.2015,   13.4277,   14.3052,   14.5987,   14.8623,   15.0662,   15.5245,   16.5586,   17.9289,   17.3920,   18.1052,   19.1625,   19.9744,   20.3381,   20.4655,   20.8406,   20.5963,   20.5663,   20.6134,   21.4039,   22.6972,   23.1993,   23.0382,   21.4754,   21.3060,   21.2901,   20.8352,   22.0427,   22.5195,   22.6519,   24.4155,   25.1083,   24.8068,   25.1211,   25.0514,   25.2472,   25.7762,   25.7512,   26.2670,   26.6059,   27.0440,   27.6873,   28.7184,   30.7280,   32.4157,   32.2770,   32.5608,   33.2448,   33.9702,   35.6691,   37.2348,
24-SEP-2002 02:45:53.54 ,    2.4243,    2.9483,    3.4660,    3.6986,    3.1232,    3.9380,    4.2406,    4.0942,    4.6616,    6.0391,    6.5953,    8.8209,   11.3098,   11.2354,   11.8068,   13.2312,   13.8640,   14.2582,   14.8799,   15.5439,   16.1420,   16.8401,   18.0593,   16.8226,   17.8892,   19.0229,   19.5516,   19.6345,   19.8516,   20.2896,   20.4039,   20.4837,   20.5462,   21.1118,   21.4077,   21.6389,   22.4421,   21.3433,   21.2219,   20.9373,   20.6873,   21.1319,   22.0282,   22.9992,   24.7768,   24.4685,   24.4265,   24.5027,   24.3481,   24.3629,   25.3620,   25.7261,   26.0893,   25.1778,   26.4787,   27.5189,   28.2749,   31.5406,   32.1556,   31.6267,   32.3056,   32.5950,   33.5818,   35.7502,   36.7309,
24-SEP-2002 02:48:36.29 ,    2.6807,    3.3821,    3.3476,    3.5771,    2.7114,    2.9921,    3.2303,    3.3910,    3.7975,    5.1531,    6.2758,    7.2410,    9.5399,   10.3340,   11.3804,   12.3775,   13.3760,   14.1539,   14.8192,   15.6540,   16.1498,   16.7014,   14.9485,   15.7133,   17.3542,   18.2989,   18.5004,   19.4714,   19.9717,   20.0039,   19.9260,   19.4574,   19.8408,   20.5868,   21.1103,   21.4871,   20.9393,   20.6501,   20.8516,   19.9906,   20.0150,   20.5411,   21.1832,   22.0237,   23.0761,   23.9587,   24.0556,   23.2792,   22.9572,   24.6289,   25.7885,   25.3876,   25.1545,   24.6528,   27.4437,   28.5832,   27.4218,   31.1098,   32.5630,   33.0095,   31.8863,   32.5586,   34.6904,   35.4091,   36.7715,
24-SEP-2002 02:51:20.00 ,    2.7420,    3.1010,    3.1399,    3.4268,    2.8907,    2.9204,    3.5163,    3.5383,    4.0588,    5.6695,    6.4418,    6.8880,    8.5202,   10.3384,   11.5461,   11.5846,   12.8881,   13.9411,   14.5401,   15.4503,   16.2208,   16.6097,   15.4286,   15.8622,   17.2786,   17.9569,   18.5476,   19.6856,   19.8949,   19.6029,   19.2661,   19.0297,   20.2182,   20.7510,   21.5351,   21.6324,   20.4677,   20.0639,   20.2260,   20.3863,   20.7136,   20.5182,   20.8670,   22.0187,   24.2980,   24.7066,   24.7527,   24.9595,   24.3639,   23.9511,   24.6274,   24.4400,   25.3219,   25.3655,   26.4917,   28.0353,   28.7193,   30.5661,   31.6093,   31.8214,   31.2126,   31.1061,   33.3511,   35.1667,   36.9221,
24-SEP-2002 02:54:01.42 ,    2.1211,    2.2283,    2.9155,    3.1556,    2.7971,    3.2733,    3.9014,    3.8888,    4.3960,    5.5356,    5.9801,    6.6160,    7.6896,    9.5029,   10.8098,   11.0679,   11.8018,   13.0679,   13.9742,   14.5293,   15.2843,   15.7961,   15.2957,   15.7133,   16.6559,   17.6136,   18.4908,   19.6318,   20.0079,   19.9061,   19.6228,   19.6282,   19.8384,   20.4852,   21.5564,   21.3790,   21.1358,   20.9400,   20.2199,   19.0417,   19.4185,   19.8110,   20.9913,   22.8454,   24.1930,   24.7080,   24.2894,   24.9459,   25.4212,   25.3283,   24.9217,   25.1604,   24.8660,   24.9717,   26.6890,   28.6888,   28.9462,   29.6772,   30.2703,   30.7304,   30.9288,   30.5559,   32.7074,   34.3135,   35.4986,
24-SEP-2002 02:56:44.49 ,    1.8329,    2.3140,    2.7790,    3.2412,    2.9284,    3.3022,    3.5057,    3.7104,    4.4695,    5.7909,    5.9557,    6.3094,    7.2123,    9.0320,    9.9930,   10.5072,   11.3662,   13.0728,   14.0767,   14.5034,   14.9270,   15.4302,   15.0670,   15.9102,   17.2371,   18.1603,   18.9925,   20.2083,   20.3704,   19.4566,   18.6195,   19.3215,   20.2055,   20.4635,   21.4117,   21.3405,   20.9757,   20.7167,   20.6348,   20.2925,   20.0061,   20.5122,   20.7922,   22.0917,   23.7843,   24.4291,   24.1452,   23.9759,   24.3482,   24.4475,   24.5489,   24.8066,   25.7832,   25.7461,   25.9257,   27.0926,   29.2732,   30.4878,   31.5796,   31.4564,   32.0015,   31.1597,   32.4017,   33.8179,   36.4879,
24-SEP-2002 02:59:26.81 ,    2.4842,    2.2784,    2.4321,    2.8485,    2.9811,    3.9246,    3.1481,    3.3685,    4.0531,    5.3113,    5.2917,    6.0720,    8.2401,    9.7461,   10.4042,   11.0739,   12.0988,   13.3245,   14.0335,   14.5696,   15.2310,   16.1355,   17.1927,   18.3115,   17.3966,   18.3188,   19.1734,   19.9733,   19.9057,   19.4434,   19.1696,   19.3821,   19.3803,   19.9192,   21.4043,   21.5274,   20.9664,   20.3244,   20.4377,   20.6381,   19.5470,   19.9645,   20.2528,   21.4458,   24.0751,   25.5822,   26.1131,   25.0619,   24.8947,   24.8372,   25.3741,   26.2648,   26.4874,   25.6996,   26.7647,   27.3102,   28.7756,   31.2064,   32.5382,   31.0148,   31.0276,   31.4957,   33.5345,   33.8794,   36.3263,
24-SEP-2002 03:02:08.87 ,    2.5754,    2.4982,    2.5358,    2.9303,    2.9436,    4.5049,    3.6572,    3.7668,    4.5175,    5.7556,    5.5950,    6.4774,    8.9091,    9.9349,   10.4309,   11.1887,   11.8789,   12.6575,   13.6128,   14.4121,   14.9719,   16.0500,   17.3535,   18.3585,   16.9671,   18.0993,   18.9920,   19.4759,   19.9897,   19.7649,   19.3365,   19.3877,   19.5316,   20.0578,   21.3630,   21.4599,   20.4486,   19.9892,   20.2263,   20.0728,   20.4249,   21.1611,   21.9006,   23.1028,   24.0693,   24.8866,   25.8336,   25.0133,   25.2884,   24.8424,   24.8501,   25.5510,   25.4630,   24.9173,   27.7856,   26.7559,   29.0649,   30.8616,   32.0640,   32.0147,   31.5901,   31.8389,   33.0771,   33.9960,   35.5041,
24-SEP-2002 03:04:50.34 ,    2.0899,    2.9910,    3.4109,    4.0107,    3.3990,    4.3167,    4.3776,    5.0760,    6.0983,    7.2469,    6.9106,    6.9845,    8.4557,    9.7319,   10.5431,   11.0071,   11.8630,   12.7092,   13.7343,   14.4373,   14.8054,   15.6583,   14.3912,   15.5386,   16.8606,   17.8247,   18.9339,   19.5624,   19.4228,   19.1672,   19.1919,   19.5046,   20.0862,   20.7378,   21.7870,   22.3690,   21.3135,   20.9341,   20.5691,   20.0641,   20.8146,   21.3716,   22.3959,   22.5130,   24.5618,   25.6630,   25.3306,   24.3052,   24.4399,   24.8646,   25.0778,   25.2094,   25.0731,   25.4623,   25.4568,   26.5865,   27.7642,   31.0783,   32.2329,   31.6231,   31.0679,   31.4108,   32.3244,   33.9115,   36.2371,
24-SEP-2002 03:07:32.37 ,    2.1758,    3.0166,    3.9569,    4.5648,    3.9643,    3.6967,    4.1061,    5.1683,    6.1101,    6.9452,    7.5702,    8.4944,    9.5181,   10.5180,   10.9324,   11.2600,   12.4372,   13.1893,   13.5611,   13.7512,   14.0572,   15.1372,   16.6817,   18.2564,   17.1904,   17.9880,   18.6297,   19.5919,   20.0517,   19.5947,   19.0492,   19.2578,   19.9247,   20.5298,   21.6068,   21.9827,   21.2215,   20.3471,   20.6249,   18.6445,   18.9195,   18.4002,   18.9804,   20.2505,   21.6532,   22.6958,   23.1988,   21.4415,   21.1142,   22.6323,   23.7532,   23.8337,   24.5613,   26.9389,   24.8714,   26.3611,   27.7096,   30.2018,   31.0573,   31.3510,   31.7244,   32.7098,   32.6970,   33.0910,   35.2243,
24-SEP-2002 03:10:13.98 ,    1.2899,    1.9041,    2.9795,    3.2684,    3.3755,    3.4830,    3.6004,    4.6670,    5.7391,    7.0497,    8.6766,    9.3957,    9.6607,   10.0668,   10.7021,   11.6237,   12.4868,   13.6259,   13.7039,   13.3427,   13.9214,   15.2307,   14.6118,   15.5585,   16.7126,   17.6069,   18.5244,   19.5170,   19.9516,   19.1496,   18.7006,   19.5410,   19.8014,   20.2541,   21.1040,   21.8672,   22.1490,   20.0466,   21.3827,   13.5932,   13.2012,   13.8472,   13.9601,   14.3959,   15.8613,   16.5834,   16.8537,   16.7753,   16.2060,   16.1796,   18.1408,   18.8401,   21.9846,   26.4217,   24.2596,   26.1022,   28.2633,   29.9110,   31.0110,   30.7174,   31.3460,   31.6450,   33.1178,   35.0021,   36.7582,
24-SEP-2002 03:12:56.25 ,    1.2223,    1.6174,    2.3021,    2.8268,    2.4678,    3.5308,    3.6005,    4.5428,    5.5670,    6.7381,    7.6244,    8.0175,    8.7168,    9.2518,   10.4062,   11.3700,   11.9684,   13.1030,   13.2975,   13.4652,   14.5160,   15.7052,   16.9170,   18.0933,   16.9422,   18.2431,   19.0777,   19.3481,   18.9413,   18.5914,   18.7506,   19.4708,   19.8661,   20.6363,   21.4517,   21.7261,   22.0115,   21.8376,   20.9764,   20.3884,   20.5419,   20.8853,   21.7651,   23.3282,   23.9294,   25.1346,   25.2756,   25.1838,   25.4764,   25.8847,   24.9753,   26.0306,   26.0807,   25.8985,   26.4705,   26.9445,   28.2140,   29.7879,   31.3942,   31.5316,   32.4804,   33.9367,   36.0905,   36.4600,   37.9232,
24-SEP-2002 03:15:39.43 ,    2.4940,    2.7824,    3.3845,    3.2112,    2.6791,    3.3535,    3.8455,    4.0319,    4.9723,    5.2696,    5.0929,    6.7218,    8.0600,    8.7361,    9.6617,   10.4020,   11.4399,   12.6497,   13.1062,   13.6577,   14.0979,   14.8494,   14.6292,   14.7402,   15.5767,   17.4112,   18.7747,   19.2623,   19.2596,   18.7360,   18.6446,   19.3921,   19.9381,   20.6060,   21.2908,   21.7191,   22.1197,   21.6617,   20.2697,   20.4273,   20.3986,   20.6600,   20.9623,   22.9070,   23.9848,   25.0992,   25.3611,   24.6191,   25.3228,   25.4487,   25.2109,   25.8865,   26.4577,   26.4976,   26.4130,   25.4142,   26.7730,   29.5388,   30.1583,   30.7484,   32.8168,   34.6055,   35.5613,   36.0088,   37.7589,
24-SEP-2002 03:18:25.00 ,    3.8499,    3.6555,    3.8405,    3.4068,    3.1803,    3.8187,    3.8833,    3.9259,    4.7218,    4.9290,    5.0315,    6.9106,    8.1781,    8.5660,    9.4302,   10.8029,   11.9741,   12.5982,   13.0371,   13.3724,   13.3574,   14.1278,   13.7716,   13.9388,   14.5706,   16.6385,   18.4949,   19.2908,   19.8006,   19.1901,   18.9338,   19.0850,   19.9053,   20.6247,   21.4850,   21.6636,   21.5579,   20.9178,   20.7266,   20.8590,   21.3704,   21.6733,   22.2703,   23.1244,   24.3023,   25.3726,   24.6448,   24.1177,   24.4195,   23.8579,   23.9150,   25.4977,   25.9615,   25.2622,   24.0952,   24.7324,   26.2391,   29.7732,   31.8626,   31.8854,   32.8012,   34.2561,   34.2440,   36.3057,   37.4920,
24-SEP-2002 03:21:06.24 ,    3.0029,    2.9388,    2.6208,    2.7335,    3.3858,    3.4091,    3.0554,    3.6943,    3.7584,    5.2112,    5.3254,    6.4759,    7.6814,    8.8514,   10.1790,   11.2406,   12.2814,   12.4396,   12.7634,   13.1611,   13.3413,   13.9849,   13.7322,   14.7269,   15.6672,   16.7384,   18.0846,   18.9308,   19.3819,   18.6837,   18.3005,   18.5810,   19.9296,   20.7787,   21.6739,   20.9676,   20.4759,   20.2368,   20.7534,   20.6916,   21.1045,   20.8746,   21.5204,   22.3398,   24.3540,   24.3649,   23.7260,   23.5087,   25.1324,   24.5679,   25.0255,   25.6828,   26.0559,   25.5856,   24.9714,   25.0958,   27.0881,   29.8280,   30.7118,   31.5443,   32.3525,   33.9608,   34.5861,   35.5919,   37.4924,
24-SEP-2002 03:23:47.93 ,    1.9331,    2.3436,    2.5911,    2.6987,    3.2485,    3.2157,    2.9755,    3.7818,    4.0651,    5.7342,    6.1979,    6.8776,    7.5227,    9.2234,   10.4736,   11.2131,   12.0528,   12.3881,   13.1651,   13.7474,   13.8561,   14.3277,   13.9195,   14.4208,   15.2594,   16.8290,   18.0731,   19.2792,   19.5878,   19.1929,   19.0331,   19.4658,   20.1882,   21.0963,   22.0392,   22.4604,   22.4868,   21.8453,   21.0621,   19.9484,   20.3340,   20.4122,   21.8690,   22.1657,   24.7111,   25.2026,   23.8908,   23.5886,   24.5907,   25.1643,   25.4966,   25.4040,   25.8117,   26.5059,   24.7466,   25.8269,   26.6115,   28.0334,   29.1765,   31.3445,   32.8419,   33.4840,   35.9347,   37.1321,   38.3864,
24-SEP-2002 03:26:29.30 ,    0.9315,    1.1954,    1.5087,    2.2130,    2.4331,    2.3385,    2.7554,    3.3461,    4.5061,    6.1925,    6.7746,    6.8744,    7.3830,    8.8415,    9.8840,   10.9731,   11.6717,   12.1334,   13.2280,   13.8136,   13.7896,   14.6107,   14.1443,   15.0556,   16.5238,   18.0702,   18.3476,   19.2647,   19.8264,   19.3081,   19.1844,   19.9151,   20.5853,   21.7242,   22.6001,   22.5781,   21.4612,   19.2065,   17.8837,   17.4746,   17.7998,   18.0668,   19.7657,   20.4857,   21.0018,   21.4264,   20.4048,   22.0432,   23.4703,   24.0658,   24.9087,   25.9290,   27.6520,   27.2979,   26.0849,   27.5994,   28.5655,   30.9346,   31.9475,   31.9477,   33.5451,   33.7846,   35.8960,   37.2078,   38.9894,
24-SEP-2002 03:29:10.78 ,    1.0976,    1.8124,    1.8777,    2.2402,    2.6087,    2.3072,    2.5579,    2.8796,    3.5466,    4.9402,    5.6436,    5.9219,    6.8363,    8.4501,    9.8240,   10.5809,   11.7786,   12.5532,   13.2377,   13.2437,   13.3218,   14.3977,   13.9711,   14.6043,   16.0562,   16.7257,   17.8769,   19.4197,   18.9430,   18.4672,   18.9608,   20.3335,   21.2431,   21.7922,   22.6107,   22.4842,   19.5754,   14.3537,   12.5176,   13.1344,   13.5954,   13.9779,   13.7256,   13.8130,   14.1452,   15.5239,   15.8710,   18.4916,   20.9810,   21.8510,   24.5920,   24.8744,   26.5007,   27.0491,   26.5921,   26.9499,   28.3443,   30.0398,   30.4986,   31.2133,   32.5302,   33.7096,   37.9806,   39.2798,   40.6290,
24-SEP-2002 03:31:53.27 ,    2.2479,    3.3822,    3.3050,    2.5294,    2.9694,    3.1069,    2.8880,    3.1898,    3.6140,    4.8760,    5.8432,    6.9274,    8.0078,    9.0016,   10.0107,   10.2972,   11.8416,   12.7284,   13.2038,   13.0439,   13.1322,   13.7570,   13.3000,   13.8110,   14.9473,   15.5925,   17.5767,   19.4952,   19.2950,   18.6534,   19.2619,   20.5987,   21.1055,   20.4692,   22.2365,   21.1101,   20.4477,   18.7905,   18.8054,   19.0483,   19.1388,   19.5719,   20.7260,   21.9872,   23.2978,   24.5595,   25.0051,   24.5066,   24.8487,   25.6566,   25.5004,   25.7782,   27.7260,   28.9130,   26.9742,   27.7126,   28.3867,   30.0632,   31.1901,   31.8489,   32.9399,   33.9251,   35.7780,   36.0281,   37.1748,
24-SEP-2002 03:34:34.79 ,    2.4296,    2.5335,    2.6708,    2.3739,    2.7205,    2.8479,    2.6060,    3.0699,    4.1147,    5.1568,    6.0001,    7.6705,    8.6831,    8.9604,    9.2233,    9.8291,   11.2455,   12.3412,   12.8930,   13.0892,   13.2528,   13.8299,   13.1859,   13.5836,   14.6961,   16.2901,   17.5124,   18.4675,   18.8052,   18.1736,   18.5607,   19.1548,   18.8630,   23.3311,   16.9243,   13.1182,   11.8902,   11.0214,   11.1757,   12.2353,   12.7511,   13.4530,   17.4640,   20.4847,   23.4341,   26.0093,   26.1162,   24.4507,   24.2700,   25.4019,   25.2229,   25.8090,   27.0906,   26.8750,   26.3172,   27.0300,   27.3909,   30.9116,   31.7822,   32.1794,   32.5227,   34.2199,   35.7330,   35.4305,   36.7507,
24-SEP-2002 03:37:16.23 ,    2.8394,    2.0871,    2.5911,    2.0921,    2.5746,    2.5015,    2.4838,    2.9769,    4.1540,    4.9641,    5.5102,    6.7499,    7.5990,    8.0528,    8.5620,    9.0294,   10.1449,   11.5667,   12.6796,   12.9220,   13.0945,   13.8973,   12.9298,   13.4836,   15.0008,   16.3160,   17.1226,   18.2407,   18.8958,   18.0864,   16.8075,   15.6743,   14.6792,   13.7305,   13.6503,   14.4048,   14.3466,   14.5352,   14.4360,   17.4182,   19.0634,   20.5730,   23.1013,   23.6709,   24.1996,   25.3289,   25.0466,   24.2419,   25.1922,   26.1630,   26.3579,   26.1587,   25.9473,   26.3310,   26.3505,   26.8765,   27.7127,   29.0986,   30.2772,   31.5283,   32.1155,   32.6597,   33.7151,   34.2165,   36.1051,
24-SEP-2002 03:39:58.25 ,    2.1717,    1.6623,    2.3643,    1.7255,    2.1208,    2.1738,    2.4059,    3.1620,    4.7218,    5.0404,    5.1453,    6.5815,    7.3832,    7.9678,    8.5230,    9.0151,   10.5217,   11.9598,   12.9003,   13.0205,   13.1313,   13.9205,   12.3330,   13.1408,   15.0684,   16.5196,   17.4669,   18.5738,   19.4782,   19.0354,   18.7502,   19.2400,   20.0292,   20.7872,   21.6088,   21.8963,   21.9898,   21.7282,   21.6475,   21.0689,   21.5439,   21.1917,   22.4955,   23.3179,   25.0258,   26.7624,   25.2054,   25.6925,   26.1823,   26.5924,   25.5882,   25.0933,   26.2758,   26.0615,   26.5571,   26.5105,   27.3676,   28.4664,   30.5753,   31.2532,   33.0293,   34.2195,   34.9721,   35.0909,   36.7901,
24-SEP-2002 03:42:39.94 ,    2.1067,    2.2487,    2.5420,    2.3339,    2.3838,    2.6490,    2.9981,    3.4806,    5.2442,    4.9104,    4.4854,    6.2274,    7.6333,    7.9165,    8.2535,    9.1958,   10.7605,   12.4328,   13.2379,   13.4200,   13.7500,   14.0083,   15.3863,   17.4080,   18.5688,   18.1675,   18.7659,   19.0124,   19.4877,   19.0494,   18.5931,   18.7381,   19.9735,   21.4008,   22.2195,   22.5412,   22.3792,   22.4484,   22.6042,   21.9436,   21.5321,   22.6008,   22.8930,   24.0635,   25.3708,   25.2793,   23.7740,   24.5831,   24.7099,   25.2593,   24.9399,   24.5758,   24.9616,   25.1669,   26.4901,   27.4088,   27.3141,   29.4858,   31.5143,   32.6382,   33.0596,   33.0987,   33.8843,   34.9644,   36.5845,
24-SEP-2002 03:45:22.36 ,    2.5950,    2.8537,    3.0233,    2.6443,    2.7052,    2.8391,    3.3362,    3.4257,    4.3942,    4.3909,    4.0528,    5.8954,    8.0329,    8.1179,    8.3158,    9.1531,   10.2300,   11.8936,   13.1324,   13.2436,   13.6600,   14.3734,   15.9627,   15.0680,   16.6552,   18.3890,   19.0914,   19.5865,   19.5406,   19.0547,   19.0799,   20.2143,   21.4943,   21.7979,   22.2147,   22.7760,   22.7066,   22.3130,   22.1560,   21.9869,   21.7681,   21.6759,   22.4424,   23.9581,   24.1931,   24.6596,   23.9367,   24.2642,   24.1301,   24.5445,   23.7360,   23.3585,   23.8958,   24.3529,   25.4080,   27.1191,   26.2397,   28.6726,   30.6230,   32.7365,   33.6364,   34.4752,   34.8460,   34.5183,   36.6578,
24-SEP-2002 03:48:04.17 ,    2.6319,    2.2451,    2.3768,    2.1137,    2.2196,    2.6538,    2.8489,    3.1378,    3.7830,    4.2616,    4.0315,    5.6647,    7.7071,    7.8724,    8.2442,    8.9922,   10.2095,   11.7282,   12.6969,   13.1681,   13.5876,   14.9149,   12.8484,   14.1516,   15.5874,   17.0257,   19.0058,   20.0368,   19.1125,   18.4051,   18.8829,   20.0465,   21.2404,   21.7316,   22.8620,   23.5039,   23.0586,   21.9200,   21.3188,   22.0259,   22.3267,   21.8928,   22.4311,   23.1826,   24.0069,   25.0855,   24.5939,   24.2899,   24.6829,   24.5343,   23.4989,   23.9210,   23.4717,   23.4739,   24.4386,   24.4708,   26.4366,   28.4225,   29.3710,   29.6274,   30.7849,   33.1681,   32.6530,   33.5859,   35.1483,
24-SEP-2002 03:50:46.20 ,    1.5808,    0.4558,   -0.1592,   -0.4343,   -0.4506,    0.2818,    0.9698,    2.0693,    3.3002,    4.5192,    4.3264,    5.8254,    7.3643,    7.6852,    8.1684,    9.1420,   10.4574,   11.6073,   12.2613,   12.8672,   13.7682,   15.2620,   17.0635,   15.8741,   16.7422,   18.3078,   19.5750,   20.0780,   19.1176,   18.2768,   18.7616,   20.2357,   21.1603,   22.0213,   22.5742,   22.3684,   23.0693,   22.8389,   21.9819,   21.8860,   22.2738,   21.5944,   21.7193,   22.7008,   24.0391,   24.1536,   23.6252,   23.9736,   23.6925,   23.3848,   23.9846,   23.8065,   21.6236,   23.1335,   25.0447,   24.7353,   27.1828,   29.9797,   29.4514,   29.4086,   31.3545,   33.2453,   32.9627,   33.8342,   34.1500,
24-SEP-2002 03:53:27.64 ,    0.2313,   -0.1945,   -0.7928,   -1.2254,   -1.2207,   -0.4590,    0.6542,    2.2476,    3.7912,    4.5219,    4.8722,    6.5574,    7.5819,    7.9284,    8.5013,    9.5620,   10.5955,   11.8627,   12.8198,   12.8651,   14.1762,   16.3574,   17.6762,   18.6495,   14.0252,   18.0361,   19.3831,   20.1679,   19.7725,   19.0343,   18.7980,   19.5477,   19.7528,   19.7961,   20.2305,   19.6343,   19.7844,   19.1224,   18.4095,   18.7855,   19.0553,   18.7552,   18.9811,   19.8881,   19.6704,   19.5896,   19.4526,   19.8963,   19.9561,   20.9600,   21.5003,   22.1099,   25.4052,   24.4921,   26.2106,   26.0366,   26.5966,   27.5936,   28.5875,   29.0432,   31.5314,   32.4991,   32.8872,   34.9430,   36.7040,
24-SEP-2002 03:56:09.43 ,    1.8924,    2.2358,    2.8032,    1.4906,    2.2342,    2.2275,    3.1531,    3.8411,    4.5187,    4.3112,    5.2351,    6.2705,    7.4956,    7.8901,    8.5470,    9.5197,   10.4720,   12.1752,   13.0702,   12.7461,   13.9204,   15.7496,   17.2759,   18.7121,   19.2021,   19.0287,   19.8935,   20.4092,   20.3019,   19.6735,   19.1608,   19.7670,   18.9922,   17.9136,   16.9389,   14.7547,   14.6551,   13.9580,   14.2182,   14.6726,   14.1630,   13.5608,   14.0214,   14.5307,   11.8191,   11.4179,   13.3051,   13.5152,   14.0042,   16.3509,   17.2142,   17.6801,   19.3645,   22.7390,   24.3571,   27.6286,   27.2229,   28.1635,   29.7504,   30.7989,   32.6471,   33.3054,   35.9120,   36.9610,   35.0555,
24-SEP-2002 03:58:51.26 ,    2.3036,    2.8718,    3.5811,    2.0398,    3.1846,    2.8982,    3.0771,    3.3303,    3.9350,    4.7802,    4.9398,    6.0148,    8.0104,    8.2519,    8.6943,    9.2013,   10.0747,   12.0416,   12.8769,   12.5050,   12.7774,   14.1735,   16.4923,   18.5739,    1.9414,   19.5179,   19.4771,   20.1725,   20.0298,   19.9967,   19.8757,   19.9442,   20.7832,   21.6745,   22.4887,   22.7869,   22.5688,   21.2706,   21.4246,   22.1136,   21.5330,   20.5208,   21.7361,   23.1595,   24.0145,   24.4160,   24.0219,   22.8062,   23.1063,   23.5001,   22.9207,   21.9955,   22.6744,   23.8420,   24.0884,   24.6307,   25.2512,   26.9219,   29.0793,   31.7668,   32.7309,   30.4616,   38.7672,   41.9759,   31.3105,
24-SEP-2002 04:01:36.29 ,    2.2609,    2.5317,    2.7356,    2.1040,    2.4914,    2.7808,    2.4660,    3.1315,    3.7842,    4.5882,    4.4823,    6.5848,    8.1949,    8.6353,    9.0731,    9.2754,    9.9683,   11.3743,   12.1458,   12.1208,   12.4079,   14.5703,   13.8881,   14.9510,   16.4873,   18.4045,   19.4236,   20.2768,   19.7715,   19.3597,   19.5156,   19.9480,   21.0510,   22.1304,   22.9346,   23.4613,   23.2739,   22.2970,   22.5291,   22.9266,   21.1041,   20.6602,   21.6645,   22.5612,   22.8900,   23.6648,   23.7620,   22.9069,   23.3512,   23.7679,   22.8723,   21.9422,   22.4161,   23.2582,   23.0866,   23.8974,   24.9899,   27.5812,   29.2162,   30.2315,   30.5445,   31.4051,   32.8683,   33.9842,   35.3238,
24-SEP-2002 04:04:17.89 ,    2.5822,    2.7772,    3.1671,    1.9525,    2.5362,    2.8717,    2.5812,    3.7826,    4.6106,    4.8639,    5.6733,    6.8691,    7.7831,    8.4477,    9.0102,    9.8094,   10.3043,   10.9893,   11.9520,   12.1335,   12.9177,   14.9064,   12.8798,   13.6806,   15.1490,   16.9886,   18.0176,   19.0070,   19.1903,   19.0935,   18.9030,   19.6517,   20.6887,   20.6508,   21.2537,   21.6121,   20.6676,   19.4043,   19.5531,   19.8450,   18.2067,   18.1786,   18.9727,   20.0269,   20.2364,   21.1438,   22.1854,   21.6242,   23.3733,   23.4315,   23.1184,   21.7024,   22.6073,   23.4470,   22.6060,   23.5380,   25.7203,   27.7251,   29.4743,   29.8807,   29.9779,   31.3755,   32.2428,   33.3187,   35.2486,
24-SEP-2002 04:06:59.56 ,    2.6869,    3.1287,    3.9875,    2.3142,    2.2682,    3.3846,    3.5992,    4.4099,    5.0598,    5.3411,    6.0469,    6.3713,    7.8623,    8.7947,    9.3379,   10.5872,   11.6921,   12.3036,   12.8729,   12.8127,   12.9997,   13.8520,   15.1364,   14.4135,   15.4279,   17.4074,   18.6575,   18.7864,   18.6376,   19.0091,   19.3537,   20.2375,   20.8139,   19.2862,   18.0425,   17.1662,   15.2408,   14.5137,   14.4662,   13.8636,   13.9355,   14.2831,   14.3850,   14.8693,   15.3777,   16.3538,   16.2231,   18.1499,   23.3134,   23.5813,   21.4165,   20.7768,   20.8069,   21.4598,   22.7229,   23.8786,   25.7404,   27.4836,   29.0463,   29.3297,   29.8187,   32.0879,   32.4632,   32.0269,   34.4561,
24-SEP-2002 04:09:41.71 ,    2.7964,    3.2635,    3.6643,    2.5291,    2.3895,    3.6267,    3.8566,    3.9035,    4.0630,    4.1088,    4.3565,    5.2837,    7.1169,    8.0925,    9.0289,   10.2236,   11.1783,   12.2200,   12.9574,   12.9939,   13.0858,   13.4867,   14.5770,   16.8150,   15.5113,   17.1221,   18.7280,   19.0655,   18.8436,   19.2772,   19.2576,   19.6955,   20.4099,   20.8047,   21.5814,   22.5770,   23.0110,   23.8119,   23.8264,   23.2082,   23.4846,   22.0518,   22.1584,   22.9580,   23.9634,   25.5756,   24.3231,   23.3312,   24.6284,   24.0890,   22.3718,   21.8386,   21.3778,   21.5297,   22.5644,   23.7195,   24.7916,   25.6152,   28.6840,   29.6843,   30.3903,   31.7301,   33.0863,   32.4867,   34.0980,
24-SEP-2002 04:12:23.98 ,    1.4153,    2.2247,  999.0000,    1.9464,    2.5685,    3.1650,    3.1456,    3.6398,    3.8323,    3.8191,    3.8743,    5.1159,    7.0312,    7.7044,    8.1685,    9.0749,   10.0304,   11.7421,   12.7670,   12.7567,   13.1232,   14.0397,   13.2019,   13.7389,   14.9420,   17.1754,   18.8695,   19.2160,   19.0552,   19.3795,   19.5333,   19.5491,   20.5658,   21.3897,   22.0908,   22.4848,   22.0206,   22.7492,   22.9361,   22.9183,   22.5254,   20.9921,   21.7940,   22.7525,   22.8977,   23.2630,   23.9278,   23.7099,   23.5457,   22.5723,   22.4976,   20.8179,   21.8279,   21.1432,   22.1286,   23.8725,   23.7508,   24.7498,   28.0613,   30.2173,   31.2416,   31.3831,   33.4505,   34.1481,   35.2167,
24-SEP-2002 04:15:05.95 ,    2.5531,    3.6190,  999.0000,    2.4889,    2.3944,    2.7018,    2.5085,    3.5373,    4.4243,    4.9779,    5.3494,    6.1073,    7.2915,    7.8394,    7.9345,    8.7354,    9.9877,   11.7236,   12.5947,   12.5321,   13.1386,   14.4934,   13.5389,   14.2257,   15.7149,   17.4045,   18.5548,   18.6863,   18.7833,   19.3005,   19.5271,   19.5321,   19.9208,   20.7781,   21.9537,   22.9773,   22.9013,   22.5381,   22.0307,   22.0764,   22.0227,   21.4165,   22.5807,   23.3856,   23.9295,   23.4234,   22.9361,   23.3808,   23.3455,   23.3037,   22.7180,   20.9406,   21.2826,   22.3549,   23.4039,   24.5272,   25.4091,   29.8260,   28.5832,   30.6489,   30.0944,   31.4033,   33.8292,   34.2761,   35.4495,
24-SEP-2002 04:17:48.23 ,    2.2598,    3.1704,    2.7059,    2.5941,    2.1893,    2.2022,    2.3786,    3.2517,    4.2006,    4.7198,    5.2989,    6.2328,    7.1315,    8.1614,    9.5286,    9.9731,   10.6353,   11.6782,   12.7311,   12.9403,   13.4375,   14.3463,   15.5791,   17.3266,   18.8509,   17.3799,   18.6425,   18.9791,   19.2482,   19.3853,   20.0288,   20.5702,   21.0520,   21.6076,   22.5694,   22.9345,   23.1788,   22.6591,   22.3095,   22.5956,   23.1751,   22.7112,   24.3634,   24.5766,   25.0581,   25.1453,   23.7686,   23.7649,   24.3194,   24.1272,   23.5749,   22.7070,   22.8365,   22.6424,   22.6438,   23.9828,   26.0162,   30.4669,   29.8655,   31.2988,   31.0626,   32.2718,   33.2953,   34.8969,   36.1036,
24-SEP-2002 04:20:29.63 ,    0.6398,    1.9459,    2.3097,    1.9040,    2.2330,    2.1954,    2.5434,    3.4307,    3.7235,    3.4709,    3.7222,    5.2274,    6.8273,    8.0908,    9.8524,   10.3006,   10.9618,   11.9160,   12.6730,   12.9986,   13.1971,   14.0357,   13.4207,   14.1208,   15.4458,   17.0332,   17.5776,   18.2414,   18.1805,   18.4522,   19.5556,   19.9614,   21.2138,   22.5787,   22.8756,   23.1133,   23.5121,   22.5576,   22.0682,   22.4578,   23.1112,   22.4186,   23.0837,   23.2465,   24.7997,   24.8467,   24.6222,   25.2492,   24.9459,   23.4032,   22.9606,   23.2765,   23.0928,   22.5150,   22.4220,   24.2272,   25.4970,   27.3636,   29.4994,   30.1581,   32.1545,   33.7952,   34.9205,   36.0315,   36.4705,
24-SEP-2002 04:23:11.70 ,    1.0776,    2.4718,    2.5690,    1.8077,    2.2358,    2.4915,    2.3587,    2.8577,    3.1793,    2.9835,    3.5096,    5.4773,    6.6134,    7.1623,    8.5478,    8.7653,   10.2529,   11.5997,   11.8789,   12.1199,   12.8807,   14.3972,   12.8178,   13.4332,   14.9157,   17.0021,   18.2499,   18.2933,   18.1539,   18.5549,   19.8407,   21.0192,   21.3629,   22.0625,   22.9678,   23.1510,   22.8601,   22.0690,   22.0284,   22.7350,   22.9407,   22.6106,   22.9152,   24.1522,   25.2270,   25.6752,   24.5991,   26.9302,   26.6598,   23.9525,   24.2997,   24.0459,   24.0709,   22.9680,   24.0803,   25.4130,   26.4486,   27.9857,   30.0603,   30.6888,   30.5861,   31.4355,   33.8419,   34.9958,   35.2652,
24-SEP-2002 04:25:54.86 ,    1.0898,    1.4792,    1.6811,    1.7528,    2.2156,    2.4856,    2.2260,    2.7095,    3.3849,    2.8880,    2.7870,    5.1964,    6.6603,    6.9810,    8.3200,    8.5587,    9.7003,   10.7497,   11.4905,   11.7891,   12.6717,   14.4596,   13.4428,   13.7658,   14.8783,   16.9723,   18.7227,   18.4615,   18.0217,   18.7785,   19.7409,   20.5291,   21.0242,   21.9513,   22.8871,   23.3347,   23.1594,   22.2244,   22.3483,   23.0769,   22.3928,   22.6146,   23.1255,   24.9478,   25.2299,   24.8442,   23.7485,   24.3366,   24.8298,   24.3604,   23.2016,   22.7477,   23.5723,   23.2268,   23.7181,   25.4963,   26.4711,   27.7034,   30.0896,   31.7724,   31.9151,   31.9033,   32.4802,   33.6269,   34.4559,
24-SEP-2002 04:28:37.58 ,    1.7683,    1.9325,    2.2312,    1.8451,    2.5734,    2.5880,    2.1114,    2.4982,    3.2066,    2.6055,    2.7495,    4.9043,    6.8949,    7.3465,    7.6085,    8.4550,    9.4583,   10.9287,   12.1062,   12.1128,   12.2502,   13.4722,   15.7491,   13.9182,   15.4403,   17.2040,   18.6439,   18.4259,   18.4439,   18.7942,   19.3725,   19.8164,   20.4488,   21.3599,   21.7298,   22.0436,   22.1212,   21.6322,   22.3407,   22.0623,   21.9857,   22.5360,   23.2606,   24.0200,   24.0086,   23.4745,   23.4549,   23.5637,   23.7114,   23.9952,   23.5650,   23.7921,   24.1135,   23.2808,   23.9376,   24.1387,   26.2425,   28.0173,   29.5951,   30.5557,   31.3556,   33.0635,   33.5889,   34.1283,   35.3595,
24-SEP-2002 04:31:19.65 ,    1.7819,    2.5139,    3.1299,    1.9263,    2.5172,    2.4444,    2.0592,    2.2708,    2.9021,    2.7860,    3.2445,    4.4158,    7.0699,    7.8792,    8.4645,    8.9573,    9.9476,   11.2402,   12.2953,   12.1545,   12.3231,   13.5103,   15.7592,   14.4597,   15.5981,   16.7949,   18.5035,   18.9732,   18.5556,   18.6392,   19.0713,   20.0652,   20.9545,   21.8712,   21.4843,   21.2689,   21.1714,   20.6148,   20.9985,   21.5234,   22.1300,   22.5592,   23.7115,   23.8647,   23.6679,   24.0055,   23.5317,   22.8466,   23.2461,   24.0321,   22.5258,   22.3564,   23.2386,   23.4047,   24.5968,   29.5769,   27.0001,   28.7725,   30.0939,   29.9565,   33.7347,   34.4986,   32.1002,   33.2724,   34.5557,
24-SEP-2002 04:34:01.25 ,    1.6445,    2.9054,    2.9655,    1.8365,    2.3836,    2.3180,    2.2686,    2.6498,    3.4883,    3.3315,    4.1228,    5.0189,    7.0262,    7.8468,    8.9103,    9.6005,   10.6460,   10.9930,   11.7792,   12.1204,   12.6599,   14.1055,   15.5597,   15.8835,   16.7421,   17.9003,   18.8815,   19.1912,   18.5951,   18.2370,   19.2141,   20.6624,   21.7349,   22.2497,   21.5022,   21.2867,   20.8581,   20.5895,   21.5930,   22.3643,   21.6103,   21.8203,   23.0649,   23.3312,   23.7000,   23.4721,   24.0353,   22.7888,   22.7123,   23.2339,   22.8803,   23.6497,   23.0806,   22.8481,   23.9148,   25.0237,   25.3948,   28.3900,   31.6199,   31.4624,   32.4560,   32.3344,   32.4761,   34.4293,   35.1899,
24-SEP-2002 04:36:42.81 ,    2.2176,    2.7496,    2.2969,    1.8830,    2.9573,    2.9196,    2.8653,    3.1761,    3.5645,    3.4054,    4.6948,    6.1024,    7.0605,    8.1070,    8.5862,    9.4789,   10.4198,   10.9393,   11.7485,   11.9111,   12.9499,   14.2683,   15.4861,   13.2883,   15.5192,   17.4723,   18.7606,   18.3241,   18.4178,   19.0581,   19.4104,   20.4917,   21.7423,   21.5448,   20.5668,   20.2150,   20.2668,   20.2901,   21.6214,   22.3421,   21.6984,   22.0953,   23.2795,   23.3818,   23.8173,   24.0439,   24.5302,   23.8040,   23.6226,   23.5867,   23.6114,   23.8709,   23.3789,   23.2152,   23.7482,   25.2107,   26.8131,   30.4961,   30.1068,   32.2526,   32.3882,   31.3522,   31.5627,   33.1569,   34.1415,
24-SEP-2002 04:39:24.75 ,    2.4955,    2.5613,    2.2708,    1.6876,    2.7890,    3.0169,    2.8088,    2.9813,    3.5349,    3.5158,    4.3570,    6.0096,    7.6075,    8.4631,    9.0839,    9.6015,   10.1461,   11.1909,   11.8838,   12.3019,   13.9157,   14.4482,   15.4279,   13.1084,   15.4912,   17.5824,   18.3227,   18.1833,   17.8127,   18.4790,   19.1806,   20.0719,   21.4051,   21.9403,   21.5952,   21.4768,   21.5077,   21.5399,   21.0580,   21.1954,   21.0336,   21.5169,   22.6780,   23.1363,   23.7260,   23.0034,   22.6206,   23.2952,   23.6456,   24.0995,   24.1179,   23.7151,   23.0204,   22.4708,   23.7811,   24.0635,   25.3908,   28.7203,   29.7748,   30.6213,   31.4914,   31.1659,   32.0450,   32.4430,   34.2441,
24-SEP-2002 04:42:07.90 ,    2.8464,    2.9963,    2.8492,    1.8057,    2.8325,    3.0176,    2.8482,    3.5133,    4.2198,    4.5065,    5.2734,    6.8252,    8.2289,    8.2062,    9.4025,   10.0076,   10.6406,   11.6114,   11.8836,   12.0529,   13.2177,   13.7789,   15.5105,   16.4381,   15.5005,   17.3456,   18.1695,   17.9618,   17.8169,   18.4414,   19.3994,   20.2575,   21.2008,   22.1053,   22.2774,   21.8774,   21.0041,   20.7697,   20.2511,   20.9588,   21.5848,   22.2410,   23.2866,   23.2489,   23.4901,   23.7860,   23.3963,   23.9016,   23.7982,   23.7941,   23.3537,   22.3404,   22.0333,   22.5434,   22.6007,   23.2245,   24.9232,   27.4339,   30.9987,   32.1892,   32.2539,   31.8050,   32.2282,   32.6013,   34.7407,
24-SEP-2002 04:44:50.56 ,    2.5850,    3.1443,    2.8495,    2.1933,    2.8893,    2.9948,    2.9231,    3.8645,    4.5078,    4.9974,    6.1058,    6.7571,    7.8984,    8.5038,    9.6973,   10.1460,   10.8152,   11.5704,   11.9014,   11.5534,   12.0334,   13.2761,   14.8578,   13.7873,   16.0496,   17.4380,   17.9039,   17.5291,   17.6947,   18.3178,   19.1277,   19.9608,   20.7251,   21.3769,   21.1307,   21.0061,   20.8250,   21.1483,   21.0026,   20.9408,   21.3035,   21.8054,   22.4973,   21.7647,   23.4119,   24.3531,   23.9869,   23.6526,   23.2441,   23.3478,   23.4453,   22.6177,   22.3469,   22.8325,   23.0111,   29.0434,   29.0868,   27.9305,   30.5935,   32.3872,   32.2178,   31.7633,   32.0154,   32.6527,   34.8235,
24-SEP-2002 04:47:33.68 ,    1.3704,    2.5185,    1.9309,    2.1164,    2.3206,    2.3617,    2.4175,    3.1675,    3.4785,    3.5530,    5.1658,    6.3815,    7.1610,    8.7487,    9.9576,   10.1202,   10.6255,   11.0121,   11.3921,   11.8071,   12.5512,   13.9385,   14.9830,   16.6295,   16.6493,   17.5781,   18.0299,   17.7212,   18.1080,   18.7164,   19.0796,   19.4549,   20.3711,   21.4446,   21.9804,   21.7067,   20.5749,   20.8499,   21.2143,   21.6817,   22.2527,   22.2311,   22.1070,   21.8280,   23.0789,   23.7133,   23.6969,   24.0609,   23.9517,   23.4689,   22.3322,   23.3254,   24.0027,   23.1214,   23.1842,   24.8565,   27.3365,   29.3982,   31.1621,   31.3768,   31.1061,   31.4801,   33.0406,   33.4733,   33.9753,
24-SEP-2002 04:50:15.72 ,    1.7531,    2.8550,    2.6589,    2.8542,    3.0827,    2.5819,    1.9847,    3.1740,    3.4444,    3.4781,    4.7447,    7.1643,    7.3642,    8.4896,    9.7923,    9.8967,   10.5130,   10.7987,   10.5715,   11.2092,   12.5539,   14.0087,   12.7256,   14.4727,   15.6171,   16.2273,   17.8678,   18.7754,   18.5683,   18.3901,   18.8690,   20.0218,   21.4802,   22.1389,   21.8099,   21.4391,   20.9138,   20.6645,   20.4527,   21.8525,   22.6146,   21.9911,   22.5039,   23.2376,   23.0824,   23.3124,   22.8294,   23.4169,   24.6741,   23.4027,   24.1070,   23.6236,   22.6855,   22.1498,   23.0412,   24.8209,   26.8032,   29.0389,   30.5387,   30.9903,   28.7325,   29.5993,   31.9007,   33.4621,   33.9138,
24-SEP-2002 04:52:57.02 ,    1.9836,    2.3712,    2.5525,    2.6921,    3.0812,    2.6930,    2.1492,    3.2672,    3.5564,    3.8412,    5.0229,    6.6513,    7.8752,    8.3313,    9.6398,    9.8640,   10.7237,   11.3529,   11.0718,   11.0216,   12.3544,   13.9570,   12.2822,   13.9117,   16.5417,   18.3928,   19.1005,   18.5526,   17.8604,   18.2567,   19.2738,   20.3130,   21.0840,   22.1828,   22.6263,   22.3988,   22.0889,   21.5313,   21.5134,   22.0852,   22.5073,   22.3033,   22.9632,   23.5918,   23.0054,   22.7272,   23.5692,   24.1522,   23.8607,   23.9445,   24.5092,   24.4277,   23.5483,   22.9787,   22.8758,   24.2670,   26.6255,   27.4218,   29.1901,   29.8192,   29.3795,   30.9220,   31.2079,   31.7896,   34.2229,
24-SEP-2002 04:55:39.04 ,    1.8630,    2.0449,    1.9072,    1.6905,    2.2571,    2.1159,    2.3940,    3.0552,    3.1711,    3.1106,    4.6135,    6.2169,    8.0666,    8.9363,    9.5956,   10.1607,   10.4890,   11.0858,   11.2409,   11.3655,   12.8907,   14.9295,   12.0319,   13.5947,   16.1025,   18.1923,   18.9509,   18.5908,   18.0695,   18.3479,   19.2132,   20.2500,   20.5825,   21.4021,   22.0304,   21.5552,   21.6890,   21.6117,   21.8490,   22.2890,   23.1281,   23.2994,   23.2607,   24.4633,   24.0454,   23.7840,   24.3995,   24.6288,   24.3828,   25.1624,   25.3453,   25.3921,   23.8879,   22.7187,   23.4481,   24.5030,   26.7347,   26.6933,   27.6036,   28.2016,   29.1939,   30.1273,   31.0153,   32.3157,   33.3512,
24-SEP-2002 04:58:20.71 ,    3.4429,    3.6634,    2.9860,    1.9521,    2.5809,    2.2002,    2.3239,    3.2767,    3.5966,    3.4758,    4.6375,    6.3358,    7.9765,    9.2984,    9.7288,    9.9659,    9.8710,   10.3259,   10.6197,   11.4665,   13.1739,   15.3168,   17.2843,   14.9152,   16.7991,   17.5535,   18.3252,   18.4800,   18.2257,   18.3850,   18.7907,   19.6005,   19.8417,   20.2235,   21.1591,   20.6488,   20.2973,   20.7002,   21.4531,   22.2108,   23.0711,   23.0251,   23.3991,   24.8110,   24.2635,   24.1118,   25.5640,   25.8936,   25.6836,   24.6982,   24.6901,   25.1767,   23.9736,   23.2341,   24.7061,   24.6570,   26.1999,   28.2148,   29.5366,   30.0604,   29.4329,   30.8024,   31.6623,   32.1194,   33.3445,
24-SEP-2002 05:01:01.91 ,    2.9207,    3.4514,    3.6925,    1.9177,    2.4173,    2.2578,    2.0282,    3.1953,    3.3110,    3.3243,    4.5313,    5.0984,    7.0705,    8.6183,    9.4711,    9.4448,    9.5212,   10.1545,   10.5349,   11.2427,   12.5852,   14.2736,   12.8754,   14.7491,   16.8099,   17.9875,   18.6029,   18.0534,   17.7450,   18.1565,   18.4967,   18.9817,   19.7710,   20.4398,   21.4232,   21.4844,   20.1656,   20.2308,   21.0600,   21.7352,   22.4291,   23.1510,   23.5810,   24.9960,   24.8548,   24.1511,   25.0035,   25.8517,   25.2220,   23.9601,   23.2459,   23.9213,   24.9358,   24.8309,   25.2481,   24.5529,   25.8632,   27.4673,   28.8531,   29.5926,   28.4666,   29.1900,   30.6829,   32.2932,   34.7653,
24-SEP-2002 05:03:43.71 ,    0.7971,    1.5886,    3.4103,    1.6200,    2.1260,    1.9141,    1.7968,    3.0010,    3.0235,    3.5115,    4.6627,    5.0672,    6.6791,    7.9222,    8.8113,    9.1216,    9.3266,   10.0360,   10.8108,   11.5352,   12.6407,   14.0065,   12.6090,   14.0555,   14.7503,   16.2097,   17.7700,   18.0131,   18.0122,   18.2412,   18.5116,   19.2062,   19.6924,   20.3086,   21.0916,   21.6541,   20.8500,   21.5656,   21.9774,   22.0310,   21.9334,   22.2720,   23.5241,   24.6891,   24.9018,   24.5730,   24.9991,   25.7530,   26.7383,   24.3092,   23.5289,   23.7671,   23.4317,   23.8569,   24.0596,   24.3764,   25.3370,   27.0127,   28.0138,   29.9866,   28.2580,   29.4352,   31.5858,   32.5829,   33.8559,
24-SEP-2002 05:06:25.10 ,    1.0152,    1.6478,    2.7206,    1.9401,    2.5649,    2.6863,    3.0734,    3.5962,    3.9346,    4.5908,    5.4546,    5.9714,    6.6049,    7.4976,    8.9119,    9.2590,    9.3599,    9.8161,   10.4318,   11.0510,   12.4347,   14.1491,   12.1426,   13.7297,   14.9185,   16.8065,   17.8334,   18.2053,   18.0043,   18.0289,   18.2596,   19.0846,   19.9514,   20.9962,   21.3970,   21.4906,   19.9308,   20.6019,   22.3047,   22.1684,   22.1064,   22.8760,   22.8229,   23.5257,   24.8874,   25.5614,   25.7009,   25.1056,   24.6738,   23.3068,   23.5114,   23.6593,   22.1729,   22.6108,   23.3484,   24.4259,   25.8614,   27.9790,   28.6683,   29.3777,   28.7335,   29.4163,   32.2352,   33.0218,   33.6464,
24-SEP-2002 05:09:06.57 ,    1.0524,    1.3464,    1.6324,    1.7552,    2.1010,    2.6435,    3.1978,    3.7293,    4.4998,    5.0650,    6.4801,    6.7515,    6.8994,    8.2963,    9.7194,    9.6741,    9.3211,    9.6400,   10.1261,   10.5787,   12.1338,   14.2883,   12.4620,   14.8373,   16.4301,   17.4070,   17.8999,   17.8251,   17.6108,   17.2295,   17.3406,   17.8435,   19.3377,   20.1431,   20.5981,   21.5658,   20.1044,   20.0699,   21.6937,   22.4253,   22.2543,   22.4980,   22.8106,   23.6601,   24.7411,   24.1534,   25.2728,   25.1239,   25.2097,   24.1259,   23.5409,   22.9170,   22.7764,   22.9080,   23.1662,   23.9963,   25.7171,   28.0887,   29.5280,   29.0402,   28.4677,   29.4473,   30.9819,   31.5445,   33.5998,
24-SEP-2002 05:11:48.26 ,    1.0754,    1.4814,    2.2826,    1.3191,    1.4946,    2.0005,    2.9853,    3.6218,    3.9352,    4.2227,    5.1502,    6.2569,    7.6678,    9.0252,   10.2268,   10.0068,    9.6520,   10.0666,   10.3860,   11.1447,   12.7055,   14.3659,   13.0247,   14.7294,   15.9699,   16.8848,   17.1937,   17.3779,   17.5972,   17.6028,   17.9813,   17.7840,   19.4443,   20.0087,   20.2581,   21.7303,   20.8133,   20.4027,   21.1384,   21.6548,   21.6902,   22.0728,   22.6389,   23.4949,   24.4043,   23.7138,   24.4616,   23.6837,   23.9734,   24.1272,   23.7366,   23.8888,   23.5543,   23.7712,   23.8786,   24.4448,   25.8035,   27.6984,   30.4902,   30.2972,   28.7325,   29.5637,   31.4437,   31.1166,   32.7889,
24-SEP-2002 05:14:29.75 ,    1.6097,    1.8023,    2.7954,    1.7616,    2.0718,    2.5223,    4.0176,    4.3434,    4.3222,    4.6037,    5.2013,    7.0983,    8.2885,    9.0327,   10.1314,   10.1688,   10.0835,   10.4333,   10.7795,   11.8795,   13.2862,   14.5979,   12.2584,   14.5978,   16.1743,   17.2891,   17.9285,   18.0360,   18.2695,   18.2338,   18.2524,   19.1837,   20.2188,   20.0941,   19.9996,   20.7829,   20.6118,   20.7010,   21.4334,   21.4432,   21.8438,   22.6461,   23.6110,   24.4649,   24.4755,   23.3701,   23.9472,   24.2951,   23.7975,   23.2567,   24.0100,   23.0579,   23.6423,   23.9703,   24.0177,   24.3763,   26.9979,   28.1700,   29.6629,   30.7740,   29.4030,   29.5662,   30.4936,   30.6155,   33.3388,
24-SEP-2002 05:17:11.32 ,    1.1491,    1.0770,    1.3596,    1.3799,    1.7769,    2.3715,    3.5824,    3.7980,    3.9344,    4.9546,    5.6480,    7.2881,    8.4977,    9.8866,   10.5214,   10.3979,   10.2033,   10.5307,   11.3294,   12.5926,   13.7041,   14.9134,   16.3613,   16.8794,   16.4081,   17.8881,   18.0409,   17.7095,   18.1666,   18.6519,   19.1353,   19.9546,   20.6743,   21.3100,   21.2962,   21.1546,   20.1647,   20.0100,   20.8251,   21.1606,   21.7726,   22.5769,   23.5502,   24.0425,   23.3698,   22.8702,   23.5761,   23.7610,   23.8335,   23.8821,   24.8687,   24.4002,   24.5191,   23.8924,   24.4067,   25.0722,   28.0137,   29.4660,   29.9001,   31.5098,   29.7216,   29.5701,   30.2998,   31.0557,   34.2854,
24-SEP-2002 05:19:53.10 ,    1.1426,    1.5488,    1.6616,    1.0988,    1.3140,    1.7091,    2.4684,    2.9458,    2.9131,    3.4540,    4.7446,    6.1474,    7.6908,    9.1268,    9.5051,   10.4182,   10.3850,   10.5996,   11.1664,   12.5150,   13.6340,   14.1938,   15.5996,   14.9582,   16.9997,   18.0252,   17.6012,   17.1908,   17.8239,   18.3952,   18.9976,   19.7495,   20.5719,   20.9176,   21.0422,   20.7439,   19.9614,   20.3121,   21.5262,   22.1314,   22.2261,   23.1258,   23.6832,   24.2443,   24.0224,   23.6575,   23.4858,   23.2138,   23.1136,   22.7245,   24.5862,   25.0335,   24.5362,   23.3248,   23.8489,   25.1315,   26.3457,   28.5762,   30.0877,   30.4646,   28.6823,   30.1327,   31.5664,   32.7794,   33.6532,
24-SEP-2002 05:22:34.57 ,    1.1037,    1.9092,    1.6477,    0.6004,    1.0288,    1.2862,    1.6576,    2.1183,    2.0176,    1.9158,    3.8893,    6.0247,    7.5031,    8.0001,    8.6162,    9.9607,   10.0532,   10.1060,   10.6096,   12.0153,   13.3126,   13.9342,   15.5340,   14.6617,   16.8192,   17.9924,   17.9194,   17.9374,   18.4286,   18.7271,   19.1835,   19.6867,   20.9716,   21.8589,   21.8536,   21.9317,   21.2895,   20.7309,   21.5716,   22.4897,   22.6742,   23.3265,   23.9778,   24.6909,   24.6282,   24.1261,   23.8646,   23.7539,   23.7189,   24.1769,   24.2586,   23.5356,   23.8438,   23.5987,   23.2865,   23.9206,   25.6068,   27.3626,   29.4028,   29.9374,   29.4478,   29.4714,   31.1135,   32.2866,   33.2561,
24-SEP-2002 05:25:15.81 ,    1.9069,    1.5836,    1.4062,    0.7365,    1.1818,    1.4612,    1.3966,    1.5201,    1.6307,    2.5492,    4.4885,    5.5644,    7.0298,    8.3917,    9.8716,   10.2052,   10.2366,   10.0003,   10.6294,   12.0791,   13.4424,   14.9717,   12.8705,   13.8520,   15.9894,   17.6030,   18.1304,   18.2929,   18.6298,   19.3180,   20.2171,   20.5387,   20.9411,   21.5338,   21.7107,   21.4880,   21.4826,   20.6936,   21.8801,   22.4099,   22.8900,   23.2037,   23.6205,   24.2711,   24.3910,   24.1579,   23.5998,   23.6257,   24.4109,   24.1271,   23.8905,   23.9811,   23.1009,   23.9736,   24.1758,   24.4042,   25.1429,   26.6714,   28.9598,   29.3213,   28.7904,   28.9526,   29.5978,   30.2888,   32.4549,
24-SEP-2002 05:27:57.95 ,    2.0979,    1.0181,    1.1919,    0.9601,    1.2577,    1.3267,    1.3729,    1.4891,    1.7892,    2.9307,    3.6857,    3.6949,    5.6758,    7.7294,   10.1069,   10.4146,   10.3522,   10.8932,   11.2829,   12.3588,   14.0487,   15.6847,   17.3951,   18.1962,   17.2078,   17.4215,   18.1904,   18.6971,   19.0434,   19.0150,   19.4677,   20.1308,   20.8215,   21.2204,   21.2562,   20.9845,   20.4655,   20.2281,   21.3589,   22.6015,   23.3961,   22.5671,   22.6735,   23.8443,   24.8770,   23.5850,   23.2231,   23.5344,   24.2849,   24.1927,   23.7009,   24.0716,   23.3987,   24.0141,   24.9097,   24.8605,   25.4890,   27.3962,   30.6991,   30.6972,   29.3402,   29.7581,   30.6662,   31.8494,   33.3364,
24-SEP-2002 05:30:39.30 ,    1.6030,    2.0532,    1.9185,    0.7825,    1.0603,    1.0971,    1.2587,    1.6273,    2.1514,    2.5701,    3.1372,    4.8638,    6.7399,    8.4964,   10.4738,   11.0464,   11.1006,   11.8432,   11.6965,   12.2290,   13.9331,   16.0046,   14.6448,   15.9038,   16.2573,   16.5388,   17.4991,   18.2552,   18.5281,   18.8714,   19.7584,   20.6385,   20.7263,   20.8413,   21.2845,   21.8870,   20.8192,   19.6135,   21.0504,   22.6386,   22.9232,   23.0532,   23.1344,   23.7162,   24.1209,   24.1592,   24.3100,   24.8129,   24.1913,   24.5149,   24.0812,   23.4454,   22.5104,   22.6923,   23.4914,   24.5471,   26.0915,   27.3163,   28.4419,   28.9130,   29.5086,   29.5450,   30.3711,   31.0884,   32.4036,
24-SEP-2002 05:33:20.95 ,    2.3176,    2.4902,    1.9877,    0.7740,    1.0999,    1.3187,    1.4838,    1.6150,    1.4401,    1.6208,    2.7286,    5.4712,    7.1298,    8.4247,   10.1201,   10.8365,   10.9592,   11.2204,   11.3797,   12.1182,   13.5931,   15.7867,   14.7167,   15.3915,   16.2322,   16.7667,   17.0652,   17.3603,   18.0855,   18.9334,   19.7435,   20.6817,   20.3909,   20.1728,   21.0558,   21.5905,   20.2075,   19.7262,   20.7619,   23.2955,   22.9722,   23.0735,   22.8942,   23.6736,   24.5077,   24.3815,   24.2254,   24.3095,   24.3594,   23.6955,   23.2979,   22.6700,   22.8766,   22.7747,   23.4694,   24.1799,   24.9054,   26.4717,   28.3382,   27.7677,   28.0193,   27.6715,   28.5127,   30.0330,   31.7978,
24-SEP-2002 05:36:02.81 ,    1.6375,    0.7837,    0.8793,    1.0164,    1.4046,    1.8460,    2.1161,    2.2604,    2.2940,    3.1002,    5.1457,    6.9814,    7.9090,    8.8860,   10.3138,   10.6659,   10.6322,   11.6792,   12.7814,   12.9020,   13.8970,   16.0212,   16.8915,   15.4006,   16.8789,   17.5822,   17.4782,   18.2656,   19.1005,   19.8471,   20.8353,   21.5302,   21.6350,   21.4395,   21.6881,   21.6634,   20.7451,   20.5752,   21.8567,   22.3914,   22.5459,   22.8641,   22.9657,   23.2948,   23.4759,   23.7850,   24.4226,   24.7936,   24.7396,   24.5613,   24.3449,   23.4227,   23.3839,   23.8053,   24.1764,   24.8578,   25.1016,   27.1742,   28.4654,   28.7755,   28.1739,   27.9732,   29.5642,   30.7825,   32.1454,
24-SEP-2002 05:38:44.43 ,    1.6675,    0.9655,    1.4234,    1.4028,    1.6236,    2.4703,    3.3460,    3.5455,    3.9322,    4.2533,    6.1475,    7.7050,    8.6105,    9.6804,   10.7303,   10.9975,   10.9404,   12.0153,   13.2804,   13.4488,   14.5215,   16.1758,   16.6215,   17.6325,   18.0614,   18.0166,   17.6117,   18.0366,   18.6713,   19.4329,   20.0902,   20.4762,   20.7432,   20.9886,   21.5280,   21.2737,   20.9464,   20.7876,   21.2196,   21.7788,   22.1812,   22.6100,   23.3641,   23.9912,   23.9087,   23.9765,   23.6391,   24.2147,   24.0910,   24.3358,   23.8531,   24.1148,   24.4432,   24.7567,   24.9821,   24.9609,   25.8378,   28.5760,   29.4171,   29.6228,   29.9886,   29.3833,   30.2353,   30.8038,   32.7318,
24-SEP-2002 05:41:26.17 ,    0.2580,    0.8297,    1.4007,    1.3583,    1.4910,    2.4991,    3.1781,    3.5179,    2.9305,    2.4213,    4.0352,    6.1847,    7.7733,    9.5027,   10.2834,   10.7178,   10.8134,   11.5205,   12.4252,   13.2023,   14.4188,   15.1967,   15.1738,   16.2439,   16.8910,   16.8483,   17.0044,   17.5160,   17.7519,   18.2904,   19.4081,   19.8655,   20.0681,   20.6851,   22.1898,   21.0641,   19.9376,   20.1051,   21.0504,   21.8823,   22.2207,   22.5699,   23.3179,   23.4614,   23.2480,   23.5601,   23.5514,   23.6352,   23.9535,   24.4015,   23.5617,   23.9917,   24.0678,   24.7447,   25.1020,   25.6328,   27.7091,   29.4208,   30.3032,   30.0771,   30.4137,   29.8664,   30.2075,   30.4599,   31.8126,
24-SEP-2002 05:44:07.94 ,    0.6437,    0.6952,    0.9155,    0.9393,    1.0247,    1.6892,    2.0911,    2.7051,    2.7851,    3.3428,    4.5538,    6.5814,    8.0550,    9.5106,   10.2403,   10.7781,   10.6959,   11.2385,   12.2187,   13.2668,   14.6619,   15.6976,   16.2081,   16.7552,   17.4185,   17.3355,   17.9456,   18.1114,   18.0888,   18.9226,   20.3909,   21.0341,   21.1097,   21.3553,   21.6045,   20.9961,   20.6541,   20.5457,   20.9338,   21.6001,   21.8585,   22.4946,   23.0583,   22.6661,   22.4799,   23.3836,   23.7390,   24.5709,   25.5533,   24.7098,   23.7927,   25.0000,   24.7145,   24.9139,   24.9523,   26.4699,   26.9301,   28.0416,   30.6743,   31.0138,   30.4826,   28.2455,   28.7971,   29.6756,   31.3922,
24-SEP-2002 05:46:50.28 ,    0.8032,    0.9176,    1.6624,    0.6697,    0.8800,    0.9776,    1.3985,    1.4870,    1.6878,    2.2443,    3.2460,    5.3214,    7.0042,    8.0614,    9.6604,   10.7543,   10.4371,   10.5623,   11.4775,   13.1241,   14.7963,   16.4954,   17.0902,   16.4162,   17.3742,   17.8131,   18.9762,   19.0816,   18.9581,   19.6879,   20.3238,   19.9629,   19.8519,   20.6511,   21.0402,   19.9556,   19.6213,   20.0371,   20.4101,   21.3695,   21.4479,   22.1068,   22.9618,   22.6898,   22.7520,   22.6778,   22.5909,   23.0112,   24.2475,   24.3271,   24.6632,   25.4410,   25.2813,   25.7127,   27.5803,   28.0643,   28.5857,   29.6797,   29.7623,   30.1328,   30.6407,   29.1066,   29.6834,   29.5958,   33.0500,
24-SEP-2002 05:49:31.68 ,    2.0316,    1.7464,    2.3282,    0.7302,    0.7454,    0.7244,    1.2016,    1.3760,    0.5897,    0.4945,    2.3934,    4.2577,    5.6398,    6.9962,    8.9848,   10.4865,   10.1698,   10.4547,   11.6299,   13.5854,   15.1708,   16.6004,   17.4607,   17.2269,   18.3030,   18.3357,   18.2742,   18.3517,   18.7657,   19.3033,   20.2347,   20.7652,   20.9204,   21.4069,   21.0160,   20.6249,   20.2172,   20.0560,   20.9454,   21.7605,   22.0683,   22.7653,   22.5659,   22.9976,   23.0250,   23.4162,   23.4072,   24.5125,   23.9306,   23.9408,   25.5916,   24.8066,   24.3530,   24.4581,   24.8433,   26.1454,   27.0762,   29.2541,   28.8649,   29.4864,   30.7211,   29.8308,   31.8860,   31.1552,   33.9640,
24-SEP-2002 05:52:13.34 ,    2.2927,    1.9142,    2.1472,    0.9719,    1.1271,    1.6127,    2.2703,    2.7514,    1.7136,    1.9339,    4.4884,    6.0305,    6.8357,    8.1381,    9.9240,   10.5757,   10.1394,   10.4145,   11.7473,   13.6318,   15.3169,   16.6680,   17.0839,   16.3209,   17.4953,   17.6829,   17.7114,   17.8203,   18.5454,   19.3256,   19.7432,   20.3076,   20.8170,   20.4115,   20.9758,   21.1038,   19.9890,   19.9154,   20.2997,   21.3349,   22.1818,   22.8650,   23.1763,   24.2795,   23.5817,   23.5796,   24.5283,   24.3489,   23.7554,   23.6171,   24.4109,   24.4841,   24.5932,   23.8995,   23.3519,   25.3255,   27.1279,   28.1991,   28.4915,   30.6532,   30.3271,   29.9068,   29.9310,   30.4043,   32.2552,
24-SEP-2002 05:54:54.65 ,    1.0062,    1.4364,    2.2343,    1.2792,    1.9853,    2.5360,    3.0316,    3.6177,    3.1241,    2.6885,    3.9731,    5.4669,    6.9906,    7.7404,    9.5821,   10.4624,   10.3234,   10.3206,   11.4196,   13.0718,   14.5062,   16.2543,   14.9900,   16.9813,   18.1589,   18.2428,   18.3335,   18.3345,   18.2601,   18.9475,   19.7994,   20.6416,   20.7050,   20.3859,   20.7035,   20.7698,   19.8347,   20.1323,   21.0051,   21.5126,   22.0284,   22.3216,   22.8262,   22.9393,   22.5225,   23.4347,   24.2613,   25.0355,   24.7936,   24.3209,   23.5338,   23.2430,   22.8588,   23.3635,   23.0674,   24.5936,   26.2317,   26.9600,   27.4676,   29.4287,   29.1778,   28.9513,   29.2023,   29.7154,   31.7149,
24-SEP-2002 05:57:35.88 ,    1.4327,    2.3263,    2.6910,    1.1075,    1.8900,    2.4661,    3.0003,    3.5530,    2.8791,    1.0752,    1.3105,    2.6216,    5.1789,    7.6828,    8.9912,   10.0700,   10.3476,   10.2162,   10.5409,   12.3026,   14.0608,   15.5421,   14.9106,   16.6626,   17.1808,   17.0439,   17.3853,   17.8075,   18.0198,   19.7117,   21.0766,   21.4020,   20.8840,   20.4829,   20.5715,   20.8481,   19.7692,   19.8840,   20.9676,   21.7413,   21.6333,   21.8181,   21.9564,   21.9100,   22.7675,   24.4537,   24.4608,   24.4987,   24.3285,   22.4788,   22.9754,   22.5522,   22.0234,   23.0524,   23.1660,   24.0386,   25.7680,   27.1615,   28.0669,   28.7036,   29.0627,   29.3416,   30.0785,   30.2050,   31.4434,
24-SEP-2002 06:00:17.37 ,    2.1543,    3.2649,    3.4751,    1.0040,    1.2104,    1.9377,    2.4601,    3.0293,    2.4095,    0.9039,    1.7402,    3.2886,    5.0724,    7.8870,    9.0388,    9.6509,    9.9611,   10.7190,   11.4203,   12.7002,   14.2662,   15.4310,   16.2408,   15.5427,   15.9051,   16.1524,   17.1175,   17.7338,   17.7204,   18.9764,   19.6596,   20.0470,   19.7264,   19.1483,   19.6911,   21.2198,   20.6562,   20.0366,   20.5024,   21.3591,   21.2066,   21.4685,   21.8766,   22.3127,   23.6678,   24.5041,   24.5151,   25.3443,   24.9066,   22.5358,   23.1712,   22.4145,   22.5030,   22.4996,   23.7248,   24.1393,   26.2317,   27.0437,   27.1584,   28.4457,   29.0135,   29.2442,   29.6942,   28.4742,   29.6696,
24-SEP-2002 06:02:58.73 ,    2.1479,    2.6367,    2.0446,    1.1108,    1.1504,    1.2355,    1.5978,    2.2745,    2.0812,    2.0953,    4.0239,    5.1679,    6.0632,    7.5897,    8.9529,    9.8420,   10.1021,   10.9334,   11.8892,   13.0820,   14.4518,   15.5613,   14.2229,   15.3078,   16.0569,   16.7233,   16.9578,   17.2591,   17.8669,   18.8009,   19.4437,   19.6553,   18.9885,   18.6522,   18.9848,   20.2190,   20.1217,   19.3535,   19.7636,   20.7040,   20.7552,   21.7540,   22.1489,   22.1174,   23.1681,   23.9533,   24.2600,   25.0516,   24.8076,   23.1543,   23.6026,   23.3397,   21.6110,   22.5336,   23.6713,   24.1387,   26.3349,   27.9323,   27.5846,   27.5637,   27.0922,   26.3260,   27.8845,   28.9797,   30.4509,
24-SEP-2002 06:05:40.41 ,    1.4639,    1.7060,    1.0660,    1.0171,    1.0126,    1.0191,    1.5765,    2.0537,    2.1951,    2.7867,    4.2595,    4.9289,    5.8445,    7.5839,    9.1843,   10.2792,   10.2543,   10.4423,   11.3716,   12.8619,   13.9427,   15.3083,   13.8407,   15.4423,   16.6069,   16.5001,   16.3939,   17.1096,   18.1190,   18.6856,   19.4904,   19.7981,   19.2507,   18.9419,   19.4536,   20.6141,   20.1696,   19.3562,   19.6922,   20.1938,   20.1035,   20.9549,   21.8255,   22.0598,   23.1861,   24.6693,   24.7204,   25.3496,   25.1905,   23.8146,   23.9816,   23.6521,   23.2967,   23.9160,   24.6121,   26.4206,   27.5158,   26.7069,   27.2067,   27.9053,   27.0183,   25.8780,   26.0562,   27.7087,   30.8131,
24-SEP-2002 06:08:21.94 ,    1.1509,    1.1798,    1.1616,    1.0240,    0.8909,    1.1128,    2.1472,    2.2612,    2.3869,    2.2953,    2.3674,    3.7903,    5.9923,    8.5138,    9.6551,   10.0662,    9.8506,   10.3348,   11.2404,   12.4602,   13.3951,   15.1662,   13.3786,   14.8816,   15.7340,   15.7875,   16.5940,   17.2454,   17.9732,   19.2980,   20.2360,   19.7642,   19.2803,   18.7033,   19.3386,   20.6581,   20.2815,   19.5045,   19.7176,   20.5159,   20.6920,   21.5409,   22.4785,   22.8810,   23.6635,   24.6212,   25.2317,   25.9895,   24.4897,   25.1021,   24.1810,   23.7071,   24.7622,   23.7539,   24.6961,   25.7900,   26.1760,   27.0176,   26.0483,   26.2424,   26.0320,   26.3251,   26.0875,   27.8944,   30.2262,
24-SEP-2002 06:11:03.21 ,    0.9964,    1.0481,    1.1097,    1.0201,    0.9091,    1.2427,    2.3798,    2.3895,    2.4494,    2.3085,    3.0048,    4.2917,    6.2648,    9.1206,   10.6339,   10.8660,   10.5770,   10.5983,   11.0647,   12.5894,   13.6978,   15.4793,   13.8483,   14.7370,   15.5686,   16.1239,   16.8460,   17.4602,   18.2598,   19.0091,   19.5627,   19.9359,   20.3117,   19.7748,   20.3863,   20.4895,   19.5416,   19.4442,   19.8807,   20.6604,   21.0025,   21.4431,   22.6825,   23.1281,   24.4214,   24.7297,   24.6719,   24.9401,   24.8748,   24.1430,   23.5502,   23.1642,   24.3455,   25.0378,   25.3277,   25.8389,   25.4025,   25.6402,   26.4257,   26.3391,   26.0745,   26.5106,   26.1272,   28.0677,   31.1092,
24-SEP-2002 06:13:44.55 ,    1.5388,    2.0841,    2.2010,    2.2718,    2.1614,    2.2676,    2.9253,    3.2181,    3.3892,    3.5823,    4.3538,    5.1972,    5.9587,    8.8528,   10.9231,   11.7808,   11.3857,   10.9030,   11.6392,   13.3917,   14.1073,   15.9475,   14.1920,   15.0943,   16.0952,   16.5330,   16.9051,   17.4713,   18.3308,   19.6012,   20.3663,   20.4979,   20.9141,   20.9388,   20.9796,   21.3057,   20.7230,   19.9719,   19.8168,   20.8760,   21.3691,   22.1723,   22.7996,   23.0733,   24.5011,   24.7667,   24.7525,   25.0583,   24.3623,   23.5685,   24.0709,   23.5087,   23.1571,   23.9742,   23.7388,   23.5373,   25.0943,   24.8933,   24.8095,   25.8293,   25.5135,   24.9967,   25.0488,   27.6009,   30.5474,
24-SEP-2002 06:16:26.25 ,    2.2747,    3.4054,    4.1230,    3.8449,    3.8629,    4.0518,    4.1137,    4.4636,    4.9560,    5.6232,    6.5310,    6.9720,    7.4382,    9.3872,   10.8022,   11.9495,   11.3775,   10.9769,   12.0251,   13.6287,   14.1448,   15.4801,   14.4360,   15.5610,   16.5716,   16.8251,   16.7131,   17.2165,   18.0905,   19.2234,   20.6135,   21.1183,   20.9652,   20.9495,   20.9639,   21.0476,   20.4419,   19.4892,   19.0436,   20.3831,   21.5510,   22.0807,   22.6972,   22.9651,   24.4514,   24.7570,   24.5869,   24.9784,   24.5258,   22.9727,   23.7534,   23.4922,   22.5115,   23.0401,   23.7227,   22.8969,   23.7952,   24.0113,   24.5847,   25.2536,   24.8933,   25.5957,   26.3543,   28.0114,   29.6948,
24-SEP-2002 06:19:07.60 ,    2.4017,    2.7397,    3.0760,    2.4154,    2.3223,    2.9143,    3.0029,    3.6476,    4.5450,    4.9586,    5.9601,    6.3001,    8.0504,    9.9513,   11.1920,   11.7931,   11.2580,   11.2042,   12.1781,   13.4568,   14.2589,   15.3376,   16.3586,   16.9872,   16.8742,   17.1784,   17.0463,   17.2618,   17.8173,   19.0451,   20.0968,   20.9780,   21.0666,   20.3267,   20.4642,   20.5937,   18.9590,   18.3256,   19.0993,   20.3425,   21.8906,   22.2838,   22.2664,   22.0784,   23.6383,   23.6662,   24.2469,   24.1921,   23.7677,   22.1803,   22.0714,   22.7668,   22.7482,   23.1721,   23.6220,   23.0397,   22.9665,   24.9249,   25.1417,   25.4605,   25.5258,   26.3651,   29.4431,   30.3802,   30.8770,
24-SEP-2002 06:21:49.14 ,    2.2587,    2.5456,    2.3288,    1.8111,    1.4719,    1.4357,    1.9948,    2.7899,    3.1625,    2.8661,    3.3972,    4.1977,    7.0371,    8.6337,   10.2537,   11.2863,   10.9962,   10.8474,   11.7925,   13.2049,   14.4614,   16.1539,   14.9524,   15.5931,   16.3471,   17.0942,   17.0524,   17.0527,   17.7356,   19.2183,   20.0528,   20.2379,   19.9844,   20.3364,   21.1067,   21.0184,   19.6545,   18.8466,   20.0593,   20.4584,   21.1455,   22.2430,   22.5998,   22.9907,   23.6359,   23.6027,   23.2300,   23.1600,   23.0558,   22.4477,   22.4730,   22.4860,   23.2205,   23.2788,   22.9615,   23.1801,   23.1462,   24.3594,   25.5839,   25.8418,   25.6108,   25.9032,   27.3148,   28.2940,   29.5249,
24-SEP-2002 06:24:30.80 ,    1.9873,    2.9544,    2.9383,    2.1847,    2.1195,    1.5380,    3.0185,    3.6259,    3.7424,    3.4450,    4.5677,    5.3672,    6.2093,    7.7662,    9.4454,   10.4850,   10.4755,   10.5014,   11.3572,   12.8518,   14.1163,   15.8753,   14.0933,   15.6374,   16.6394,   16.8104,   16.8883,   17.1361,   17.9313,   18.5467,   19.5925,   20.7321,   20.9842,   20.4931,   20.5447,   19.9472,   19.2823,   19.6305,   19.9102,   20.3598,   21.9348,   21.8386,   21.9517,   23.0301,   23.4778,   24.0066,   23.5219,   22.3929,   22.8669,   22.6834,   22.6802,   22.4136,   23.3872,   23.8736,   22.2712,   22.3232,   22.4297,   22.8211,   23.9430,   24.9788,   25.1240,   26.0790,   27.3584,   28.4754,   29.7298,
24-SEP-2002 06:27:12.22 ,    1.4021,    2.2270,    2.1788,    1.4802,    1.4101,    1.3371,    2.5527,    3.1927,    3.4012,    2.9956,    4.3641,    4.8382,    5.3736,    7.4285,    9.0765,   10.0186,    9.8153,    9.7788,   10.4138,   12.0473,   13.6140,   15.1780,   16.2401,   15.1855,   16.0477,   16.3527,   16.6439,   16.9994,   17.7718,   19.4188,   20.7130,   20.5495,   20.4250,   20.6832,   20.9889,   20.9127,   20.9347,   20.5651,   20.0821,   20.7828,   21.8418,   22.3986,   21.2597,   21.8530,   23.3553,   24.4341,   24.0983,   22.5283,   22.6733,   21.6376,   21.6644,   21.8929,   22.8890,   24.3344,   23.2926,   22.7683,   22.9037,   22.5784,   23.6313,   25.3856,   25.5673,   25.7296,   26.6504,   28.6046,   31.0603,
24-SEP-2002 06:29:53.88 ,    0.8193,    1.2382,    1.7730,    1.6407,    1.4654,    1.6672,    1.8494,    2.7116,    3.1358,    2.3606,    3.2089,    4.1052,    5.4037,    7.5000,    8.7097,    9.7839,    9.6660,    9.6408,   10.3454,   11.9612,   13.5529,   14.9427,   13.7149,   15.4817,   15.9719,   15.7542,   16.3106,   17.1365,   18.2496,   19.5988,   19.7477,   19.5072,   19.7702,   19.8837,   21.2468,   21.2458,   20.3099,   20.3850,   20.7608,   21.2674,   21.6040,   21.9563,   22.3230,   22.2074,   23.3357,   24.1040,   22.4119,   22.0708,   23.3483,   23.0756,   23.2066,   22.6935,   23.0129,   23.2666,   23.2942,   23.0523,   22.7472,   24.2664,   23.7511,   24.5523,   25.8041,   26.4846,   27.9676,   29.9817,   32.0576,
24-SEP-2002 06:32:35.17 ,    0.7882,    1.3067,    1.8216,    1.7358,    2.0069,    2.4221,    2.7771,    3.5643,    3.7775,    2.8260,    2.9926,    3.8138,    4.8266,    6.8896,    8.3765,    9.8915,    9.8467,   10.1479,   11.2259,   12.4894,   13.5461,   14.7966,   15.8002,   15.3599,   15.7806,   15.6607,   16.5937,   17.2939,   17.8616,   18.9683,   19.4819,   19.6801,   20.1004,   20.1778,   21.2402,   21.6221,   20.1659,   19.9945,   20.9639,   21.7363,   22.4178,   22.7328,   22.9472,   23.4236,   24.2487,   24.7670,   23.9878,   22.8548,   24.0122,   24.6247,   24.9247,   23.9994,   23.6683,   23.7033,   23.4772,   23.1083,   23.5889,   25.7632,   25.3895,   25.2601,   26.8105,   28.0655,   29.4399,   30.5480,   31.7622,
24-SEP-2002 06:35:17.45 ,    2.0259,    2.4212,    2.4600,    1.7436,    1.7787,    2.2486,    2.6609,    2.9712,    3.0360,    2.5286,    2.6265,    3.7981,    4.8638,    6.0501,    7.7358,    9.5390,    9.9862,    9.8032,   11.1603,   12.7797,   14.4457,   15.4914,   13.6688,   15.3958,   16.4977,   16.1265,   16.1270,   16.9046,   17.7132,   18.8458,   19.8234,   20.2375,   20.1573,   20.1750,   20.7829,   21.3054,   20.3428,   19.4657,   19.7731,   20.7667,   21.5736,   22.0736,   22.2370,   23.1401,   24.7266,   24.3054,   24.3947,   24.0919,   24.1471,   23.1334,   22.7987,   23.6145,   23.7168,   23.9669,   23.0431,   23.0826,   24.0096,   24.3623,   26.0460,   25.9811,   26.6429,   27.6752,   29.4915,   31.8444,   31.8458,
24-SEP-2002 06:37:59.07 ,    2.1415,    2.6174,    2.9931,    1.7494,    1.3698,    2.0251,    2.5180,    2.7544,    2.9645,    2.9988,    4.1538,    4.8171,    5.4465,    7.3737,    8.2957,    9.1769,    9.8655,    9.5310,   11.0337,   12.9074,   14.2357,   14.7996,   15.0221,   15.3653,   15.9751,   15.7526,   15.8799,   16.3547,   16.9736,   18.3019,   20.0059,   20.8452,   21.0031,   21.1091,   21.8035,   22.2598,   20.3643,   19.3014,   19.3460,   20.9584,   22.0788,   22.5914,   22.8932,   23.8082,   25.2443,   25.0374,   24.7519,   23.9090,   24.2279,   22.9570,   22.9926,   22.6894,   23.8009,   23.9160,   23.1388,   23.8611,   25.2894,   25.3762,   24.9898,   25.7768,   27.5905,   28.1139,   29.6494,   31.0375,   30.7356,
24-SEP-2002 06:40:40.34 ,    1.8184,    2.5528,    3.1080,    2.4888,    2.1762,    2.4784,    2.1556,    2.2992,    2.1283,    1.5702,    2.8388,    4.1425,    4.9208,    7.8880,    8.9500,    9.8477,   10.3434,   10.3788,   11.1369,   13.0508,   13.6562,   13.8102,   14.7752,   14.5567,   15.3599,   15.8429,   16.3996,   16.9477,   17.6960,   19.0732,   20.7878,   21.0169,   21.0474,   21.7031,   21.3412,   20.6065,   19.6016,   19.7883,   17.1515,   18.7710,   20.4337,   20.3311,   19.3815,   20.0798,   21.3366,   21.5748,   21.3442,   20.7611,   20.8858,   20.2571,   20.4646,   19.4273,   22.5820,   24.0636,   23.3516,   25.0790,   26.2831,   24.9930,   24.9087,   26.5716,   27.9083,   28.5269,   30.2087,   31.1124,   30.9699,
24-SEP-2002 06:43:21.76 ,    2.0765,    2.8684,    3.4603,    2.9302,    2.7797,    2.6209,    1.9389,    2.4133,    2.4140,    1.6032,    2.4184,    4.3469,    5.6640,    7.8965,    8.7859,    9.9571,   10.4767,   10.7053,   11.0872,   12.9155,   14.2369,   14.6386,   15.3580,   14.7843,   15.4177,   15.2695,   15.9682,   17.2195,   18.2357,   19.2109,   20.2383,   20.4598,   20.5016,   21.4030,   22.2588,   21.3680,   18.7190,   21.4341,   12.9303,   13.1383,   13.7025,   14.2792,   14.5278,   15.6004,   15.3387,   15.0856,   15.1945,   14.8692,   14.8866,   14.6071,   14.9152,   15.2750,   23.9012,   24.9165,   24.7184,   24.9872,   26.0642,   25.7102,   26.2609,   27.9490,   28.4580,   28.6036,   31.2310,   32.4255,   32.6841,
24-SEP-2002 06:46:03.50 ,    1.2948,    1.7879,    2.0893,    1.1375,    0.8648,    0.9442,    1.6034,    2.2805,    1.7788,    1.2570,    2.5927,    4.0323,    5.7483,    7.1859,    8.4986,   10.0667,   10.6609,   10.5086,   11.6102,   12.5864,   13.8351,   14.5122,   15.3729,   15.0625,   15.7855,   15.8491,   16.1216,   17.0380,   17.7339,   18.9911,   20.2483,   20.6507,   20.4467,   21.2245,   22.0495,   22.0585,   21.3137,   21.0929,   21.7391,   22.0856,   22.8537,   23.3176,   23.3721,   24.1739,   24.3572,   24.5780,   25.2831,   24.9477,   24.4871,   23.5753,   24.6397,   24.1021,   23.3940,   23.6780,   24.2642,   24.3700,   25.4125,   26.7013,   26.9616,   26.7915,   27.8742,   29.2732,   31.4224,   32.1907,   32.6327,
24-SEP-2002 06:48:44.95 ,    1.3727,    1.6576,    1.2722,    0.9802,    0.7572,    0.9135,    1.4405,    1.0038,    1.1000,    0.8606,    1.9066,    3.4432,    5.4498,    6.3707,    8.0760,   10.2000,   10.7019,   10.5823,   11.8475,   12.7391,   13.2224,   14.1192,   11.7147,   12.6930,   13.2627,   13.4688,   13.4606,   14.1881,   15.5098,   16.7175,   17.3479,   17.3558,   17.2626,   17.1066,   17.5249,   17.8307,   18.1237,   17.5926,   19.1152,   19.6319,   20.2203,   19.8203,   19.9106,   21.1169,   22.1981,   23.4937,   23.9716,   23.0148,   23.3851,   22.6599,   22.5928,   22.0362,   21.7641,   22.0814,   23.4051,   24.2654,   24.7369,   24.8293,   25.8062,   25.9246,   26.5489,   28.2708,   29.8310,   30.7191,   31.3714,
24-SEP-2002 06:51:27.98 ,    0.3566,    0.5200,    1.0646,    0.9258,    0.7984,    1.2835,    1.3964,    0.6211,    1.0933,    0.8250,    1.3798,    2.7994,    4.6578,    5.6780,    7.9776,    9.3487,    9.4027,    9.8224,   11.2753,   12.4145,   12.9693,   13.9671,    7.8747,    8.2182,    8.4149,    8.3573,    8.7422,    9.5520,    9.9668,   10.7220,   11.5756,   11.8700,   12.1979,   12.1587,   12.4031,   12.1073,   11.7899,   12.2789,   12.6006,   12.7434,   13.4688,   13.2882,   14.0729,   16.4796,   18.0850,   19.1136,   20.3903,   20.7864,   21.4521,   21.9581,   22.7198,   21.5985,   21.8877,   21.9202,   22.5723,   23.8318,   24.8445,   25.3392,   26.0947,   25.8906,   26.7002,   27.9718,   29.1059,   30.1916,   30.7024,
24-SEP-2002 06:54:09.98 ,    1.5090,    1.6303,    1.7208,    1.0671,    1.1283,    1.7767,    1.7785,    1.9929,    1.6043,    1.1024,    2.0114,    3.3545,    4.7859,    6.2627,    8.3530,    9.4494,    9.6928,   10.2913,   11.6463,   12.0845,   12.9859,   14.1002,   13.1174,   14.0119,   14.8689,   14.6627,   14.8870,   16.2222,   17.0783,   17.8309,   18.9829,   18.7070,   18.7723,   19.0878,   19.7684,   18.8628,   18.8891,   19.7924,   20.5098,   21.0498,   22.0527,   22.3687,   22.2380,   22.8532,   23.2892,   23.3472,   22.6322,   22.4325,   23.1380,   23.8291,   22.9654,   22.5720,   23.4935,   23.0732,   23.6299,   23.4119,   24.2994,   24.4751,   25.5873,   25.9483,   25.9644,   27.5073,   29.2105,   31.1556,   30.4003,
24-SEP-2002 06:56:51.72 ,    3.0860,    3.0835,    2.2864,    1.1767,    1.5820,    2.6120,    2.8748,    2.7381,    2.0437,    1.4571,    2.9242,    3.7681,    5.2654,    7.3296,    8.1068,    9.5802,    9.9576,   10.1500,   10.6119,   11.6155,   12.9512,   13.8875,   13.0207,   13.7370,   14.7908,   15.0052,   14.9066,   15.7076,   16.7760,   17.6542,   18.6778,   18.1735,   18.9652,   18.6988,   19.2794,   19.1108,   19.5197,   20.1319,   20.7005,   21.0836,   22.0809,   22.0895,   22.3361,   24.0140,   23.5774,   22.5293,   22.5969,   23.0941,   23.5748,   24.5553,   24.4585,   23.6822,   23.9847,   23.6379,   23.7808,   23.8657,   24.7382,   25.4068,   26.5046,   26.0445,   26.3205,   27.8008,   30.5006,   31.7178,   31.8080,
24-SEP-2002 06:59:32.96 ,    1.8274,    2.0857,    2.1829,    1.6886,    1.7100,    2.5880,    3.2541,    2.9370,    1.9441,    1.5762,    3.5299,    4.8482,    6.7871,    8.7140,    8.8969,   10.3223,   10.3432,   10.3155,   10.5394,   11.5940,   12.9769,   13.9475,   12.9694,   13.7642,   14.4007,   15.2170,   15.3102,   15.4439,   16.8053,   17.8671,   18.8608,   19.4586,   19.3671,   19.1466,   18.5446,   17.3987,   17.3470,   18.1386,   18.4021,   18.2525,   19.5630,   19.6990,   19.7853,   21.5927,   21.1272,   23.2690,   21.4431,   22.5420,   24.4546,   27.1923,   27.1636,   24.1985,   23.5963,   23.5497,   23.6354,   24.1842,   25.1010,   26.0051,   26.2749,   26.6893,   27.8802,   28.9592,   31.8651,   32.9240,   32.3739,
24-SEP-2002 07:02:16.41 ,    0.7776,    1.0794,    1.3062,    1.8723,    1.2009,    1.2728,    1.9140,    1.9548,    1.6777,    1.6325,    3.6150,    6.0883,    7.7672,    9.3336,    9.9317,   10.6917,   10.8750,   10.6017,   10.6624,   11.5522,   12.7994,   14.0414,   13.1516,   13.5292,   13.8306,   14.7834,   15.2549,   15.3243,   16.1178,   17.3124,   18.3165,   18.7631,   19.2138,   19.6316,   17.5457,   15.1667,   13.7921,   12.2527,   11.7657,   12.1601,   13.2225,   13.6453,   14.3917,   14.6730,   14.9745,   24.0872,   17.7029,   20.0673,   24.4881,   26.0886,   24.7914,   23.5933,   23.7022,   23.4713,   24.9057,   24.8289,   25.6047,   25.7093,   26.0932,   27.9521,   29.7538,   31.3145,   32.4828,   31.9167,   31.8520,
24-SEP-2002 07:04:57.87 ,    1.6742,    2.4965,    1.8157,    1.9543,    1.1149,    0.7661,    0.9199,    0.9074,    0.9726,    1.2884,    2.8928,    4.9008,    7.0694,    9.3623,    9.2865,   10.0181,   10.4885,   10.3834,   10.4703,   11.5573,   12.9782,   13.9145,   14.4285,   14.5332,   14.4311,   14.6450,   14.5085,   14.4852,   15.4789,   16.7612,   18.1296,   19.0208,   19.2624,   19.5534,   19.9808,   19.7230,   19.6941,   19.8364,   20.3637,   20.9710,   21.8953,   22.5567,   22.9677,   23.2077,   23.8724,   24.1676,   22.8320,   23.5665,   24.8603,   25.3031,   25.0077,   24.0255,   23.1727,   23.3304,   25.0322,   25.0111,   26.2296,   26.4288,   26.4785,   28.1265,   29.8980,   31.7152,   32.7067,   31.7377,   32.8822,
24-SEP-2002 07:07:39.03 ,    2.4740,    2.8823,    2.8251,    2.4500,    1.6652,    1.3779,    1.5028,    1.4926,    1.1691,    1.4248,    3.0096,    4.0136,    6.1307,    8.1936,    8.1558,    9.4697,    9.7887,    9.9271,   10.0878,   11.1234,   12.2720,   13.0548,   12.8856,   14.0670,   14.7641,   14.6492,   14.2450,   14.5015,   15.8211,   16.2716,   17.3935,   19.1402,   19.8487,   19.7276,   19.2767,   19.5157,   19.8891,   19.7185,   20.7574,   21.6289,   22.1415,   22.9030,   22.0268,   22.5460,   23.2434,   23.2076,   22.8115,   23.4190,   24.2427,   26.2442,   25.6796,   23.8672,   23.0017,   24.8713,   24.3413,   24.8420,   25.9530,   26.0444,   26.9041,   27.9435,   29.4304,   31.1328,   32.2435,   32.7539,   32.4450,
24-SEP-2002 07:10:20.80 ,    3.1393,    2.4651,    3.6370,    2.4248,    1.8983,    2.4546,    2.4110,    2.6431,    2.0320,    2.1523,    3.3161,    4.3414,    5.4852,    7.5978,    7.9681,    9.4209,    9.3748,    9.2477,    9.7285,   10.5209,   10.9102,   11.3464,   12.4009,   13.3808,   14.0802,   13.9036,   13.5556,   14.6664,   15.7744,   16.3264,   17.0589,   18.6746,   19.7948,   19.8027,   19.4235,   19.2081,   19.3820,   19.6243,   20.7902,   21.9901,   22.0038,   22.1080,   22.1822,   23.4522,   23.7211,   23.3221,   23.8729,   24.2084,   24.8928,   25.6851,   25.8582,   24.4415,   23.7516,   24.2909,   24.4191,   24.6738,   25.8127,   26.2102,   26.6252,   27.9664,   29.4640,   31.2899,   31.6594,   32.0253,   31.7599,
24-SEP-2002 07:13:02.21 ,    2.6347,    2.8542,    4.1139,    2.0230,    1.4693,    2.2034,    2.3116,    2.1791,    1.5860,    1.4549,    2.1969,    3.7567,    4.9723,    7.3924,    8.3905,    9.7230,    9.7497,    9.3092,   10.0534,   10.6484,   11.3052,   11.8327,   12.4921,   13.5661,   14.0710,   14.1392,   13.7116,   14.7219,   15.6434,   16.1458,   17.2968,   17.8381,   18.7122,   19.7157,   20.1800,   20.0718,   20.1035,   20.2174,   20.8298,   22.2282,   22.5719,   22.9366,   22.8213,   22.8777,   24.2658,   24.0580,   23.4767,   24.0275,   25.5479,   26.0705,   25.6489,   23.7075,   23.0182,   24.6328,   25.1776,   24.5848,   25.5433,   26.3073,   26.6601,   28.0085,   30.3511,   32.5792,   33.7959,   33.1491,   31.8511,
24-SEP-2002 07:15:44.06 ,    1.3901,    1.9362,    3.0302,    1.9403,    0.9935,    1.2904,    1.8740,    1.6652,    0.9387,    0.9878,    2.8391,    4.3692,    6.0131,    7.4194,    8.3402,   10.2996,   10.1509,    9.5403,   10.2822,   10.9912,   12.1194,   13.3642,   13.8033,   13.8233,   14.3006,   14.5635,   14.2655,   15.0283,   15.8594,   16.9012,   17.6876,   18.6848,   19.1636,   19.5380,   19.3103,   19.4557,   20.0424,   20.0911,   21.3863,   22.4170,   22.1866,   22.2190,   22.0234,   22.3496,   24.4375,   24.4249,   24.5055,   24.3937,   25.3508,   26.0237,   26.0855,   25.0246,   24.2782,   23.9930,   24.2067,   25.4526,   25.4177,   26.2449,   27.0304,   27.2375,   30.1145,   31.4374,   32.9769,   34.0376,   33.7217,
24-SEP-2002 07:18:25.83 ,    2.5961,    3.2017,    3.6334,    2.7818,    1.7613,    1.1084,    2.2840,    2.1807,    1.4076,    1.5201,    4.6269,    5.4189,    6.0828,    6.7678,    7.9089,   10.0346,   10.0308,    9.7901,   10.2868,   11.1332,   12.1552,   13.5824,   12.3751,   13.1888,   13.8758,   14.2072,   14.0368,   14.8048,   15.9833,   17.0157,   18.2122,   19.3463,   19.6208,   19.5821,   19.3988,   19.2854,   19.6873,   20.9581,   21.5907,   22.2917,   22.1545,   22.0457,   21.6161,   22.0498,   23.1284,   22.5415,   21.3107,   21.3622,   21.6783,   23.2204,   24.1394,   23.7249,   24.0109,   25.3060,   25.1978,   24.1493,   24.3390,   25.7757,   26.1582,   26.2635,   28.0843,   31.2385,   33.4551,   33.2355,   32.4182,
24-SEP-2002 07:21:07.05 ,    2.8559,    3.6440,    4.3981,    3.1161,    2.1654,    2.0961,    3.1064,    2.8343,    2.1459,    2.2983,    4.7690,    4.7648,    5.0850,    6.1413,    7.8429,    9.2873,    9.5008,    9.9620,   10.7700,   11.7152,   12.4232,   13.2859,   13.9975,   13.8452,   14.0944,   14.1477,   14.0700,   14.9033,   16.1418,   16.8778,   17.5954,   18.6968,   19.8699,   19.6892,   19.5060,   19.0147,   18.7081,   18.7933,   19.2208,   19.1207,   19.0325,   19.9786,   17.5504,   15.9189,   14.4597,   14.0580,   12.4407,   11.7438,   12.1193,   14.2369,   16.6065,   20.5637,   22.9939,   25.6653,   25.8052,   24.8229,   24.3114,   25.1999,   25.7669,   26.3388,   28.7404,   31.1303,   32.5844,   32.0915,   32.9909,
24-SEP-2002 07:23:48.55 ,    1.9102,    2.6952,    3.1064,    2.0011,    1.4676,    2.3505,    2.3604,    2.3400,    2.1022,    2.3945,    3.5597,    4.4905,    5.4989,    6.9139,    8.0547,    9.5419,    9.9836,   10.2759,   11.3979,   12.0886,   12.4557,   13.4442,   12.4715,   12.9779,   13.6204,   14.2772,   14.3609,   15.2258,   16.3940,   17.0025,   18.4779,   19.3188,   19.0949,   18.8444,   19.3400,   19.3815,   17.7050,   16.0835,   14.5035,   13.0516,   13.5986,   13.4584,   10.8710,   11.3657,   11.5438,   11.4566,   12.3691,   12.4499,   12.3993,   15.8553,   18.1683,   20.5792,   22.6857,   25.5935,   25.1901,   24.7600,   23.7005,   23.1110,   23.7453,   25.4473,   28.2857,   30.1118,   29.2700,   31.9913,   32.0192,
24-SEP-2002 07:26:30.22 ,    1.8015,    2.4551,    3.3820,    1.7830,    1.5364,    1.7992,    2.5244,    2.4897,    1.7776,    1.7521,    2.7311,    4.5458,    6.2295,    7.8393,    8.3006,    9.4146,    9.7498,    9.5031,   10.3818,   11.9880,   12.9303,   13.8382,   12.7300,   13.4052,   13.7377,   14.0973,   14.5965,   15.3947,   16.2857,   17.1079,   18.3164,   18.9521,   18.3375,   18.9341,   19.0102,   19.0942,   19.8877,   18.1772,   18.0607,   18.8761,   18.7454,   16.8791,   21.4415,   11.3579,   11.8723,   11.4066,   11.9956,   12.3986,   12.3990,   14.4443,   15.3200,   17.6196,   24.8302,   23.5658,   25.0304,   24.9566,   24.3075,   23.3967,   25.2882,   26.2497,   27.9313,   30.3484,   31.1231,   30.7962,   31.8006,
24-SEP-2002 07:29:11.69 ,    2.6206,    2.1143,    3.5988,    2.1664,    1.3967,    1.7131,    2.7580,    2.5569,    1.7462,    1.0371,    1.7356,    2.9908,    4.6408,    6.6041,    8.5206,    9.3721,    9.4339,    9.3927,   10.3112,   11.7188,   12.9165,   13.6315,   12.5299,   13.2450,   14.0229,   14.1379,   13.7408,   13.8797,   14.3697,   14.9571,   15.4537,   15.0561,   15.1949,   16.8431,   17.3732,   18.2850,   20.3464,   16.0597,   15.9029,   16.0130,   14.1144,   13.8808,   13.4375,   13.7401,   14.3937,   14.3354,   14.0263,   14.2597,   15.1953,   15.8299,   14.6233,   15.2579,   18.2769,   21.4332,   24.1947,   26.1345,   25.3088,   25.3488,   26.2758,   27.2279,   27.8876,   30.1254,   32.1451,   32.5594,   33.2937,
24-SEP-2002 07:31:53.14 ,    2.1738,    1.9807,    2.1156,    2.2976,    0.8710,    0.7712,    1.4357,    1.3089,    1.3104,    1.0911,    1.5375,    3.1430,    4.4404,    5.7930,    8.3752,    9.0345,    9.2028,    9.5000,   10.4453,   11.3913,   12.3657,   13.0292,   12.5292,   13.1002,   13.6115,   12.9430,   11.7662,   11.0633,   10.6883,   10.0770,   10.3926,    9.9665,   10.8000,   14.6386,   16.1128,   18.6238,   19.9088,   20.4078,   20.6601,   20.8760,   21.1258,   21.7337,   21.9698,   22.9234,   22.7434,   22.4862,   22.0892,   22.7244,   23.7575,   24.4085,   24.0978,   24.2059,   24.8713,   24.2244,   25.5244,   25.4746,   25.0303,   25.5368,   25.8697,   26.5189,   27.5593,   30.3863,   32.2274,   32.9756,   32.8428,
24-SEP-2002 07:34:35.09 ,    1.1663,    1.7767,    1.2659,    2.2304,    0.8811,    0.8254,    1.1808,    1.2882,    1.1191,    1.4418,    2.9061,    4.6590,    5.8242,    6.9810,    8.2413,    9.0160,    9.3165,    9.1070,   10.1301,   11.4297,   12.2287,   12.9857,   12.3438,   12.7826,   13.3043,   13.5046,   14.0397,   14.1806,   14.0885,   14.2210,   16.0926,   16.6596,   16.8892,   18.0604,   18.7765,   18.8890,   19.0183,   20.0280,   19.8553,   20.2045,   21.0537,   21.7967,   22.0082,   22.7779,   22.5409,   21.8811,   22.5442,   23.1152,   24.1439,   24.1700,   23.6618,   23.6084,   24.3272,   25.3082,   26.1213,   25.1511,   24.3445,   25.4029,   26.5380,   27.1249,   29.1439,   30.8072,   31.9573,   32.0482,   33.9944,
24-SEP-2002 07:37:16.59 ,    2.3598,    2.2594,    3.0762,    3.0482,    2.0835,    2.0257,    2.3506,    2.3664,    2.0623,    2.7731,    5.4347,    7.0936,    7.6884,    8.0989,    8.6991,   10.0751,   10.1623,    9.9522,   11.1945,   12.3086,   12.9712,   13.5966,   13.1978,   13.5808,   13.6645,   13.8725,   14.5771,   13.8770,   12.6118,   11.7565,   11.4220,   11.7737,   12.3358,   14.7916,   15.8185,   18.6859,   19.7596,   19.7700,   19.8442,   20.2347,   21.0410,   21.5902,   22.8677,   23.1614,   22.5566,   22.7167,   23.1038,   23.6520,   24.0464,   24.3943,   23.3131,   23.9329,   25.1365,   26.3490,   25.1999,   25.0562,   24.0592,   24.9064,   26.8621,   28.2639,   29.0363,   31.5759,   32.9354,   33.4789,   34.0668,
24-SEP-2002 07:39:58.72 ,    2.1101,    2.5364,    3.7239,    2.9937,    2.3724,    2.4367,    2.8991,    2.9161,    2.5884,    2.8465,    5.2428,    7.7151,    8.7841,    8.9230,    8.5579,   10.0373,   10.1047,   10.5324,   11.7429,   12.5440,   13.0208,   13.5676,   13.1670,   14.0074,   14.5267,   14.2725,   14.3156,   15.3312,   16.4791,   17.0760,   17.8835,   18.2052,   18.3959,   18.3737,   18.4273,   18.7696,   18.9570,   19.3327,   19.3689,   19.9628,   21.2360,   21.6376,   22.2551,   23.7769,   22.8644,   22.7398,   22.7192,   23.4252,   23.7561,   25.2760,   23.7070,   23.0443,   24.4644,   25.6358,   25.2525,   25.1896,   24.2562,   26.0198,   26.7576,   26.9745,   28.0287,   26.3559,   26.4023,   26.9544,   33.7536,
24-SEP-2002 07:42:40.46 ,    1.1067,    1.9524,    2.4833,    2.4592,    1.1386,    1.4978,    2.1633,    2.3571,    1.9933,    1.4410,    3.3733,    5.6133,    7.5432,    8.7141,    8.7012,   10.2036,   10.5417,   10.6068,   11.3354,   12.0458,   12.7894,   13.5944,   13.3532,   14.1170,   14.2442,   14.0569,   14.3616,   15.3782,   16.9872,   17.9360,   17.6930,   18.2105,   18.2872,   18.3587,   18.3780,   18.5831,   19.0097,   19.2944,   19.1924,   19.5166,   21.0888,   21.9814,   22.4986,   22.9077,   23.2598,   24.0700,   23.9381,   24.4708,   25.0424,   25.1204,   23.8263,   24.0759,   24.5585,   25.1115,   25.5317,   26.1273,   25.4943,   25.3624,   26.3013,   26.1745,   31.3848,   18.7583,   14.9098,   14.1127,   33.3858,
24-SEP-2002 07:45:21.89 ,    0.7687,    1.3231,    1.9253,    2.0642,    0.8993,    1.0395,    1.4128,    1.7048,    1.5319,    0.9500,    2.5546,    5.0759,    6.5560,    7.6364,    8.3084,   10.1097,   10.1997,   10.3356,   11.1510,   12.1426,   13.0105,   13.7282,   13.5963,   13.6262,   13.1794,   13.4744,   13.9496,   14.2818,   15.4629,   15.9406,   16.7971,   17.7539,   18.2786,   18.5936,   18.3815,   18.1553,   18.4431,   18.9903,   18.8247,   19.6876,   21.5268,   22.2008,   22.3398,   22.2506,   23.0834,   23.8772,   23.6173,   23.6966,   24.5849,   25.5252,   24.9424,   24.4314,   24.0341,   24.8863,   24.1768,   24.8715,   25.8850,   25.8908,   26.9867,   27.7149,   27.2380,   29.1319,   30.3894,   32.2362,   32.7152,
24-SEP-2002 07:48:03.43 ,    1.0943,    1.4420,    1.7595,    2.0445,    1.0967,    1.1733,    1.5739,    1.9384,    1.4711,    0.9486,    2.2343,    4.4491,    5.1655,    6.4234,    8.8774,   10.1491,    9.7768,   10.2682,   11.2429,   12.1975,   13.0006,   13.4109,   13.5430,   13.7821,   13.6194,   13.4892,   13.8857,   15.0341,   15.8744,   16.1892,   16.6130,   17.2685,   18.4303,   19.4624,   19.3514,   18.8593,   19.3903,   19.8520,   19.6317,   20.3350,   21.7006,   23.0662,   23.7835,   24.1176,   23.7143,   24.1942,   22.7767,   22.3535,   23.7888,   25.9679,   25.8465,   24.6582,   23.6872,   23.9449,   25.2324,   25.5228,   24.9466,   25.0149,   26.9428,   27.0791,   26.9667,   30.0339,   30.9901,   32.4245,   32.9978,
24-SEP-2002 07:50:45.08 ,    1.9150,    3.1379,    3.0859,    2.9599,    1.8009,    1.9381,    2.6911,    2.8118,    2.2751,    2.5268,    4.1161,    5.3842,    5.9057,    6.3864,    9.2603,   10.0345,    9.5713,   10.0151,   11.3056,   12.2681,   12.9609,   13.6436,   13.2489,   13.7426,   14.0234,   13.9587,   14.0323,   14.6451,   15.2654,   15.3741,   15.8410,   16.8606,   17.5248,   17.5199,   17.9800,   18.2542,   18.7608,   19.0980,   19.4764,   19.7260,   21.0894,   22.2664,   22.9835,   23.9582,   24.3805,   24.4430,   24.1318,   24.2245,   24.4161,   25.1788,   26.0975,   25.8867,   24.3901,   24.5130,   25.2597,   25.4994,   25.5811,   26.1896,   27.6034,   27.7412,   27.7643,   30.0090,   31.1675,   32.0096,   33.2044,
24-SEP-2002 07:53:26.62 ,    2.1877,    3.5011,    3.2791,    3.0946,    2.1411,    2.2590,    2.6320,    2.5972,    2.4809,    3.4002,    5.3578,    6.6843,    7.4230,    7.3635,    9.2251,   10.1739,    9.8628,   10.0661,   11.0207,   11.9597,   12.4985,   13.4746,   12.9716,   13.6059,   14.0390,   14.1267,   13.9437,   14.3472,   15.1594,   15.6374,   16.7970,   17.7940,   17.8767,   17.5634,   17.9117,   18.4884,   18.4622,   18.9844,   19.6799,   20.1964,   21.0564,   22.1648,   22.5972,   23.3201,   23.8590,   23.6732,   23.1660,   24.8950,   24.1854,   24.7556,   24.9680,   25.0675,   25.3060,   24.8674,   25.2937,   26.2513,   26.0628,   24.6469,   26.8456,   28.0782,   27.9602,   29.3563,   30.9108,   32.0635,   33.3946,
24-SEP-2002 07:56:08.35 ,    0.9155,    1.7791,    1.5484,    1.8984,    1.3899,    1.4255,    1.5369,    1.6600,    1.4525,    2.2061,    3.9190,    4.8775,    5.7945,    7.2358,    9.6791,   10.6105,   10.0171,    9.8729,   10.5433,   11.5956,   12.2072,   12.8545,   12.6995,   13.1634,   13.1232,   13.3040,   13.5515,   13.4060,   14.2519,   15.5108,   16.7992,   17.4979,   18.1943,   17.7229,   17.7318,   18.5500,   19.0820,   19.5407,   20.2870,   20.0867,   21.2776,   23.1182,   22.3647,   22.6799,   23.1088,   23.5720,   24.0247,   23.2650,   23.0104,   24.3760,   24.7512,   24.1905,   24.5245,   24.5877,   25.3584,   26.3225,   25.1866,   25.2796,   26.3673,   27.5461,   27.4207,   29.8801,   31.1755,   33.8479,   37.0671,
24-SEP-2002 07:58:49.82 ,   -0.9737,    0.1683,    0.5685,    1.1390,    0.8060,    0.7817,    1.0732,    0.8434,    0.6101,    1.0012,    1.7794,    3.4581,    5.6925,    7.6211,    9.5155,   10.1379,    9.4343,    9.3946,   10.6009,   11.7393,   12.3102,   12.8907,   12.9217,   13.0419,   12.7140,   12.8758,   13.1170,   12.9861,   13.7218,   15.0180,   16.4953,   17.4744,   18.9412,   19.0475,   18.9086,   18.9094,   18.9143,   19.0010,   20.0410,   20.6920,   22.2788,   23.4721,   23.3550,   23.7122,   23.5693,   23.9408,   23.6278,   23.1849,   23.5383,   24.3119,   24.6310,   24.5159,   24.8484,   26.2551,   26.7080,   27.0030,   27.4335,   27.7684,   26.5049,   27.7507,   28.9557,   31.7859,   29.4822,   37.4088,   40.2413,
24-SEP-2002 08:01:31.06 ,   -0.2463,    0.4643,    1.1691,    1.6387,    1.2462,    1.1924,    1.3057,    1.2435,    0.8542,    0.8805,    1.9147,    3.6891,    6.3641,    8.2206,    9.1284,    9.5085,    9.0436,    9.5275,   11.0801,   12.3917,   12.7193,   12.9910,   12.2297,   12.9595,   12.9647,   12.7090,   12.9043,   13.6316,   14.5632,   15.4042,   16.4233,   17.0522,   18.0843,   19.0690,   19.1222,   19.7481,   20.1547,   20.2087,   20.5767,   20.9359,   22.8478,   23.8196,   23.9506,   24.1978,   24.0429,   23.0482,   23.4578,   23.5732,   24.0448,   23.8835,   24.2327,   24.4142,   25.1838,   26.2251,   26.7364,   26.4884,   26.1787,   26.9553,   28.3612,   29.7083,   29.7762,   28.7473,   31.4870,   31.8169,   32.6217,
24-SEP-2002 08:04:12.34 ,    1.1993,    1.6656,    2.3103,    2.3365,    2.2387,    1.9866,    1.6715,    1.9730,    1.4812,    1.4971,    2.6707,    3.6443,    5.4198,    7.9370,    9.0088,    9.5318,    9.5315,   10.2053,   11.3651,   12.3476,   12.9155,   13.3580,   13.0053,   13.6597,   13.1656,   11.4894,   11.8964,   13.2496,   14.5319,   15.4232,   16.7236,   17.5167,   18.0842,   18.7816,   18.7597,   18.9958,   19.7570,   20.4692,   21.2796,   21.5370,   23.4829,   24.0966,   24.1652,   24.1807,   24.5497,   23.9180,   23.2697,   23.9987,   23.7842,   23.6611,   24.7345,   26.3683,   22.7675,   26.0739,   29.7012,   29.9647,   28.9486,   30.5244,   31.7522,   32.2548,   33.6846,   33.1195,   34.7089,   31.9998,   33.2193,
24-SEP-2002 08:06:54.04 ,    1.7814,    1.8690,    2.0765,    2.5234,    2.3167,    1.8769,    1.5513,    1.8502,    1.6685,    2.2012,    3.1302,    4.6726,    5.7632,    7.7519,    9.8589,   10.5272,   10.8235,   11.3001,   11.7020,   12.1697,   13.3609,   14.2837,   14.1200,   13.6977,   13.8105,    8.2552,    8.7433,   10.2853,   12.2251,   13.9193,   14.5080,   14.5434,   14.8650,   15.8272,   16.1177,   19.8432,   16.1143,   15.5763,   16.0591,   15.7858,   15.3347,   15.1924,   15.7007,   16.1171,   17.1753,   17.0088,   16.1810,   17.1826,   17.6573,   18.6382,   24.4259,   24.1131,  999.0000,  999.0000,   31.4670,   37.3318,   38.0380,   36.9785,   38.3589,   39.5395,   40.5571,   41.0713,   41.0460,  999.0000,   10.4258,
24-SEP-2002 08:09:35.64 ,    0.7138,    0.7878,    1.1533,    1.8383,    1.4357,    1.2771,    1.5372,    1.3025,    1.4571,    2.5915,    4.5861,    6.1099,    6.7170,    7.8128,    9.7219,   10.4125,   11.0120,   11.3841,   11.9743,   12.4738,   13.6151,   14.2352,   13.9333,   13.2385,   13.1795,    8.1539,    8.2552,    8.6013,    8.8906,    9.0308,    9.8540,    9.7753,    9.0092,   10.0443,    9.5331,   19.2539,    7.4309,    7.0400,    4.5844,    2.3886,   -1.6919,   -2.8532,   -1.4595,    0.1769,    1.4798,    3.0346,    3.0364,    4.3187,    5.1637,    7.8055,  999.0000,  999.0000,    6.8209,  999.0000,   10.8714,  999.0000,  999.0000,   26.4234,   27.4384,   28.3906,   28.8056,   29.2199,   29.9492,   30.4900,   30.9055,
24-SEP-2002 08:12:17.36 ,   -0.7334,   -0.5724,    0.5119,    1.4667,    1.5143,    1.4734,    1.6076,    1.1959,    1.1603,    1.8145,    3.7570,    4.6149,    4.5447,    6.0119,    8.1328,    9.3463,    9.4485,   10.1519,   11.5003,   12.1633,   13.0107,   13.7125,   13.6569,   13.8342,   14.1117,   13.8185,   13.5596,   14.1024,   14.8193,   14.9084,   15.4358,   16.5340,   17.3604,   18.1651,   18.1156,   18.1788,   18.9107,   20.1863,   20.9475,   22.4846,   23.3036,   23.8750,   23.5189,   23.7792,   24.0441,   23.7125,   23.9111,   24.4140,   24.6426,   24.5345,   24.6876,   24.3010,   25.2542,   26.5235,   27.3753,   27.5652,   29.0533,   31.0266,   27.7893,   27.8059,   27.5102,   29.3178,   20.9231,   30.9614,   20.1197,
24-SEP-2002 08:14:59.69 ,    0.5560,    0.4405,    1.1972,    1.8312,    2.3629,    2.3149,    2.5456,    2.2707,    1.9064,    1.7610,    2.8047,    3.6402,    3.6665,    6.0716,    8.7607,    9.9258,    9.3429,    9.7905,   11.1264,   12.2460,   13.0732,   13.7652,   13.8241,   13.5259,   13.6996,   13.6678,   13.2139,   13.7538,   14.7134,   15.2985,   16.2525,   16.7825,   17.6074,   18.1613,   18.3818,   18.9075,   19.8716,   20.4267,   21.3100,   22.7842,   22.8708,   24.5298,   23.9420,   24.2683,   24.5158,   24.2152,   23.8185,   25.0740,   25.8011,   26.3165,   25.9726,   25.1287,   25.6263,   26.3832,   26.5577,   30.7832,   35.2344,   39.9628,   28.3565,   29.3216,   30.4895,   30.9643,    2.8404,   32.8777,   -1.8074,
24-SEP-2002 08:17:42.03 ,    0.9416,    0.7049,    0.8937,    1.6432,    2.2056,    2.4332,    2.4492,    2.2232,    1.8894,    2.1573,    3.1315,    3.8842,    4.7430,    6.8247,    9.0776,   10.1703,    9.9677,   10.1425,   11.1495,   12.3801,   13.3939,   13.8685,   13.5682,   13.8235,   14.1407,   14.2020,   13.8491,   14.4863,   15.2938,   15.2574,   15.7628,   16.9315,   17.7978,   18.4884,   18.6621,   18.9438,   19.9441,   20.5475,   21.5703,   22.3953,   23.5247,   24.4035,   24.9642,   24.8748,   24.8364,   23.8836,   23.5486,   24.4060,   25.9559,   26.4734,   26.5127,   25.8917,   25.8188,   26.2981,   26.2302,   26.7974,   26.5066,   27.5041,   27.8807,   28.5656,   28.9064,   31.3016,   31.3815,   31.7418,   32.5439,
24-SEP-2002 08:20:23.15 ,    0.3394,    0.3427,    0.8445,    1.4385,    1.9584,    1.8910,    1.3983,    1.2232,    1.2674,    1.8118,    2.1823,    3.3652,    4.4890,    6.9704,    9.8161,   10.6012,   10.6813,   11.3516,   11.7089,   12.4008,   13.5395,   14.0100,   13.1922,   12.6010,   13.3349,   13.9629,   13.5967,   13.7479,   14.6596,   14.6319,   15.1272,   16.3889,   17.6212,   18.6295,   18.8390,   18.9970,   20.2096,   21.0878,   22.1641,   22.4452,   23.3297,   24.0755,   23.8495,   24.8153,   25.3716,   23.5499,   23.6699,   24.4086,   26.1936,   25.5530,   26.1561,   26.3842,   26.4601,   25.6857,   25.2633,   25.4126,   26.0120,   27.3935,   28.5805,   29.7676,   30.0761,   30.2430,   30.2216,   30.9787,   31.7550,
24-SEP-2002 08:23:04.60 ,    0.7768,    1.4604,    2.0542,    1.6967,    1.8480,    1.9270,    1.7938,    1.7312,    2.3547,    3.0251,    3.5783,    4.1304,    5.5776,    9.0864,   11.1529,   10.8161,   10.5730,   11.0848,   11.4949,   12.3923,   13.0839,   13.6068,   12.8639,   13.0986,   13.3228,   13.3611,   13.6529,   13.9140,   14.1705,   13.9904,   14.7436,   15.6195,   16.8853,   18.0812,   18.4090,   18.2780,   18.9928,   19.3064,   20.9561,   22.0402,   22.7693,   23.4822,   22.6053,   22.9312,   24.0305,   23.7013,   23.9917,   24.5800,   25.3229,   24.7652,   25.4629,   26.3276,   26.6435,   26.4123,   26.1522,   26.0282,   26.2416,   27.7133,   28.7204,   30.0671,   30.3656,   30.3445,   31.7899,   31.8461,   32.3813,
24-SEP-2002 08:25:45.89 ,    0.0854,    1.8530,    2.6487,    2.4700,    2.7721,    3.2727,    3.3573,    3.6018,    4.2597,    4.6821,    5.3464,    6.0838,    7.2730,    9.0144,   10.1548,   10.2413,   10.1088,   10.2958,   11.0553,   11.9367,   12.6483,   13.2101,   12.5063,   12.9243,   13.1509,   13.6173,   13.9140,   13.9292,   14.0015,   13.9632,   13.7937,   15.0282,   16.1942,   17.3428,   17.6246,   17.6927,   19.3302,   20.0424,   20.9099,   21.2721,   22.5367,   23.4319,   23.1250,   22.9065,   23.0582,   23.0739,   23.7052,   24.6688,   24.5052,   25.1559,   25.3860,   25.5822,   25.9248,   26.4769,   25.8068,   25.5935,   26.0986,   26.8029,   27.0515,   29.0969,   30.2235,   30.4495,   31.7142,   31.1321,   30.9062,
24-SEP-2002 08:28:27.90 ,   -0.4611,    0.5888,    2.1936,    2.9062,    2.6152,    3.0439,    3.2764,    3.2434,    3.3998,    3.7223,    4.1675,    5.8206,    7.0608,    7.7617,    9.2971,    9.4588,    9.7353,   10.2524,   11.1485,   11.9142,   12.7025,   13.4352,   13.4418,   14.2499,   13.5227,   13.3223,   13.7638,   13.4995,   13.4957,   14.6967,   14.6547,   15.8454,   17.1817,   17.6926,   17.9807,   17.8782,   19.2613,   20.0179,   20.7683,   21.9638,   23.7071,   24.6202,   24.0566,   23.9935,   23.3350,   23.2741,   22.9502,   23.1820,   24.1076,   25.9183,   26.0487,   25.4544,   26.3519,   25.8441,   24.9137,   24.9159,   25.8173,   26.7982,   27.5945,   28.4738,   28.9161,   29.3863,   30.9058,   31.5936,   31.3098,
24-SEP-2002 08:31:09.86 ,   -0.7325,   -0.5612,    0.8775,    2.0177,    2.0879,    2.4667,    2.0649,    1.6429,    1.7620,    1.9049,    2.3670,    3.7567,    5.1125,    7.2944,    9.6530,    9.8235,    9.6842,   10.0428,   10.9552,   11.7775,   12.3182,   12.9540,   12.7456,   13.4871,   13.2909,   12.6789,   12.8666,   13.5319,   14.1527,   14.3741,   14.9692,   16.6085,   17.9010,   17.8555,   17.5226,   17.5496,   18.0906,   18.7360,   20.2507,   21.7137,   23.5991,   23.7687,   23.7327,   23.8630,   23.6621,   22.6138,   22.6933,   23.2572,   23.6055,   24.9318,   25.7478,   26.1424,   26.3072,   26.2887,   25.4809,   25.1492,   25.6888,   26.7850,   27.5146,   28.5571,   28.6019,   29.4371,   30.7705,   31.1166,   31.5620,
24-SEP-2002 08:33:51.00 ,   -0.5499,   -0.1365,    0.8461,    1.8717,    2.5349,    2.9506,    2.0803,    1.7794,    1.7998,    1.5619,    2.0555,    3.5997,    4.8135,    7.8254,   10.1656,   10.3243,    9.8580,   10.1155,   11.0676,   11.9826,   12.6732,   13.0303,   12.1506,   12.5027,   12.7378,   12.8488,   12.9722,   13.6188,   14.9050,   15.1327,   15.7163,   16.6502,   17.8627,   18.0572,   17.4540,   17.5024,   18.5858,   19.3052,   20.4116,   21.0760,   22.7239,   23.4780,   23.6086,   23.8389,   23.2566,   23.1473,   23.4290,   24.0156,   24.9722,   25.4642,   26.4652,   26.9071,   26.8842,   26.0640,   25.4763,   26.3058,   28.0368,   28.4146,   28.6200,   29.7529,   28.7950,   29.3661,   30.3849,   32.7540,   33.2260,
24-SEP-2002 08:36:32.36 ,   -0.6050,   -0.2888,    0.3988,    1.2676,    2.0567,    2.4932,    1.9485,    1.5656,    1.3917,    1.7439,    2.8815,    4.9684,    6.8420,    8.8938,    9.6612,   10.3112,   10.1315,   10.4886,   11.3441,   12.2776,   12.9203,   13.1065,   12.6131,   12.8286,   12.6037,   12.5358,   12.5979,   13.6091,   14.4607,   14.8254,   15.3636,   16.4623,   17.6646,   17.5249,   17.8479,   18.1922,   19.1202,   20.3659,   22.4155,   23.2260,   23.2831,   23.8546,   23.2704,   21.9398,   20.8066,   24.8445,   20.1819,   20.7396,   21.4121,   20.1627,   19.6318,   19.8628,   20.0855,   18.9761,   17.7384,   18.3334,   19.4305,   26.6967,   27.2185,   27.3724,   28.0900,   22.3154,   23.5439,   26.6771,   34.1155,
24-SEP-2002 08:39:50.85 ,   -1.3347,   -1.0677,   -0.8560,    0.1072,    1.8488,    1.8215,    1.9466,    1.5352,    1.6347,    2.2453,    3.5062,    4.9216,    6.2471,    8.3157,    9.2348,   10.2499,   10.3895,   10.9735,   11.2494,   12.0973,   12.8301,   13.1911,   12.3378,   12.7467,   12.6540,   14.0431,   14.8929,   14.6708,   15.0077,   14.2151,   14.6950,   15.2375,   16.5772,   16.2411,   18.3087,   19.3487,   19.4530,   22.5218,   25.5115,   27.6513,   21.6851,   20.2162,   23.1056,   18.2742,   13.6246,   13.3305,    5.4231,    6.4518,    6.5788,    5.6061,    4.4086,    2.0327,    1.8547,   -0.2426,   -1.4333,   -2.0882,   -0.7725,   29.0334,   30.1633,   31.1019,   31.9284,    4.3761,    4.0781,    6.4770,   34.1504,
24-SEP-2002 08:42:32.69 ,   -1.5064,   -0.3937,    0.2782,    1.0939,    1.6216,    1.5570,    1.7224,    1.3934,    1.7616,    1.8990,    2.0233,    2.9940,    4.7909,    7.3830,    9.2234,   10.1428,   10.6147,   11.0975,   11.5923,   12.2986,   12.9740,   13.6307,   12.9054,   12.9814,   13.0627,   13.0320,   13.2927,   13.8902,   14.1737,   14.3178,   14.9193,   15.7208,   17.3295,   17.8589,   18.7039,   18.9394,   19.5192,   20.2012,   20.8172,   22.5654,   23.2293,   23.8657,   24.9041,   25.4924,   24.1126,   23.2866,   23.3129,   24.4949,   24.9882,   25.5787,   26.1569,   24.9152,   24.8756,   25.7574,   26.5709,   27.3408,   27.0487,   27.7646,   28.5651,   27.8646,   28.5906,   28.5475,   29.3830,   31.2694,   32.3671,
24-SEP-2002 08:45:15.88 ,   -1.2029,    0.4682,    1.5373,    2.3282,    2.3602,    1.7653,    1.3956,    0.9646,    1.1397,    1.4969,    2.2909,    4.1353,    5.6969,    7.3622,    9.1584,   10.2418,   10.3450,   11.0484,   11.8544,   12.1816,   12.6106,   13.0960,   12.3896,   12.8236,   13.0704,   12.9725,   12.8749,   13.4327,   14.2546,   15.0315,   15.7967,   16.7644,   18.8906,   19.3632,   19.7810,   20.1502,   20.2252,   20.7773,   21.1560,   22.4792,   22.9312,   23.5565,   24.8689,   25.6232,   24.2771,   24.2327,   23.4221,   24.0170,   24.1668,   24.8335,   25.3222,   24.1891,   24.9064,   26.5975,   26.7250,   26.6252,   25.9645,   27.4664,   27.7093,   27.4015,   28.5013,   29.6831,   30.1119,   29.3548,   31.7116,
24-SEP-2002 08:47:57.33 ,   -0.0052,    1.2148,    1.8650,    2.5582,    2.8967,    3.0299,    2.3406,    1.7427,    1.6023,    1.5638,    2.2035,    3.7548,    4.6524,    6.1110,    8.8161,   10.8091,   10.4729,   10.8330,   11.2685,   11.9172,   12.5003,   12.6883,   13.1670,   13.6072,   13.0660,   12.5465,   12.7550,   13.2792,   13.7404,   14.2557,   14.7764,   15.9499,   16.8545,   17.4476,   17.6957,   18.3295,   18.9353,   20.0809,   20.5570,   22.0027,   22.4084,   23.4460,   23.5151,   23.3875,   24.4872,   25.5782,   24.2270,   25.0345,   25.7608,   26.2081,   25.4428,   25.2813,   25.2397,   26.2495,   26.9383,   26.6068,   26.6439,   27.4292,   28.0754,   29.1346,   29.5540,   30.5599,   31.1182,   31.5407,   31.9101,
24-SEP-2002 08:50:39.17 ,   10.2699,  999.0000,  999.0000,  999.0000,  999.0000,    2.3354,    1.6496,    1.2977,    1.0754,    1.3033,    2.7091,    3.7991,    4.7955,    6.3361,    8.2718,   10.0490,    9.9145,   10.3998,   11.2529,   12.1296,   12.5890,   12.6856,   12.6458,   13.0793,   12.5964,   12.0368,   12.4221,   13.3457,   14.2118,   14.3165,   14.5767,   15.4954,   16.5893,   17.3026,   17.4385,   17.9231,   18.4464,   19.0822,   20.3721,   21.5151,   22.2976,   23.0155,   23.2479,   22.7293,   23.9829,   25.0163,   24.9419,   24.5729,   25.5379,   25.6819,   25.5037,   24.8136,   25.0855,   26.1416,   26.8402,   26.0493,   27.6195,   28.5020,   28.0349,   28.4991,   29.9904,   20.9732,   19.3650,   20.1160,   32.4842,
24-SEP-2002 08:53:21.51 ,   13.2289,  999.0000,  999.0000,  999.0000,  999.0000,    0.4684,    0.5478,    0.6955,    0.9304,    1.3423,    3.0575,    3.9821,    5.1345,    6.9614,    8.7069,    9.6562,    9.8256,   10.7068,   11.6309,   12.1155,   12.5573,   12.5500,   12.4530,   13.0100,   13.2261,   12.5163,   12.0265,   12.1665,   13.3302,   13.8534,   13.7204,   14.2682,   15.8947,   16.9655,   17.4554,   17.5143,   17.6640,   18.8647,   19.9609,   20.8568,   21.9306,   22.4888,   23.4608,   23.7635,   23.9169,   24.5935,   24.2761,   25.1173,   25.9180,   25.8623,   25.4865,   24.3628,   24.7929,   24.8979,   26.0045,   26.0767,   27.0825,   27.9012,   27.1076,   30.3153,   30.1719,    0.6512,   -1.6340,   -2.7160,   31.8167,
24-SEP-2002 08:56:03.30 ,    0.4007,    1.9474,    2.7457,    3.1927,    3.0319,    3.0320,    3.2106,    2.4825,    3.0713,    3.2609,    3.3947,    4.3507,    5.6827,    7.6230,    8.9389,    9.7887,   10.3186,   11.0958,   11.7441,   12.3686,   12.8739,   13.0324,   13.1247,   13.1608,   13.3474,   12.5957,   11.9523,   12.6524,   13.9422,   14.5449,   14.5826,   15.0824,   16.3676,   17.8936,   17.7237,   17.8413,   18.7213,   19.8300,   20.2013,   20.9074,   22.0516,   22.1104,   23.0563,   23.7229,   24.5426,   24.5363,   24.2641,   24.6844,   25.2273,   24.5202,   24.4865,   24.6575,   24.4250,   24.8367,   25.4194,   23.7011,   22.2153,   22.2102,   21.6101,   21.4493,   21.8536,   21.6879,   22.5731,   23.5551,   23.8946,
24-SEP-2002 08:58:44.88 ,  999.0000,  999.0000,    1.7306,    2.6868,    3.0025,    3.3397,    3.3960,    3.0224,    3.3764,    3.7844,    3.8535,    4.9799,    6.2376,    8.0770,    8.8131,    9.2462,    9.9307,   10.6835,   11.5013,   12.3827,   12.8779,   13.2806,   12.9571,   13.0367,   12.9963,   12.0011,   11.2424,   11.6596,   13.0340,   13.8275,   14.4511,   15.6092,   16.7172,   18.1475,   18.5435,   18.3060,   18.2637,   19.2167,   20.1053,   21.3265,   22.3512,   22.7159,   22.6273,   23.6303,   24.7264,   24.4681,   24.0273,   24.3208,   25.1019,   23.6804,   23.9943,   25.3861,   25.2289,   22.6999,   19.9623,   17.3924,   14.4741,   11.7230,   11.2657,    8.8074,    7.2906,    8.9225,    9.2083,    9.0475,   10.2352,
24-SEP-2002 09:01:29.93 ,  999.0000,  999.0000,    0.6834,    1.1430,    1.1514,    0.9247,    0.9321,    1.3147,    1.8451,    2.4815,    3.2366,    3.6296,    5.1596,    7.2526,    8.0185,    9.1665,    9.7314,   10.2831,   10.9853,   11.8042,   12.6822,   12.9769,   12.5913,   12.9399,   13.2211,   12.4131,   11.5676,   11.9048,   12.2911,   12.4748,   13.7255,   15.6579,   16.6649,   17.1732,   17.6438,   18.0954,   18.5717,   19.4453,   20.2374,   20.8793,   20.8390,   22.2311,   23.1097,   22.8983,   24.4672,   24.8870,   24.8881,   24.5552,   25.0708,   25.2065,   25.7568,   25.7690,   25.5539,   25.7134,   25.8804,   27.3326,   28.5178,   28.7839,   28.5980,   29.2045,   29.4580,   30.3822,   31.2597,   30.6747,   31.6518,
24-SEP-2002 09:04:11.37 ,   -1.2697,   -0.3948,    0.4488,    0.5269,    1.3248,    1.3417,    1.1559,    1.1469,    1.5755,    1.5630,    2.1704,    2.3959,    4.1696,    6.9601,    7.8226,    8.9028,    9.4331,   10.2287,   11.0433,   11.7536,   12.5559,   12.8729,   12.4225,   12.4850,   12.3017,   11.5120,   11.3028,   11.6205,   12.0950,   12.9552,   14.0241,   14.9343,   15.9795,   17.3990,   18.0480,   17.7808,   18.3055,   20.0456,   20.9610,   21.9633,   22.9641,   23.8456,   24.5157,   24.2411,   25.7259,   25.9268,   26.3291,   26.0095,   26.0440,   26.4052,   26.1678,   26.3492,   26.9051,   27.3996,   27.7990,   27.0846,   27.4044,   27.6707,   28.0146,   28.3296,   28.9966,   29.7871,   30.0186,   30.5755,   30.9050,
24-SEP-2002 09:06:53.10 ,   -0.4488,   -0.0775,    1.0919,    1.5502,    2.3014,    2.6808,    2.6395,    2.1672,    2.1963,    1.9243,    2.2320,    2.5755,    4.4791,  999.0000,    8.4403,    8.5018,    9.0980,    9.9493,   10.7440,   11.3066,   11.8900,   12.3492,   11.7431,   11.2835,   11.1222,   11.1694,   11.3814,   10.9925,   11.9648,   13.4312,   14.1534,   14.4945,   16.2667,   17.4023,   17.4404,   18.1785,   18.7579,   19.5694,   21.0583,   22.1582,   23.0890,   24.4308,   25.0683,   24.1261,   24.8675,   25.6487,   25.9438,   26.2051,   26.7185,   26.1837,   26.5149,   26.3321,   26.4284,   27.4277,   27.5679,   26.9172,   27.2386,   27.1113,   27.6749,   26.8642,   28.8607,   30.2691,   30.0028,   30.1319,   28.8684,
24-SEP-2002 09:09:34.58 ,   -0.7644,    0.5279,    1.3821,    2.2437,    2.4338,    2.3921,    2.1540,    1.9934,    2.1454,    2.1143,    2.5718,    4.2773,    6.1419,  999.0000,    8.0085,    8.6311,    9.5661,   10.0285,   10.7233,   11.4163,   12.0049,   12.6014,   12.0200,   12.0186,   11.7486,   11.3703,   11.4195,   11.7901,   12.4798,   12.8432,   13.2945,   14.1607,   16.4700,   17.4696,   17.3876,   18.4638,   19.9112,   20.3996,   21.1541,   21.7744,   23.1978,   24.4254,   24.2820,   24.5017,   25.4719,   25.7947,   25.9602,   26.8536,   26.6854,   25.5650,   26.2015,   26.1728,   26.6479,   26.9969,   26.5164,   26.8147,   27.1411,   27.1767,   26.5515,   27.5964,   28.8093,   29.9897,   30.0833,   29.3241,   28.5043,
24-SEP-2002 09:12:16.04 ,   -1.0084,    1.0581,    1.3610,    2.4470,    2.4843,    1.6931,    1.3745,    1.4879,    1.9194,    2.1079,    2.7321,    5.0064,    5.7951,    6.2220,    7.6568,    9.0241,    9.9102,   10.3176,   11.6008,   12.6592,   12.7815,   12.9991,   12.8071,   12.4744,   11.6712,   10.9861,   10.9170,   11.2340,   12.0665,   13.1844,   14.7184,   15.9491,   17.6207,   18.8400,   19.0651,   19.8326,   21.0304,   21.4706,   22.3325,   22.6433,   23.7397,   24.7243,   24.7514,   24.4558,   24.9783,   25.8345,   26.0235,   25.5911,   25.8977,   25.1547,   25.9186,   26.5010,   27.4102,   30.4461,   25.2989,   25.9317,   18.3892,   19.2396,   27.2024,   21.7055,   22.2770,   30.4366,   30.8559,   29.2420,   28.6310,
24-SEP-2002 09:14:57.21 ,   -0.5714,    0.3498,    1.1291,    1.9278,    2.1792,    1.7524,    1.8340,    1.3361,    1.5855,    1.8213,    2.3044,    4.0337,    5.0830,    5.8891,    7.8814,    8.8363,    9.5727,   10.6321,   12.2264,   13.0361,   13.0751,   13.1306,   12.9242,   12.4420,   12.4834,   11.8691,   11.7781,   12.4331,   12.7763,   13.7654,   15.0040,   16.2193,   17.8369,   18.7055,   19.0401,   20.0483,   21.2000,   21.2614,   21.8593,   22.2471,   23.1029,   24.2097,   24.0345,   24.2642,   24.9795,   27.0144,   27.2724,   27.2625,   28.0792,   25.7213,   25.7153,   27.8266,  999.0000,   38.9274,   29.7131,   29.7131,    1.9190,    4.6566,   30.6314,    8.2708,    8.1775,   31.1892,   31.1333,   30.3489,   32.0426,
24-SEP-2002 09:17:38.63 ,   -0.0175,    0.3206,    0.6182,    1.0524,    1.8655,    2.7388,    2.3245,    1.9384,    1.9062,    2.0353,    2.8283,    4.8189,    6.5813,    6.5611,    7.5413,    8.6975,    9.7185,   10.6628,   11.7570,   12.5201,   12.9088,   12.8922,   12.9880,   12.9520,   12.9737,   12.6023,   12.4199,   12.7454,   13.3599,   14.7110,   15.9072,   16.7494,   17.9003,   18.2493,   19.0655,   19.7666,   21.1354,   22.1074,   22.1403,   21.6845,   21.7772,   23.3742,   23.8505,   24.8832,   25.5511,   25.4818,   26.9849,   27.6385,   27.2161,   25.7120,   25.7979,   26.8830,   27.1329,   27.4536,   31.8394,   31.5901,   31.5991,   31.0740,   30.7228,   31.5237,   33.7536,   34.4456,   35.7663,   34.9354,   33.2487,
24-SEP-2002 09:20:31.28 ,    0.3405,    0.5033,    0.3342,    0.6626,    1.8217,    2.7164,    2.6248,    5.2867,    7.8047,   10.3800,   13.3108,   15.8007,   17.4307,   18.2840,   17.1731,   15.7884,   15.0690,   13.0476,   11.8633,   12.4746,   12.9679,   13.0162,   13.3238,   13.4051,   12.7736,   12.7854,   13.0345,   12.5017,   12.5387,   14.5512,   16.0747,   16.9657,   18.1973,   18.6134,   18.8154,   18.8917,   19.6786,   21.6638,   21.9953,   21.8629,   22.5578,   24.3871,   25.0868,   25.8198,   26.4432,   26.9148,   27.6393,   26.5219,   26.1499,   26.1594,   27.1254,   27.9443,   28.3400,   29.5862,   39.3792,   40.1192,   39.8514,   40.3082,   39.2059,   40.9919,   41.5068,   42.1015,   43.2680,   41.3451,   42.6720,
24-SEP-2002 09:23:13.18 ,   -1.0338,   -1.0242,   -0.4758,   -0.0027,    0.8516,    1.2355,    2.3185,    5.2632,    8.2775,   11.0577,   14.0668,   16.2086,   17.2563,   19.2444,   18.0501,   16.5980,   15.2968,   13.2099,   12.1016,   12.5330,   12.7050,   12.7677,   12.4322,   12.4705,   12.6688,   12.8172,   11.0493,   10.5932,   10.2803,   11.1410,   12.5278,   13.3045,   14.5349,   15.2924,   16.5347,   17.4294,   19.3204,   20.1547,   21.5998,   21.4749,   22.2996,   23.9379,   24.5749,   25.3639,   26.5782,   27.4926,   27.3244,   25.5878,   25.4396,   24.9152,   25.5339,   26.8704,   25.6040,   24.7784,   25.9350,   21.8789,   26.5400,   27.1719,   27.1731,   29.1490,   29.6246,   29.8963,   31.8626,   31.3804,   34.4968,
24-SEP-2002 09:25:54.80 ,   -2.8829,   -2.5862,   -1.2360,   -0.3945,   -0.0915,    0.4807,    1.5481,    1.9429,    2.6620,    2.2787,    0.6332,   -0.8643,   -0.1548,    1.1939,    1.9241,    3.8141,    5.5908,    7.4598,    8.7453,    9.9257,   10.0326,   11.2918,   12.1877,   12.1204,   10.9770,    9.1387,    7.7219,    5.1650,    3.6482,    4.2934,    5.9652,    6.3531,    9.8484,   13.2569,   15.9710,   15.0053,   19.2855,   26.1674,   27.3836,   27.0914,   26.9458,   27.7471,   28.2545,   29.2988,   29.8243,   26.4815,   26.3915,   25.3627,   14.6291,   15.1050,   26.3033,   26.0179,   15.6011,   15.9333,   15.4762,   27.6836,   25.9713,   27.4165,   32.1456,   30.9907,   29.4805,   29.9640,   31.8758,   31.1467,   29.1504,
24-SEP-2002 09:28:36.83 ,   -2.4571,   -2.0311,   -0.8594,    0.0466,    0.5951,    1.3342,    1.7850,    2.0891,    2.8341,    2.5602,   -0.3517,   -2.6983,   -2.1137,   -1.2318,    0.5771,    2.3257,    4.4699,    6.4606,    7.8539,    9.5070,    9.6763,   11.5321,   13.1219,   13.2136,   12.1899,   11.1667,   11.7144,   12.8725,   13.8810,   15.2086,   16.1173,   17.2892,   21.3998,   26.0300,   28.2422,    3.0229,    2.7137,   38.3102,   38.6605,   36.1212,   35.5999,   35.8552,   36.1613,   37.1695,   38.8567,   34.7055,   31.3565,   27.1608,  -11.7930,  -11.7111,   22.2774,   20.6797,   -5.3116,   -4.3181,   -5.1268,   -5.4314,   21.0300,   24.0365,   39.7665,   35.1366,   29.1272,   30.3733,   32.3988,   31.0152,   29.3381,
24-SEP-2002 09:31:27.71 ,   -2.1826,   -2.0466,   -0.9778,   -0.1133,    2.0094,    2.3573,    2.1431,    2.6023,    3.4946,    3.7737,    3.1225,    3.0488,    3.9712,    5.5160,    7.0035,    8.1200,    8.7592,   10.0113,   11.6702,   12.7089,   12.7327,   12.6612,   12.7006,   12.6424,   12.6232,   12.4281,   12.3883,   13.1520,   14.1912,   15.3284,   16.9008,   17.6371,   18.2725,   19.4804,   19.5318,   20.0636,   21.6928,   22.5464,   21.9450,   21.7788,   22.1041,   22.6083,   22.4487,   23.5769,   23.8855,   23.9037,   22.8087,   22.8381,   25.2294,   24.7612,   24.8606,   25.3653,   25.4793,   24.6819,   24.3651,   25.6245,   26.7713,   27.2413,   27.1886,   28.7190,   28.9898,   28.9910,   30.0652,   29.7104,   30.2281,
24-SEP-2002 09:34:08.94 ,   -2.1827,   -1.7754,   -1.2997,    0.1651,    2.3827,    2.5889,    2.2926,    2.8146,    3.4398,    3.3052,    3.0174,    3.1829,    3.6909,    5.8541,    7.6832,    8.6408,    9.3466,   10.3211,   11.6963,   12.9776,   13.1778,   13.0144,   12.6205,   12.8009,   13.1500,   12.9331,   12.8084,   13.4069,   14.1800,   15.2026,   15.8582,   16.5744,   17.1432,   19.0404,   19.0431,   19.0919,   20.3032,   20.9897,   21.1018,   21.7130,   21.8801,   22.4445,   23.2892,   23.7483,   24.0801,   25.2413,   24.7676,   23.4619,   24.7484,   24.9999,   26.1793,   27.3566,   27.2571,   25.6828,   24.8411,   25.6946,   26.4175,   27.8191,   28.2184,   28.0038,   28.9391,   29.1159,   29.5463,   29.2920,   29.2907,
24-SEP-2002 09:36:51.11 ,   -2.6968,   -2.0016,   -0.8875,    0.6243,    1.7576,    1.1778,    0.5558,    0.8797,    1.5955,    1.8097,    1.8900,    2.4294,    3.0032,    5.2295,    7.0377,    8.9714,    9.8355,   10.6841,   12.1567,   13.3945,   13.4131,   13.3381,   13.3822,   13.3998,   13.5958,   12.9499,   12.5441,   13.2010,   13.7348,   14.5383,   15.3853,   16.6469,   16.7519,   17.9814,   18.3656,   18.8321,   19.8811,   20.3550,   19.5585,   21.6338,   21.6268,   22.8064,   24.1198,   24.7103,   25.4437,   26.5285,   25.8861,   24.8656,   25.0945,   25.8342,   27.7339,   28.7352,   27.0711,   25.9673,   26.3762,   26.7700,   26.9969,   27.6758,   27.9073,   28.1524,   29.1069,   29.6985,   29.7821,   28.8710,   28.5147,
24-SEP-2002 09:39:32.70 ,   -3.3613,   -2.4468,   -0.9156,   -0.8565,    0.3053,   -0.1758,   -0.7930,   -0.4642,    1.0631,    1.7988,    1.9279,    2.6841,    3.6561,    5.2224,    6.0386,    8.2546,    9.4866,   10.9519,   12.3148,   13.1149,   13.1073,   12.9565,   13.1668,   13.1359,   13.1155,   12.3777,   12.2342,   13.0143,   13.7679,   14.3667,   15.5486,   16.5927,   17.5329,   18.1382,   19.3680,   20.3790,   20.8131,   20.9719,   21.2508,   21.9901,   22.4831,   23.7049,   24.1766,   24.3284,   24.7931,   25.2366,   25.4026,   25.8013,   26.0475,   27.0803,   28.2086,   29.0121,   27.2457,   26.5151,   28.0409,   27.7972,   27.8705,   29.1320,   28.7852,   28.8493,   29.2838,   29.8440,   29.9054,   29.8444,   28.8656,
24-SEP-2002 09:42:14.47 ,   -6.1984,   -4.8612,   -2.7943,  999.0000,   -0.8330,   -0.2284,   -0.4849,    0.0272,    1.3507,    2.3046,    1.9707,    3.3597,    5.4342,    6.8945,    7.4040,    8.6432,    9.3846,   10.7995,   12.3300,   13.2916,   13.1553,   13.1728,   13.4823,   13.2509,   13.3559,   12.4942,   11.9550,   13.1312,   13.9019,   13.8751,   14.3479,   15.9522,   18.4906,   19.0295,   19.6440,   19.8234,   20.1545,   20.8832,   21.6057,   21.7460,   21.3931,   22.7214,   23.6156,   24.3146,   25.1812,   25.9052,   26.0109,   26.7343,   26.9435,   27.5015,   28.7119,   29.1461,   27.5467,   27.5746,   27.9993,   28.9962,   29.0491,   29.4479,   30.1954,   29.1824,   28.9596,   29.2969,   29.8782,   29.5096,   28.8484,
24-SEP-2002 09:44:56.60 ,   -6.2659,   -4.7184,   -2.9766,  999.0000,    0.5828,    1.5362,    1.2653,    2.0870,    3.2947,    3.3747,    2.9493,    4.5137,    5.7654,    7.4531,    7.7892,    9.3508,   10.1159,   11.2519,   12.8010,   14.0568,   13.3981,   13.0580,   13.6316,   13.6487,   13.6891,   13.1997,   13.0371,   13.4489,   14.0062,   14.1585,   15.3012,   17.2772,   18.5493,   18.8579,   18.9969,   18.9917,   19.4195,   20.4358,   20.9982,   20.0522,   20.3258,   21.9288,   23.3889,   23.9655,   24.3602,   24.5717,   24.7408,   26.5176,   26.9116,   27.2956,   28.7976,   29.0304,   28.4270,   28.0331,   28.1691,   28.6375,   27.8976,   28.4597,   29.5416,   29.7898,   30.5891,   31.0562,   31.5442,   30.9022,   29.4569,
24-SEP-2002 09:47:38.68 ,  999.0000,  999.0000,  999.0000,    2.0637,    2.4564,    3.0436,    3.1563,    3.8794,    5.0541,    4.3062,    4.1391,    5.6072,    6.8349,    7.6981,    8.1852,    9.2538,   10.3981,   11.9631,   13.0807,   13.8167,   13.7495,   13.1908,   13.7029,   13.7790,   13.5422,   13.4567,   13.9319,   14.5396,   14.9313,   15.5841,   16.4825,   17.6904,   18.6317,   19.0335,   19.0359,   19.4079,   19.7518,   20.2929,   20.9256,   20.6108,   21.9417,   22.8111,   24.1127,   25.7625,   26.2628,   26.0798,   25.5994,   26.1907,   26.6724,   27.3362,   28.4010,   28.2249,   29.2632,   31.2757,   31.9524,   32.7009,   27.9086,   28.7026,   30.0412,   30.9366,   30.3834,   31.6806,   32.4585,   30.9247,   32.3623,
24-SEP-2002 09:50:20.41 ,  999.0000,  999.0000,  999.0000,    1.8920,    2.0000,    1.7471,    1.6022,    2.4999,    3.8433,    3.9857,    3.7584,    4.9412,    6.8498,    7.3431,    7.9469,    8.7470,   10.1608,   11.5614,   12.4971,   13.4886,   13.5177,   13.1339,   13.0285,   13.1391,   13.0924,   13.3132,   13.1521,   13.8102,   14.6400,   15.2860,   16.5767,   17.9337,   19.1118,   19.4402,   19.8620,   20.4461,   21.0207,   22.1944,   22.8155,   21.6047,   21.7473,   23.1371,   25.7535,   27.2771,   26.4882,   25.9550,   25.6260,   25.8486,   26.8040,   27.1443,   29.2401,   28.8496,   30.1077,   36.6609,   38.1135,   39.6145,  999.0000,   37.7232,   29.5852,   30.1345,   29.5263,   30.7288,   31.1457,   31.1662,   30.2615,
24-SEP-2002 09:53:01.80 ,  999.0000,  999.0000,   -1.0514,   -0.0346,    0.2031,   -0.1700,   -0.3686,    0.4264,    2.0752,    3.1337,    3.4900,    4.7555,    6.0114,    7.0454,    7.7720,    8.7669,   10.3677,   11.3053,   12.5925,   13.9124,   13.2014,   12.5370,   12.5739,   13.7218,   11.9478,   12.2167,   12.2328,   12.3402,   12.7986,   13.1860,   13.6415,   14.8074,   15.3258,   15.8571,   16.8511,   18.0555,   19.8945,   21.4918,   21.7103,   22.2896,   21.8658,   23.0741,   25.5443,   27.9471,   28.1128,   27.1028,   25.9779,   26.0082,   28.0960,   29.0805,   30.1698,   30.7132,   30.8247,   31.0198,   30.7668,   30.2353,   29.5715,   29.3109,   30.2693,   30.8573,   30.7756,   30.8502,   31.1863,   30.6538,   29.5414,
24-SEP-2002 09:55:52.79 ,   -2.0683,   -1.8199,   -0.7916,    0.1253,    0.4850,   -0.0028,   -0.2043,   -0.0889,    1.0083,    1.7922,    3.0278,    4.4831,    5.8217,    7.5461,    8.3039,    9.1624,   10.5963,   11.7199,   12.8523,   13.6112,   13.3760,   13.0276,   12.5647,   11.9434,    7.7375,    7.3876,    7.7617,    8.3095,    8.7524,    9.2651,    9.7360,   10.3659,   11.1196,   11.7815,   12.5225,   12.8748,   15.7519,   18.3961,   20.1652,   20.2188,   21.6560,   22.8767,   24.1509,   26.3089,   27.1002,   26.0419,   26.1384,   27.5717,   30.7504,   31.0858,   31.0892,   31.4330,   32.1184,   33.7163,   32.4626,   31.5975,   31.2857,   30.1458,   31.1403,   31.2691,   31.5883,   31.9269,   31.8512,   29.2991,   28.8625,
24-SEP-2002 09:58:34.08 ,   -1.7798,   -1.8442,   -0.3386,    1.1624,    2.0045,    1.0644,    0.3649,    0.6786,    1.5599,    1.6024,    2.4542,    3.9037,    5.5518,    7.4350,    8.6007,    9.7373,   10.7448,   12.0017,   12.7615,   13.5006,   13.6732,   13.4940,   13.1506,   12.5222,   11.9814,   11.6300,   11.5999,   11.2478,   11.4141,   12.3167,   12.7220,   13.4437,   14.6242,   15.8239,   16.6876,   16.9540,   17.8931,   19.1170,   18.1731,   17.5041,   19.2927,   21.4002,   23.0003,   25.9825,   26.5098,   25.5687,   25.7073,   26.4333,   27.7296,   28.6082,   28.7936,   29.2980,   29.9533,   30.4030,   29.6117,   29.6230,   28.7588,   28.6147,   29.5751,   30.1505,   30.4622,   31.3299,   31.0623,   29.7724,   29.8843,
24-SEP-2002 10:01:27.14 ,    0.1365,    0.3832,    0.7785,    1.2424,    1.7266,    1.3024,    0.5353,    1.2077,    2.5986,    2.7581,    2.7204,    4.2296,    5.8677,    6.6466,    8.4008,    9.6421,   10.0685,   11.4571,   12.5992,   13.3320,   13.1661,   12.6626,   12.7881,   12.1212,   11.7627,   11.4994,   10.6585,    8.9928,    8.6773,    9.3356,   10.0263,   10.5685,   11.0311,   11.3532,   11.4042,   12.2241,   12.7639,   12.9953,   12.8132,   12.9419,   15.8169,   17.9599,   20.4919,   23.9113,   24.4617,   23.9363,   25.0139,   26.2184,   26.8068,   27.0498,   27.8565,   28.0243,   28.3403,   29.1907,   29.6241,   29.1315,   29.7429,   28.6770,   29.3052,   29.8612,   30.4929,   30.7816,   31.6999,   30.7852,   21.2253,
24-SEP-2002 10:04:08.75 ,    0.7668,    0.8754,    0.8652,    0.8577,    1.0730,    1.1636,    1.0121,    1.1997,    1.8820,    2.5772,    2.4996,    3.9018,    5.5564,    6.6071,    8.0334,    9.0925,    9.8480,   10.8578,   11.6812,   12.5869,   12.9934,   12.6933,   12.7388,   11.4566,   11.1120,   11.5284,   12.4676,   13.0381,   14.1741,   15.3434,   16.3846,   17.4126,   18.3036,   18.2875,   18.7644,   19.6029,   19.8713,   20.2745,   19.9817,   20.5723,   21.6176,   21.2315,   22.4381,   23.2900,   24.2033,   24.4789,   25.2481,   25.9561,   26.6938,   27.7344,   28.3379,   28.4900,   28.5273,   29.0582,   29.5810,   29.7039,   30.3979,   28.4392,   28.9421,   30.2986,   30.7923,   30.8825,  999.0000,   32.1628,    1.8037,
24-SEP-2002 10:06:52.69 ,   -1.2115,   -1.3805,   -0.1755,   -0.1711,    0.4919,    1.1686,    1.1379,    1.3695,    2.5417,    3.0613,    3.0268,    3.9722,    5.0627,    6.7370,    7.4840,    8.6186,    9.3235,   10.2882,   10.9127,   11.3456,   12.6516,   13.0338,   12.8593,   12.9516,   13.0898,   12.7038,   12.4243,   12.6931,   13.4104,   14.0399,   15.0185,   16.0387,   17.1888,   18.0375,   18.6540,   19.3266,   19.8635,   20.5587,   20.6244,   21.1319,   21.3309,   21.6713,   22.3932,   23.9153,   24.4758,   24.1044,   24.3832,   24.6441,   25.9743,   26.3978,   26.8081,   27.7160,   28.2509,   29.4231,   29.7593,   30.7637,   31.0242,   29.1826,   29.4050,   29.8897,   29.6358,   29.8005,   30.0577,   28.7764,   27.8774,
24-SEP-2002 10:09:33.72 ,   -1.9009,   -1.8170,   -0.3239,   -0.5225,    0.5685,    1.2890,    1.3354,    2.1290,    3.6087,    3.8516,    3.6264,    3.9417,    4.9064,    6.8220,    7.4211,    8.3251,    9.0329,    9.8037,   10.8657,   11.5034,   12.6134,   12.7176,   11.8129,   12.7020,   12.4427,   12.0546,   11.8672,   12.0999,   13.2184,   14.0724,   14.8729,   15.9179,   16.6839,   18.0718,   18.6884,   19.4909,   20.5852,   21.9490,   21.7605,   22.2079,   22.1237,   22.4695,   22.3606,   23.6681,   24.2257,   23.2809,   23.3563,   24.5311,   25.2746,   25.7286,   27.2767,   27.5992,   27.6716,   29.0893,   29.0454,   30.6237,   31.1546,   30.4153,   29.4162,   29.1723,   29.2575,   29.2056,   29.2236,   28.9053,   27.5773,
24-SEP-2002 10:12:14.94 ,   -3.3156,   -1.5481,   -0.6398,   -0.0856,    1.7411,    1.6013,    1.8280,    3.3230,    4.2681,    3.6822,    3.4501,    3.9400,    5.2124,    7.0326,    7.9439,    8.9550,    9.4943,   10.0732,   11.7141,   12.8731,   13.3369,   12.9259,   13.5528,   13.1984,   12.3330,   11.8728,   11.9602,   12.5743,   13.3326,   13.5570,   14.3921,   15.2818,   15.9811,   18.9554,   19.5114,   20.3469,   21.4817,   22.0581,   22.0406,   23.1006,   23.5471,   23.3532,   24.1177,   24.5384,   23.9862,   24.1813,   25.7477,   26.5321,   26.2794,   26.8252,   27.9126,   29.0563,   29.0974,   28.9848,   28.8138,   29.5793,   30.4787,   30.6623,   29.8270,   29.0456,   28.7400,   28.5692,   28.4595,   28.8103,   28.8801,
24-SEP-2002 10:14:56.06 ,   -2.0238,   -0.6780,   -0.0483,    0.5317,    1.4498,    1.3360,    1.1875,    2.2080,    3.2352,    3.0247,    2.9573,    3.6788,    5.7068,    7.4230,    7.8254,    8.5047,    9.4009,   10.4006,   12.1269,   12.7525,   12.9463,   12.9162,   13.2081,   13.0461,   12.6590,   12.0287,   11.6471,   11.5954,   14.4449,   14.5984,   15.3341,   15.8636,   15.8960,   16.8109,   17.9629,   18.3376,   19.5067,   20.2933,   20.7972,   21.8066,   23.1589,   23.9569,   23.5174,   23.8047,   24.3759,   24.7754,   26.9318,   27.4876,   27.7603,   28.1876,   28.0209,   28.9769,   28.5961,   29.3634,   28.6515,   29.6906,   29.4047,   29.6164,   29.7854,   29.2525,   27.7934,   27.7717,   28.2518,   28.4601,   27.5595,
24-SEP-2002 10:17:38.09 ,   -1.3829,   -0.7691,    0.6752,    1.5826,    1.4935,    1.2744,    0.7817,    1.3399,    3.0248,    3.0882,    2.6398,    2.6895,    4.9200,    7.3423,    8.4341,    8.5390,    9.5357,   10.5408,   11.7734,   12.1871,   12.4168,   12.1814,   11.6316,   10.8885,   10.5717,   10.9537,   12.2350,   13.1796,   18.5183,   17.3503,   18.6604,   18.9074,   18.1451,   19.1201,   19.2278,   19.1783,   20.7250,   21.8645,   22.2598,   22.5167,   23.2865,   24.5021,   24.2048,   24.3559,   25.1654,   25.8228,   27.1714,   28.1751,   28.8437,   29.0126,   28.8605,   29.5662,   29.2727,   29.3401,   30.4970,   31.1896,   31.3744,   31.7934,   32.5525,   30.9907,   28.9428,   28.8649,   28.2013,   27.8118,   27.7177,
24-SEP-2002 10:20:19.51 ,   -2.0650,   -2.2180,   -0.8994,   -0.3468,    1.0227,    1.1694,    0.7646,    1.0877,    2.8150,    3.2354,    2.8210,    2.5339,    4.6067,    6.7880,    8.3363,    8.9919,    9.4841,   10.4204,   11.6881,   12.2091,   12.1793,   11.9084,   11.6261,   11.7444,   11.0138,   11.3310,   11.5088,   11.5435,   11.9255,   12.8463,   14.1235,   14.7927,   16.3298,   19.2680,   20.0226,   19.5064,   20.8556,   22.0090,   22.9411,   22.8584,   22.8651,   23.5378,   24.6887,   25.8671,   26.3609,   28.3242,   27.8187,   32.9370,   33.1312,   34.6674,   35.8074,   38.2834,   36.9785,   38.9999,   40.7369,   33.6616,   33.2435,   41.1955,   40.2719,   37.5378,   34.5847,   30.8185,   28.5411,   27.1500,   27.4921,
24-SEP-2002 10:23:00.84 ,  -13.5237,  999.0000,  999.0000,   10.3698,    8.2976,    6.0681,    2.9736,  999.0000,    2.0032,    2.9029,    2.8398,    3.1295,    4.5267,    5.3600,    6.9418,    7.9194,    8.6570,    9.6437,   10.6226,   11.1550,   11.3460,   11.3243,   12.1754,   11.9564,   11.5677,   11.7332,   11.7545,   11.9203,   12.3920,   13.0142,   14.0351,   15.2755,   15.8335,   16.7404,   18.6605,   19.7686,   20.4850,   21.9690,   22.4018,   21.1519,   21.4397,   21.7571,   24.5651,   26.6082,   28.1852,   33.0169,   25.7172,   41.9752,   42.1560,   44.8843,   47.7972,   50.5202,   51.3765,   53.9886,   55.3028,   30.7529,   29.9188,   58.4727,   52.7989,   48.3909,   41.9989,   36.9550,   32.5269,   28.6776,   27.9257,
24-SEP-2002 10:25:53.77 ,  -12.7219,  999.0000,  999.0000,   13.6608,   10.5807,    7.1725,    3.7783,  999.0000,    2.2921,    2.9097,    2.8927,    3.3108,    3.7374,    5.1712,    7.3529,    8.4374,    9.1666,    9.2856,   10.1796,   11.5563,   12.1610,   11.2396,   12.4052,   11.8443,   11.7476,   11.6133,   11.2101,   11.7251,   12.3046,   12.5863,   13.4577,   15.0884,   16.1970,   16.7412,   18.0963,   19.4815,   20.7366,   21.6856,   21.1912,   21.3571,   22.0559,   22.8573,   24.3724,   25.5930,   25.5437,   26.6926,   27.5323,   27.5255,   27.5176,   27.7529,   29.0107,   29.5931,   29.4277,   30.7794,   30.5240,   30.2991,   31.3585,   32.0247,   32.6278,   33.4549,   32.0945,   30.6926,   29.6466,   29.4976,   29.4929,
24-SEP-2002 10:28:35.17 ,    0.6977,    0.6568,   -0.9240,    0.9465,    2.5099,    2.0617,    1.7128,    2.3807,    3.0770,    3.8710,    4.0922,    5.0257,    5.7582,    6.9199,    7.6917,    8.8456,    9.6971,    9.9717,   11.7180,   12.9099,   12.4446,   11.6048,   12.6831,   11.6502,   10.7289,   10.2828,   10.3345,   11.3087,   12.6570,   13.1025,   13.7746,   14.2921,   14.8209,   15.8074,   17.5240,   18.0888,   18.8799,   18.8743,   20.4920,   21.8673,   22.9160,   24.6727,   26.6188,   28.4442,   29.1181,   31.0161,   31.4121,   31.9908,   27.4473,   32.4371,   29.7825,   28.3921,   29.7855,   20.3244,   31.2019,   31.9232,   33.3577,   23.2723,   23.5214,   29.1621,   22.6415,   23.2996,   30.5549,   29.4110,   30.0192,
24-SEP-2002 10:31:28.46 ,    9.1359,  999.0000,   -6.3213,  999.0000,    2.3827,    2.1038,    1.9839,    3.3051,    3.3912,    4.1425,    4.6626,    5.4586,    6.3893,    7.2998,    7.6594,    8.5370,    9.7127,   10.9014,   12.2160,   12.6581,   12.2444,   12.2998,   12.5168,   11.7639,   11.4966,   11.4050,   11.6446,   12.4426,   13.3130,   13.8160,   14.2870,   14.6259,   14.9251,   15.5183,   16.5404,   16.0883,   17.6311,   16.6008,   18.9015,   22.0135,   25.3651,   29.1000,   32.9333,   36.2959,   39.0982,   41.6925,   44.5041,   45.7977,   28.2440,   49.9223,  999.0000,   -1.0672,  999.0000,    3.6140,  999.0000,  999.0000,  999.0000,    5.1449,    3.1564,  999.0000,  999.0000,  999.0000,   20.7114,   18.3551,   -1.0423,
24-SEP-2002 10:34:09.96 ,    9.3390,  999.0000,   -7.9511,  999.0000,    2.1415,    1.9642,    1.9490,    3.1617,    3.0951,    3.9152,    4.0644,    4.0355,    5.4879,    6.9969,    7.6097,    8.6822,    9.8926,   11.5604,   12.3873,   12.9045,   13.2413,   13.1537,   13.3302,   12.8029,   11.9717,   11.3140,   11.1759,   11.6231,   12.5581,   13.5162,   14.2908,   15.1070,   16.2645,   17.6901,   17.8785,   18.2992,   18.8425,   19.5982,   20.6752,   21.7127,   22.8443,   24.3774,   25.2379,   28.0377,   29.6408,   31.6645,   33.3335,   32.9460,   35.3858,   36.0471,   37.8453,   28.4597,   39.8440,   41.4620,   42.7727,   44.2775,   45.3314,   -4.8353,   -3.1936,  999.0000,   -7.8942,   -8.5270,   -8.8295,   -8.8939,   18.1159,
24-SEP-2002 10:36:51.14 ,   -0.7494,   -0.8907,   -0.3461,    1.4229,    2.8254,    2.4442,    1.8486,    2.2312,    2.2398,    3.5799,    3.7986,    3.7393,    4.8275,    6.5442,    7.2645,    8.6133,   10.2714,   11.7351,   12.3574,   12.8590,   13.0365,   12.9370,   13.1382,   13.0945,   12.4496,   11.6138,   11.3398,   11.8224,   12.8249,   13.7983,   14.3395,   14.9886,   15.9463,   18.2321,   18.0455,   17.7716,   17.9706,   18.8535,   20.2957,   21.5530,   22.6306,   24.4559,   25.4894,   26.3668,   26.5948,   27.1903,   26.7822,   27.9918,   27.5844,   28.3186,   28.3930,   28.4151,   28.6126,   29.9493,   29.7857,   30.2556,   31.0597,   30.6677,   29.9329,   30.1125,   29.6221,   29.7428,   30.1031,   29.8311,   30.0049,
24-SEP-2002 10:39:32.86 ,    2.4538,    1.9557,    0.6205,    0.5937,    1.9918,    2.4496,    1.5495,    1.4541,    1.9500,    3.1594,    3.7901,    4.7976,    5.9834,    6.5776,    7.1438,    8.2892,    9.7878,   10.7585,   11.7350,   12.4504,   12.6141,   12.5402,   13.0973,   13.0782,   12.4223,   11.5688,   11.8508,   12.3358,   12.5415,   13.3191,   14.1304,   14.5040,   14.7976,   16.9807,   17.6312,   18.1054,   18.2794,   19.4327,   21.0356,   22.3472,   23.2561,   23.4153,   23.9120,   24.0361,   24.8116,   25.6917,   25.5542,   26.3564,   25.9872,   26.8971,   26.9158,   26.8030,   27.9142,   29.3122,   29.4788,   29.8389,   30.1151,   29.0595,   29.3002,   29.0864,   28.1499,   28.7846,   29.6625,   29.5431,   29.5135,
24-SEP-2002 10:42:14.95 ,   -7.9028,   -6.9701,   -6.5244,   -5.2972,   -0.9790,    1.6566,    1.0029,    1.3667,    2.0843,    2.9552,    3.6054,    4.8102,    6.2892,    6.9108,    7.2894,    8.1444,    9.5151,   10.5863,   11.6949,   12.4180,   12.4016,   12.4136,   12.4504,   12.7687,   -4.2841,   -4.6766,   -4.6741,   -4.0393,   -4.0718,   14.4474,   15.0350,   15.6426,   16.5188,   17.4695,   15.9762,   16.3684,   16.6885,   16.5897,   18.5243,   19.4134,   21.7359,   21.2765,   22.1294,   21.6482,   23.2418,   24.7914,   29.7474,   30.6682,   25.7875,   31.4232,   31.9681,   27.8912,   28.3405,   32.8833,   29.8063,   29.9184,   31.4242,   31.9067,   31.5588,   28.4451,   29.8818,   28.0784,   28.9931,   29.9571,   31.2002,
24-SEP-2002 10:44:57.26 ,  -12.9782,  -10.6615,   -8.1991,   -4.7165,    0.0294,    2.0432,    1.7964,    2.0447,    2.5313,    3.0178,    3.2611,    3.3903,    4.9182,    6.4823,    6.6050,    7.6799,    9.7846,   10.8036,   11.6242,   12.1814,   12.1231,   12.0715,   11.7115,   11.2417,  -39.9670,  -39.8728,  -39.5346,  -38.5090,  -40.8110,   16.4361,   16.9979,   18.0014,   18.1962,   18.0549,   11.8386,   13.0207,   14.4390,   14.5492,   14.2977,   14.1671,   23.0808,   22.1301,   24.1196,   24.5145,   25.5999,   26.5888,   40.8294,   41.1699,  999.0000,   43.8247,   42.4622,   40.2980,   39.3975,   42.8922,   37.8831,   38.7313,  999.0000,  999.0000,   37.4635,   21.9368,   38.5528,   25.0096,   27.5776,   31.4308,   32.7956,
24-SEP-2002 10:47:39.09 ,   -1.7122,   -1.2644,   -1.6296,    0.5820,    2.5589,    3.0395,    2.3906,    2.3873,    2.9702,    3.6846,    3.6971,    3.4533,    4.1429,    5.6797,    6.2169,    7.8402,   10.1366,   10.9460,   11.6835,   12.2892,   12.4689,   12.4503,   11.5349,   11.7691,   11.9331,   12.0829,   12.2879,   12.8429,   13.3155,   13.7276,   15.1817,   16.0646,   16.2981,   17.3915,   17.0300,   17.3486,   18.1830,   19.2694,   20.1515,   21.6187,   22.2738,   23.7310,   24.1942,   24.5981,   24.8700,   25.7510,   26.5738,   26.0358,   26.5566,   27.9551,   27.4408,   28.6637,   30.3776,   31.9880,   32.4024,   31.0795,   31.9137,   31.8016,   32.3819,   32.1721,   30.5999,   29.4842,   30.2157,   30.0069,   29.9170,
24-SEP-2002 10:50:20.86 ,   -2.4152,   -1.4755,   -1.3536,    0.0160,    1.3372,    2.3954,    1.5316,    1.8090,    2.9577,    3.8944,    4.1826,    4.5705,    5.3576,    6.3339,    6.7081,    8.2996,   10.6210,   11.6334,   12.1158,   12.4200,   12.3183,   12.0574,   12.0051,   11.7250,   11.7875,   11.7420,   11.7591,   12.1123,   12.5716,   13.5567,   14.3364,   14.9368,   15.4338,   15.8377,   16.8150,   18.0491,   18.7794,   19.6584,   19.9172,   21.0004,   22.5390,   23.7282,   23.8006,   24.5232,   26.3531,   26.2006,   25.6479,   26.2079,   27.1285,   27.2390,   27.0805,   27.2881,   28.7095,   31.0892,   31.9539,   31.6341,   31.6850,   31.7049,   31.2318,   32.0710,   32.3800,   32.0727,   32.0308,   31.5529,   30.2637,
24-SEP-2002 10:53:03.28 ,  -13.0302,  999.0000,  999.0000,  999.0000,    0.9817,    1.3675,    1.6441,    2.0617,    2.7949,    3.6735,    4.5017,    5.5060,    6.3232,    6.4909,    6.8723,    8.2282,   10.0543,   11.3138,   11.8384,   12.1755,   12.4541,   12.2650,   12.1056,   12.0519,   11.9771,   11.5793,   11.5216,   11.9354,   12.2676,   13.1443,   13.9887,   15.0551,   15.6251,   16.6090,   17.9166,   18.0538,   18.6667,   19.5847,   19.7793,   21.5721,   22.3174,   23.4666,   23.9187,   25.3322,   26.4309,   24.7936,   25.2653,   25.6751,   26.3700,   26.6287,   28.0157,   28.4847,   29.1436,   30.9767,   31.8523,   32.3341,   32.1075,   32.1995,   30.8154,   31.8055,   32.3222,   30.7897,   31.2456,   30.9318,   30.8376,
24-SEP-2002 10:55:55.91 ,  -25.1451,  999.0000,  999.0000,  999.0000,    1.1781,    1.8668,    2.6167,    2.9919,    3.1013,    3.6825,    4.0856,    5.0671,    6.0239,    5.7447,    7.0909,    8.4959,    9.8580,   11.4121,   11.9265,   12.0879,   12.5433,   12.5800,   12.0907,   12.2228,   12.0527,   11.6871,   11.5702,   12.4882,   12.9239,   13.4047,   14.0214,   14.7265,   15.6751,   16.5826,   17.7305,   18.8165,   18.9958,   19.1463,   19.7670,   22.0575,   22.1203,   22.6491,   24.0400,   25.4958,   24.6203,   24.1339,   23.6965,   24.7520,   26.1905,   26.0927,   27.1438,   27.9199,   29.2961,   29.4827,   30.6878,   30.2599,   31.8711,   30.6234,   29.5509,   29.9218,   29.6314,   29.3983,   30.5905,   29.8398,   29.0247,
24-SEP-2002 10:58:37.50 ,  -16.0896,  999.0000,   -1.6153,   -0.5767,    0.7876,    2.4035,    2.6422,    2.8641,    3.3833,    4.2708,    4.3132,    5.0134,    5.8650,    5.7353,    7.1283,    8.7607,   10.0448,   11.3443,   11.7542,   11.8054,   12.1123,   12.2059,   11.7823,   11.8237,   11.5884,   11.6035,   11.9846,   12.2098,   12.5656,   13.1810,   13.6946,   14.1931,   15.2793,   16.4684,   17.1098,   18.0681,   18.8809,   19.5739,   19.1584,   19.9569,   22.0554,   23.1997,   22.7425,   23.7173,   25.2041,   24.0340,   22.8000,   24.5622,   25.4462,   26.4976,   27.2662,   28.0305,   29.6722,   29.2896,   30.0133,   29.5314,   31.1457,   30.9730,   30.3609,   30.4405,   29.7747,   30.1724,   30.4219,   30.5919,   28.3250,
24-SEP-2002 11:01:21.31 ,  -11.2188,  999.0000,  999.0000,  999.0000,  999.0000,  999.0000,  999.0000,    2.3901,    3.2448,    4.2392,    4.6495,    4.6471,    4.7409,    5.6735,    6.4039,    8.0657,   10.0025,   10.9499,   11.2339,   11.3703,   11.8094,   11.8819,   11.7518,   12.0656,   11.8482,   11.7716,   11.8920,   11.9734,   12.0858,   12.7333,   13.3441,   13.8492,   14.2817,   16.1650,   18.0401,   18.8321,   18.7586,   19.1095,   19.5937,   20.8793,   23.1516,   24.6599,   24.0910,   25.3036,   26.0429,   25.4235,   25.3652,   25.9024,   26.4753,   26.9353,   28.1838,   28.9768,   29.2586,   30.0886,   30.8047,   30.4947,   31.2562,   31.0763,   30.0842,   29.4166,   30.4081,   29.9189,   30.6266,   30.4217,   27.5732,
24-SEP-2002 11:04:02.70 ,  -21.0765,  999.0000,  999.0000,  999.0000,  999.0000,  999.0000,  999.0000,    2.2404,    2.9432,    3.5521,    3.7035,    4.3503,    5.6747,    6.5132,    6.7331,    7.2579,    9.1961,   11.0266,   11.4024,   11.3342,   11.6278,   11.3163,   12.1528,   12.4204,    7.4427,   11.5143,   11.0465,   11.1482,   11.8025,   12.5808,   12.7797,   13.5412,   14.3766,   15.9310,   16.6800,   16.7739,   16.9926,   17.3570,   18.3353,   19.6567,   21.9675,   22.1769,   22.4301,   23.1912,   22.5938,   22.1546,   22.3609,   23.0137,   23.2594,   23.8181,   25.9115,   25.9171,   25.6348,   27.9416,   27.8210,   30.2406,   30.5555,   29.5927,   28.8991,   28.9112,   28.9554,   29.4246,   30.5968,   29.7198,   28.3441,
24-SEP-2002 11:06:44.50 ,  999.0000,  999.0000,    7.4474,  999.0000,    2.2289,    2.3335,    2.4520,    2.1188,    2.9617,    3.7512,    3.9821,    5.4399,    6.8714,    7.3077,    7.3986,    7.5809,    9.5012,   11.4083,   11.7403,   11.6248,   11.7488,   11.1395,   10.6745,   10.7899,   -1.9498,   11.1950,   10.4121,   10.9065,   11.5232,   12.2702,   12.2613,   12.8093,   13.3545,   15.2708,   13.9256,   12.1696,   11.8838,   12.1358,   12.9646,   13.8724,   14.7032,   15.0320,   15.4266,   15.7344,   14.8330,   14.4829,   14.0384,   13.9614,   13.0467,   13.5290,   16.1552,   17.3350,   19.4682,   22.1607,   36.0704,   27.3051,   27.7469,   29.0125,   27.8059,   27.7693,   28.4660,   28.8455,   30.0659,   29.8225,   29.2167,
24-SEP-2002 11:09:25.99 ,  999.0000,  999.0000,  999.0000,    8.0918,    5.6672,  999.0000,    2.4276,    2.6166,    3.8027,    4.4567,    4.8905,    5.1976,    5.2498,    6.5806,    7.1673,    8.1025,   10.0571,   11.6500,   11.8252,   11.5707,   11.5326,   11.7653,   11.6255,   11.2406,   11.8311,   11.6363,   11.3768,   11.7840,   12.7077,   13.0616,   13.3587,   13.8143,   14.3248,   15.1858,   15.8302,   17.7682,   18.6105,   18.7055,   20.1663,   21.6658,   22.2737,   23.2305,   24.2034,   23.9632,   21.7373,   18.8710,   16.3640,   14.8604,   13.2496,   13.9259,   14.5091,   15.0723,   15.4073,   17.3952,   18.6839,   21.1641,   25.0183,   26.4255,   27.5648,   27.8068,   29.7207,   29.6404,   29.7967,   30.2834,   30.4534,
24-SEP-2002 11:12:09.26 ,  999.0000,  999.0000,  999.0000,   10.5059,    6.1234,  999.0000,    2.4440,    2.6234,    3.0896,    2.6708,    2.4983,    2.1091,    2.2293,    3.6153,    3.8904,    5.1488,    7.4936,    9.2897,   10.6309,   11.3835,   11.4788,   11.5415,   11.4551,   11.1127,   11.6708,   11.5460,   11.4205,   11.5859,   11.8975,   12.2099,   12.6428,   12.9655,   14.1288,   14.8934,   15.7378,   17.7522,   18.9657,   19.0594,   18.8467,   20.9110,   20.8502,   21.5978,   22.0132,   19.3780,   21.0909,   18.7274,    7.4020,    7.5357,    7.3276,    7.8629,    8.0642,   18.0464,   19.6951,   17.2091,   18.9209,   20.7036,   29.4733,   28.2409,   21.9349,   21.1027,   21.2978,   28.5084,   23.6813,   24.2966,   24.5319,
24-SEP-2002 11:14:51.01 ,  999.0000,    0.4274,  999.0000,    2.1556,    1.8921,    2.4792,    2.5135,    2.8420,    2.7855,    2.4207,    2.3833,    2.4378,    2.2354,    2.7185,    2.9289,    4.1856,    6.7014,    8.4738,   10.2375,   11.2734,   11.7066,   11.5928,    9.4792,    9.4628,   11.0486,   10.8383,   10.6352,   11.1209,   11.6301,   11.9862,   12.8578,   12.3925,   13.5930,   14.7576,   16.4337,   18.4166,   18.9216,   21.8870,   23.5419,   23.7479,   24.3807,   24.0874,   24.0781,   24.6985,   24.7397,   26.2472,   -0.1609,   -0.4030,   -1.0809,   -1.1933,   -1.4242,   30.1126,   29.7796,    8.5617,    7.5083,    4.6689,   29.9422,   29.8600,    8.0878,    7.4380,    7.3260,   30.0091,   12.0918,   12.6379,   13.0346,
24-SEP-2002 11:17:32.68 ,  999.0000,  999.0000,  999.0000,  999.0000,    2.6044,    3.1169,    3.0886,    3.5921,    4.2572,    4.6691,    5.4461,    5.4190,    4.9175,    6.1470,    6.5365,    7.1798,    9.0418,   10.9374,   11.4171,   11.2851,   11.4596,   11.9417,   11.4619,   11.5157,   11.1368,   10.7567,   10.7721,   11.1298,   11.5527,   11.9652,   12.7568,   13.7011,   14.6332,   15.3309,   16.7356,   18.4080,   20.7953,   14.8126,   11.1165,   17.3972,   19.0042,   19.0698,   19.7178,   21.9471,   24.9932,   26.7159,   31.4392,   31.7770,   25.9474,   28.2122,   29.2731,   30.2307,   29.5748,   19.5970,   29.9624,   19.2352,   19.8184,   31.1727,   19.7937,   17.9872,   29.1625,   29.9641,   31.0219,   30.5760,   29.7507,
24-SEP-2002 11:20:25.60 ,  999.0000,  999.0000,  999.0000,  999.0000,  999.0000,  999.0000,  999.0000,   -0.7037,    0.4246,    1.5539,    2.9485,    4.2138,    5.3976,    6.2088,    6.5217,    7.1711,    8.9078,   11.1656,   11.8419,   11.9477,   11.9948,   12.6184,   10.6001,   11.0894,   10.6277,    9.5161,    9.5503,   10.0755,   10.3585,   10.3669,   10.5923,   11.3557,   12.0346,   13.0586,   14.7457,   15.5693,   16.3097,   22.5485,   23.8146,   30.6858,   33.6788,   33.7189,   35.6189,   36.5723,   38.9901,   40.8207,   42.6833,   44.5614,  999.0000,   27.1158,   27.3504,  999.0000,   29.6296,    2.9798,   33.0291,    2.7970,    1.8690,  999.0000,    1.0881,   -0.3048,  999.0000,  999.0000,   12.5537,  999.0000,   31.2095,
24-SEP-2002 11:23:07.17 ,  -14.3335,  999.0000,  999.0000,  999.0000,  999.0000,  999.0000,  999.0000,   -1.6014,   -0.5062,    0.5513,    1.6783,    3.5853,    5.3783,    5.9236,    6.7079,    7.2909,    8.7591,   10.9235,   11.5708,   11.9328,   12.2544,   12.7100,    8.0348,    8.3307,    7.4227,    6.3946,    6.0121,    5.5326,    5.4650,    5.7050,    5.7718,    6.7994,    7.9505,    7.5080,    9.3604,    9.8857,   10.5240,   11.5697,   12.5673,   13.2875,   14.0275,   13.5765,   16.2446,   18.9154,   22.3682,   24.3224,   26.9581,   26.7681,   27.7915,   31.6026,   30.6304,   30.1285,   28.9210,   28.8906,   29.2482,   29.2857,   29.5457,   28.7655,   29.5988,   29.1139,   31.4646,   29.8640,   30.2800,   30.5721,   30.5779,
24-SEP-2002 11:25:51.04 ,   -0.7831,   -0.1004,   -0.6860,   -0.1076,    1.5886,    2.0638,    1.5612,    2.0422,    2.6936,    2.8220,    2.8026,    4.1181,    5.8997,    6.6506,    7.2194,    7.3352,    8.8310,   10.4587,   10.8280,   11.0191,   11.3266,   11.6718,   11.8022,   12.4519,   12.0421,   10.2641,    8.8083,    7.2796,    6.8731,    7.0525,    7.1907,    7.5175,    8.2476,    8.3091,    9.7010,   11.8554,   14.7919,   18.2086,   19.3142,   19.9596,   21.6440,   25.2276,   25.2202,   28.3641,   31.1875,   33.1070,   35.1941,   24.6760,   23.6874,   36.3076,  999.0000,  999.0000,   28.1942,   27.1440,   26.7436,   26.3356,   25.7604,   24.5999,   26.3767,   24.9536,   27.2371,   28.4582,   30.1432,   29.8378,   30.4250,
24-SEP-2002 11:28:32.55 ,   -0.4784,    0.0200,   -0.1678,    0.6648,    1.3447,    2.2324,    1.5801,    2.1434,    2.6430,    3.0190,    3.3355,    4.4904,    6.2707,    6.8351,    7.5620,    7.6572,    9.2152,   10.6672,   10.8782,   10.9642,   11.2642,   11.3407,   12.2235,   11.9670,   15.1095,   11.6105,   11.8493,   11.4879,   11.5117,   11.8514,   12.2885,   12.6547,   13.4383,   14.4973,   14.8658,   17.4204,   19.8548,   19.5607,   18.9795,   22.7339,   20.0369,   21.8296,   23.3027,   23.2953,   23.2602,   24.3309,   25.6242,   26.4198,   28.6570,   29.5543,   29.5527,   30.2633,   29.8202,   28.8136,   20.9086,   22.3759,   31.2906,   30.1800,   29.4398,   30.3731,   31.8516,   32.0922,   30.9677,   31.1864,   30.8476,
24-SEP-2002 11:31:14.22 ,    0.5371,    1.1917,    1.6361,    1.7818,    2.3954,    3.2602,    2.0707,    2.5719,    3.0916,    3.4992,    3.5748,    3.8681,    4.5448,    5.7844,    7.2337,    7.9158,    9.3092,   10.5913,   10.6885,   10.8283,   11.4958,   11.8244,   13.2890,   11.7662,   21.7147,   11.7756,   10.9094,   10.4755,   11.2779,   12.2109,   12.9522,   12.9853,   13.2711,   13.9479,   15.5712,   17.4470,   18.3550,   15.4708,   13.0786,   38.2213,   11.1779,   13.4596,   16.4075,   18.3976,   19.8939,   22.8784,   25.0279,   32.0682,   31.4365,   31.4966,   30.2732,   38.5165,  999.0000,  999.0000,    2.8174,    7.5904,  999.0000,   38.7837,   37.6437,   34.9846,   33.9386,   32.2779,   31.3536,   31.7611,   31.3872,
24-SEP-2002 11:33:55.81 ,   -0.3065,    0.0538,    0.8143,    1.1844,    3.0221,    3.3525,    2.2359,    2.7660,    3.1370,    3.3307,    2.9955,    3.1936,    5.5361,    7.4824,    7.6322,    8.4826,    9.3595,   10.0851,   10.1243,   10.4875,   11.3222,   11.7562,   11.4702,   11.8571,   11.3892,   11.6602,   11.7401,   11.4252,   11.1129,   11.6790,   11.9750,   12.2236,   13.1362,   14.8255,   15.9908,   17.6721,   19.4678,   19.8560,   21.1859,   22.9965,   24.0557,   25.2996,   26.7158,   27.2829,   25.6847,   25.9409,   26.4675,   27.5156,   28.8329,   29.1858,   30.6019,   29.9395,   30.2503,   28.5656,   30.3143,   31.4139,   30.1784,   30.5490,   30.8732,   30.5204,   31.1367,   31.7131,   31.0474,   30.8916,   31.0717,
24-SEP-2002 11:36:38.93 ,  999.0000,   -1.0100,   -0.9044,    0.0711,    2.0373,    3.1958,    2.2971,    2.8262,    2.4984,    2.8348,    2.8976,    3.8254,    6.6872,    7.9187,    7.8401,    8.4921,    9.2233,   10.0366,    9.7407,   10.3182,   11.1287,   11.4039,   11.6589,   12.0560,   12.2476,   12.1730,   11.3052,   10.7189,   10.5132,   10.6436,   11.2763,   11.7518,   13.3546,   15.2289,   16.2896,   17.8995,   19.0895,   21.4921,   23.5266,   24.1489,   24.3700,   25.8961,   27.6827,   27.5093,   26.3758,   27.2640,   27.9256,   27.9917,   29.2527,   30.5301,   31.3720,   31.7060,   31.7665,   29.8203,   30.2993,   30.2489,   30.7680,   30.7977,   31.1686,   29.2766,   30.2677,   31.4117,   31.6623,   31.5234,   32.1016,
24-SEP-2002 11:39:20.93 ,  999.0000,   -0.3236,   -1.0156,    0.0723,    1.2089,    2.5079,    2.1896,    2.6688,    2.7687,    3.2674,    2.9613,    3.7304,    5.7916,    6.4644,    7.1571,    7.9192,    8.8905,    9.8814,    9.5089,   10.0937,   11.1687,   11.8818,   10.7418,   11.3366,   11.9624,   11.7418,   11.4577,   11.3673,   11.4409,   11.7240,   12.0106,   12.5235,   13.2388,   14.2779,   16.3231,   18.0358,   19.3279,   19.9003,   20.2928,   23.0398,   24.7570,   26.8408,   27.4352,   27.9187,   27.7607,   28.1315,   27.9941,   27.0767,   28.9728,   30.3568,   31.6136,   31.1758,   30.0563,   30.1901,   30.2451,   30.1528,   30.2492,   31.2036,   29.9343,   29.1125,   29.6243,   30.7908,   29.9789,   30.3271,   30.9844,
24-SEP-2002 11:42:09.33 ,   -0.8443,   -0.5098,    0.3959,    0.9337,    1.8720,    2.8358,    2.7393,    3.0446,    3.4406,    4.0347,    4.2514,    5.2305,    6.7553,    7.0431,    7.8635,    8.6106,    9.3998,   10.6638,   10.2119,   10.5834,   11.8668,   12.6958,   12.9325,   12.4144,   12.8222,   12.4401,   11.8151,   11.5014,   11.5809,   11.8380,   12.0069,   12.7741,   13.7095,   14.5650,   16.9089,   18.2439,   19.2373,   19.8800,   20.6023,   23.0707,   25.1008,   26.0389,   25.9697,   28.3432,   28.5410,   28.3086,   28.9381,   29.5405,   30.3982,   29.5076,   30.2971,   28.7301,   28.1081,   28.1175,   28.7129,   30.1511,   31.0184,   30.6926,   30.6645,   31.6398,   30.6193,   30.4593,   30.3005,   30.0191,   31.0599,
24-SEP-2002 11:44:50.91 ,   -0.0963,    0.7696,    2.0274,    2.0850,    2.6716,    2.9843,    2.7803,    3.2218,    3.5589,    3.7850,    4.5524,    5.7287,    6.8682,    7.0706,    7.9163,    9.1673,   10.2023,   11.2303,   10.8614,   11.2969,   12.4515,   12.8476,   12.9935,   13.1710,   13.0291,   12.8343,   12.0020,   11.2199,   11.3358,   11.5246,   11.8736,   12.4691,   13.7047,   15.0060,   16.5051,   18.2617,   19.1377,   19.6549,   20.7934,   23.0599,   25.3363,   26.3583,   26.2634,   26.8643,   26.6509,   28.6638,   28.9770,   29.6213,   30.1883,   29.1654,   30.2684,   30.7615,   28.3002,   28.1566,   28.9411,   29.1308,   29.2593,   28.4182,   28.7805,   29.6612,   29.3648,   29.9101,   29.5744,   28.9992,   29.9907,
24-SEP-2002 11:47:32.87 ,  999.0000,  999.0000,  999.0000,  999.0000,  999.0000,    3.4140,    2.9703,    3.5532,    4.0667,    3.6644,    3.5658,    3.9529,    4.6596,    5.4156,    6.2239,    8.2936,   10.2789,   10.8955,   10.7846,   11.5537,   12.8325,   13.1956,   13.5896,   14.1380,   13.2026,   12.4957,   11.9683,   11.4164,   11.4184,   11.3692,   12.4119,   13.1712,   13.6568,   14.8005,   16.2632,   18.2024,   19.6098,   20.4960,   20.7405,   22.6019,   24.7189,   26.5451,   27.0224,   27.4349,   27.2189,   27.4374,   28.5076,   29.0518,   29.8199,   29.3893,   30.0319,   29.6620,   28.8726,   28.6483,   29.1578,   30.0761,   30.1984,   29.1100,   28.8972,   29.1050,   29.0881,   29.3127,   28.5334,   28.2539,   29.4874,
24-SEP-2002 11:50:20.15 ,  999.0000,  999.0000,  999.0000,  999.0000,  999.0000,    2.9065,    3.3183,    3.9341,    4.5086,    4.0860,    3.4207,    3.9172,    4.5936,    5.7200,    6.9368,    8.5721,   10.0824,   10.6847,   10.6097,   11.4241,   12.6186,   13.6732,   12.9403,   13.4840,   12.9346,   12.3992,   12.0171,   11.8447,   11.8579,   11.9121,   12.0193,   12.4795,   13.2695,   14.9031,   15.5033,   17.7414,   19.2088,   20.4065,   21.2657,   23.4384,   25.8346,   27.0498,   27.5569,   27.8031,   27.5910,   26.4064,   27.5281,   28.5624,   29.0427,   29.0646,   29.6455,   29.6287,   29.5723,   29.2446,   29.7725,   29.4839,   29.1107,   28.9410,   29.0160,   29.5724,   28.8561,   28.9745,   29.1091,   29.0110,   30.5877,
24-SEP-2002 11:53:01.20 ,   -9.4269,  999.0000,  999.0000,  999.0000,   13.0382,   10.2562,    8.0310,    5.6980,    4.1156,    3.9300,    3.4102,    3.4828,    4.2062,    5.3805,    7.0749,    8.9919,   10.1970,   10.6085,   10.5407,   11.3314,   12.4815,   13.5433,   12.4807,   12.8178,   12.4832,   11.9772,   11.9003,   12.0794,   11.5734,   11.4381,   11.9016,   12.2205,   13.4394,   15.8159,   17.2386,   18.5894,   19.4699,   20.1675,   21.1043,   23.1647,   24.9623,   26.3482,   27.8004,   28.0874,   26.4573,   26.0410,   27.7445,   28.4090,   28.6135,   29.1324,   29.0282,   29.8491,   29.5042,   29.2030,   29.3600,   29.5312,   29.5462,   30.4125,   29.4118,   29.2634,   28.7947,   29.9459,   30.2116,   30.4588,   30.8775,
24-SEP-2002 11:55:42.78 ,    5.3160,  999.0000,  999.0000,  999.0000,   17.0765,   13.1133,    9.4034,    5.9688,    3.6253,    3.8886,    4.0477,    4.6377,    4.9895,    5.8735,    7.1168,    9.3033,   10.6166,   10.7429,   10.5725,   11.6507,   13.2084,   13.5298,   13.1308,   13.4500,   13.0553,   12.6170,   12.4759,   12.6544,   12.5858,   12.5906,   12.9450,   13.5340,   13.9212,   17.0439,   17.8235,   19.2534,   20.6666,   20.3855,   20.5038,   23.3733,   24.8420,   25.0867,   25.4272,   26.5934,   27.7253,   27.3181,   27.7831,   28.7238,   29.0661,   28.5756,   28.8601,   29.5285,   29.0319,   29.5290,   29.4470,   29.1431,   28.2550,   28.0120,   25.1109,   26.4896,   26.3610,   26.9278,   30.0717,   24.0051,   22.7023,
24-SEP-2002 11:58:24.73 ,   19.8905,  999.0000,  999.0000,  999.0000,    2.4241,    3.2340,    3.3795,    3.8363,    4.0599,    4.2601,    4.1910,    5.7342,    5.6909,    6.0443,    7.6699,    9.2606,   10.0336,   10.7747,   10.6995,   11.5110,   12.9842,   13.5324,   12.5181,    4.6044,    4.8296,    4.7706,    4.8181,    4.9035,   13.4087,   13.3215,   13.1126,   13.5873,   21.8463,   25.4001,   25.9149,   26.3376,   27.9750,   28.4156,   20.4840,   22.0388,   24.6044,   16.6498,   17.0233,   18.5801,   28.4244,   18.2129,   27.1234,   19.9140,   20.9975,   19.6290,   20.7564,   21.0381,   22.2855,   21.9701,   23.2458,   29.9100,  999.0000,  999.0000,   17.3777,   39.6754,   37.3150,   17.3539,   33.4346,   11.8672,    8.0810,
24-SEP-2002 12:01:08.08 ,   -0.3295,    0.3297,    0.5473,   -0.1247,    1.9525,    2.8319,    3.2740,    4.3579,    4.6855,    4.4727,    4.3353,    4.8130,    5.5958,    6.0952,    7.9875,    9.2781,   10.1440,   10.8375,   10.7546,   11.1115,   12.3132,   13.4081,   13.5758,  -11.9820,  -11.7554,  -12.4539,  -12.4140,  -12.7130,   12.5894,   12.9269,   13.5710,   14.3908,   38.8127,   39.8226,   39.0155,   40.4705,   43.2909,   44.5530,   24.0091,   25.2409,   26.5223,   -3.2057,   -1.7247,   -2.1726,   30.2864,   -0.6053,   32.7170,    2.3752,    3.4764,    4.4144,    4.6527,    4.7721,    5.3822,    5.5344,    6.4433,   40.8990,  999.0000,  999.0000,  999.0000,   11.7030,   16.0470,   22.0793,   26.3682,   29.3909,   30.1129,
24-SEP-2002 12:03:49.33 ,  999.0000,  999.0000,  999.0000,  999.0000,  999.0000,  999.0000,  999.0000,    4.4835,    4.8088,    4.5255,    4.3150,    4.6234,  999.0000,    7.0418,    7.8181,    9.5200,   10.4963,   11.0215,   10.9469,   11.4352,   12.4445,   13.2905,   12.4764,   13.0310,   12.8931,   13.1001,   12.8214,   12.3589,   12.2592,   12.1661,   12.5353,   13.2438,   14.0003,   14.5031,   15.5664,   17.6918,   18.8711,   19.2765,   18.9738,   20.1102,   22.8795,   23.8269,   25.7733,   26.6061,   26.4076,   26.6367,   27.2660,   28.2421,   29.0054,   29.5744,   28.7934,   28.6700,   27.4306,   28.7324,   28.3970,   29.1125,   28.0004,   27.8415,   29.0979,   30.9093,   29.2107,   29.3396,   29.1969,   28.1325,   30.2281,
24-SEP-2002 12:06:35.90 ,  999.0000,  999.0000,  999.0000,  999.0000,  999.0000,  999.0000,  999.0000,    4.2974,    4.5605,    4.4932,    4.2260,    4.7625,  999.0000,    6.8487,    7.0756,    8.6488,    9.9559,   10.5260,   10.7401,   11.5318,   12.7972,   13.4174,   12.9222,   13.1045,   13.2083,   12.9707,   12.0341,   11.8616,   12.2395,   12.4277,   12.4564,   12.6520,   13.5201,   14.8119,   15.6621,   17.8085,   19.0634,   19.5243,   20.0954,   21.4517,   24.0489,   25.4500,   27.3800,   28.0193,   26.2850,   27.5222,   28.0001,   27.9246,   28.5413,   29.5867,   29.5821,   29.5667,   28.6487,   29.2313,   29.5734,   30.5116,   29.6582,   30.1778,   30.6457,   31.2974,   29.7656,   29.2669,   29.4580,   28.8411,   30.3175,
24-SEP-2002 12:09:17.44 ,    1.0705,    1.1998,    1.0987,    2.3171,    2.4300,    2.8552,    2.8468,    3.5724,    3.8693,    4.2284,    4.5901,    5.2503,    6.0319,    7.0556,    7.7445,    8.9836,   10.2203,   10.3820,   10.4430,   11.2517,   12.7475,   13.5166,   13.7333,   13.8425,   13.7730,   13.9202,   12.9039,   12.1558,   12.2269,   12.2892,   12.5016,   13.1067,   13.4455,   15.1960,   16.2666,   17.7792,   19.4772,   20.1511,   21.2693,   21.5049,   23.9499,   25.2726,   26.5358,   27.0574,   26.2711,   26.8466,   28.2057,   28.3375,   29.1396,   29.1347,   29.0658,   28.3975,   27.5325,   28.0483,   29.1484,   29.0002,   30.6921,   30.2624,   30.3429,   29.6097,   28.9548,   29.1566,   29.2381,   27.8693,   28.5495,
24-SEP-2002 12:11:59.24 ,    1.2067,    1.2614,    0.9160,    2.0119,    2.6431,    3.0705,    2.5579,    3.1705,    3.6811,    3.9766,    4.0875,    5.6336,    6.8983,    6.9818,    8.5465,   10.6383,   11.5649,   11.1816,   10.8661,   11.6012,   12.6068,   13.3781,   13.2969,   13.7557,   13.8487,   13.9390,   13.1651,   12.4249,   12.2757,   11.9780,   11.6635,   12.4535,   13.2731,   15.1590,   16.8043,   17.9020,   19.1133,   20.4014,   20.8093,   21.6251,   23.6268,   24.9729,   25.5430,   27.1940,   27.9517,   28.0286,   28.2367,   27.7803,   28.7044,   28.4826,   27.5266,   27.7723,   27.7303,   28.1941,   29.4890,   28.3035,   28.4768,   28.5439,   29.1603,   28.8152,   27.6254,   28.1232,   29.2195,   27.5659,   27.7626,
24-SEP-2002 12:14:40.67 ,   -5.8104,  999.0000,  999.0000,  999.0000,    3.0621,    3.2722,    3.0257,    3.7708,    4.4541,    4.2576,    3.4800,    3.9040,    4.6580,    5.5507,    7.9578,   10.6115,   11.3482,   10.7912,   10.8709,   11.9198,   12.9633,   13.6169,   12.7496,   13.3965,   13.1322,   13.0584,   12.9786,   12.6112,   12.1711,   11.7698,   11.8943,   12.1836,   12.8235,   15.5218,   17.0015,   18.4959,   19.5613,   19.7543,   20.0450,   21.4267,   24.0486,   24.9025,   26.8030,   27.1803,   27.2336,   27.4238,   28.7872,   28.8001,   29.7641,   29.3985,   29.1641,   29.3847,   28.7888,   27.7882,   28.0437,   28.4417,   30.5459,   29.8103,   28.8457,   28.4529,   28.3137,   29.1871,   28.3791,   26.6998,   27.3310,
24-SEP-2002 12:17:34.06 ,   -7.5862,  999.0000,  999.0000,  999.0000,    3.2799,    3.4987,    3.8093,    4.2963,    4.8629,    4.3153,    5.2319,    6.0942,    7.4060,    8.3665,    9.7964,   11.4417,   11.2321,   10.9836,   11.4976,   12.2905,   13.3613,   14.1547,   12.9024,   13.5402,   13.7527,   13.1234,   11.9588,   11.8159,   12.3525,   11.9446,   11.8766,   12.2615,   13.0079,   14.7606,   16.4737,   17.8708,   18.5203,   19.0207,   20.0455,   21.1701,   23.5360,   24.7604,   25.8746,   26.0492,   25.6737,   25.3240,   25.9586,   25.8482,   26.4788,   26.9363,   27.2386,   28.2604,   28.1587,   27.2515,   27.9065,   29.4385,   30.6529,   31.3227,   30.5094,   28.8597,   28.8595,   29.5170,   28.7170,   27.4869,   28.5999,
24-SEP-2002 12:20:17.71 ,   -8.2698,  999.0000,  999.0000,   12.9516,   10.3108,    6.6460,  999.0000,    4.3858,    4.4362,    4.1205,    5.5823,    6.5321,    7.7219,    8.2471,    9.3808,   11.3724,   11.8061,   11.4346,   12.0028,   12.8958,   13.8467,   14.3513,   13.9162,   14.2896,   13.9443,   13.2181,   11.9271,   11.4576,   11.7724,   12.1393,   12.8603,   13.3634,   14.1484,   15.1405,   16.8502,   17.7676,   19.0245,   19.0989,   19.9810,   21.5152,   23.8558,   25.5702,  999.0000,   23.8930,   22.5392,   22.2758,   22.2087,   20.0976,   19.2384,   20.8301,   22.8605,   24.1460,   24.3671,   25.2037,   28.0282,   30.7228,   31.6279,   32.4628,   32.1893,   30.2224,   29.3120,   28.4741,   28.0017,   29.3158,   30.1935,
24-SEP-2002 12:23:00.37 ,  -12.4142,  999.0000,  999.0000,   14.3030,   10.2491,    5.7360,  999.0000,    3.2777,    3.5717,    3.7752,    4.0458,    4.8016,    5.2320,    5.5998,    7.1622,    9.9850,   10.8366,   10.2629,   10.9276,   12.1437,   13.5036,   13.9786,   13.7205,   13.6256,   13.4879,   13.6500,   12.7316,   12.0780,   12.1742,   12.8587,   13.0901,   13.1902,   13.9056,   15.3874,   16.8560,   18.3383,   20.2722,   20.4224,   20.9518,   22.5359,   24.9900,   26.0382,   27.5891,   27.4699,   28.6812,   29.3137,   29.9169,   29.7028,   29.5811,   30.0707,   30.8241,   29.7644,   30.2969,   28.7853,   29.6504,   30.9777,   31.6846,   32.4499,   31.0011,   29.8476,   29.4756,   29.4420,   29.8183,   30.6055,   31.0217,
24-SEP-2002 12:25:42.02 ,    0.5496,   -0.6012,   -0.7679,    0.2791,    1.0769,    0.9579,    1.8649,    2.6885,    3.4116,    3.9393,    4.3003,    5.4395,    6.0895,    7.0656,    8.3878,    9.3521,    9.7246,    9.4900,   10.1321,   11.2593,   12.9992,   14.0270,   12.7687,   13.4462,   13.5358,   13.5495,   13.1847,   12.4619,   12.2327,   12.9446,   13.3405,   13.4296,   13.6891,   15.1435,   16.8417,   18.7698,   20.3034,   20.8637,   21.1778,   22.6784,   25.1480,   26.3855,   27.2757,   28.1023,   28.5541,   28.7623,   29.8586,   30.0710,   31.0959,   31.4495,   30.8162,   30.7657,   31.0967,   29.8286,   30.3470,   30.8991,   32.0395,   41.3810,   30.6875,   29.6421,   29.9856,   30.8731,   29.8476,   31.6490,   32.7919,
24-SEP-2002 12:28:23.41 ,   -0.3516,   -1.2923,   -0.2749,   -0.5531,    0.5137,    0.8992,    1.6831,    2.4924,    3.6491,    3.6420,    3.0843,    3.4784,    4.9412,    7.6946,    9.7358,    9.9445,    9.8966,    9.8639,   10.4257,   11.5125,   13.2059,   14.3032,   12.5470,   13.6096,   13.7908,   13.7403,   12.9688,   12.0031,   12.2071,   12.2230,   12.4825,   13.1463,   14.1278,   15.0543,   16.5798,   19.1081,   20.8178,   20.2933,   20.8199,   22.3225,   23.8154,   26.0857,   27.6093,   28.7088,   28.3877,   28.2920,   29.0082,   29.8097,   30.1385,   30.0321,   30.1410,   30.2956,   30.2894,   29.4576,   30.6253,   31.2452,   31.2027,   31.4209,   30.9599,   30.9673,   31.1841,   31.2258,   30.3263,   31.5885,   32.2180,
24-SEP-2002 12:31:28.29 ,   -1.3058,   -1.4914,   -0.9719,   -0.2686,    0.7979,    2.0067,    2.5617,    3.0232,    3.7904,    3.5215,    2.7124,    2.9583,    4.8836,    8.1033,    9.2693,   10.7315,   10.5081,   10.3898,   11.2237,   12.2343,   13.1348,   14.1242,   12.8107,   13.5270,   13.7141,   13.7017,   13.3641,   12.6193,   12.5350,   12.6862,   13.1016,   13.7064,   14.7403,   15.9503,   17.8223,   19.9017,   21.1701,   20.6643,   21.3038,   22.4410,   23.2428,   26.1576,   27.6518,   27.1094,   26.7022,   26.8766,   27.4376,   28.6701,   29.8754,   29.1214,   28.7828,   28.9744,   29.9705,   30.9370,   29.1594,   29.9140,   29.8273,   29.4705,   29.4288,   29.8631,   29.2332,   29.4595,   29.7941,   29.8938,   30.5037,
24-SEP-2002 12:34:09.76 ,    0.6303,    0.3343,    0.9062,    1.5653,    2.4636,    3.6974,    4.0025,    4.7763,    5.0532,    4.3894,    4.2642,    4.4901,    5.5205,    7.7149,    8.9558,   10.2635,   10.2977,   10.2358,   10.9669,   12.0327,   12.8151,   13.9047,   14.1356,   13.9661,   14.1569,   13.7955,   13.3330,   13.0579,   13.0638,   13.4883,   14.2022,   14.3275,   15.1086,   16.4650,   17.9138,   19.5018,   20.8297,   20.3448,   20.7162,   21.9271,   23.1056,   24.3792,   25.2131,   26.4163,   26.9324,   27.1155,   27.2706,   27.9056,   27.9028,   27.6109,   28.0742,   28.5938,   29.3604,   29.8083,   27.7502,   28.2882,   28.7993,   29.3794,   29.4243,   28.8709,   28.3641,   27.8262,   28.1528,   29.3258,   30.0086,
24-SEP-2002 12:36:57.43 ,    1.0104,    2.0577,    2.2264,    2.7388,    3.4289,    4.1412,    3.9101,    4.7829,    5.7352,    4.9949,    5.0611,    5.2221,    6.5913,    7.5345,    8.4277,    9.6011,   10.0769,   10.2728,   10.5388,   11.4422,   12.6912,   13.5452,   13.8386,   13.8978,   13.6395,   13.1464,   12.6265,   12.0980,   12.2577,   12.5276,   13.2818,   13.7261,   14.1295,   15.8001,   17.8578,   19.4805,   19.5014,   20.5774,   20.3519,   21.6876,   23.6062,   25.0361,   25.7793,   26.3292,   26.4916,   26.3812,   27.1513,   27.6660,   27.4009,   27.3231,   27.9243,   28.7273,   28.6556,   27.6154,   28.0162,   29.4125,   29.5908,   29.4837,   30.1418,   29.3644,   29.0410,   29.6132,   29.6337,   30.1588,   29.8838,
24-SEP-2002 12:39:39.10 ,   -1.6835,   -0.2341,   -0.2497,    0.4743,    2.0373,    2.3540,    2.5544,    2.5721,    3.6462,    3.8126,    3.6958,    4.3504,    5.7051,    7.3575,    8.3636,    9.7508,   10.0684,   10.1237,   10.7507,   11.7213,   12.6557,   13.2737,   12.5079,   12.9675,   12.8879,   12.8868,   13.0109,   12.4159,   11.7651,   11.6235,   12.5628,   13.0187,   14.1045,   15.2099,   16.7712,   18.9101,   19.9348,   21.5232,   21.4831,   22.2706,   23.3488,   25.0918,   26.5287,   26.4865,   26.7809,   27.4815,   27.9175,   28.2432,   28.3183,   27.8523,   28.9522,   29.9051,   29.1571,   28.3549,   29.3418,   29.5610,   31.1276,   30.6690,   30.5762,   30.1984,   29.0278,   29.2444,   28.9810,   29.3307,   29.7361,
24-SEP-2002 12:42:20.98 ,   -6.9195,  999.0000,   10.0655,    5.1846,  999.0000,    2.3038,    2.5248,    3.4179,    3.9209,    4.2567,    4.5829,    5.4231,    5.7353,    7.9773,    8.9743,    9.3657,    9.3633,    9.7237,   10.6525,   11.6359,   12.7195,   13.2482,   13.1196,   13.4671,   13.2018,   13.1950,   13.4359,   12.9444,   12.2220,   11.8148,   12.1549,   12.4877,   14.1064,   15.7996,   16.8282,   18.3199,   19.9246,   19.8416,   20.3393,   21.8305,   22.1612,   24.9070,   27.6729,   28.3236,   27.9389,   28.7461,   28.0899,   28.3815,   29.5776,   28.5759,   29.1979,   29.7032,   30.2320,   30.3697,   30.0092,   30.2123,   31.3876,   30.4921,   30.3521,   29.2414,   28.7233,   29.3223,   30.2415,   29.8639,   29.5773,
24-SEP-2002 12:45:03.66 ,   -8.4205,  999.0000,   12.8787,    7.1842,  999.0000,    3.5268,    3.4166,    4.5827,    5.2925,    5.3809,    5.1989,    5.4827,    6.8240,    8.0989,    8.5090,    8.6264,    9.2478,    9.7958,   10.8037,   12.3152,   13.0454,   13.1813,   12.8688,   13.2173,   11.4133,   11.0305,   11.0362,   10.7167,   10.4886,   10.4304,   10.6804,   11.2601,   11.8883,   13.2005,   14.1003,   16.1359,   17.5257,   17.4899,   18.1698,   20.7258,   21.5937,   24.7309,   26.9955,   28.4928,   28.8055,   29.2514,   28.4215,   28.3930,   29.5339,   30.5528,   30.9330,   30.1577,   31.1625,   32.1849,   31.6161,   31.5158,   31.3824,   31.1999,   31.2082,   30.5547,   30.3530,   30.8841,   30.7751,   30.2936,   30.0682,
24-SEP-2002 12:47:45.07 ,   -2.5233,   -1.1771,   -0.0270,    0.4418,    1.0520,    2.2230,    2.6897,    3.0757,    4.0013,    4.3911,    4.8494,    5.5927,    6.7900,    7.9074,    8.7771,    8.0019,    9.4834,   10.9905,   11.4421,   12.8657,   13.6958,   13.9734,   13.7721,   13.3905,    6.9113,    7.1089,    7.6759,    7.9876,    7.6590,    7.2903,    7.2196,    7.8552,    8.6727,    9.3991,   10.5046,   12.1257,   13.4868,   13.8471,   14.3027,   17.8995,   20.1326,   23.0812,   26.4576,   27.5056,   27.5684,   29.0082,   28.5612,   28.6652,   28.9783,   29.9354,   29.9368,   29.9731,   30.1429,   30.1257,   30.3835,   32.8382,   32.9798,   33.5104,   29.2851,   35.2082,   35.3941,   35.9624,   34.3857,   34.9357,   35.4736,
24-SEP-2002 12:50:37.30 ,    8.4982,  999.0000,  999.0000,  999.0000,    0.6807,    1.3557,    1.8789,    2.5753,    3.5391,    3.9856,    4.0807,    4.3781,    4.8188,    6.2051,    8.1646,    8.1200,    9.3512,   11.6880,   12.8750,   13.3682,   14.2228,   14.4071,    1.7938,    2.0146,    3.7741,    5.2274,    6.5683,    8.9016,    8.9634,    8.2165,    8.2873,    8.6033,    9.8606,   11.4537,   13.1467,   16.0026,   19.8303,   20.1878,   20.7961,   22.6944,   22.7200,   25.2966,   26.7117,   27.5006,   27.4478,   28.1740,   28.4479,   29.1304,   29.6957,   29.2291,   22.8361,   30.0467,   29.9641,   24.3049,   31.5983,   36.6860,   40.8414,   42.8923,    6.6861,   48.9015,   21.1974,   19.9875,   48.3096,   48.3017,   48.3475,
24-SEP-2002 12:53:18.93 ,    9.3518,  999.0000,  999.0000,  999.0000,    1.6648,    2.0663,    2.3652,    2.9548,    4.2704,    4.2292,    2.9951,    2.8433,    3.9435,    6.0462,    8.8004,    9.8266,   10.2669,   11.2677,   12.7446,   13.1382,   13.6111,   13.7633,   -4.7134,   -4.6684,   -2.0194,   -0.7675,    0.7852,    3.1497,    3.1592,    3.0606,    3.0980,    2.6725,    3.6287,    5.7430,    7.3972,   10.9537,   16.5962,   14.5855,   21.1207,   22.6417,   23.5722,   25.4643,   27.0858,   27.2871,   27.7453,   28.2102,   28.9209,   29.3247,    2.9625,    3.5069,   10.6290,  999.0000,  999.0000,   16.2231,   28.8666,   28.5291,   29.0585,   29.0051,   29.1024,   29.1910,  -32.5797,  -36.1902,   29.2983,   29.0256,   29.7706,
24-SEP-2002 12:56:06.40 ,   -0.0332,    1.1648,    2.2680,    2.2079,    3.5974,    4.0455,    4.2709,    5.1819,    6.2009,    5.4298,    4.0276,    4.5090,    5.7262,    7.3793,    9.3418,    9.8911,   10.4714,   10.5839,   11.5709,   12.3594,   13.3774,   13.9723,   13.6714,   14.2169,   14.0351,   13.8633,   13.5257,   13.2222,   12.6521,   12.9471,   12.9270,   12.6743,   13.7889,   15.4668,   16.5959,   18.1045,   19.5921,   20.3729,   21.2721,   23.1100,   23.5439,   25.3939,   27.1029,   27.3198,   28.2452,   28.6164,   28.7085,   29.0959,   29.1632,   29.5159,   30.5399,   29.7822,   29.4964,   29.7177,   29.7449,   30.0561,   30.1328,   30.3400,   30.8903,   31.3039,   29.5782,   28.9565,   28.4332,   28.1960,   28.8628,
24-SEP-2002 12:58:47.64 ,   -6.6714,  999.0000,    7.7950,  999.0000,    3.3701,    4.7354,    4.7851,    6.0722,    6.7634,    6.2126,    4.6881,    4.8866,    6.0407,    7.8022,    9.2431,    9.6886,   10.6523,   10.9878,   12.1412,   12.7348,   13.5251,   14.1476,   14.0535,   14.0005,   13.6459,   13.1690,   13.1374,   12.7386,   12.4467,   12.6146,   12.2194,   12.0355,   12.9758,   14.7497,   16.9149,   18.1949,   19.1016,   20.6482,   22.1860,   23.3058,   23.5255,   25.5130,   26.4818,   26.7664,   27.6383,   27.2808,   28.0493,   28.7977,   29.0233,   28.7274,   29.3692,   29.6190,   29.7635,   29.6070,   29.0671,   29.9261,   30.1469,   31.0967,   30.4463,   30.8276,   29.8323,   29.1179,   28.6466,   28.5105,   30.4183,
24-SEP-2002 13:01:30.41 ,  -11.1287,  999.0000,    6.4751,  999.0000,    1.5083,    2.9786,    3.2335,    4.7554,    5.6299,    5.1504,    3.4891,    3.6060,    5.5515,    7.8724,    8.8921,    9.0577,   10.1202,   11.3546,   12.5634,   12.9374,   13.4442,   13.8800,   13.8740,   14.1415,   14.2741,   14.1017,   13.9425,   13.5400,   13.2346,   12.7957,   12.3533,   12.5177,   13.2836,   13.6604,   16.6577,   18.5030,   19.0067,   20.4305,   21.7065,   23.3124,   24.4196,   25.7835,   27.1135,   26.0830,   27.3895,   27.6783,   27.2373,   27.4700,   26.2039,   26.4172,   28.1762,   27.2859,   26.1552,   25.7691,   26.3569,   26.7564,   30.7475,   28.0261,   28.7016,   31.0135,   31.8383,   29.9720,   30.7521,   30.6087,   31.2280,
24-SEP-2002 13:04:11.66 ,   -0.0320,    0.0416,    0.4988,   -0.4106,    1.5672,    1.9691,    2.3309,    4.2294,    5.6150,    4.5636,    3.4453,    3.6203,    5.3767,    8.0026,    8.7921,    9.2061,   10.4654,   11.6394,   12.7554,   13.5701,   14.0126,   14.5204,   13.7982,   14.2881,   14.4893,   14.6445,   14.6904,   14.2112,   13.4730,   12.8201,   12.6114,   13.0189,   13.6691,   16.0715,   17.7462,   18.2831,   19.7412,   20.9327,   22.0410,   26.7842,   24.4400,   27.3278,   27.6283,   28.2287,   29.4285,   29.5630,   26.5346,   24.1727,   22.4881,   22.0502,   21.1932,   20.5036,   19.5951,   20.3862,   20.7895,   20.6580,   29.8464,   23.1354,   25.2858,   27.5706,   29.3811,   30.0669,   30.4731,   30.5924,   30.4278,
24-SEP-2002 13:06:53.83 ,    1.9623,    1.0629,    1.5063,    0.5775,    1.8433,    2.3373,    2.4784,    3.8388,    5.1605,    4.6223,    3.6262,    3.3188,    4.6842,    7.5184,    8.0643,    8.7801,   10.3969,   11.6097,   12.6076,   13.3963,   13.8140,   14.4498,   13.7594,   13.9439,   14.4361,   14.5935,   14.2826,   13.8157,   13.3489,   12.8843,   12.7002,   12.6726,   14.1080,   16.6959,   17.9702,   18.8607,   19.7363,   20.4050,   21.8583,   23.1536,   24.2329,   26.4346,   27.7515,   28.6469,   30.2546,   30.3707,   28.7256,   28.5968,   28.7629,   29.6594,   29.2759,   29.6577,   30.0046,   30.7976,   30.4545,   30.3219,   30.6230,   30.2235,   30.7413,   31.1873,   31.3146,   31.0398,   31.1789,   31.4318,   31.7927,
24-SEP-2002 13:09:35.25 ,    2.6928,    0.9682,    0.3659,    0.7063,    2.2178,    3.0374,    3.0268,    3.3318,    4.3966,    4.5094,    3.4837,    3.6367,    4.6657,    6.3075,    7.8771,    8.7105,    9.4593,   10.7311,   12.1348,   12.6787,   13.1987,   13.5303,   13.0999,   13.3133,   14.2639,   14.3432,   13.8794,   13.2660,   12.8262,   12.9180,   13.0533,   13.3381,   14.8170,   17.1744,   18.8050,   19.7430,   19.7931,   20.5305,   21.9959,   23.6346,   24.7311,   26.5389,   27.7886,   27.4299,   27.1147,   26.8217,   25.0899,   24.4358,   24.0660,   25.4819,   26.8482,   28.5792,   30.1760,   30.7633,   30.4954,   30.2790,   31.1146,   31.1560,   30.8094,   30.3602,   30.2981,   29.8629,   30.5961,   31.5918,   32.0084,
24-SEP-2002 13:12:16.58 ,    1.6830,    1.1101,    0.8693,    1.5030,    2.2585,    2.9117,    3.3526,    4.1286,    5.3351,    5.0885,    5.2165,    5.8936,    6.3144,    6.9696,    8.8396,    9.2331,    9.6622,   10.4215,   11.4913,   12.3878,   12.8092,   12.9715,   12.8306,   12.9398,   13.5523,   13.9217,   13.6088,   13.2436,   13.0303,   12.7503,   12.5790,   13.0676,   14.3182,   16.9784,   18.6661,   19.2936,   19.8185,   20.8284,   22.0507,   23.3309,   24.5241,   27.2874,   28.0205,   25.6209,   23.9870,   19.0965,   18.3365,   18.7854,   19.0227,   21.0779,   23.1914,   26.1508,   28.4181,   31.7379,   31.6896,   31.1856,   31.6797,   30.6556,   31.7694,   32.6178,   32.4115,   30.5348,   31.9924,   32.2060,   31.0324,
24-SEP-2002 13:14:58.12 ,    1.1799,    1.2051,    1.0424,    1.0456,    1.5949,    2.1334,    3.5848,    4.7238,    4.9962,    5.2374,    5.8836,    6.4983,    7.7665,    8.0742,    8.7631,    9.2743,    9.4728,   10.1678,   11.2920,   12.1169,   12.4945,   13.0909,   13.3319,   12.7374,   13.1329,   13.5603,   13.7140,   13.7310,   13.1108,   12.5812,   12.3993,   12.8010,   14.8427,   16.4153,   17.7519,   19.4455,   20.2519,   21.2213,   21.7834,   23.5048,   25.9998,   27.6403,   28.0326,   28.0122,   28.9035,   28.7386,   28.7156,   27.8274,   25.5190,   26.5894,   26.2814,   26.7284,   27.2191,   27.9417,   28.4432,   26.5832,   28.2619,   29.0173,   30.6169,   33.5223,   32.8917,   31.2320,   31.0281,   33.2775,   30.6018,
24-SEP-2002 13:17:50.62 ,    0.0550,    0.0584,   -0.1662,   -0.8317,   -0.2809,    1.8471,    3.7178,    4.0840,    4.4137,    3.9973,    3.4454,    4.4320,    7.1298,    7.9907,    8.7596,    9.5830,    9.8135,   10.3057,   11.2879,   12.1360,   12.4771,   12.7737,   12.9696,   13.0907,   13.1234,   13.3179,   13.2969,   13.1742,   12.9079,   13.2779,   13.0991,   13.9871,   15.0317,   15.1488,   15.8147,   18.6269,   20.0693,   21.2337,   22.4027,   23.2963,   25.5499,   27.2832,   27.5885,   28.1350,   28.2207,   26.4050,   24.9119,   22.3047,   20.4406,   19.0188,   19.8789,   19.8037,   19.7663,   20.2633,   20.7178,   20.1778,   22.2361,   23.8729,   26.8105,  999.0000,   32.2522,   30.6522,   31.4674,   30.4391,   30.3892,
24-SEP-2002 13:20:32.46 ,   -0.9328,   -0.3883,   -0.5077,   -0.2641,    0.3939,    2.1349,    4.0155,    4.1624,    5.4161,    4.0827,    3.5537,    4.2293,    6.0793,    7.2859,    8.5003,    9.7988,   10.3021,   10.7594,   11.5524,   12.1170,   12.3565,   12.5674,   12.8404,   12.9182,   12.8286,   12.7527,   12.9479,   13.2143,   12.9733,   12.6741,   12.9024,   13.3945,   15.4449,   17.0128,   18.8696,   19.7981,   20.4982,   21.2254,   21.6982,   22.7775,   24.4751,   26.4026,   27.5992,   27.7344,   28.0254,   28.7126,   27.8121,   27.2962,   27.7183,   28.5255,   30.2624,   29.8405,   29.5243,   30.0976,   30.2824,   30.0586,   30.7038,   31.3550,   31.3678,   30.9533,   31.5611,   30.5591,   30.6915,   29.2521,   29.5690,
24-SEP-2002 13:23:14.03 ,   -0.7614,    0.4080,    0.9566,    1.7968,    3.1156,    3.2935,    4.1127,    4.4782,    4.8025,    3.7723,    3.7945,    5.0722,    6.5455,    7.4850,    8.0615,    9.1871,   10.1404,   10.7394,   11.5231,   12.0653,   12.2728,   12.8103,   13.0153,   12.6804,   13.2180,   13.4441,   13.5820,   13.3682,   12.8419,   12.4155,   12.2457,   13.2083,   15.2207,   17.3005,   18.8412,   19.3361,   19.8100,   20.4232,   20.3785,   22.0850,   23.8986,   26.0587,   27.1527,   26.5382,   27.0109,   27.8288,   27.4473,   28.2202,   28.6295,   29.8843,   29.9844,   29.1110,   30.0950,   30.4513,   30.5123,   29.4228,   29.5712,   31.1780,   30.3416,   31.4741,   32.5208,   30.1907,   29.0213,   29.9453,  999.0000,
24-SEP-2002 13:25:55.75 ,   -0.1863,    0.9988,    1.7321,    2.2032,    2.9195,    4.0266,    3.9978,    4.1248,    3.8212,    2.5626,    3.1372,    5.0748,    6.4338,    7.9674,    8.8807,    9.1189,    9.6821,   10.6155,   11.5162,   11.9868,   12.1414,   12.6646,   13.2222,   12.5997,   13.0081,   13.4118,   13.7206,   13.6928,   13.4243,   12.9400,   12.6270,   14.3099,   15.3631,   17.4189,   18.7674,   18.7933,   19.1379,   19.5247,   20.8452,   22.2538,   23.2069,   24.7977,   25.5700,   26.2047,   27.5746,   26.7030,   27.4754,   28.4227,   29.3102,   29.8919,   30.8513,   30.4610,   30.9513,   31.3011,   29.8400,   29.6353,   30.4869,   30.6380,   30.3790,   31.3948,   31.9443,   31.0590,   29.3079,   30.3885,   30.9547,
24-SEP-2002 13:28:37.39 ,    1.3857,    1.5858,    1.9843,    1.7861,    2.3026,    3.4093,    3.2944,    3.8515,    3.9061,    3.0613,    2.8995,    4.3029,    6.4323,    7.7214,    8.9389,    9.2986,    9.6900,   10.8766,   11.6593,   12.0835,   12.0136,   12.2048,   11.8789,   12.6333,   13.2311,   13.4742,   13.7782,   14.5942,   14.1326,   12.9555,   13.0386,   14.6535,   15.6053,   17.9955,   19.1212,   19.3746,   19.3238,   19.9517,   20.9234,   22.4196,   23.1714,   24.3229,   25.3360,   26.8616,   28.3427,   28.1669,   28.5897,   28.4963,   29.3167,   30.1829,   30.5609,   29.9135,   30.3865,   30.9511,   31.8190,   29.6149,   30.1203,   31.4496,   30.9874,   31.4979,   33.0221,   32.7207,   30.0387,   30.9380,   30.9848,
24-SEP-2002 13:31:19.98 ,    1.8105,    1.9862,    2.0641,    1.8649,    2.6171,    3.2045,    3.1953,    4.0110,    3.8526,    3.9308,    3.9283,    4.9571,    7.1244,    8.2041,    9.0614,    9.1320,    9.6485,   10.5361,   11.3817,   11.9040,   12.3102,   12.3802,   12.3012,   12.9252,   13.0306,   13.0197,   13.3955,   14.1083,   14.2443,   13.3777,   13.2913,   14.7144,   16.4484,   17.7990,   17.9637,   18.1056,   18.7448,   20.3831,   21.1507,   21.7310,   22.9073,   24.7147,   26.2272,   26.6410,   27.2878,   27.6571,   26.7231,   28.4907,   29.5782,   29.5550,   30.4077,   30.4586,   29.5606,   29.9974,   30.9338,   29.7257,   30.4142,   31.8290,   31.6536,   32.5733,   33.6783,   32.3268,   30.9143,   31.3967,   31.8841,
24-SEP-2002 13:34:01.69 ,    2.0787,    2.0931,    1.5579,    2.0731,    2.1609,    2.5788,    2.5544,    3.1059,    3.2345,    3.4882,    4.1464,    4.7594,    5.4671,    7.1839,    8.7722,    8.6934,    8.9768,    9.8537,   10.8125,   11.4253,   12.6182,   13.2228,   13.3225,   13.0956,   13.3417,   13.5659,   13.9652,   14.2638,   14.0174,   13.4143,   13.6521,   14.7084,   15.5592,   16.3565,   17.0234,   17.6364,   18.3204,   20.2300,   21.5880,   22.1298,   23.7467,   25.2192,   25.7047,   25.3869,   26.4122,   27.4680,   28.1862,   29.6757,   29.0850,   29.5238,   30.1738,   30.3494,   29.1857,   30.0370,   30.3479,   30.7092,   30.9744,   31.9784,   30.7467,   32.5535,   32.9066,   32.3561,   30.9985,   31.5918,   31.8299,
24-SEP-2002 13:37:06.52 ,    0.8455,    0.8361,    1.3207,    2.0577,    2.4886,    2.6086,    2.4391,    2.3022,    2.4729,    2.3273,    3.1375,    3.4639,    5.1348,    7.3341,    8.6904,    8.8709,    9.1870,    9.9162,   10.5790,   11.4296,   12.6066,   13.0918,   11.9339,   12.5600,   12.7940,   13.0600,   13.4564,   13.7130,   13.2658,   12.8656,   13.5510,   14.9478,   16.2803,   17.7899,   17.8498,   18.2397,   19.4290,   20.7436,   22.4180,   22.6932,   23.2917,   25.5661,   26.8032,   26.9073,   27.1239,   28.4203,   29.0808,   29.9707,   29.9786,   29.7537,   30.4445,   30.6125,   31.7644,   31.3057,   30.6131,   29.9558,   30.9948,   30.8367,   30.8789,   31.7472,   32.4892,   32.8562,   31.7559,   31.5300,   29.2444,
24-SEP-2002 13:39:48.69 ,    0.5457,    1.0923,    1.9000,    3.0369,    3.8357,    3.4830,    3.5951,    3.6072,    3.2099,    2.7812,    3.3546,    3.5524,    5.5172,    7.2456,    8.9595,    9.2783,    9.4917,   10.3231,   10.7991,   11.5154,   12.1854,   12.4676,   12.6524,   12.7690,   13.0507,   13.0939,   13.7278,   13.8714,   13.6108,   13.7025,   13.7140,   14.8473,   16.0976,   17.4003,   18.3110,   18.6538,   19.6548,   20.6888,   21.1152,   22.5662,   24.3023,   26.5225,   28.3226,   27.0982,   27.7706,   28.0215,   29.0849,   29.9932,   29.0372,   29.7836,   31.7254,   30.5420,   31.2117,   30.7196,   30.8994,   31.5064,   30.8537,   31.3712,   31.6927,   31.6887,   31.5866,   32.2261,   31.0470,   30.6096,   29.4427,
24-SEP-2002 13:42:32.64 ,    0.0630,    0.7699,    1.4976,    2.8894,    3.1200,    2.8465,    3.3391,    4.0217,    3.1552,    2.5384,    2.6756,    3.3929,    4.7194,    6.9455,    8.8313,    8.8724,    9.4849,   10.4046,   10.8386,   11.0452,   11.5102,   12.4150,   11.7310,   12.5581,   13.2113,   13.4195,   13.6626,   13.4061,   13.5319,   13.4844,   13.9466,   15.0967,   15.7513,   16.6240,   17.3433,   18.1782,   19.2387,   20.6119,   21.6965,   22.9301,   24.4944,   25.0693,   26.9916,   27.2849,   27.9733,   28.0216,   29.3585,   30.3784,   29.6869,   30.3067,   31.7632,   30.6124,   30.0725,   30.5038,   30.9135,   31.4490,   31.1741,   32.2687,   31.9718,   30.4565,   31.2005,   31.9847,   31.1899,   31.8919,   31.9711,
24-SEP-2002 13:45:14.94 ,    0.0245,    0.7917,    1.6667,    3.1686,    2.9790,    3.1790,    3.3759,    3.9253,    3.0292,    2.2922,    2.7410,    3.2558,    4.5822,    7.0333,    8.4666,    8.8977,    9.5466,   10.5319,   11.0652,   11.3701,   11.9016,   12.5127,   12.1447,   12.1898,   12.4688,   13.0307,   14.0457,   14.4130,   14.0522,   14.1038,   14.7671,   15.6534,   16.1021,   17.0257,   17.7014,   18.4565,   19.1078,   20.4559,   21.7099,   22.3237,   24.2283,   24.9287,   26.5566,   27.5078,   28.6054,   28.4869,   28.5813,   30.5399,   30.4802,   29.5487,   30.5765,   32.0806,   31.8430,   31.0767,   32.0642,   32.6279,   30.7048,   30.9861,   30.9303,   31.4797,   32.8421,   32.4906,   30.5719,   31.4014,   31.2400,
24-SEP-2002 13:47:57.86 ,    1.1768,    1.9712,    2.5946,    3.0008,    3.4048,    3.2412,    3.1591,    3.5587,    3.3275,    3.0552,    3.0577,    3.4442,    4.9962,    6.3497,    7.8665,    8.9598,    9.8631,   10.6932,   11.0773,   11.5514,   12.0189,   12.1491,   12.0269,   12.1706,   12.4849,   13.0431,   13.8855,   14.2344,   13.8483,   14.0599,   14.8802,   15.7517,   16.4265,   16.8816,   17.0627,   16.8082,   15.8920,   15.6148,   15.7849,   22.4258,   22.7639,   15.4464,   25.4235,   27.2844,   19.6040,   28.6216,   28.3842,   21.0734,   20.9104,   21.2884,   22.9299,   24.6032,   26.0145,   26.6385,   27.7806,   29.1601,   29.7093,   31.2940,   31.6830,   30.9716,   32.1395,   32.9309,   32.3457,   32.7959,   31.6832,
24-SEP-2002 13:50:41.05 ,    2.8146,    2.3853,    3.0189,    3.0908,    3.5395,    3.0060,    2.4438,    3.0042,    3.2360,    2.8590,    2.8790,    3.3017,    4.6157,    6.8181,    8.1246,    8.7692,    9.5786,   10.3749,   10.6663,   10.8681,   11.4865,   12.1615,   11.7901,   12.1744,   12.8198,   12.1087,   11.6162,   12.2625,   12.0453,   12.3771,   12.9247,   13.4864,   13.8149,   14.2912,   14.3843,   11.8204,    8.9151,    6.3622,    3.6288,  -12.5940,  -13.4197,    0.1786,  999.0000,  -12.5767,    0.6046,  -13.7375,  -15.7536,    4.0474,    4.5181,    6.0519,    8.8000,   10.6082,   13.5564,   18.3857,   21.6894,   26.5127,   29.6284,   30.8485,   32.0073,   32.3412,   32.7093,   34.0327,   33.5835,   32.9857,   31.2921,
24-SEP-2002 13:53:22.55 ,   -4.6314,  999.0000,  999.0000,  999.0000,   13.1551,    9.6775,    6.3384,    4.1374,    2.8966,    2.1629,    2.4643,    2.9143,    3.8306,    6.6705,    8.2855,    8.8650,    9.6760,   10.3363,   10.7160,   10.9564,   11.4653,   12.5756,   10.7107,   11.8300,   12.4748,    9.9018,    8.0044,    8.3926,    8.8658,    9.2276,    9.4200,    9.9280,   10.0050,   12.5400,   14.9114,   17.1895,   19.0086,   20.5040,   21.3897,   22.6934,   23.8318,   24.1315,   25.3765,   26.1773,   27.5616,   28.2578,   27.3674,   29.1987,   30.6121,   31.1041,   31.6854,   31.4720,   31.6662,   32.3890,   30.4242,   30.6430,   30.5774,   30.9270,   31.5521,   31.5110,   32.7233,   33.9522,   33.2278,   32.4038,   30.7869,
24-SEP-2002 13:56:04.53 ,   -7.7791,  999.0000,  999.0000,  999.0000,   15.0159,   11.0853,    7.7471,    4.6950,    3.1731,    3.9258,    4.1457,    4.7028,    5.5015,    7.3938,    8.2450,    8.9239,    9.6112,   10.2551,   11.2067,   11.4983,   11.7840,   12.7229,   13.6629,   11.1290,   11.8418,   12.3374,   12.9081,   13.1209,   13.1395,   13.2116,   13.8291,   14.1446,   13.6259,   14.8950,   14.7259,   16.7429,   20.0449,   22.0229,   22.1722,   23.1293,   24.2480,   24.6084,   26.9019,   28.8190,   29.8561,   30.2466,   30.6045,   30.8242,   31.9553,   31.6720,   32.5563,   31.8510,   32.4996,   33.4559,   32.7242,   32.9982,   29.9538,   30.5849,   31.3988,   31.2977,   32.6920,   33.5873,   33.4423,   32.4198,   31.3210,
24-SEP-2002 13:58:46.37 ,   -4.2997,  999.0000,    1.3992,    1.9481,    2.4095,    2.5799,    2.5695,    2.5231,    2.9385,    3.4511,    3.7128,    4.3223,    5.1509,    6.8282,    8.1407,    9.0938,    9.4644,   10.2698,   11.5986,   11.6291,   11.4471,   12.4232,   13.3860,    7.3879,    7.8639,    8.4508,    8.9852,    9.3304,    9.5995,    9.7175,    9.8224,    9.9810,    9.9905,   10.5405,   10.8726,   14.4625,   18.0461,   21.8167,   23.0890,   23.2605,   23.9876,   25.6918,   27.5197,   28.5309,   28.5569,   30.1163,   30.0227,   30.7986,   31.1402,   31.6276,   32.4488,   33.0258,   32.9781,   33.4531,   33.1479,   32.8910,   31.2686,   32.1773,   32.7139,   32.6608,   32.9716,   33.5439,   32.4116,   32.0314,   30.9201,
24-SEP-2002 14:01:38.84 ,   -4.7021,  999.0000,    2.5041,    3.6218,    3.5556,    2.8161,    2.6552,    2.4958,    2.2319,    1.3172,    1.7304,    2.7650,    3.5402,    5.6120,    8.4523,    9.4440,   10.1004,   10.9043,   11.7843,   11.9761,   11.7044,   12.5804,   13.7562,   13.0693,   13.3182,   13.9455,   14.6288,   14.7981,   14.7161,   14.8591,   15.1119,   15.4963,   15.9684,   17.3052,   17.5777,   17.7521,   18.7388,   19.9068,   21.0664,   22.6952,   25.0138,   26.3075,   27.3762,   27.1896,   28.0220,   29.0317,   29.3099,   30.1072,   30.5054,   30.8983,   31.3720,   30.6951,   30.0923,   30.8066,   30.1356,   30.6386,   30.1120,   30.9743,   31.0953,   32.0492,   33.1758,   33.6525,   32.1171,   31.7432,   30.7532,
24-SEP-2002 14:04:20.49 ,    2.1445,    3.3244,    3.6505,    4.8305,    4.6691,    3.2291,    2.7463,    2.0089,    2.1184,    1.4513,    2.3152,    3.5392,    4.2648,    6.0719,    8.1939,    8.4737,    9.4015,   10.5411,   11.0920,   11.3265,   11.5359,   12.3629,   11.4021,   11.9334,   12.6877,   13.5076,   14.2849,   14.6996,   14.4157,   14.3458,   14.7700,   15.0764,   15.4894,   16.0179,   16.5230,   16.6024,   18.2412,   19.2247,   20.2092,   22.1987,   23.8161,   24.3357,   25.3492,   26.2055,   27.3977,   29.1562,   28.3396,   28.8896,   30.6132,   30.9423,   31.4670,   30.5812,   30.8344,   31.1100,   31.0927,   32.4075,   30.0498,   30.2563,   30.2107,   31.1298,   32.4141,   33.9186,   32.3691,   30.7757,   30.2836,
24-SEP-2002 14:07:03.72 ,    1.0969,    2.0102,    2.6181,    3.3945,    4.0429,    3.3422,    2.6294,    1.9395,    2.4207,    2.2206,    3.1754,    4.4331,    6.1620,    7.3563,    7.5690,    7.9884,    8.7545,    9.5941,   10.2838,   10.7891,   11.1079,   12.1884,   13.2493,   11.2356,   12.0024,   13.0593,   13.5284,   13.8905,   13.9335,   14.2244,   14.5891,   14.7160,   15.1578,   16.0989,   16.7553,   17.7772,   18.2826,   19.1129,   20.4656,   23.2772,   23.6332,   23.6753,   24.7291,   25.4008,   25.9903,   27.2783,   26.8537,   28.7739,   30.0053,   30.2646,   31.6422,   32.5003,   32.7319,   32.8669,   32.5626,   32.3329,   30.5464,   30.4895,   32.3318,   33.6201,   33.3552,   33.3349,   32.1005,   30.7609,   30.3766,
24-SEP-2002 14:09:45.26 ,   -0.4416,    0.2485,    2.0439,    3.0487,    4.1421,    3.6328,    2.9560,    2.5529,    2.7242,    3.2875,    2.8809,    3.7016,    5.8010,    7.4641,    7.5839,    8.0096,    9.1903,   10.0659,   10.4783,   11.2448,   11.7307,   12.3298,   11.0082,   11.7866,   12.4952,   12.9401,   13.4655,   13.8427,   13.9985,   14.4625,   14.9457,   15.1320,   14.7656,   15.5481,   16.5814,   17.8354,   17.9257,   18.8769,   20.2628,   21.0955,   22.2757,   22.8682,   22.8722,   23.3516,   23.9170,   24.8929,   25.6137,   25.5518,   26.0775,   26.3157,   26.9810,   28.4157,   32.1039,   27.5155,   28.5719,   29.7618,   30.5026,   29.7100,   31.7680,   33.4994,   32.8030,   32.7682,   31.3095,   30.2720,   30.9928,
24-SEP-2002 14:12:26.78 ,    1.3710,    1.1430,    2.7384,    3.9855,    4.7627,    4.6797,    4.6634,    4.3828,    4.0831,    4.8109,    4.8006,    5.5146,    7.1054,    8.3391,    8.4338,    9.0182,   10.3509,   10.9337,   10.9707,   11.6038,   12.0424,   12.5550,   12.6928,   13.0496,   13.3910,   13.8348,   14.0280,   14.0396,   13.8684,   14.2551,   14.7821,   15.6369,   16.0189,   16.6808,   17.8355,   18.0221,   18.2070,   19.0182,   20.2001,   21.1576,   23.1383,   25.0288,   23.3369,   22.5807,   21.9147,   21.1386,   20.7633,   20.5180,   19.4574,   19.4371,   19.9825,   21.2696,   33.1808,   22.5044,   24.5354,   27.3698,   29.5119,   31.4230,   32.5018,   33.0758,   31.6174,   33.7143,   33.4706,   32.3061,   31.3598,
24-SEP-2002 14:15:08.81 ,    4.2303,    3.6006,    3.6372,    4.0646,    4.6251,    4.1156,    3.6286,    3.6471,    3.3522,    2.8206,    4.6807,    6.6369,    7.7603,    8.6576,    9.0495,    9.7505,   10.5800,   10.8155,   11.1381,   11.6500,   11.6685,   12.3992,   12.5963,   12.9773,   13.7710,   14.1996,   14.2370,   14.6633,   14.2553,   14.1138,   14.3651,   14.5733,   15.5414,   16.7509,   17.5444,   17.9267,   18.8564,   19.3065,   20.7260,   20.7593,   23.3356,   25.4695,   26.6173,   27.5478,   27.9108,   28.1929,   29.3754,   31.7647,   31.2853,   31.8574,   32.6244,   32.7677,   31.3188,   31.5400,   30.9741,   32.0744,   32.6238,   33.4570,   35.1721,   34.3625,   33.4238,   34.9468,   35.0080,   32.7915,   30.9335,
24-SEP-2002 14:17:56.41 ,    2.5895,    2.5744,    3.1855,    3.6425,    3.8433,    2.8055,    2.0318,    2.0731,    2.2082,    1.5678,    3.7261,    5.8071,    6.0944,    6.9400,    8.1331,    9.4086,    9.8241,   10.2349,   10.8989,   11.3992,   11.8798,   12.2353,   13.0191,   13.1212,   13.3796,   12.9790,   12.3334,   12.8287,   13.1190,   13.1381,   13.2632,   14.0033,   15.0352,   15.6522,   16.1322,   17.6592,   18.7494,   19.4360,   20.7950,   22.4160,   24.0811,   25.3091,   25.8048,   26.0347,   27.1349,   28.6671,   29.1074,   30.3435,   31.3437,   32.5581,   33.6113,   34.2239,   32.4270,   33.3210,   34.0530,   35.5588,   37.0593,   37.6512,   37.8009,   38.6024,   38.9435,   39.5524,   40.2485,   33.6551,   31.7267,
24-SEP-2002 14:20:40.39 ,    1.6443,    2.4801,    3.2574,    4.0730,    4.3258,    4.1455,    3.6046,    3.5999,    3.3443,    3.0500,    4.1250,    4.7174,    6.1649,    8.0955,    9.2844,   10.1729,   10.3618,   10.7383,   10.8612,   11.1605,   12.0115,   12.3182,   11.6136,   13.5331,   12.9350,   12.4786,   12.4824,   12.4793,   12.5395,   12.1725,   12.6150,   13.7377,   14.2985,   14.7217,   15.5627,   17.5648,   18.8629,   19.4871,   20.0744,   21.5488,   22.2262,   24.2971,   25.7312,   26.6341,   27.3891,   28.0599,   30.1275,   31.6816,   32.6755,   33.6412,   34.2797,   35.0927,  999.0000,   36.5461,   37.8873,   39.2106,   42.8468,   44.0572,   44.0777,   47.8325,   46.3313,   47.1368,   48.4162,   20.0526,  999.0000,
24-SEP-2002 14:23:22.06 ,    1.7560,    2.6930,    3.4102,    3.5554,    4.1523,    3.7927,    3.1365,    3.5409,    4.1453,    3.8696,    4.2731,    5.0830,    7.5040,    9.9104,   10.2183,    9.8504,   10.2620,   10.8991,   11.0422,   11.0149,   11.6114,   12.1912,   11.8241,   12.7046,   12.9068,   13.0055,   13.0067,   12.8778,   13.1982,   12.9576,   13.1668,   13.6876,   14.1593,   15.1096,   15.8260,   17.0268,   18.2940,   19.0920,   20.2614,   21.8923,   23.4413,   24.7214,   25.9195,   26.8852,   28.4488,   29.6470,   30.3436,   31.0486,   31.7632,   32.8202,   33.8185,   32.7449,   33.5187,   32.4561,   32.9121,   33.1522,   33.0743,   32.4701,   33.8419,   38.6759,   31.6648,   30.8372,   31.8316,   31.5560,   31.0886,
24-SEP-2002 14:26:03.57 ,   -0.4964,    0.3900,    1.6009,    2.6844,    3.3247,    2.7468,    2.4819,    2.8764,    3.6625,    3.2869,    4.2083,    5.6547,    7.4172,    8.9240,    9.7212,   10.0305,   10.4374,   10.7371,   10.9167,   10.9546,   11.5081,   12.0238,   11.3320,   11.9197,   11.9780,   12.3295,   13.0242,   13.2889,   13.5033,   14.0532,   14.3082,   14.6950,   15.3012,   16.2741,   16.6340,   17.1847,   17.9279,   18.6155,   20.2081,   21.7189,   22.6973,   23.5600,   24.6649,   25.9106,   27.1088,   29.0348,   30.0914,   30.8380,   31.4477,   32.6307,   33.2766,   32.6588,   33.8359,   32.4538,   33.3738,   34.2051,   32.4096,   31.3424,   32.9167,   38.4956,   31.1403,   30.0752,   30.5198,   30.1618,   31.1059,
24-SEP-2002 14:28:45.03 ,    0.9554,    1.2384,    1.9718,    3.2699,    3.9155,    3.5867,    3.6477,    3.8511,    4.2753,    4.3526,    4.9979,    6.5915,    8.2160,    9.3991,   10.3200,   10.8244,   10.9980,   11.0709,   11.1496,   11.3935,   12.0725,   12.5225,   12.4683,   12.9290,   12.6841,   13.0013,   14.4379,   15.1092,   14.3409,   14.7058,   14.5912,   15.0259,   15.4139,   16.4116,   17.0044,   17.2239,   17.6077,   18.2881,   19.7425,   21.3903,   22.0520,   22.5006,   23.9255,   25.4729,   27.2203,   28.9206,   29.4031,   28.9233,   30.0774,   31.1194,   31.3677,   31.9378,   31.1232,   31.2064,   31.2010,   31.6375,   32.2773,   31.8970,   33.5074,   34.1091,   31.5710,   30.7494,   30.5484,   30.9702,   30.7403,
24-SEP-2002 14:31:26.42 ,    2.0379,    2.4116,    3.1824,    3.5133,    3.3633,    3.4687,    3.6167,    3.7972,    4.3883,    4.9986,    5.8060,    6.9556,    8.4201,    9.7169,   10.5153,   10.7057,   11.1157,   11.3404,   11.2509,   11.5672,   12.0872,   12.3625,   11.9241,   12.5941,   12.8330,   13.1724,   12.9044,   12.8449,   12.8781,   13.3096,   14.0071,   15.1338,   15.8901,   17.5816,   18.3639,   17.3114,   18.2448,   19.7244,   19.7476,   20.7500,   22.0382,   22.8645,   24.2300,   26.4354,   27.6858,   29.8165,   30.0831,   29.9397,   31.1068,   31.9422,   31.6936,   32.8124,   31.2528,   30.6600,   30.1430,   31.4198,   32.5196,   32.8371,   33.9948,   34.6720,   33.2204,   31.8610,   31.9757,   30.8014,   30.2373,
24-SEP-2002 14:34:09.22 ,    0.6378,    1.8353,    3.5561,    3.7908,    3.7419,    4.0180,    4.3920,    4.7049,    4.8356,    4.2830,    4.4893,    6.0864,    7.5118,    9.2405,    9.9220,   10.4646,   11.1718,   11.5198,   10.9887,   10.9184,   11.3218,   11.6889,   11.3554,   11.4368,   12.4193,   13.2080,   12.8769,   12.8586,   12.7381,   12.8902,   13.6473,   14.3316,   15.0075,   15.5824,   16.1592,   16.1815,   17.4524,   19.3097,   18.8758,   20.6216,   22.2813,   23.4782,   24.2650,   25.9133,   27.8836,   29.2239,   29.9959,   30.4053,   31.0022,   31.6953,   31.6885,   39.3164,   32.3402,   31.8893,   32.6844,   32.1685,   32.2314,   32.2176,   33.5727,   34.8289,   34.9845,   32.7148,   32.5550,   30.8993,   30.2857,
24-SEP-2002 14:36:51.20 ,    1.9687,    2.6905,    3.3715,    3.6165,    4.1241,    4.3251,    5.0808,    5.4929,    5.6659,    5.0353,    5.1549,    6.6723,    7.3287,    9.0110,    9.3445,   10.0155,   10.7026,   10.9075,   10.3656,   10.4021,   11.0613,   11.4788,   10.6686,   10.8442,   11.6557,   12.0742,   11.7554,   12.2978,   12.5541,   12.7927,   13.2761,   13.8139,   15.0106,   15.3634,   16.2430,   16.0805,   16.7704,   18.3486,   18.2326,   20.7118,   23.3066,   24.1688,   25.0138,   25.5773,   27.3634,   28.7629,   29.8845,   30.3067,   30.4543,   31.4012,   32.1566,   32.7989,   33.0819,   31.1673,   32.6612,   32.6425,   33.0826,   33.8491,   34.2038,   33.1976,   32.7369,   32.6240,   31.2631,   31.9615,   31.4494,
24-SEP-2002 14:39:32.68 ,    2.2278,    2.8453,    3.4586,    3.6864,    3.5217,    3.7169,    4.3287,    4.5177,    4.5304,    4.2139,    4.5794,    6.0930,    7.1603,    8.7650,    9.1319,    9.6483,   10.2601,   10.3570,   10.0118,   10.5151,   11.3528,   11.8118,   10.5968,   11.3719,   12.1099,   12.2648,   11.6965,   12.1988,   12.6471,   12.7027,   12.9816,   13.4471,   13.4477,   14.8665,   14.9974,   13.2529,   13.2519,   13.7877,   14.9342,   21.4955,   22.2632,   22.9388,   25.2486,   26.4862,   22.5003,   27.9644,   23.9666,   25.0932,   25.8921,   26.2377,   28.1322,   29.0709,   29.4649,   30.8170,   29.9833,   30.7193,   32.1295,   33.4004,   35.4303,   33.6235,   32.5081,   33.4788,   33.5568,   31.8121,   30.2372,
24-SEP-2002 14:42:14.65 ,    2.8488,    2.4859,    3.3703,    3.7024,    3.6414,    3.6399,    3.3823,    3.0762,    2.8181,    3.3378,    3.7459,    5.1342,    6.6214,    8.1455,    8.8716,    9.5462,   10.4043,   10.5360,   10.3273,   10.8508,   11.5130,   12.1099,   10.9124,   11.8776,   12.7652,   12.7811,   12.5292,   12.7534,   13.2520,   13.9668,   13.8465,   13.5367,   12.2109,   17.1824,   17.9704,    8.6522,    5.8745,    5.3100,    5.0539,   27.1188,   28.2238,   29.6183,   30.2506,  999.0000,   12.9079,  999.0000,   11.4925,   13.2259,   15.9061,   16.9748,   20.1228,   22.2315,   21.8445,  999.0000,   24.0115,   27.6539,   30.3952,   32.9825,   34.7045,  999.0000,   33.0598,   33.0733,   34.1486,   32.8789,   31.1903,
24-SEP-2002 14:44:56.22 ,  999.0000,    2.3971,    3.7902,    4.0149,    4.4988,    4.3766,    4.4421,    4.4172,    4.2831,    4.8874,    5.5963,    6.0900,    7.5703,    9.2083,    9.7495,    9.9844,   10.5039,   10.7004,   10.4880,   11.0135,   11.8186,   12.6999,   13.4413,   13.0579,   12.8922,   13.4375,   12.6834,   12.7904,   14.1218,   15.1563,   15.9269,   16.1971,   16.5618,   16.7965,   16.8562,   17.2959,   18.0235,   18.8804,   20.3386,   21.6263,   22.1159,   23.2675,   24.3386,   26.5345,   28.1537,   28.9339,   28.6458,   30.8702,   31.7394,   32.3044,   33.2114,   33.9479,   32.7812,   31.9161,   30.7278,   33.2348,   32.2568,   32.2567,   32.2543,   33.4489,   31.6001,   32.0658,   32.4427,   31.5804,   31.7447,
24-SEP-2002 14:47:38.47 ,  999.0000,    2.3795,    2.7433,    3.0624,    3.4065,    3.5455,    3.9922,    4.4221,    4.6339,    3.9729,    5.2328,    5.7793,    7.3145,    8.0864,    8.9620,   10.0856,   10.5207,   11.0261,   10.9756,   11.3382,   12.1284,   12.9829,   13.5243,   13.0088,   13.4837,   13.3748,   13.1627,   13.8095,   15.0028,   15.7866,   16.4224,   16.8625,   16.9591,   17.3171,   16.8608,   17.7121,   18.7036,   19.9843,   21.5346,   22.1599,   22.6434,   23.9617,   24.9571,   26.1228,   27.8341,   29.7985,   30.6592,   30.6690,   31.1294,   32.2001,   33.4685,   34.1805,   32.2702,   32.5828,   31.5481,   32.6886,   32.3447,   32.3107,   32.7847,   32.4141,   31.8132,   32.8687,   32.2904,   31.0273,   31.1501,
24-SEP-2002 14:50:20.69 ,    1.8678,    2.9135,    2.8360,    3.1094,    3.4490,    3.8765,    3.8359,    3.8949,    4.0940,    3.7329,    4.7833,    5.3962,    6.1248,    7.3239,    8.6478,   10.7625,   12.2019,   12.5917,   12.6110,   12.2963,   12.1706,   12.7029,   11.0469,   12.3198,   13.3159,   13.1054,   13.2184,   14.1412,   14.8919,   14.9221,   15.6577,   16.3274,   16.4899,   16.6319,   17.0209,   17.9115,   18.1852,   20.7464,   22.1005,   22.4343,   23.5401,   24.2450,   26.4210,   27.0374,   28.5060,   29.8720,   30.9215,   31.2610,   31.4487,   32.7327,   33.0191,   32.9328,   31.5364,   33.4998,   32.4246,   33.2168,   33.7793,   33.9531,   34.1879,   35.0843,   32.9356,   33.5983,   32.4867,   30.7864,   30.8009,
24-SEP-2002 14:53:04.96 ,    9.0285,   12.3308,   14.8464,  999.0000,  999.0000,  999.0000,   -7.8804,   -5.3149,   -2.4490,   -0.1117,    2.6223,    5.5209,    7.2708,    9.8893,   10.4151,   11.2199,   12.7386,   12.6412,   12.6907,   12.0783,   11.7340,   12.2804,   11.2581,   11.9382,   12.4589,   13.1530,   14.1334,   14.6795,   15.2013,   15.5908,   15.7521,   16.3394,   16.6036,   16.4016,   16.2612,   16.2953,   16.5085,   17.9066,   18.6321,   19.2392,   21.9897,   22.4108,   22.6768,   22.9665,   23.6302,   28.4337,   30.5255,   31.6764,   31.9504,   31.8158,   32.6401,   33.5980,   31.5905,   32.7040,   32.0759,   35.4549,   30.7162,   33.0534,   34.3112,   35.2660,   32.6034,   33.3503,   32.7783,   31.1661,   30.9664,
24-SEP-2002 14:55:47.56 ,    9.3515,   13.1934,   16.0261,  999.0000,  999.0000,  999.0000,  -10.5552,   -6.7316,   -4.7725,   -2.0120,    2.2303,    5.5551,    6.9864,    9.1501,    9.4096,    9.6072,   10.4696,   10.6530,   10.6873,   10.7623,   11.1752,   11.6816,   12.2415,   12.7085,   12.1528,   12.6625,   13.8872,   14.7762,   15.1426,   15.4449,   15.7073,   16.2045,   17.0867,   17.2763,   17.1224,   15.4672,   14.3928,   14.0540,   12.8701,   13.4622,   14.3660,   14.4358,   14.8402,   15.4590,   17.1563,   11.6278,   10.5089,   30.7277,   31.0284,   32.1462,   33.5842,   34.1703,   32.2522,   31.8177,   31.9250,   32.0985,   31.9880,   33.6291,   33.0692,   38.1592,   32.2450,   32.1511,   32.4847,   32.3050,   30.7936,
24-SEP-2002 14:58:29.39 ,    1.8668,    3.3678,    3.6261,    3.8481,    5.5601,    5.2004,    5.0268,    5.5854,    3.7781,    3.7601,    5.3888,    6.1940,    7.3965,    8.4867,    8.2870,    8.9033,    9.7611,   10.3886,   10.5032,   10.4023,   10.4312,   10.6209,    9.9238,   10.4778,   11.1838,   12.3897,   13.7283,   14.5633,   14.8196,   14.3296,   14.5673,   16.1403,   16.9667,   16.8971,   17.1052,   17.5713,   18.4444,   19.5020,   20.9737,   22.4278,   23.5958,   23.8035,   24.0301,   25.5353,   27.8844,   29.4550,   29.0364,   30.4828,   31.8881,   32.7316,   33.8376,   33.2599,   33.3829,   33.9231,   34.4164,   34.0788,   34.7577,   35.6686,   34.3044,   35.6053,   33.8439,   31.5566,   32.8779,   32.9677,   41.8997,
24-SEP-2002 15:01:10.81 ,    1.9323,    3.4600,    4.7336,    4.5880,    5.5642,    5.0771,    4.6820,    4.3682,    4.2324,    4.6951,    5.3490,    5.7114,    6.5998,    8.2102,    8.1807,    8.8862,    9.4658,    9.7907,    9.8918,    9.8062,    9.9009,   10.4534,    9.8265,   10.2083,   10.9594,   12.1075,   13.3947,   13.8325,   13.5991,   13.6971,   14.7048,   15.9963,   16.8475,   17.0194,   16.5870,   16.6755,   16.3195,   16.8631,   19.1248,   20.6630,   21.5083,   23.3333,   23.5821,   24.8324,   27.0325,   30.1672,   29.7674,   30.1029,   31.3371,   31.7863,   32.2498,   32.5053,   33.8340,   33.7809,  999.0000,   32.8181,   33.2793,   35.8581,   35.3457,   36.6520,   35.9014,   33.4854,   33.9029,   33.1919,   32.0213,
24-SEP-2002 15:03:52.37 ,    2.1114,    2.5643,    4.1396,    5.0161,    4.8874,    3.7937,    3.6884,    3.8737,    3.9433,    3.8386,    5.1205,    5.5082,    6.0753,    8.2596,    8.4741,    8.6978,    9.2555,    9.6194,    9.9393,   10.1523,   10.1953,   10.6323,   11.3851,   10.8674,   12.0228,   13.3413,   13.8717,   11.9042,   12.0193,   11.8078,   11.8210,   12.5521,   13.8618,   15.7262,   16.3744,   17.8487,   20.3948,   22.1976,   24.6065,   26.5010,   28.1797,   29.5997,   30.4573,   31.6475,   33.5770,   28.3671,   29.3791,   29.7549,   30.6710,   32.9364,   33.0399,   33.1829,   32.9506,   33.0498,   32.9003,   33.0521,   33.7423,   37.1769,   38.0845,   38.4093,   38.0059,   37.1050,   36.4113,   21.5851,   35.7319,
24-SEP-2002 15:06:46.03 ,    2.8622,    2.9559,    3.6131,    4.8182,    5.3181,    4.8137,    4.8437,    5.1940,    5.1303,    5.2740,    6.1317,    6.1312,    7.5442,    8.8229,    8.7706,    9.1539,   10.0918,   10.3326,   10.2973,   10.5509,   10.6008,   10.7542,   11.2249,   11.9140,   12.7790,   13.7802,   14.0411,    6.9754,    7.8550,    7.8849,    8.5846,    9.0851,    9.8155,   13.3027,   17.2864,   21.7763,   27.4303,   32.1045,   36.9547,   40.7928,   45.1758,   47.4537,   49.1207,   49.8572,   50.9863,   32.2286,   35.0066,   37.9446,   40.6551,   35.0811,   33.2666,   32.6432,   32.5665,   32.6894,   31.7768,   32.8859,   33.9926,   34.4874,   34.6345,   35.0040,   33.9067,   32.7691,   32.2199,   32.6957,   32.4612,
24-SEP-2002 15:09:27.97 ,    3.4825,    4.4733,    3.8538,    4.0670,    4.8364,    5.2506,    5.2589,    5.4512,    5.7362,    6.6202,    6.7192,    6.8743,    8.5794,    9.3857,    9.4577,    9.9129,   10.6349,   10.7180,   10.4898,   10.8716,   11.3000,   11.5649,   11.5820,   11.7195,   11.7009,   12.1590,   13.2322,   14.0647,   14.4341,   14.4582,   14.5966,   14.8778,   15.4041,   15.8325,   16.3534,   17.0603,   19.1090,   18.6752,   19.3283,   20.5639,   21.1490,   22.4296,   22.9000,   24.4045,   26.7810,   28.3892,   29.3730,   30.0314,   31.6390,   31.2650,   32.4651,   32.5398,   32.8462,   32.2828,   33.2605,   32.2713,   31.7932,   33.4819,   32.7155,   32.2358,   31.9209,   31.2911,   31.7367,   32.0606,   32.2009,
24-SEP-2002 15:12:11.94 ,    3.1088,    3.8496,    3.4776,    3.2878,    3.7259,    3.9803,    3.9440,    3.7112,    3.4199,    3.7844,    4.4696,    5.9554,    7.9835,    8.7958,    8.7973,    9.0585,    9.7530,   10.1770,   10.1402,   10.4328,   11.0727,   11.3986,   10.9328,   11.1347,   11.2732,   11.5345,   12.9499,   14.2727,   14.8160,   14.3954,   14.5578,   15.5315,   16.2717,   16.4306,   16.7401,   17.4154,   19.3690,   18.5322,   19.1749,   20.4492,   21.5492,   22.4194,   23.1212,   24.3671,   27.9475,   28.8332,   30.2627,   30.8669,   30.3417,   30.3360,   31.8864,   32.1639,   31.7368,   31.1285,   32.3056,   32.1356,   31.1463,   32.8431,   33.6716,   33.6743,   32.4350,   31.5910,   31.5852,   30.6456,   31.6785,
24-SEP-2002 15:14:53.36 ,    2.7174,    2.0945,    3.8117,    3.7698,    3.8997,    3.9599,    4.0951,    3.6144,    2.7888,    3.7103,    4.4370,    6.3003,    7.4431,    7.7671,    8.1810,    8.2482,    9.0510,    9.9446,    9.9281,    9.9507,   10.2203,   10.5640,   10.6244,   10.9946,   10.6053,   10.8245,   12.0597,   13.7221,   14.5312,   14.4056,   14.4651,   15.2406,   16.2132,   16.2510,   15.7624,   16.0839,   17.2985,   17.8385,   18.7019,   20.8009,   21.8856,   22.9311,   23.4225,   24.1820,   28.1879,   29.0330,   29.1804,   30.8640,   32.4529,   31.8658,   32.1856,   32.7843,   32.8243,   31.6637,   31.9668,   32.1109,   32.6986,   31.7576,   32.4682,   32.8303,   31.8573,   28.8069,   27.1978,   25.4259,   24.9927,
24-SEP-2002 15:17:35.11 ,    2.8701,    2.2571,    4.4300,    5.1172,    4.9539,    4.6959,    4.8515,    4.5035,    4.1433,    5.5803,    6.1740,    7.4814,    7.8322,    7.7674,    8.3790,    8.7169,    9.5729,   10.1179,   10.0264,    9.9035,   10.1248,   10.9591,   10.3264,   10.9313,   11.3242,   12.3071,   12.7975,   13.7786,   13.8848,   13.4968,   13.8103,   14.7167,   16.0282,   16.3051,   16.5395,   16.8912,   17.9001,   18.1828,   19.6411,   21.8647,   22.3339,   23.3655,   23.3656,   25.3089,   27.3396,   29.0957,   25.0067,   30.5958,   29.1945,   31.8558,   32.9611,   33.0813,   33.8600,   32.2209,   32.5396,   31.9574,   32.6252,   29.8051,   27.5877,   26.0690,   24.0442,   21.4049,   17.9230,   16.0994,   12.1788,
24-SEP-2002 15:20:16.71 ,    3.0655,    2.9096,    3.3023,    4.8266,    4.8154,    4.7546,    4.8280,    4.8888,    5.1086,    6.1569,    7.0893,    7.9492,    8.3586,    8.8070,    8.9850,    9.6852,   10.6411,   10.7502,   10.5686,   10.5056,   10.7789,   11.3617,   10.6348,   10.9201,   11.7500,   13.3880,   13.5937,   13.8620,   13.8801,   13.6648,   14.6017,   15.8519,   16.7339,   16.3617,   16.3065,   16.8386,   17.2896,   17.1144,   19.0010,   22.1527,   23.2870,   24.1223,   24.2466,   26.3308,   28.8397,   29.8477,   19.4968,   31.6854,   23.8449,   26.6668,   29.2478,   31.9494,   33.7855,   32.7741,   33.9085,   33.4248,   33.8952,   33.8265,   33.7048,   34.2329,   34.2533,   33.3236,   32.6099,   32.8718,   34.2437,
24-SEP-2002 15:22:58.06 ,    3.4447,    4.2984,    3.9712,    4.9686,    5.3003,    5.4122,    5.3512,    5.2298,    4.9566,    5.4186,    6.8371,    8.0413,    8.3713,    8.9503,    9.1297,    9.8493,   10.7992,   11.2028,   10.9712,   10.6475,   10.7390,   11.0353,   11.6945,   11.6335,   12.0188,   13.0865,   13.6167,   13.7545,   13.7018,   14.2751,   14.7988,   15.5953,   16.5399,   16.4507,   16.1239,   16.6267,   17.5167,   17.6737,   20.2885,   21.6903,   22.0225,   23.1621,   23.8531,   26.4496,   28.9333,   29.7938,   31.7153,   32.4593,   32.9031,   32.1451,   32.9820,   34.0735,   34.2966,   33.3854,   34.0926,   33.0287,   32.7242,   32.5702,   32.7994,   33.2819,   32.4004,   32.6797,   31.7602,   31.1364,   31.9962,
24-SEP-2002 15:25:39.85 ,    3.6281,    4.4069,    4.5132,    4.9341,    4.7444,    4.6283,    4.4256,    3.5966,    3.1707,    3.6499,    5.1382,    6.2990,    7.5201,    7.9633,    8.2670,    9.1829,   10.1563,   10.8683,   11.0409,   10.8898,   11.2960,   11.4206,   11.6519,   11.5222,   11.5865,   12.3638,   13.0169,   13.5801,   14.0196,   14.3131,   14.3935,   14.7964,   15.5438,   15.8757,   15.9414,   16.6462,   18.4758,   19.1826,   20.2835,   20.9653,   21.4559,   24.1855,   25.3373,   28.3622,   29.0527,   30.6730,   29.9996,   31.5062,   32.1406,   31.4582,   31.9635,   34.1867,   34.8451,   20.2355,  999.0000,   32.8271,   32.8726,   33.6461,   33.6918,   32.2918,   32.5721,   33.2090,   31.4312,   29.4636,   31.7435,
24-SEP-2002 15:28:21.46 ,    1.7801,    2.6589,    2.9996,    4.2725,    4.3015,    4.0211,    3.8485,    3.4750,    3.5298,    3.7312,    4.5939,    5.8052,    7.6837,    8.0735,    8.5631,    9.8079,   10.4434,   10.6094,   10.6986,   11.0878,   12.0923,   12.2203,    9.8595,    9.2210,    8.7565,    9.9552,   10.9669,   11.2655,   11.3978,   10.9571,   10.9282,   11.8914,   13.1549,   13.8362,   13.9656,   14.4368,   16.2086,   15.9942,   17.4923,   19.0803,   20.3049,   20.8133,   20.8693,   24.1333,   27.7743,   30.7488,   32.1261,   33.5980,   33.0983,   33.3590,   34.4305,   33.7895,   33.1455,   33.0160,   33.7526,   31.6276,   32.3908,   33.0958,   33.3973,   31.0945,   31.5856,   32.3151,   31.6286,   29.6210,   31.0630,
24-SEP-2002 15:31:04.96 ,    0.3000,    1.0510,    1.1799,    2.9891,    3.4285,    3.5217,    3.6627,    3.8663,    4.0615,    4.7713,    5.3846,    6.6310,    7.4818,    7.9028,    8.8771,   10.1747,   10.8385,   10.6673,   10.2699,   10.7076,   11.5558,   11.8705,    6.9565,    6.7615,    6.2330,    6.6484,    7.2764,    7.7441,    8.1219,    7.9625,    7.7854,    7.7520,    9.4346,    9.6899,    9.0005,    9.2773,   10.3617,   10.6402,   11.4306,   12.9161,   13.2915,   12.2092,   13.7896,   18.7008,   22.3968,   30.9239,   29.6211,   30.3972,   31.1567,   32.1349,   32.9707,   32.1295,   32.3111,   32.2319,   33.0727,   32.9231,   31.7577,   31.7054,   32.1797,   30.7514,   32.0469,   30.9448,   30.6243,   30.4717,   31.6563,
24-SEP-2002 15:33:47.08 ,    1.5247,    1.5659,    1.9227,    2.5151,    2.8674,    3.3896,    3.6304,    3.4128,    3.0025,    4.0322,    4.7575,    6.5647,    6.5228,    7.5233,    8.7021,    9.8208,   10.4865,   10.5557,   10.3989,   10.8900,   11.2277,   10.9228,   11.2890,   11.1151,    9.9902,   10.5876,   12.0766,   12.9342,   13.9383,   14.2586,   14.1806,   14.3239,   16.2087,   17.2544,   16.4759,   16.4623,   17.1133,   17.7056,   18.5039,   19.8848,   19.6411,   21.3603,   22.4912,   24.4670,   26.6016,   28.5774,   29.1424,   30.8146,   31.9086,   31.4778,   31.5538,   31.4702,   31.1152,   31.6398,   30.9810,   31.3511,   32.5410,   33.2023,   34.2415,   34.7126,   33.7228,   32.1509,   30.2924,   31.4274,   33.3649,
24-SEP-2002 15:36:28.24 ,    4.7387,    5.2948,    5.6152,    5.1922,    4.4920,    4.0789,    4.8299,    4.3717,    3.6567,    4.6148,    5.2296,    7.1340,    7.4728,    8.3760,    9.0191,    9.7311,   10.1188,   10.3207,   10.2719,   10.6276,   10.9014,   10.5379,   10.6864,   10.9821,   10.6936,   11.2767,   12.0769,   13.0492,   14.3681,   14.3070,   14.2215,   14.8932,   15.9087,   16.6238,   16.0914,   16.3413,   16.8616,   17.6518,   18.0836,   19.3124,   20.0005,   21.7171,   23.3746,   25.3165,   26.5543,   30.1571,   30.5073,   30.9650,   30.0578,   30.7981,   32.1890,   32.7892,   32.5058,   33.0537,   32.4442,   32.3212,   32.3749,   33.4186,   33.7562,   33.2448,   33.5285,   32.7971,   30.5705,   31.5830,   33.0132,
24-SEP-2002 15:39:10.31 ,    4.3961,    6.7672,    7.3283,    6.9862,    6.1088,    5.5455,    6.4038,    6.2754,    5.9227,    5.2863,    5.0303,    6.8017,    7.9969,    8.4010,    8.8828,    9.6347,   10.0346,   10.2094,   10.2178,   10.3172,   10.5329,   10.7595,   10.6077,   10.6731,   10.9480,   11.2480,   11.4412,   11.7052,   12.3244,   12.4970,   12.7218,   13.3152,   13.9327,   13.6804,   13.4374,   14.3434,   14.7820,   15.5101,   16.9501,   18.5346,   18.7972,   18.7695,   20.3112,   23.3644,   23.9891,   24.9941,   26.5371,   26.7683,   29.2717,   30.2041,   29.7996,   31.8596,   31.8192,   32.6389,   32.9727,   32.0577,   31.7668,   33.0580,   34.1054,   33.5415,   33.7687,   33.2712,   32.2962,   32.5265,   33.6649,
24-SEP-2002 15:41:58.06 ,    1.3513,    4.0272,    4.9510,    5.0373,    5.3573,    5.8824,    5.2773,    4.6140,    4.4926,    3.8728,    4.2713,    5.8002,    7.3352,    7.5800,    8.4435,    9.9628,   10.5875,   10.4948,   10.5390,   10.7219,   10.9398,   11.5328,   11.3440,   11.1151,   10.8440,   10.5767,    9.9104,    8.8642,    8.7436,    8.6112,    8.9615,    9.8594,   10.6905,   10.2982,    9.6995,   10.4820,   10.4033,   10.7431,   10.8632,   10.2904,   10.4843,   10.8030,   12.6550,   14.3234,   15.5685,   17.1626,   17.3033,   18.7693,   20.5359,   23.5429,   24.9089,   27.6962,   29.1530,   31.4389,   32.9529,   31.7744,   31.6816,   32.6099,   32.5240,   33.3487,   34.1756,   33.8560,   31.9736,   31.1470,   32.6491,
24-SEP-2002 15:44:40.52 ,    2.2926,    2.7931,    2.9656,    2.9028,    3.6401,    4.6032,    4.0111,    3.2901,    3.4091,    3.8140,    4.8232,    5.9026,    7.5478,    7.7899,    8.5798,    9.8262,   10.3113,   10.4132,   10.6008,   10.9561,   10.8885,   11.2724,   11.5498,   11.5606,   11.6509,   11.9262,   12.2841,   13.1430,   14.5143,   15.1554,   15.3885,   15.6803,   16.1183,   16.2298,   16.2066,   16.6226,   16.1899,   15.7856,   15.3146,   14.2777,   13.8199,   14.6896,   27.5522,   20.5999,   28.0893,   30.1390,   30.3988,   30.0275,   31.2497,   31.4928,   31.7927,   33.5197,   32.9259,   32.8875,   31.4100,   31.8954,   32.5739,   32.7841,   32.6517,   33.5258,   33.7478,   33.4701,   33.6309,   31.4503,   32.7739,
24-SEP-2002 15:47:22.43 ,    2.1113,    2.5704,    2.6570,    2.6871,    3.4640,    3.8066,    3.7793,    3.9290,    4.4230,    4.4755,    5.9175,    6.6807,    7.7369,    7.8875,    8.3762,    9.4049,    9.8953,    9.9982,   10.2098,   10.4726,   10.5736,   10.5528,   11.0071,   11.0065,   11.1495,   11.4881,   12.2427,   12.8786,   13.7689,   14.5073,   14.9281,   15.2257,   15.6407,   16.0206,   16.4560,   16.3212,   17.1503,   18.6097,   19.4409,   21.4856,   21.1256,   22.1154,   23.9135,   25.9999,   28.3081,   29.9718,   30.1722,   30.6589,   31.1244,   31.6143,   31.3698,   31.5262,   32.0348,   32.3859,   30.6029,   30.9039,   32.0283,   31.3923,   32.0471,   33.0865,   32.8662,   32.5525,   33.4568,   32.1722,   33.0542,
24-SEP-2002 15:50:07.83 ,    3.5801,    3.3973,    3.0131,    3.0249,    3.1437,    3.1203,    2.9415,    2.9660,    3.3192,    3.3379,    5.1356,    5.6980,    6.8166,    7.3584,    7.9063,    8.9808,    9.5093,    9.5101,    9.5989,    9.8754,   10.4551,   10.5821,   10.3497,   10.5307,   10.6700,   11.4320,   12.4683,   13.2852,   13.7808,   13.5936,   13.9035,   14.8315,   15.4577,   15.1531,   15.1012,   15.6737,   16.7176,   17.9662,   19.3374,   20.5232,   19.2567,   21.3228,   23.5349,   25.2329,   27.1152,   27.9730,   29.2666,   30.1596,   30.9286,   32.1748,   32.1633,   32.3210,   31.5854,   31.1440,   30.9743,   32.4138,   32.3963,   31.9640,   32.4181,   33.6044,   34.1127,   34.1921,   33.3808,   32.1623,   32.3682,
24-SEP-2002 15:52:49.30 ,    2.8645,    3.1095,    2.8940,    3.2854,    3.4360,    3.4564,    3.9231,    3.6528,    2.7895,    4.2609,    5.1393,    5.0726,    6.3832,    6.9823,    7.2433,    8.1796,    9.1970,    9.5029,    9.5333,    9.9406,   10.4843,   10.6825,   10.3365,   10.8645,   11.1312,   11.2504,   11.6950,   12.4942,   13.1530,   13.6310,   13.9328,   14.6828,   15.9884,   16.1681,   16.1357,   16.5504,   17.5902,   18.8080,   19.6768,   20.6957,   21.5462,   22.5956,   24.5193,   25.4499,   27.3909,   28.1198,   29.4930,   30.3951,   29.8290,   30.4518,   30.7562,   32.7430,   31.9986,   31.5497,   32.7695,   32.9034,   33.1786,   32.9973,   33.0379,   34.2951,   34.8368,   32.9845,   32.9470,   33.0843,   32.9701,
24-SEP-2002 15:55:55.34 ,    3.4226,    4.1732,    4.4426,    5.0830,    5.5878,    5.6397,    6.0725,    5.2680,  999.0000,    5.8630,    5.7210,    5.5565,    6.6365,    6.8279,    7.0793,    8.3042,    9.7087,   10.2061,   10.0166,   10.2513,   10.8130,   10.8453,   10.8649,   11.2116,   11.5706,   12.0013,   12.6519,   13.3082,   13.8349,   14.0370,   14.2553,   15.1178,   15.8656,   16.3079,   16.2509,   16.7782,   17.9563,   19.2799,   20.6172,   22.0212,   22.6300,   24.2740,   26.0822,   26.4827,   28.2095,   30.5297,   30.3862,   30.7194,   30.1303,   30.3942,   30.5630,   32.1331,   32.6686,   32.8739,   33.1623,   32.2002,   32.7767,   32.9384,   33.1331,   33.7889,   34.0441,   32.1604,   33.0073,   33.6695,   32.2550,
24-SEP-2002 15:58:36.63 ,    3.7394,    4.1604,    4.2193,    4.4219,    4.4921,    4.7581,    4.7537,    4.7675,    4.1159,    5.6208,    6.5990,    7.0326,    7.9518,    8.2846,    9.0755,   10.4650,   11.1397,   11.1410,   10.8498,   10.9948,   11.4476,   11.5663,   11.7143,   12.3252,   12.5214,   12.8059,   13.1440,   13.2461,   13.7423,   14.7733,   15.6769,   16.7315,   16.7561,   16.5705,   16.1316,   16.7246,   17.2945,   18.8712,   20.4707,   20.9958,   21.5938,   23.2113,   25.1489,   25.9305,   28.2615,   29.6920,   29.5006,   30.8993,   32.1793,   31.6027,   30.7657,   31.3227,   31.2793,   29.3592,   29.5290,   31.6747,   32.4289,   33.0495,   32.3492,   32.9735,   32.5271,   31.7752,   31.8608,   32.3805,   32.0868,
24-SEP-2002 16:01:18.01 ,    2.8311,    3.6997,    3.6602,    3.8702,    4.1739,    4.6171,    4.3140,    4.1856,    4.4324,    5.4642,    6.8630,    7.3253,    8.7503,    9.7932,   10.9117,   11.9096,   12.0765,   11.4665,   11.4401,   11.4285,   11.6652,   12.0144,   12.3025,   12.9479,   12.7494,   12.6568,   13.5927,   14.1741,   14.0343,   15.2097,   16.4609,   16.7369,   16.5627,   16.2574,   16.6089,   17.4052,   18.2575,   19.5903,   20.4564,   20.9609,   22.8449,   24.4652,   25.6750,   27.3379,   29.8758,   30.5636,   30.4468,   30.8317,   31.6787,   31.5098,   31.2574,   32.3081,   31.5604,   31.4259,   32.3820,   32.4315,   32.4435,   32.8208,   33.1002,   33.7131,   32.3257,   31.5975,   32.5734,   33.5516,   33.5156,
24-SEP-2002 16:03:59.57 ,    2.8323,    3.9382,    4.0679,    4.4228,    5.2498,    6.4416,    5.8107,    4.9723,    4.8248,    5.0070,    5.3713,    5.8642,    7.6117,    8.6495,    9.9707,   11.2367,   11.7200,   11.4823,   11.2422,   11.3579,   11.8969,   12.2790,   11.8734,   11.8779,   11.8678,   12.3671,   13.1358,   13.5975,   13.7315,   15.1317,   16.2131,   16.8185,   16.9643,   16.2269,   16.5288,   16.9975,   18.1966,   19.2764,   20.5335,   21.0123,   23.1032,   23.6197,   24.2612,   24.3392,   24.7813,   26.2442,   26.8512,   27.0956,   29.1464,   28.6381,   30.9112,   32.4512,   32.4954,   33.5461,   33.1434,   33.4219,   33.6215,   31.5862,   31.8139,   32.5449,   32.0314,   32.5089,   33.1409,   33.5432,   33.3154,
24-SEP-2002 16:06:41.37 ,    3.6167,    3.9883,    4.4209,    4.9822,    6.0234,    6.4492,    6.3413,    5.4163,    5.0916,    5.6036,    5.9265,    6.5554,    7.7349,    8.2221,    9.2006,   10.3817,   11.3869,   11.6407,   11.2851,   11.4267,   11.9257,   12.1623,   11.7248,   11.9582,   11.7911,   12.1061,   12.5774,   13.1778,   13.8595,   14.6007,   15.7817,   16.5777,   17.4171,   17.2373,   17.2943,   17.2944,   17.9817,   18.5555,   19.6365,   21.6152,   22.5665,   20.3902,   18.8320,   16.0550,   14.8280,   14.5537,   14.2340,   14.7646,   31.7502,   19.7669,   26.7834,   32.4718,   32.6828,   33.3293,   33.5147,   33.9717,   33.4120,   32.4316,   32.5537,   33.3943,   32.1280,   31.7225,   31.8935,   32.2595,   32.6153,
24-SEP-2002 16:09:34.11 ,    3.4623,    3.6137,    4.1109,    4.6948,    5.4732,    5.0672,    4.1586,    3.8329,    4.1303,    4.5065,    4.6720,    5.8447,    6.5622,    7.4741,    8.1840,    9.5538,   10.1910,   10.3231,   10.4913,   10.7644,   11.0295,   11.2711,   11.1115,   11.3157,   11.6538,   12.5018,   13.0174,   13.2539,   13.5188,   14.5694,   15.1540,   15.6572,   15.9752,   16.4600,   17.1591,   17.6720,   18.4669,   19.4254,   20.2968,   21.7125,   22.4412,   24.4373,   22.8423,   21.3203,   18.7187,   18.7982,   19.2404,   19.5634,   19.6061,   19.5442,   28.6667,   25.8244,   30.2524,   32.5104,   33.5217,   34.5704,   33.8998,   32.7496,   33.3501,   32.3016,   32.4866,   31.9579,   32.0287,   32.1336,   31.6161,
24-SEP-2002 16:12:16.01 ,    2.6201,    2.8113,    2.9984,    3.5189,    3.9119,    3.8986,    2.8728,    2.9769,    3.4260,    3.1725,    3.3184,    4.7920,    5.6353,    6.6392,    7.2385,    8.8791,    9.1196,    9.1664,    9.6847,   10.1217,   10.4562,   10.8083,   10.6573,   11.2930,   11.6755,   11.9880,   11.7438,   12.3431,   13.0949,   13.4633,   13.8323,   14.1264,   14.2533,   14.5926,   15.1175,   16.0705,   17.9055,   19.1961,   19.9971,   20.9866,   22.0508,   23.4281,   25.1298,   26.9174,   28.9708,   29.3193,   30.5084,   31.5133,   30.6423,   31.0406,   32.3561,   33.0847,   32.4472,   31.1396,   32.5176,   33.1069,   32.9541,   32.5495,   32.5166,   32.0541,   32.0997,   31.2388,   31.7202,   31.7286,   29.9614,
24-SEP-2002 16:14:59.60 ,    2.5982,    3.1373,    3.5534,    4.0102,    4.2272,    4.1045,    3.3370,    3.0428,    2.9027,    2.8395,    3.0609,    3.9211,    5.0577,    6.1556,    7.4328,    8.3196,    8.6219,    8.9497,    9.3758,    9.7996,   10.4056,   10.8395,   10.5451,   10.7720,   11.4117,   11.6863,   11.5479,   12.6285,   13.3780,   13.2806,   13.6329,   14.3885,   15.0850,   15.3250,   15.5755,   16.3258,   17.4401,   18.7939,   19.6365,   19.8934,   21.6458,   23.2432,   25.1764,   27.3614,   29.2598,   29.9387,   31.3085,   31.9101,   31.0913,   31.5128,   32.0028,   32.5982,   32.0110,   30.7303,   32.0025,   33.0321,   34.3859,   32.6947,   31.4778,   31.5066,   32.0777,   31.5500,   31.7281,   30.9941,   31.1374,
24-SEP-2002 16:17:41.57 ,    2.3620,    2.9609,    3.6100,    4.2282,    4.2064,    4.7055,    3.7727,    3.7002,    3.2298,    3.7780,    4.1387,    4.7348,    5.8317,    6.8194,    7.8951,    8.9395,    8.9470,    8.9471,    9.2280,    9.8697,   10.5385,   11.0323,  999.0000,   10.5390,   11.5186,   11.7931,   12.0533,   13.0405,   13.5967,   13.5750,   13.6425,   14.9089,   15.8217,   16.0089,   15.8471,   17.2257,   18.0002,   18.7554,   19.7170,   20.4359,   20.9789,   22.3583,   25.9446,   28.2345,   29.1920,   29.6871,   31.5120,   30.6732,   31.0677,   31.7259,   32.1986,   31.5973,   35.1029,   36.3747,   37.2778,   35.1048,   34.3639,   33.1418,   12.7625,   32.2069,   17.1049,   18.0213,   20.1116,   29.0147,   22.7566,
24-SEP-2002 16:20:23.01 ,    2.4744,    2.2381,    3.0109,    3.4652,    2.7469,    3.1769,    3.1202,    3.5161,    3.2744,    4.1785,    4.5390,    5.1887,    6.4915,    7.3045,    8.4512,   10.3157,   10.1442,   10.0825,   10.3125,   10.5153,   10.6401,   10.9952,    9.5840,   11.8843,   11.9971,   11.0124,   11.3661,   12.8340,   13.3703,   13.5635,   13.9606,   15.5411,   17.2759,   18.8284,   20.7289,   22.6366,   24.2945,   25.0491,   19.8451,   28.0017,   27.9587,   28.2436,   24.6868,   27.2174,   27.4507,   28.1139,   30.2135,   29.5845,   29.0916,   22.2945,   22.2535,   22.4067,   22.5410,   22.4937,   22.1963,   21.6980,   20.5593,   19.4916,  -38.6709,   17.1325,  -21.9852,  -19.2848,  -14.8728,   11.7427,   -2.9759,
24-SEP-2002 16:23:04.39 ,    2.4801,    2.6954,    3.6469,    3.7121,    3.8447,    3.3403,    3.7067,    4.5906,    4.6744,    4.6711,    4.7125,    5.6852,    6.3292,    7.2682,    9.2335,   10.6938,   10.8036,   10.7757,   10.8444,   10.6301,   10.4038,   10.7406,    9.6061,   11.3217,   11.7743,   12.3557,   13.0606,   13.8169,   14.4917,   14.3791,   14.5402,   17.9922,   22.2201,   26.2273,   31.2679,   33.1236,   34.7962,   37.5327,  -11.1778,   41.2382,   40.0279,   38.3429,    0.9795,    7.5102,   28.4462,   29.6828,   15.3321,   16.3301,   17.1880,   35.3804,   37.0300,   20.4606,   42.1444,   46.9601,   52.1060,   22.7118,   22.2644,   21.8395,   21.1632,   20.3516,   19.7393,  999.0000,  999.0000,    9.8859,  999.0000,
24-SEP-2002 16:25:46.39 ,    2.9270,    3.6694,    4.2617,    3.9207,    4.4249,    4.0628,    4.2207,    5.2815,    5.0072,    4.3668,    4.5222,    5.8325,    5.9671,    6.8578,    8.8633,   10.1511,   10.3191,   10.1802,   10.2428,   10.4432,   10.5734,   11.0860,   10.6256,   10.8753,   11.2392,   11.2314,   12.2836,   13.5565,   13.9095,   14.1379,   14.2903,   14.6974,   15.0093,   14.9910,   16.2291,   16.7657,   17.8214,   19.2768,   19.9962,   20.5765,   21.6825,   22.9341,   24.5982,   25.4526,   28.1064,   28.2090,   28.7960,   28.5820,   29.5891,   31.0660,   30.2923,   30.8984,   32.2105,   33.2873,   32.9543,   33.7119,   32.7025,   32.6120,   32.4427,   32.1471,   32.2508,   31.8972,   31.6976,   32.9415,   32.9067,
24-SEP-2002 16:28:28.05 ,    2.8385,    3.2975,    4.5282,    4.6696,    4.3618,    5.0524,    4.8485,    5.1703,    5.1948,    4.7887,    5.2221,    5.9472,    6.2262,    6.6970,    8.1885,    9.4931,    9.6473,    9.6608,    9.8299,   10.1612,   10.4812,   10.8396,   10.2843,   10.7889,   11.3299,   11.9122,   13.2366,   13.8767,   13.6449,   13.8164,   14.1224,   14.6065,   15.1432,   15.5162,   15.2425,   15.9599,   17.0980,   18.9663,   19.4404,   20.5778,   22.2583,   23.9677,   25.2500,   27.3998,   28.3504,   28.5472,   29.6532,   30.0862,   31.0829,   30.8585,   30.9442,   31.4115,   31.8756,   32.2379,   31.6866,   32.1278,   32.1031,   33.8988,   31.9869,   31.6747,   31.1841,   31.5690,   30.0488,   32.2577,   32.9473,
24-SEP-2002 16:31:09.65 ,    1.9342,    2.9286,    4.4184,    4.8348,    5.2407,    5.8972,    6.0979,    6.1649,    6.0910,    5.9423,    6.2082,    6.5726,    7.0814,    7.6448,    9.0230,    9.7140,    9.6885,    9.8891,    9.9590,   10.0087,   10.2345,   10.3242,    9.7594,   10.5564,   10.8061,   11.3812,   12.4425,   13.2819,   13.7046,   13.6873,   13.7309,   14.0583,   14.5198,   15.3006,   15.5433,   16.4531,   17.8809,   19.7587,   20.4792,   22.0188,   22.8249,   24.1620,   25.8112,   28.2662,   29.3800,   29.6296,   30.3281,   30.4875,   30.3651,   30.4829,   31.1812,   31.8342,   34.0257,   32.8549,   32.0145,   33.1501,   33.1830,   33.3371,   32.5889,   32.9981,   31.3528,   31.9929,   30.8082,   33.0722,   32.8122,
24-SEP-2002 16:34:02.30 ,    1.9984,    2.9595,    3.4058,    4.1730,    4.8721,    5.2185,    5.2222,    5.0646,    4.5425,    4.6130,    5.1797,    5.8328,    6.1389,    6.7053,    8.5926,    9.8438,    9.8297,    9.7726,    9.5550,    9.6575,   10.2119,   10.4539,   10.4017,   10.5211,   10.9507,   11.0692,   11.6570,   12.8330,   13.5802,   13.8415,   14.1389,   14.5301,   14.6598,   14.7542,   15.2639,   16.5844,   18.5607,   19.3907,   21.0007,   22.1986,   23.3759,   24.9394,   26.5323,   27.7737,   28.3453,   29.3142,   30.5719,   30.1200,   30.5689,   30.6720,   31.9743,   32.0770,   32.1677,   32.0046,   32.3811,   33.7686,   33.4796,   32.0277,   32.1390,   32.0712,   32.3639,   31.5803,   31.3094,   31.9669,   32.3088,
24-SEP-2002 16:36:44.07 ,    2.1018,    2.0201,    2.2586,    3.3838,    3.4325,    2.8005,    2.7202,    2.7032,    2.6222,    2.9822,    4.3593,    5.6004,    5.9964,    6.5910,    8.3006,    9.6568,    9.9790,   10.1626,    9.8954,    9.5944,    9.8331,   10.2094,    9.6505,   10.2366,   10.5445,   10.7229,   11.1736,   12.1256,   12.5127,   12.4261,   13.5465,   14.5243,   14.5125,   14.8116,   15.0216,   15.4702,   17.4814,   18.6127,   20.1305,   20.8055,   22.2243,   24.4445,   25.6248,   26.5952,   28.3798,   29.6260,   30.1261,   30.3744,   30.7016,   31.2522,   31.9417,   32.5084,   32.2528,   31.8030,   33.1725,   32.8296,   33.0073,   32.5667,   31.8219,   31.8488,   31.3346,   31.3604,   30.8839,   30.7767,   31.8500,
24-SEP-2002 16:39:25.41 ,    2.3553,    2.5004,    2.9626,    3.8052,    3.9085,    2.8917,    2.4371,    2.6586,    2.9157,    3.0958,    3.7860,    4.7581,    5.7430,    7.0435,    8.2564,    8.8704,    9.3688,    9.4648,    9.1079,    8.8582,    8.9082,    9.4225,    9.2698,    9.6257,    9.8767,   10.2227,   10.0660,   10.5031,   10.7539,   10.9944,   13.1543,   14.0715,   14.2611,   14.5208,   14.9278,   16.3306,   17.7016,   19.1396,   20.2034,   20.8291,   22.6968,   25.5651,   26.8171,   28.3507,   28.4509,   30.0944,   29.7909,   29.5104,   30.0634,   30.4450,   32.0057,   32.6285,   33.2741,   32.5568,   32.9186,   33.2893,   32.4519,   32.4623,   31.3689,   31.8067,   32.2388,   32.6618,   32.7863,   32.2813,   32.5520,
24-SEP-2002 16:42:07.92 ,    2.6172,    2.9344,    3.7283,    4.1801,    4.6179,    4.2693,    3.4721,    3.4727,    2.9145,    2.3097,    2.6213,    3.6617,    4.4513,    5.4936,    6.3596,    6.9267,    7.4568,    7.4485,    7.2300,    7.4591,    8.0050,    8.5929,    8.2851,    8.4993,    9.1595,   10.0349,   10.6559,   11.5122,   12.3442,   13.2373,   13.9044,   14.2175,   14.3265,   14.5134,   14.8640,   16.8168,   18.2702,   19.4601,   20.2071,   21.0291,   22.7779,   25.2410,   26.9592,   28.2918,   28.2683,   30.4153,   30.3486,   30.0609,   30.8525,   30.7695,   30.5265,   30.8309,   30.5995,   30.6421,   30.7935,   32.3516,   33.3302,   33.4068,   33.0180,   32.0708,   32.8838,   33.3686,   33.2119,   32.6488,   33.0344,
24-SEP-2002 16:44:49.57 ,    3.2606,    3.5923,    3.9068,    3.9508,    4.8266,    3.7897,    3.5704,    3.6744,    3.6665,    2.5890,    3.1412,    4.7360,    4.8763,    4.9522,    5.1644,    6.2312,    6.7177,    6.7190,    6.8433,    7.1626,    7.7341,    8.0165,    7.3404,    7.5634,    7.9706,    8.8943,    9.2883,    9.8137,   11.1546,   12.5169,   13.8060,   14.4318,   14.1601,   14.3412,   14.6419,   15.7609,   17.7428,   19.4100,   20.7135,   21.9882,   22.6505,   26.7543,   29.1079,   30.3916,   29.8871,   29.7287,   28.8073,   29.2275,   30.8852,   31.0565,   30.7935,   30.2468,   30.6234,   31.5036,   31.2835,   32.3955,   32.7732,   33.7426,   33.9097,   33.4067,   32.9554,   33.2196,   32.9766,   32.1884,   33.1230,
24-SEP-2002 16:47:31.34 ,    3.9779,    3.9585,    4.0192,    3.8914,    4.6379,    3.4252,    3.5045,    3.6941,    3.9914,    3.9113,    4.5529,    5.8633,    6.1255,    6.1253,    5.7755,    6.5452,    6.9358,    6.9545,    7.3208,    7.6213,    8.0396,    8.1497,    8.0954,    8.6867,    8.9299,    9.3396,    9.9352,   10.5044,   11.7814,   12.8048,   13.2527,   13.7514,   14.2081,   14.2939,   14.1704,   15.3806,   17.2555,   19.5329,   21.0322,   22.1633,   23.0804,   26.0241,   27.3831,   28.4048,   28.3757,   28.5827,   28.7326,   33.3771,   33.8052,   34.3182,   20.0999,   19.8567,   21.9337,   22.0979,   22.1170,   20.4893,   20.6912,   19.6130,   18.6276,   18.0624,   16.4193,   15.7906,   36.5513,   13.6468,   14.3390,
24-SEP-2002 16:50:24.34 ,    3.8534,    3.4399,    3.0951,    2.8026,    2.9202,    2.9763,    3.0173,    3.1009,    3.3783,    4.2439,    5.0776,    5.7734,    5.9230,    5.6202,    5.5968,    6.8458,    7.4122,    7.6245,    7.9677,    7.9938,    8.0164,    8.4634,    8.5150,    8.9873,    8.9936,    9.3488,   10.2079,   10.7437,   11.6429,   12.8952,   13.8742,   14.1254,   14.0680,   14.2475,   14.3185,   15.9308,   18.1699,   19.7195,   21.1174,   22.6407,   24.5442,   25.6584,   26.7728,   27.2898,   30.4464,   32.1244,   29.0926,   26.5065,   27.3709,   28.7030,   -9.6850,   -6.9170,    6.7647,    5.8944,    5.9465,    2.7927,   -0.2745,  -21.5742,  -23.6456,   -9.5361,  -12.5714,  -16.0377,   31.1505,  -39.5211,  -20.8567,
24-SEP-2002 16:53:05.99 ,    3.3430,    3.1841,    2.4986,    2.0860,    2.8126,    2.7700,    2.7326,    2.8963,    3.6817,    4.6750,    4.5010,    4.7052,    5.1501,    5.0900,    5.4126,    6.9145,    7.3910,    7.6935,    7.8606,    7.7331,    7.6292,    7.9343,    8.8751,    9.9852,    9.3606,    9.9853,   10.9919,   11.3956,   11.9975,   13.5370,   14.9871,   14.7072,   13.9704,   13.9185,   14.5077,   17.3556,   19.3046,   20.2170,   21.2352,   23.0873,   24.7796,   26.1164,   27.3520,   27.1087,   34.7225,   40.6962,   11.9877,   51.6621,   55.4250,   58.2671,   20.5069,   24.2763,   62.1236,   62.6401,   63.2969,   66.6482,   62.3841,  999.0000,  999.0000,   61.9601,   60.5244,   52.7305,   52.1227,   31.8551,   48.1928,
24-SEP-2002 16:56:12.74 ,    3.5014,    3.3160,    3.0727,    3.0195,    3.6562,    3.3579,    2.9982,    2.9866,    3.4053,    3.9739,    3.8314,    4.1895,    5.0060,    5.6114,    6.0168,    6.8545,    7.7375,    8.2187,    7.9028,    7.6181,    7.8660,    8.0976,    8.7841,    8.8716,    9.2409,    9.6268,   10.6963,   10.6940,   12.1000,   14.0636,   15.3390,   15.4200,   14.8067,   14.8484,   15.2225,   16.3946,   18.5345,   19.7716,   20.8553,   22.9419,   23.3299,   24.2233,   25.8592,   27.9161,   28.6962,   28.9173,   29.4000,   30.9832,    3.7275,    4.2853,    5.0510,   43.4954,    6.7415,    7.4808,    8.1477,   56.3917,    9.9023,   10.1496,   28.3238,   11.5016,   12.1276,   16.7779,   15.3962,   13.6461,    9.1906,
24-SEP-2002 16:58:54.89 ,    3.9380,    3.8374,    3.8411,    4.2806,    4.5583,    4.8138,    4.6553,    4.6847,    4.7345,    4.2764,    4.5620,    5.6895,    5.7552,    5.9921,    6.8627,    7.8270,    8.3296,    8.6332,    8.4489,    8.2899,    8.3875,    8.8090,    8.9700,    9.4802,   10.0633,   10.4474,   11.1198,   11.2230,   12.8274,   14.8581,   15.6197,   15.5428,   14.9640,   14.4592,   14.7069,   15.7984,   18.6063,   19.7774,   21.4826,   22.7958,   22.7807,   25.8559,   27.0667,   27.3773,   28.3984,   28.7895,   29.3451,   29.4267,   29.9882,   30.3817,   29.9536,   29.4903,   29.2346,   30.0070,   30.7770,   31.7331,   31.7381,   32.0958,   32.3912,   32.7877,   32.3253,   31.5748,   31.0697,   31.1700,   32.0760,
24-SEP-2002 17:01:36.78 ,    4.5233,    4.4880,    4.3361,    4.2773,    4.6647,    5.4355,    5.6084,    5.6178,    5.4805,    5.4300,    5.1736,    6.3791,    6.9050,    6.7986,    7.3773,    8.5062,    8.7039,    8.6706,    8.7015,    8.8855,    8.9696,    9.2706,    8.9749,    9.7683,    9.9026,    9.9008,   10.4560,   10.8715,   12.0592,   13.8554,   15.2182,   15.3763,   14.9891,   14.3390,   14.5524,   15.8626,   19.2139,   19.8827,   21.0705,   22.7996,   24.4000,   26.3440,   26.3933,   28.1552,   28.2904,   27.7386,   28.3155,   29.2602,   30.4156,   31.3148,   31.0621,   30.1249,   30.0512,   30.8703,   31.4099,   31.8062,   33.1366,   30.7246,   31.8709,   31.9304,   31.8264,   32.1499,   30.7150,   30.0060,   30.7181,
24-SEP-2002 17:04:19.32 ,    3.7524,    4.1601,    3.9513,    3.3890,    3.5339,    4.3657,    4.4055,    4.4612,    3.8267,    3.9471,    4.5696,    5.1523,    6.1112,    6.0295,    6.3715,    7.4650,    7.7798,    7.8826,    8.0804,    8.3204,    8.5982,    9.1930,    8.2795,    9.0817,    9.8231,   10.0428,   10.2324,   10.4054,   12.1532,   13.7809,   14.7040,   14.8693,   14.4888,   15.2645,   16.6608,   17.2065,   17.5981,   19.9468,   20.9374,   22.0788,   23.5332,   26.3944,   26.5501,   28.2414,   28.4336,   28.4028,   29.5798,   29.3907,   29.8599,   30.3648,   30.4802,   29.9624,   31.0433,   31.5579,   32.4344,   32.9332,   33.3026,   31.6368,   33.0452,   33.1989,   32.5642,   32.5790,   31.7514,   31.0634,   32.3058,
24-SEP-2002 17:08:19.09 ,    2.5483,    3.4815,    3.8584,    4.2738,    4.3508,    4.7608,    4.2218,    4.1314,    2.9100,    2.6463,    2.7060,    3.4684,    3.8047,    3.8692,    4.2925,    5.6259,    5.8713,    6.0920,    6.2313,    6.5385,    6.9606,    7.6062,    7.5642,    7.6060,    7.7179,    9.0228,    9.6866,    9.5281,    9.9602,   11.5391,   13.0748,   14.7215,   14.2687,   13.8062,   15.0209,   16.5183,   16.9236,   19.7080,   20.0170,   21.1301,   22.4300,   26.2111,   27.0200,   26.7640,   26.5704,   26.4701,   28.5428,   29.1484,   29.4155,   29.8798,   22.0304,   20.5578,   22.6057,   30.4469,   30.5965,   32.3168,   33.8355,   32.5648,   31.8512,   32.3952,   32.4739,   31.8690,   31.6593,   32.2026,   32.5877,
24-SEP-2002 17:11:00.63 ,    3.4676,    3.6208,    3.8678,    4.1556,    4.3456,    4.2976,    3.7682,    3.4434,    2.8487,    3.4854,    4.0237,    4.3007,    4.5026,    4.2242,    4.2381,    5.2246,    5.4073,    5.5953,    5.8585,    6.3565,    7.0026,    7.6754,    8.6969,    6.2085,    6.8762,    9.1632,   10.3144,    9.9929,   10.8618,   13.1382,   14.4088,   14.5822,   14.4289,   14.1751,   15.7196,   17.9696,   17.6536,   18.1961,   18.4193,   20.4345,   23.1413,   23.9237,   26.8957,   24.6254,   26.9074,   27.2240,   29.4184,   28.8390,   29.8846,   16.2078,   12.4126,   12.4371,  999.0000,  999.0000,  999.0000,   35.7052,   34.8909,   36.6057,   32.1276,   36.7861,   37.4632,   36.5960,   34.9887,   32.1538,   31.3086,
24-SEP-2002 17:13:42.03 ,    3.5993,    3.8988,    3.8154,    3.8117,    3.4516,    2.7860,    3.0570,    2.9133,    3.3411,    3.7155,    5.2019,    5.2851,    4.8279,    3.8530,    4.4282,    5.4141,    5.8728,    6.0485,    6.4796,    7.1537,    7.6343,    8.7044,    6.6053,    6.9696,    8.4389,   10.0956,   10.3017,   11.2554,   12.0061,   13.2630,   14.6211,   15.1836,   14.2944,   14.6025,   14.8628,   14.9882,   16.1516,   21.3290,   16.3342,   18.6315,   24.7415,   20.4070,  999.0000,   20.6553,   42.3275,   26.9417,   32.5020,  999.0000,  999.0000,  -13.1288,  -14.1031,  -16.3010,  -18.5830,  999.0000,  999.0000,   34.4728,   37.4294,   38.9932,   36.3629,   44.4110,   44.0633,   42.5430,   39.7095,   35.9519,   32.7630,
24-SEP-2002 17:16:23.33 ,    3.7416,    4.2149,    3.7515,    3.6800,    3.1366,    2.2938,    2.8669,    3.0324,    2.9581,    3.3089,    4.1671,    4.1018,    3.8519,    3.5423,    4.6455,    6.2264,    6.7960,    6.9261,    7.1841,    7.8689,    8.4522,    9.4396,    7.4732,    6.7273,    7.9108,   11.1159,   11.9337,   11.7468,   11.6147,   13.3202,   14.4496,   14.8289,   14.2601,   14.4795,   15.5848,   16.6075,   17.1899,   18.2236,   19.7287,   22.0437,   24.1378,   26.0955,   28.2773,   28.5166,   27.5278,   27.1007,   29.0293,   28.5698,   28.8529,   29.4903,   29.0755,   29.5464,   31.0954,   30.4181,   30.2068,   31.7503,   31.2401,   30.3061,   30.6189,   31.3993,   31.9531,   31.2384,   31.3969,   31.3835,   31.0512,
24-SEP-2002 17:19:11.07 ,    3.7573,    4.1492,    3.9971,    3.7565,    3.9291,    3.6513,    4.1523,    4.7889,    3.5765,    3.7564,    4.2595,    4.2671,    4.3272,    4.9019,    5.7484,    7.0567,    7.3533,    7.6486,    8.0242,    8.2347,    8.6613,    9.3162,   10.1729,    6.4893,    7.4356,   10.7665,   11.6523,   11.4864,   11.8845,   13.4151,   14.1653,   14.1598,   14.1193,   14.2860,   14.7568,   15.4585,   17.3585,   19.0731,   20.8520,   23.0023,   23.5019,   25.1445,   27.4008,   28.2322,   27.5566,   26.7696,   28.1137,   28.8288,   29.2269,   29.5292,   29.4751,   29.7971,   31.0661,   31.2248,   30.3985,   31.3843,   31.7747,   31.7591,   30.8634,   31.5733,   31.9996,   31.3146,   31.2897,   32.7164,   32.6072,
24-SEP-2002 17:21:52.42 ,    3.4644,    3.2940,    3.2783,    3.2874,    4.1198,    4.1698,    4.4550,    4.1339,    3.4578,    4.0922,    4.5957,    4.7993,    5.0485,    4.8773,    5.3198,    5.9635,    6.3484,    7.0081,    7.5394,    7.8297,    7.9540,    8.6487,    7.0535,    7.5663,    9.6442,   10.6058,   11.0643,   11.4901,   11.9115,   12.8165,   13.1909,   13.1132,   13.9188,   13.4391,   12.9431,   12.9523,   14.2294,   19.3546,   18.4546,   20.8609,   22.0105,   24.1801,   27.0474,   27.7817,   27.5253,   30.6234,   27.8903,   33.6560,   35.2710,   29.6740,   29.4217,   28.3639,   30.5468,   39.4619,   39.1332,   40.1319,   39.8566,   40.0800,   40.3107,   31.8074,   32.0234,   32.5823,   32.6245,   31.9802,   32.1425,
24-SEP-2002 17:24:39.62 ,    3.6569,    3.9855,    3.5122,    3.0085,    3.2605,    3.2724,    2.6387,    1.7044,    1.9444,    2.5993,    3.1436,    4.3019,    4.3517,    3.6059,    3.9199,    4.9917,    5.5978,    6.0568,    6.5389,    7.3066,    7.5560,    8.4860,   10.1771,   10.9513,   10.7653,   10.9135,   11.2124,   11.4186,   11.7512,   13.0057,   13.0444,   12.7540,   12.7731,   10.5667,    8.8856,    8.1504,    7.9908,   20.8307,    8.9437,   13.1435,   17.8450,   23.1159,   28.3565,  999.0000,   13.9314,   39.1050,  999.0000,   47.3070,   50.8259,  999.0000,  999.0000,   10.8451,   11.2133,   58.0338,   59.8954,   59.6982,   59.1112,   57.6445,   56.8878,   18.6427,  999.0000,   19.6872,  999.0000,  999.0000,  999.0000,
24-SEP-2002 17:27:20.90 ,    3.1689,    4.0411,    3.7760,    3.4215,    3.0047,    3.0300,    2.7100,    2.1735,    1.6777,    2.9234,    3.3754,    4.5734,    4.3023,    3.6918,    3.7889,    4.6469,    5.6627,    6.1635,    6.5035,    7.2924,    7.4661,    8.2180,   10.0227,   10.8576,    9.7778,   10.6841,   10.9733,   11.6964,   12.4945,   13.3342,   13.8193,   14.5896,   14.5341,   14.2193,   14.8178,   15.9275,   18.7960,   19.6894,   19.4988,   20.9166,   23.3275,   25.3889,   27.3988,   27.8077,   27.5775,   27.9339,   29.5498,   28.8700,   28.7241,   29.3781,   29.3569,   30.0818,   30.2823,   30.9102,   31.9771,   31.9530,   31.4151,   31.2532,   31.0035,   30.4367,   31.8904,   32.9867,   32.5012,   33.3728,   32.9407,
24-SEP-2002 17:30:03.02 ,    3.3026,    3.6384,    3.5123,    3.5268,    3.1402,    2.7178,    2.4034,    1.5680,    0.9654,    2.3716,    3.0876,    3.4886,    3.5065,    3.0365,    3.3889,    3.7889,    4.5864,    5.3690,    5.9513,    6.5105,    7.2104,    8.5131,    9.8269,    7.5072,    8.5753,   10.0227,   11.1710,   12.0841,   12.5103,   12.9516,   13.5757,   14.2515,   14.4074,   14.6984,   15.3756,   16.8697,   18.3524,   18.6877,   19.5685,   20.7778,   23.0212,   24.8834,   26.2047,   27.5001,   27.8929,   27.9401,   28.9412,   28.2255,   28.6750,   29.8151,   29.9889,   29.7453,   29.9552,   31.1780,   31.5592,   31.8298,   31.9416,   31.6999,   30.1192,   30.7488,   32.1676,   33.9930,   33.6423,   34.5476,   34.6387,
24-SEP-2002 17:32:44.57 ,    2.4942,    2.8867,    2.7179,    2.9036,    2.2925,    1.9701,    1.5461,    0.7315,    1.1253,    1.5116,    2.2848,    2.7226,    3.0760,    3.0958,    3.9028,    4.5639,    5.1389,    5.7362,    7.0035,    7.8541,    8.0878,    9.3977,   10.7234,   10.9787,    9.9405,   11.0185,   11.7155,   12.1993,   12.7531,   13.2872,   13.9863,   14.2236,   14.3387,   15.3382,   16.2264,   17.9053,   19.9951,   23.1206,   19.7352,   20.8193,   21.8733,   24.7865,   15.9591,   17.3984,   17.4711,   19.2084,   29.3002,   27.5285,   27.5228,   23.3412,   23.6472,   28.9998,   29.9485,   30.6327,   23.1908,   21.7720,   21.0917,   31.8895,   31.3372,   31.1599,   34.5089,   33.0918,   32.5116,   33.7220,   33.4767,
24-SEP-2002 17:35:29.56 ,    3.0524,    3.4820,    3.7182,    4.3057,    3.7046,    3.3466,    2.9406,    2.4852,    2.1992,    2.0717,    2.3056,    2.8517,    3.5319,    3.7780,    4.6898,    5.7266,    6.4962,    7.5630,    9.0112,    9.7748,    9.0810,    9.6388,    8.1179,    9.0452,   10.1993,   11.5737,   12.3474,   12.5632,   13.2919,   13.8825,   14.1295,   14.5858,   14.0868,   15.3576,   17.9893,   23.6699,   26.9835,   32.6397,   11.5920,    9.7267,    9.1865,   10.1147,   -6.3291,   -4.1514,   -1.9695,    0.4989,    9.2759,   10.1934,    9.7169,   10.1815,   11.0793,  999.0000,   10.0584,   10.8841,    5.3932,    4.9286,    1.7585,   12.8917,   13.1641,   13.4853,   40.6228,   35.6968,   33.7741,   35.1259,   35.3060,
24-SEP-2002 17:38:12.19 ,    5.5508,    5.7351,    6.3203,    6.9879,    6.6350,    5.7324,    4.5970,    3.3758,    1.6896,    1.3263,    2.0415,    2.6971,    3.5295,    3.9456,    4.7766,    6.0213,    7.0234,    8.1507,    8.9714,    9.1163,    9.2118,    9.9056,    8.5388,    9.7709,   10.6460,   11.5746,   12.6027,   13.0523,   13.7036,   14.5297,   14.5644,   14.8550,   14.6747,   14.8599,   16.1307,   17.6532,   17.8766,   18.0885,   19.1075,   20.3278,   22.5555,   24.5495,   26.7403,   26.7959,   26.8618,   27.0593,   28.7390,   28.7043,   29.1670,   30.3230,   28.4204,   28.1487,   29.2069,   30.7473,    4.6812,   31.6938,   30.7470,   31.3288,   31.6594,   32.0579,   33.5050,   32.4194,   32.2948,   33.4008,   33.8304,
24-SEP-2002 17:41:20.94 ,    5.1594,    5.4769,    6.1774,    6.5773,    5.4702,    3.3562,    1.3329,    0.5644,   -0.9033,   -0.5750,    0.9788,    1.8817,    2.3772,    3.2101,    3.8688,    4.7422,    6.6505,    7.1560,    7.5309,    8.2040,    8.7993,    9.5120,    7.9155,    8.9767,   10.4102,   11.2703,   11.5556,   12.2275,   13.0179,   14.4805,   15.1212,   14.9375,   14.9869,   15.1427,   15.3331,   15.8332,   17.6187,   18.6756,   19.3737,   20.0856,   18.7628,   17.8834,   16.4407,   26.4943,   14.0493,   15.3529,   29.4195,   28.9366,   16.9963,   18.3800,   19.3625,   29.0737,   20.7317,   21.4960,   31.8452,   32.0438,   23.7993,   31.1408,   24.6647,   24.6166,   24.2712,   24.3434,   32.2169,   32.5751,   31.7760,
24-SEP-2002 17:44:02.26 ,    4.4138,    4.4122,    5.2207,    4.6244,    3.3081,    1.2387,   -0.4934,   -0.0635,   -0.7908,   -0.7866,    0.1839,    1.1915,    2.2671,    3.6803,    4.1042,    4.4025,    6.0199,    6.7467,    7.5595,    8.3971,    8.5436,    9.2160,    8.3692,    9.2718,   10.6855,   11.7876,   12.8778,   14.3006,   14.3370,   14.8323,   15.2780,   15.4489,   15.3302,   15.1407,   15.8243,   16.2772,   16.4678,   17.9569,   19.4862,   22.3370,    9.4815,    2.8642,   -2.8564,   25.6460,  -11.5407,  -10.6198,   30.7968,   33.1381,   -7.4463,   -4.0326,   -0.4402,   38.1079,    3.6763,    4.1232,    2.4778,    3.4213,    9.9381,  999.0000,    9.7337,    9.7244,    9.4301,    9.1415,  999.0000,   38.5344,   35.5277,
24-SEP-2002 17:46:46.22 ,    4.6364,    4.7354,    5.6141,    5.2267,    5.1223,    4.3820,    4.0956,    3.2092,    1.9071,    2.0763,    1.8700,    2.0746,    2.8526,    4.1955,    5.0200,    5.6759,    6.4196,    7.4487,    8.5969,    8.4430,    8.6126,    9.9140,   10.9981,   11.3263,   11.6990,   11.6419,   12.3299,   12.7834,   13.4871,   14.9790,   15.4386,   15.1429,   14.8818,   15.0081,   15.9968,   16.6298,   16.8703,   17.7950,   19.3500,   21.1904,   22.6841,   24.9530,   26.4837,   27.5943,   27.6079,   28.2316,   28.9389,   29.5334,   29.6182,   29.9407,   31.1917,   30.1228,   30.2387,   30.4067,   31.9385,   32.4331,   30.7866,   30.8797,   31.3863,   32.4912,   31.9755,   31.2517,   32.1542,   32.6550,   31.3645,
24-SEP-2002 17:49:28.40 ,    5.1725,    5.4727,    6.1316,    6.7979,    7.0268,    6.1665,    6.4631,    4.4725,    3.6126,    3.1856,    3.0911,    3.3693,    3.4124,    3.9567,    5.0379,    5.8883,    6.8775,    8.1512,    9.2401,    8.9793,    9.3060,   10.7287,   11.4624,   10.3804,   11.1036,   11.7531,   12.2822,   12.7985,   13.5777,   14.8407,   15.6140,   15.9815,   15.9922,   16.0711,   16.4800,   17.0653,   17.8783,   18.1459,   19.6381,   21.7376,   23.4271,   25.2171,   26.8285,   26.9531,   27.0763,   27.4792,   28.4569,   28.6413,   28.6194,   29.7948,   30.6330,   29.6108,   29.2026,   30.3658,   31.5374,   31.8611,   29.9212,   30.4347,   31.5975,   31.7298,   31.0666,   30.8646,   31.0699,   32.2513,   31.8335,
24-SEP-2002 17:52:10.60 ,    4.5958,    5.3766,    4.9912,    5.4561,    5.6142,    5.1424,    4.8145,    3.8050,    3.9465,    3.7857,    3.7291,    4.6178,    4.8016,    4.9012,    5.8948,    6.5464,    7.4559,    8.5448,    8.8902,    9.3402,    9.8415,   11.4785,   12.3959,   10.6810,   12.0706,   12.8077,   13.1807,   13.5645,   14.0232,   14.5125,   15.7552,   16.4683,   15.7714,   16.1520,   17.2758,   16.8141,   17.3973,   18.2366,   19.6672,   21.2961,   23.0401,   24.0442,   26.8816,   26.7712,   26.1879,   27.2809,   28.8246,   29.2950,   29.6325,   30.3851,   30.2186,   29.3003,   30.0564,   31.1062,   31.1972,   31.5452,   31.2917,   31.8191,   30.5555,   31.7408,   31.7186,   31.2672,   31.9274,   32.0562,   32.8242,
24-SEP-2002 17:54:51.80 ,    3.6409,    4.4651,    4.3878,    4.7410,    3.2104,    2.6812,    1.8636,    1.6753,    2.0261,    3.2175,    3.5609,    4.7061,    5.0435,    4.7485,    5.5509,    6.3584,    7.6816,    9.0176,    8.8176,    9.2258,    9.7234,   11.1555,    9.7770,   11.2509,   11.6926,   11.7473,   12.2168,   12.6394,   13.2100,   14.4126,   15.7703,   16.6036,   16.3975,   15.8591,   16.0470,   16.7088,   17.3083,   17.8113,   19.6377,   21.8330,   23.6477,   25.8195,   26.2491,   27.9211,   27.5953,   28.4523,   28.2030,   29.2047,   29.1834,   30.5259,   30.7649,   29.2646,   29.7281,   31.6828,   32.8933,   30.8846,   31.3751,   31.3590,   31.6746,   32.2335,   31.0014,   31.3370,   32.9194,   31.8944,   32.1127,
24-SEP-2002 17:57:33.55 ,    4.2149,    4.7503,    5.4163,    5.8117,    3.1316,    2.1634,    1.4591,    1.9538,    1.4465,    1.5947,    2.7720,    3.2805,    3.5125,    3.6206,    4.2865,    4.9929,    6.4319,    8.5033,    9.3477,    9.3612,   10.1794,   11.0804,    8.6995,   10.4881,   10.6682,   10.2364,   11.7818,   12.6967,   13.6513,   15.0578,   16.0771,   16.8192,   17.7110,   18.6927,   19.9094,   17.2083,   21.9503,   22.7546,   25.4368,   27.8819,   29.3956,   30.5424,   26.0233,   27.2814,   28.2543,   16.7746,   17.2291,   17.4951,   29.1578,   30.4165,   30.8445,   30.7300,   29.4704,   30.2485,   31.0783,   30.2544,   30.3091,   30.6631,   30.7464,   31.4108,   31.2796,   31.5401,   31.9231,   30.0042,   30.5208,
24-SEP-2002 18:00:14.68 ,    4.4061,    4.7205,    5.6936,    4.9858,    3.6363,    3.2630,    2.2363,    2.2735,    1.3070,    1.2123,    2.1685,    2.0070,    2.2227,    2.6564,    3.2872,    4.2995,    5.7735,    8.1402,    9.9230,    9.4385,   10.3788,   11.8295,   12.5154,   11.0728,   11.7548,   11.9329,   12.8920,   13.2891,   13.8981,   15.0714,   16.2130,   17.4597,   19.2278,   22.3164,   25.7019,   19.5020,   29.3890,   30.9218,   34.5869,   37.4226,   39.8141,   40.6061,   27.3827,   28.1307,   28.6646,   -8.0586,   -7.7681,   -6.3680,   30.3734,   30.5181,   30.9744,   30.6343,   29.2710,   29.8118,   31.2316,   30.9343,   30.9766,   31.6029,   32.8263,   33.2910,   32.3530,   32.4878,   30.3230,   29.0704,   29.2346,
24-SEP-2002 18:02:55.87 ,    3.9603,    3.9373,    4.1546,    3.7737,    3.8444,    4.0786,    3.3603,    3.0560,    2.3304,    2.5326,    3.1172,    2.6319,    2.8434,    3.2774,    3.6769,    4.8090,    6.0754,    8.0697,    9.5075,    9.1015,    9.7632,   11.1389,    9.8736,   11.6933,   12.2694,   12.9365,   12.9877,   13.1775,   13.6119,   14.2780,   15.6586,   15.8387,   15.7222,   15.9514,   16.5412,   17.6202,   18.0525,   18.9412,   20.2021,   21.7570,   24.2739,   26.3433,   25.2032,   27.1429,   27.4719,   28.4899,   28.5609,   29.2159,   29.2343,   30.4391,   29.5884,   29.1690,   28.3612,   28.4043,   28.9754,   27.9511,   28.2763,   31.5649,   28.8473,   29.6655,   30.7502,   29.0937,   28.2633,   29.5413,   31.2966,
24-SEP-2002 18:05:37.36 ,    3.4510,    3.8795,    3.4580,    3.9708,  999.0000,    4.8160,    4.1644,    4.4093,    4.1285,    4.1657,    4.0218,    3.6810,    3.9563,    4.3067,    4.2143,    5.2631,    6.6222,    8.0924,    9.4140,    9.8727,   10.1562,   10.8406,   11.6781,   11.7146,   12.0685,   12.4299,   12.7150,   13.4976,   13.8281,   15.4288,   17.0670,   16.3004,   16.0355,   16.2991,   16.5835,   18.0242,   19.5127,   19.8473,   19.9508,   21.6675,   23.8006,   26.6500,   27.1851,   27.8812,   26.3827,   28.0302,   28.6680,   29.3749,   29.7779,   30.1649,   29.2284,   30.7394,   26.3587,   24.0309,   20.9775,   19.8153,   19.6090,   31.4097,   20.6640,   22.1595,   23.3960,   23.7068,   26.5841,   27.9859,   28.9677,
24-SEP-2002 18:08:18.75 ,    4.3633,    5.5391,    4.2443,    4.2950,  999.0000,    4.9053,    3.5842,    3.3154,    4.0221,    5.1102,    4.8435,    4.6981,    4.8387,    4.9805,    4.8061,    5.7797,    7.6718,    9.0033,   10.3923,   11.2935,   11.3941,   11.9367,   10.8194,   12.5318,   13.3952,   14.3092,   14.0294,   14.6219,   15.1343,   16.6003,   17.2639,   15.9571,   15.5866,   15.9217,   16.5979,   18.4916,   18.5990,   19.0509,   20.0159,   21.6281,   23.4867,   26.5644,   28.2274,   28.5374,   28.3687,   28.4864,   28.3764,   28.4765,   30.0294,   30.5822,   29.0277,   29.2796,   28.9780,   29.4834,   29.1807,   29.7575,   29.6372,   30.4295,   31.4274,   32.3827,   33.2022,   31.7274,   32.0288,   32.0082,   29.4306,
24-SEP-2002 18:10:59.95 ,    4.1572,    4.5219,    3.1552,    2.8082,    2.5707,    2.4101,    2.0216,    1.3335,    2.1943,    4.2333,    4.9307,    4.9842,    4.5205,    5.0298,    5.3820,    6.2162,    7.8875,    9.2281,   10.6265,   11.6279,   12.0321,   12.7587,   13.5203,   13.0217,   13.7744,   14.1858,   14.1157,   13.8070,   14.8620,   16.6320,   16.7074,   16.3065,   16.6386,   17.1122,   17.6561,   18.5835,   18.8454,   19.0027,   19.8120,   21.5604,   23.7410,   25.1458,   26.7947,   27.8040,   27.5869,   27.7982,   27.0715,   28.8622,   30.0966,   30.6218,   29.2806,   30.8033,   30.0516,   30.7338,   30.7753,   31.8351,   31.8393,   31.7242,   31.8447,   32.2592,   32.4275,   31.6448,   31.8496,   31.5467,   30.7821,
24-SEP-2002 18:13:41.44 ,    3.0045,    2.8148,    2.9549,    2.6215,    2.1739,    2.4970,    2.9608,    1.1265,    1.9229,    3.0477,    3.6943,    4.4673,    4.2963,    5.0844,    5.5985,    6.6596,    8.1014,    8.8447,    9.8925,   10.7475,   11.7084,   13.0357,   11.8954,   13.3280,   13.6668,   14.1830,   14.4163,   14.2398,   15.4253,   16.8429,   16.9240,   16.7795,   16.8441,   16.7251,   17.1935,   18.2414,   19.4269,   20.4028,   20.3720,   22.5447,   24.0569,   25.7143,   26.3973,   27.9152,   26.7605,   26.9884,   27.2366,   28.1799,   29.5526,   29.7498,   30.1110,   30.7323,   30.7150,   31.6242,   32.1091,   31.6040,   31.6573,   32.2599,   32.2111,   32.9305,   32.7230,   31.8602,   31.9850,   30.6079,   30.3806,
24-SEP-2002 18:16:22.80 ,    2.9608,    3.6194,    3.6362,    3.0147,    2.1738,    2.0775,    2.7497,    1.2685,    1.7612,    2.0289,    2.9467,    4.2319,    5.5042,    6.0348,    6.3088,    7.5408,    8.9486,    9.5554,   10.8962,   11.9885,   12.7231,   14.0420,   14.1698,   13.1560,   14.2271,   15.0767,   14.8693,   14.2519,   14.6055,   15.5345,   16.0205,   16.5803,   17.2654,   17.5787,   18.7951,   18.5437,   18.2392,   19.6917,   20.8556,   22.0795,   24.2815,   26.0940,   27.1325,   27.0198,   27.4974,   27.3470,   28.7003,   28.8931,   30.0512,   31.1029,   30.3960,   30.6196,   29.9221,   31.2440,   31.5566,   32.0429,   31.8609,   32.6455,   32.1799,   32.5009,   32.7327,   33.2976,   33.8931,   31.9501,   31.1223,
24-SEP-2002 18:19:04.77 ,    2.2223,    2.6044,    2.3616,    1.4529,    0.6557,   -0.2969,   -0.4656,   -0.0651,    0.4113,    0.8796,    2.6509,    3.7651,    5.1497,    5.5489,    6.4641,    7.4369,    8.8783,    9.9460,   10.5910,   12.0991,   13.6991,   14.6492,   14.4241,   14.2299,   14.1610,   14.1765,   14.0366,   14.0676,   14.3747,   15.2899,   15.8378,   16.6298,   17.1915,   17.0300,   17.8462,   18.9124,   19.0176,   19.8141,   20.5635,   21.7017,   24.0816,   26.5419,   27.7468,   27.6723,   27.8578,   28.3259,   28.7478,   29.2845,   30.1347,   30.7532,   29.8486,   29.5738,   28.9413,   29.1864,   30.8580,   32.1178,   31.6255,   31.4865,   31.5175,   31.8938,   31.6163,   32.5956,   33.5855,   31.6694,   31.6082,
24-SEP-2002 18:21:45.91 ,    1.8902,    3.0095,    2.4263,    1.4623,    0.7870,   -0.0467,   -0.9067,   -0.2365,    0.3312,    0.6533,    1.6791,    2.7869,    3.6782,    4.0827,    5.1903,    6.0083,    7.6778,    9.0802,    9.5030,   10.8557,   12.9493,   14.1447,   11.0792,   13.3370,   14.6385,   14.5069,   14.4983,   14.5326,   14.8836,   16.3659,   16.9508,   16.7715,   17.1168,   17.4408,   17.6635,   17.9123,   17.7189,   19.5458,   20.1414,   21.6122,   23.7375,   25.7204,   27.6792,   28.1250,   27.8820,   28.6632,   29.0225,   29.6114,   29.9772,   29.9651,   29.7970,   30.1126,   28.5191,   27.4288,   27.8639,   28.3285,   27.9505,   29.8052,   30.9397,   32.3029,   32.3045,   31.4913,   30.9092,   30.4479,   31.2724,
24-SEP-2002 18:26:50.07 ,    3.2483,    4.8302,    4.7871,    4.6049,    4.0391,    3.5167,    2.6982,    2.1894,    2.0179,    1.2461,    1.3813,    2.1033,    2.2837,    2.9813,    4.3214,    6.0553,    6.8036,    7.4324,    8.5763,   10.1719,   11.9171,   13.0415,   13.2942,   13.0805,   13.2755,   13.2486,   13.0708,   13.1250,   13.9992,   15.1642,   15.9223,   16.4309,   16.9167,   16.5713,   16.4131,   16.9924,   17.2622,   18.0665,   19.2027,   21.2918,   23.5547,   24.9208,   25.9121,   27.5521,   27.2918,   27.9237,   28.6224,   29.6580,   30.2513,   30.0501,   28.9196,   26.0707,   21.7484,   20.4473,   18.9529,   19.1868,   21.6473,   23.4605,   25.7067,   28.6584,   29.6668,   30.8011,   32.0403,   29.5925,   28.8361,
24-SEP-2002 18:29:31.22 ,    4.1667,    4.8960,    6.8495,    6.3761,    5.6721,    4.0489,    4.2579,    3.2585,    3.0218,    2.7865,    3.4732,    3.2128,    2.8095,    3.4771,    5.1009,    7.0558,    8.1698,    9.5044,   10.9379,   11.5388,   12.1055,   12.8732,   13.1341,   12.2125,   12.9881,   13.7001,   13.7093,   13.1628,   13.8271,   14.9179,   16.0736,   16.5864,   16.9403,   17.2652,   17.4090,   17.7562,   17.9017,   18.2585,   19.1593,   20.6298,   22.1806,   24.0679,   25.5720,   26.5782,   27.0355,   27.3632,   27.8149,   29.4310,   30.6608,   30.2812,   30.2688,   30.2599,   29.6109,   29.6431,   28.9430,   30.4813,   31.1305,   32.3531,   31.7593,   32.0546,   31.5805,   33.8794,   31.5941,   28.9632,   32.9908,
24-SEP-2002 18:32:12.86 ,    3.7491,    4.0080,    5.9391,    5.3824,    4.9096,    3.0190,    3.0738,    1.5783,    1.6167,    2.2034,    3.2133,    2.7972,    2.5781,    3.3981,    3.8180,    4.6755,    6.8205,    9.3727,   11.1946,   11.7881,   12.1181,   13.0216,   11.8140,   13.1809,   13.3241,   13.5035,   13.4549,   13.0713,   13.5004,   14.7889,   15.8205,   16.0551,   16.7448,   17.1291,   18.0128,   18.5806,   19.2439,   19.6063,   19.3019,   20.2475,   23.5312,   24.8242,   25.9046,   26.2231,   26.9723,   27.9678,   29.4616,   29.6282,   30.8359,   30.4555,   30.4934,   31.0416,   30.5470,   30.6157,   30.3774,   31.5837,   32.5464,   33.0501,   34.2079,   28.8528,   29.1217,   39.1176,   28.1675,   29.5928,   43.4701,
24-SEP-2002 18:34:55.30 ,    3.4678,    4.5410,    5.0657,    5.2482,    5.0148,    4.0040,    3.0191,    2.6418,    2.2384,    2.0347,    2.3094,    2.1106,    2.1697,    3.1075,    3.6124,    4.5893,    6.3930,    8.7963,   10.2998,   10.2045,   11.2496,   13.0659,   13.1937,   13.3427,   13.5210,   13.4515,   13.0260,   12.9253,   13.3268,   14.6501,   15.4420,   15.4751,   15.9040,   16.5919,   17.3363,   18.2408,   19.4109,   19.2950,   19.4281,   20.7673,   22.6258,   24.4581,   25.8345,   27.2111,   27.5610,   27.7901,   28.5213,   29.0754,   30.0987,   29.4417,   30.0536,   29.8772,   30.1095,   30.0136,   29.0041,   29.7899,   29.8755,   30.6591,   30.4222,   31.9030,   32.0331,   32.1784,   30.2660,   29.6170,   29.7869,
24-SEP-2002 18:37:36.40 ,    2.4655,    4.7684,    4.6201,    5.3998,    4.2884,    3.2613,    2.1037,    1.5238,    1.1493,    1.1897,    1.4863,    1.5510,    1.7503,    2.2363,    2.6516,    3.8024,    4.8043,    6.6643,    9.4416,   10.1122,   11.3049,   13.0951,   13.1924,   11.1304,   11.7887,   12.5388,   12.7341,   12.5428,   13.1279,   14.7063,   15.5157,   16.1766,   16.7532,   16.6921,   16.8252,   17.5980,   18.7185,   19.3211,   20.2660,   21.9949,   23.9973,   25.5327,   26.8031,   27.2639,   26.6746,   26.2808,   26.0883,   26.7522,   27.3320,   27.4483,   26.9489,   27.4779,   29.1455,   28.9976,   28.7253,   29.2748,   30.0146,   30.4509,   30.4554,   32.0182,   30.5076,   30.9115,   29.9251,   28.9607,   30.0472,
24-SEP-2002 18:40:17.81 ,    2.1203,    3.8195,    4.0042,    4.6208,    3.1794,    2.4356,    0.4063,   -0.1474,   -0.4500,   -0.5554,   -0.3959,    0.0855,    0.5808,    0.8952,    1.4289,    2.8195,    4.4776,    6.6101,    9.5061,   10.1484,   10.9165,   12.0046,   12.6534,    7.4594,    8.9549,   10.4155,   11.7233,   12.6069,   12.7984,   13.4904,   14.5994,   15.3530,   15.6182,   15.8205,   16.2619,   17.4203,   18.6788,   19.3138,   21.1684,   21.7986,   23.0698,   24.7449,   26.4803,   26.4791,   24.9821,   23.1147,   21.6670,   21.0827,   20.5743,   20.5899,   21.2057,   23.1222,   25.3774,   26.9562,   28.9656,   29.6492,   29.3885,   29.5240,   30.8527,   31.5707,   30.9913,   29.6273,   29.0204,   27.5895,   27.7459,
24-SEP-2002 18:42:59.35 ,    1.1708,    1.8666,    2.6558,    2.5384,    2.4394,    1.7575,    0.0829,   -0.1177,   -0.7217,   -1.0200,   -1.1481,   -0.3807,    0.3659,    1.1920,    1.9944,    3.5177,    6.3383,    9.4619,   10.5497,    9.6583,   10.8622,   11.9752,   12.6844,   12.5136,   13.6393,   13.8811,   13.4233,   12.7931,   12.8625,   13.4671,   14.5959,   15.5230,   16.1290,   16.7370,   17.2925,   19.1838,   19.4879,   20.2072,   21.0391,   21.7837,   23.1554,   24.8770,   26.7447,   27.5812,   28.0739,   27.9774,   28.1031,   29.9693,   30.9414,   29.8901,   29.9589,   29.3831,   29.2021,   28.8564,   28.9361,   29.2305,   29.3608,   29.7402,   30.3737,   30.6622,   30.5217,   29.2878,   30.0824,   28.5413,   27.8093,
24-SEP-2002 18:45:40.79 ,    1.5872,    2.8749,    3.7334,    3.6206,    3.5889,    2.7325,    1.9701,    2.4457,    2.6756,    2.3096,    0.8316,    1.1613,    1.4420,    2.5039,    3.5238,    4.8069,    6.8135,    9.2022,    9.3856,    9.5033,   11.1999,   12.3455,   10.8092,   12.2970,   13.0602,   13.8464,   13.2249,   12.7380,   13.1550,   13.5472,   14.7065,   15.5298,   16.1553,   17.1227,   17.4903,   18.0664,   18.2658,   20.4864,   21.7523,   23.0092,   23.9938,   25.4163,   27.1224,   26.7649,   26.3742,   26.6520,   27.1053,   28.4822,   29.5994,   29.8210,   31.0604,   30.1410,   29.6814,   29.2743,   28.6542,   28.1621,   29.0172,   30.2711,   31.0105,   31.0803,   31.1869,   30.9535,   30.5938,   30.1477,   29.2657,
24-SEP-2002 18:48:22.35 ,    2.9613,    4.0559,    4.8085,    4.8420,    4.3933,    3.9019,    3.2004,    3.9124,    3.9450,    2.6750,    1.3910,    1.7444,    1.9799,    2.7028,    3.6048,    4.7410,    5.5774,    6.8517,    7.9984,    9.3974,   11.1473,   12.4561,   11.1109,   12.8593,   13.4517,   14.0970,   13.3315,   12.7942,   13.6547,   14.4400,   15.2709,   16.0457,   16.3695,   16.7112,   17.0597,   17.4965,   17.6814,   19.6489,   21.1325,   21.3539,   23.8888,   25.4603,   26.7647,   27.6228,   27.8433,   28.1769,   27.3927,   28.9828,   29.7310,   29.4962,   29.8682,   30.5085,   30.5803,   30.1930,   29.5280,   28.9956,   29.6474,   30.4277,   30.3163,   30.4888,   31.4415,   30.5540,   29.1475,   28.1762,   29.5126,
24-SEP-2002 18:51:03.81 ,    1.5394,    1.9299,    2.7420,    2.6670,    2.8857,    3.3627,    3.3010,    3.6171,    3.5020,    2.2335,    1.8600,    2.0671,    2.4860,    2.8001,    3.2872,    4.4020,    5.8487,    7.3057,    8.3354,    9.6266,   11.8400,   13.3465,   13.7632,   14.4481,   13.3409,   14.3124,   14.0518,   13.9250,   14.1744,   14.2827,   15.3157,   15.9460,   16.3364,   16.8473,   17.0985,   17.3742,   17.6410,   20.0872,   20.7836,   21.7747,   22.9361,   25.3737,   26.8203,   26.5777,   26.3571,   27.5834,   28.0190,   29.7017,   31.0906,   29.7345,   29.7793,   30.5462,   30.5525,   29.4392,   29.5806,   29.4793,   29.5087,   30.0232,   29.1805,   28.8926,   30.3103,   28.7344,   27.8555,   26.7511,   28.1987,
24-SEP-2002 18:53:45.29 ,    1.4062,    2.2224,    2.1111,    2.6623,    3.2970,    3.1724,    2.6593,    2.1645,    2.8050,    2.2535,    2.0633,    2.0722,    2.4048,    2.4780,    3.3287,    4.4685,    6.5946,    8.5255,    9.3686,   10.7650,   11.9485,   12.9938,   13.8638,   13.2870,   14.2698,   14.9471,   13.9771,   13.9698,   14.1713,   14.6789,   15.4353,   15.6518,   16.1421,   16.4347,   16.6369,   17.4460,   18.2282,   19.3340,   21.4395,   23.2934,   23.8547,   25.5911,   27.3356,   26.9656,   26.8912,   27.1366,   27.7790,   28.9789,   31.0420,   29.6077,   29.7844,   30.8317,   30.2415,   29.5445,   29.5317,   28.6653,   29.1624,   29.0986,   29.0981,   28.6835,   30.0955,   29.3071,   29.3641,   28.5004,   29.1378,
24-SEP-2002 18:56:28.44 ,   13.1012,  999.0000,  999.0000,  999.0000,   -2.3374,  999.0000,    1.3137,    1.9796,    2.5945,    2.0350,    2.7367,    2.7650,    3.0382,    3.2564,    4.3162,    5.5544,    7.6751,    9.2265,   10.3737,   11.3361,   12.0517,   12.8924,   13.7288,   14.4367,   13.8765,   14.2591,   14.0635,   14.2110,   14.7119,   15.2648,   15.5302,   15.7882,   16.4415,   16.7524,   16.9872,   17.8394,   18.5139,   18.9308,   20.3740,   22.2588,   25.5576,   26.1813,   27.6341,   27.7425,   27.9968,   28.1472,   28.1091,   31.1722,   34.1245,   33.7761,   29.2662,   37.5800,   29.4735,   37.7943,   36.9902,   35.2105,   35.7077,   36.2664,   36.7239,   29.6886,   31.1242,   30.3025,   35.0326,   32.2894,   32.9735,
24-SEP-2002 18:59:09.62 ,   14.0928,  999.0000,  999.0000,  999.0000,   -3.9460,  999.0000,    0.8056,    2.3910,    2.5964,    1.7088,    2.1063,    3.0287,    3.5080,    3.6423,    3.8305,    4.9586,    7.3643,    8.4057,   10.4209,   11.7411,   12.3839,   13.1400,   13.6217,   12.5235,   13.5530,   14.3167,   14.0490,   13.9461,   14.5171,   15.6550,   16.1792,   15.9638,   16.4082,   17.1392,   17.3438,   18.1794,   18.7305,   19.7266,   21.0740,   22.4609,   24.5165,   25.3827,   27.2515,   27.3402,   28.2822,   29.0907,   28.5647,   35.7259,   41.2646,   46.3717,   29.7742,   50.9313,  999.0000,   51.3300,   52.0171,   49.5896,   48.7672,   50.1718,   51.2636,  -16.5244,  -15.9323,  999.0000,   48.1556,   46.2902,   44.9734,
24-SEP-2002 19:01:50.88 ,   -0.1770,    0.9370,    2.5577,    2.8781,    3.5902,    2.5272,    1.3371,    1.1402,    1.2791,    0.4438,    0.3203,    1.8956,    2.7735,    3.3957,    4.3072,    5.6002,    7.3032,    8.0620,    9.9213,   11.5775,   12.0546,   12.7871,   13.5800,   12.5567,   13.5770,   14.2551,   13.7904,   13.0999,   13.4387,   14.7273,   15.3997,   15.8625,   16.9417,   17.3814,   17.7041,   18.6795,   18.9741,   19.4754,   21.5408,   23.1696,   25.1648,   26.2907,   26.7794,   26.8811,   28.1275,   27.8879,   28.2821,   29.5653,   30.3706,   30.2896,   29.7763,   29.6985,   28.3714,   29.9538,   30.2354,   29.7539,   30.1682,   29.9566,   31.1006,   31.4123,   31.8862,   31.0684,   29.5059,   29.1143,   30.4927,
24-SEP-2002 19:04:32.05 ,    0.2501,    1.1798,    2.3625,    2.6546,    2.1206,    0.9237,    0.1309,    0.5162,    0.5633,    0.5881,    0.3523,    1.2923,    2.1292,    3.2518,    5.0032,    6.4749,    7.8514,    8.9525,    9.6757,   10.8225,   11.9600,   12.6538,   13.7821,   14.4239,   13.7819,   13.6450,   13.2803,   13.1711,   13.4117,   14.5791,   14.9369,   15.7557,   16.4168,   17.2764,   17.3992,   17.9493,   18.6604,   19.3873,   21.0093,   23.0243,   24.4944,   26.1254,   26.3439,   27.6283,   28.6403,   27.6321,   28.0790,   29.0368,   30.3775,   29.4878,   29.4798,   30.8694,   28.9474,   28.9805,   29.4655,   29.5675,   29.7108,   30.0178,   31.0726,   29.6860,   29.4808,   29.4729,   28.3050,   27.6468,   29.6288,
24-SEP-2002 19:07:13.23 ,    0.5168,    1.3359,    2.3672,    2.0616,    1.4593,    1.3167,    1.1597,    1.2596,    1.7428,    1.8845,    1.3141,    1.8049,    2.0975,    3.0154,    4.4894,    5.8095,    7.3975,    8.9757,    9.4436,   10.8532,   12.2218,   12.7639,   10.9423,   12.1339,   13.0860,   12.8987,   12.9488,   13.3824,   13.8641,   14.5711,   15.0741,   15.2689,   15.8489,   16.9429,   17.6475,   18.1450,   18.4541,   19.7609,   21.0803,   22.3681,   24.7409,   26.8189,   27.7473,   27.7793,   28.2102,   27.4127,   28.1961,   29.0451,   29.4858,   29.0986,   28.4624,   30.4290,   30.6613,   28.2850,   27.6990,   28.5992,   28.7210,   28.9333,   29.1672,   29.3974,   29.9497,   30.8821,   28.1207,   28.3095,   29.5155,
24-SEP-2002 19:09:54.36 ,    0.4320,    0.9552,    3.5367,    3.1296,    1.7645,    1.7642,    1.6204,    1.2547,    1.9339,    2.1067,    1.6091,    2.3301,    3.2970,    3.8480,    5.0623,    6.1687,    7.6512,    8.8932,    9.2357,    9.9832,   10.6924,   11.5386,   10.1965,   11.7597,   12.7796,   12.4495,   12.5380,   13.0071,   13.3506,   14.1894,   14.6829,   15.0921,   15.7215,   16.3851,   17.8983,   18.8011,   19.5098,   20.4653,   21.7908,   23.1579,   24.7227,   26.9349,   27.9763,   27.3038,   27.8319,   27.2888,   27.1089,   29.7055,   29.7250,   30.3417,   31.1006,   31.8051,   31.9146,   31.8318,   29.7198,   30.3279,   30.3574,   29.9533,   29.7510,   29.5813,   29.7083,   29.9148,   28.5680,   28.8063,   29.4502,
24-SEP-2002 19:12:35.77 ,    0.3096,    0.5632,    3.9004,    4.3118,    3.1790,    2.4705,    1.9323,    1.8415,    2.4682,    2.2442,    2.4692,    3.4402,    4.4203,    5.1061,    6.1574,    7.3313,    8.6652,    9.4240,    9.6949,   10.0467,   10.1854,   11.3846,   10.6417,   11.7329,   12.4864,   12.0983,   12.0269,   12.6025,   12.9635,   13.8526,   13.8098,   13.6300,   14.6397,   15.8376,   17.2704,   18.1705,   18.9381,   20.4918,   21.3240,   23.3574,   25.3840,   27.2793,   27.8053,   27.3440,   27.6133,   26.6927,   26.9838,   27.9292,   28.3027,   29.5709,   30.1946,   30.1501,   30.0027,   30.6227,   30.3296,   28.7495,   30.5505,   30.8109,   30.3673,   30.8082,   31.2352,   30.4727,   30.0507,   29.2510,   30.4369,
24-SEP-2002 19:15:17.70 ,    0.8312,    2.2736,    4.3601,    4.4941,    4.0544,    3.0785,    2.4113,    2.0479,    2.5964,    2.9737,    3.5017,    4.4714,    5.2086,    5.8584,    7.0894,    8.5362,    9.2764,    9.9329,   10.6619,   11.0377,   11.2102,   12.2432,   11.2559,   11.2566,   11.7000,   11.9255,   12.2618,   12.8905,   13.2754,   13.9879,   14.7121,   15.2350,   15.3151,   16.6320,   17.5050,   18.6458,   19.4954,   21.1344,   21.6210,   22.8273,   24.7521,   27.4236,   27.2273,   27.2541,   27.3155,   27.6440,   27.5456,   27.8855,   28.2313,   29.1093,   29.6280,   23.1153,   29.0144,   28.6454,   29.3453,   28.9813,   29.1933,   29.7713,   28.5561,   29.9080,   30.2013,   30.3839,   29.3408,   28.3284,   29.8250,
24-SEP-2002 19:17:58.71 ,    1.1526,    2.5324,    2.8809,    3.0428,    2.2677,    1.8399,    1.3337,    0.2519,    0.5549,    1.7540,    2.8180,    4.0454,    4.7537,    5.7238,    7.8601,    9.6138,   10.8007,   10.8843,   11.2443,   11.4713,   11.9403,   12.5692,   12.4173,   10.9587,   11.5869,   12.0237,   12.4625,   13.2794,   13.6388,   14.4367,   15.0144,   15.5246,   15.6074,   16.6488,   17.6099,   18.0334,   19.4773,   21.1442,   21.9036,   23.5679,   24.2758,   25.8208,   26.2967,   26.1533,   26.7097,   26.9512,   27.7451,   27.3187,   27.5714,   30.2072,   30.3473,  999.0000,   28.8083,   29.6757,   29.3917,   12.8310,   23.6516,   24.7369,   25.5143,   26.3347,   27.2008,   19.6539,   18.7708,   18.4137,   19.7029,
24-SEP-2002 19:20:40.25 ,   -0.9183,   -0.0440,    0.5748,    0.6762,    1.5680,    1.2135,    0.5604,   -0.4049,   -0.2302,    1.0315,    2.2866,    3.7594,    3.7878,    4.8409,    7.4682,    9.4310,   10.6634,   10.4827,   10.7549,   11.1804,   11.3903,   12.1417,   13.2273,   12.5631,   12.0176,   12.3994,   13.1034,   14.1063,   14.7647,   15.1524,   14.9902,   15.5636,   16.0944,   16.8350,   17.3614,   17.8174,   19.0696,   21.0990,   21.4065,   23.4005,   23.9241,   26.3545,   27.7396,   27.0206,   25.9728,   27.5849,   27.4411,   24.4270,  999.0000,  999.0000,  999.0000,   -7.0764,  999.0000,  999.0000,  999.0000,  -31.9686,  999.0000,  999.0000,  999.0000,  999.0000,  999.0000,   -4.0231,   -5.2549,   -5.1630,   -5.3338,
24-SEP-2002 19:23:21.86 ,   -1.2711,   -0.6884,    1.4901,    1.6336,    2.3317,    1.5310,    0.6586,    1.0369,    1.5560,    2.8368,    3.5069,    4.8668,    5.2632,    5.9307,    7.3674,    8.2863,    8.8268,    9.3841,   10.0091,   10.8719,   10.8512,   11.4069,   10.9103,   11.7114,   12.1642,   12.0552,   12.1187,   12.6353,   13.3484,   13.7173,   14.7970,   14.9631,   15.5941,   16.5954,   17.6051,   18.3435,   18.5337,   19.5639,   20.5087,   21.9229,   23.8275,   25.6498,   26.8397,   26.9991,   27.0366,   26.7622,   26.9823,   26.2139,   27.5622,   28.4624,   30.6852,   37.4018,   32.2936,   32.5202,  999.0000,   -4.6510,   -2.5464,    2.2598,    6.5674,   10.8828,   14.1747,   16.7940,   18.8984,   17.7332,   17.9037,
24-SEP-2002 19:26:03.08 ,    0.1935,    0.2911,    0.9987,    0.7085,    0.2264,   -0.1855,   -1.7151,   -0.1910,    0.6155,    1.8834,    2.6327,    3.0633,    3.6388,    4.9269,    6.6391,    7.3074,    8.1415,    9.4326,   10.5547,   10.8734,   10.8140,   11.2536,   10.1038,   10.9820,   11.4410,   11.2834,   11.2207,   11.6967,   12.8060,   13.6219,   14.8187,   14.8515,   14.7763,   16.2022,   17.3334,   17.2273,   17.8405,   18.9387,   19.7701,   21.7816,   24.1137,   25.1505,   26.1663,   26.0287,   26.5964,   26.3764,   26.2802,   26.2909,   27.1439,   29.0350,   28.1571,   27.8064,   29.6839,   26.2059,   25.8192,   29.7408,   29.2970,   26.2688,   27.1077,   27.6665,   28.5216,   29.0502,   29.5408,   29.0616,   30.5307,
24-SEP-2002 19:28:44.67 ,   -0.5380,    0.4450,   -0.5943,   -0.4720,   -0.0868,    0.2885,   -1.4345,   -0.6215,   -0.4190,    0.2534,    1.4263,    1.9947,    2.3373,    3.9430,    6.2031,    7.3000,    8.0601,    9.1621,   10.3404,   10.6192,   10.7185,   11.3579,   10.9393,   11.3024,   11.4295,   11.2892,   11.1777,   11.4569,   12.6233,   13.7950,   14.2397,   14.3872,   14.7686,   15.5050,   16.4103,   16.4896,   17.0608,   18.4038,   19.7350,   20.8387,   22.9189,   24.7005,   25.4548,   25.4972,   25.6335,   26.3632,   26.2032,   25.8821,   24.3753,   26.1043,   20.6560,   18.9055,   33.8857,   17.3738,   15.2309,   37.6631,   38.9248,   19.8028,   22.0599,   23.6904,   25.6440,   27.1358,  999.0000,  999.0000,   33.4044,
24-SEP-2002 19:31:25.72 ,   -0.5159,    0.2788,    0.2299,    0.4650,    0.8836,    0.9969,    0.3232,    0.4762,    1.6551,    2.5055,    4.2461,    4.8672,    5.3766,    6.8827,    7.8046,    8.2488,    8.5145,    9.1719,    9.9429,   10.5621,   11.2327,   11.8165,   11.1284,   11.7057,   11.6957,   11.5847,   11.7809,   11.9184,   12.7238,   14.0254,   14.7658,   14.7414,   14.9782,   16.0613,   17.3594,   17.4001,   18.4175,   19.9849,   20.8154,   21.9884,   23.1439,   25.1981,   26.7766,   25.8639,   26.1057,   26.3091,   26.3831,   24.3642,   21.6526,   28.3131,   19.4280,   21.2723,   24.7189,   27.3161,   29.2431,   29.3517,   29.2442,   30.6387,   30.8176,   30.9479,   31.1135,   29.5960,   28.6152,   29.8222,   30.3063,
24-SEP-2002 19:34:07.75 ,    0.8182,    1.3000,    1.7497,    0.7936,    0.9161,    0.5600,    0.5730,    1.1078,    2.5518,    3.7084,    5.1406,    5.0894,    5.7216,    7.3656,    8.4250,    8.8349,    8.8303,    9.5375,   10.4548,   10.9562,   11.4526,   11.9958,   11.4484,   12.2168,   12.0600,   12.0994,   12.0681,   12.1378,   12.9081,   13.4675,   13.6880,   13.5451,   14.6598,   15.6276,   16.7689,   17.1996,   18.3186,   20.0674,   21.1745,   21.8379,   23.4340,   25.5746,   27.2545,   26.6996,   26.0811,   25.7608,   26.3672,   27.1734,   27.8807,   27.5820,   27.8258,   28.0599,   28.1847,   29.8137,   28.5826,   27.9309,   28.4277,   30.1734,   30.5555,   30.5179,   30.8326,   29.9017,   28.7434,   29.8464,   29.9672,
24-SEP-2002 19:36:49.23 ,    0.2701,    1.2165,    2.2460,    0.7158,    0.8704,    0.5891,    0.2003,    2.2323,    3.5463,    3.8802,    4.6698,    4.8146,    5.7096,    7.2700,    8.6962,    9.3978,    9.3809,    9.6828,   10.4182,   11.0006,   11.5538,   12.2535,   11.3727,   11.9025,   12.1346,   12.1729,   12.3881,   12.7865,   13.1271,   13.2612,   13.4315,   13.8515,   14.6944,   15.6019,   16.4260,   17.6582,   18.6891,   20.1261,   20.7593,   22.1041,   23.9647,   25.6251,   26.9597,   26.5151,   26.2236,   26.2123,   26.6958,   27.3843,   28.0701,   28.2333,   28.0974,   28.4752,   28.4315,   28.6439,   28.6500,   28.8722,   28.1672,   29.7687,   29.6544,   30.6565,   31.6565,   29.4009,   27.3981,   30.0850,   30.1476,
24-SEP-2002 19:39:30.29 ,    0.4910,    1.0536,    1.4921,    1.1764,    0.1281,   -0.7715,   -0.5424,    1.1986,    2.8855,    3.1902,    3.8667,    4.5766,    5.9562,    7.5729,    8.3719,    9.3918,    9.9258,   10.1281,   11.0715,   11.6284,   12.0649,   12.6412,   11.6494,   12.1977,   11.9344,   11.6855,   11.7357,   12.5073,   13.3927,   14.0111,   14.2242,   14.5540,   15.2366,   15.6624,   16.6718,   17.3757,   18.5672,   19.9435,   20.8331,   22.3206,   24.2923,   25.7525,   26.2405,   26.2148,   26.9647,   26.5435,   27.2350,   27.9319,   28.8057,   28.9522,   28.3488,   28.9545,   29.0526,   29.4996,   29.1329,   29.5965,   29.5949,   29.9174,   29.9479,   30.5088,   30.4748,   29.6066,   30.7722,   33.1174,   32.0114,
24-SEP-2002 19:42:12.34 ,    1.3133,    1.4772,    1.9836,    2.3058,    0.8225,   -0.2343,    0.4534,    1.7342,    2.6116,    2.8967,    3.6842,    4.9820,    6.2216,    7.8070,    8.3180,    9.2787,    9.8385,   10.2266,   11.3018,   11.6927,   11.9300,   12.2992,   11.6670,   12.9795,   12.6430,   12.1510,   12.2226,   12.8651,   13.5571,   14.1712,   14.5142,   14.9188,   15.5072,   15.9964,   16.9132,   17.6975,   18.8198,   20.3917,   21.4543,   23.5558,   25.8816,   26.7270,   26.8962,   26.0378,   26.7137,   26.9140,   26.3691,   26.8065,   27.3328,   27.6632,   27.9836,   28.1146,   29.2136,   29.7390,   29.7060,   29.4534,   29.3908,   30.3476,   31.0948,   31.1720,   30.9230,   30.4989,   30.0792,   30.9006,   31.3291,
24-SEP-2002 19:44:53.95 ,    2.4328,    1.5164,    2.6040,    2.0383,    1.3126,    1.2764,    1.7679,    2.5656,    3.4125,    3.4800,    4.8149,    6.0016,    6.5835,    7.5838,    8.4404,    9.2436,    9.2788,    9.2828,    9.9659,   10.6657,   11.2887,   12.0414,   10.5679,   11.8705,   11.7239,   11.2693,   11.7125,   12.6629,   13.1934,   13.4796,   14.0833,   14.5106,   15.1601,   16.0625,   16.7940,   17.9830,   19.2258,   20.5539,   21.1602,   22.4669,   25.2741,   26.2835,   26.0922,   26.9381,   27.6779,   29.2341,   26.5368,   30.4884,   26.9375,   27.9799,   27.7484,   31.6390,   33.4945,   34.3412,   34.0812,   32.5995,   33.5874,   32.9571,   30.1869,   30.3664,   30.5116,   29.8298,   29.7795,   31.0046,   31.5140,
24-SEP-2002 19:47:35.11 ,    1.5505,    1.0344,    0.5479,   -0.1207,   -1.3043,   -0.7922,    0.6737,    0.9039,    2.2628,    2.9069,    3.8716,    4.9712,    5.7241,    6.3479,    7.2955,    8.3157,    8.1070,    8.1730,    9.0214,   10.0701,   10.8107,   11.6079,   11.5486,   11.9329,   12.1627,   11.8058,   11.7437,   12.3627,   12.8142,   13.3237,   13.9263,   14.2789,   14.7313,   15.6343,   16.7028,   18.0834,   18.7746,   19.4885,   14.4894,   19.2250,  999.0000,  999.0000,  999.0000,   29.2756,   30.6452,   32.2521,   22.6935,   37.6700,   24.2298,   25.4055,   26.4171,   40.8763,   42.5066,   43.3163,   41.0700,   40.9583,   40.1677,   38.9306,   31.4944,   32.0446,   27.9844,   27.6412,   27.6802,   29.1047,   29.9058,
24-SEP-2002 19:50:16.48 ,    0.0257,    0.8085,   -0.3329,   -0.8152,   -2.2577,   -1.8251,   -0.6614,    0.0910,    1.5187,    2.2090,    2.6559,    3.5789,    4.5560,    5.4173,    6.6628,    7.7176,    8.3762,    8.7645,    9.5693,   10.0127,   10.4832,   11.2290,   11.1851,   12.3616,   12.3972,   11.9881,   12.0751,   12.6194,   12.6562,   13.5988,   14.1914,   14.7226,   15.4025,   16.0848,   17.4105,   18.4531,   18.7387,   18.8716,   19.2781,   22.4504,   24.0057,   25.8435,   26.1428,   25.3620,   26.7233,   26.6783,   27.8517,   25.6052,   25.2349,   26.3006,   26.5946,   26.4678,   28.0097,   27.9911,   27.6810,   28.2041,   29.8296,   28.7309,   28.8448,   27.9792,   28.2045,   28.1462,   28.0687,   29.2750,   29.8389,
24-SEP-2002 19:52:58.35 ,    0.3357,    0.6588,    2.0853,    2.1221,    0.9501,    0.8499,    1.6016,    1.5321,    2.0576,    2.9405,    3.4929,    4.2075,    5.0027,    6.1170,    6.9613,    7.5558,    8.6629,    9.4316,   10.0041,   10.6222,   10.9764,   11.4534,   10.3752,   11.7296,   11.7495,   11.3091,   11.7744,   12.2729,   12.4636,   12.9037,   13.7259,   14.3187,   14.8814,   15.9592,   17.3432,   18.2624,   19.3654,   20.2096,   20.6579,   21.3410,   24.1739,   25.5638,   26.5117,   26.1992,   26.1111,   25.1513,   27.3196,   26.8513,   27.6061,   28.0602,   28.3838,   28.2199,   29.8701,   29.0862,   28.7627,   28.7762,   28.8052,   29.1254,   28.8767,   28.4819,   28.1903,   27.5433,   27.8340,   28.3815,   28.7936,
24-SEP-2002 19:55:39.51 ,    0.1162,    0.5774,  999.0000,    2.3326,    0.9415,    0.1074,    0.4403,    0.6587,    1.4480,    2.9469,    3.4488,    4.2415,    5.3147,    6.6336,    7.0518,    7.3659,    7.9169,    8.3620,    8.7797,   10.0557,   10.5290,   11.2157,   10.6930,   11.7302,   12.0763,   11.6690,   11.6655,   12.4439,   13.0750,   13.5081,   13.7663,   13.9383,   14.9870,   16.0327,   16.9463,   18.0735,   18.5956,   19.4143,   20.4003,   21.7235,   23.2856,   24.6925,   26.0406,   25.4424,   25.9190,   26.5791,   26.8731,   26.2537,   27.4794,   27.9897,   27.4434,   28.8484,   30.1859,   30.6712,   30.1520,   29.0525,   29.5638,   29.2877,   29.1741,   28.8640,   28.6122,   27.3346,   28.0538,   29.0312,   29.3036,
24-SEP-2002 19:58:20.80 ,    0.2817,    1.6411,  999.0000,    1.1266,    0.0298,   -0.2010,   -0.3144,    0.0378,    1.0164,    2.1535,    3.1576,    4.1046,    5.5277,    6.6059,    7.1116,    7.2931,    7.7252,    7.8866,    8.2162,    9.2936,   10.0053,   10.8006,   10.9558,   12.0119,   12.1237,   11.5310,   11.7538,   12.2635,   12.6182,   13.0139,   13.4677,   14.1597,   14.4857,   15.2608,   17.0069,   18.5580,   19.2373,   19.5738,   21.1850,   23.0935,   23.8579,   24.7983,   26.8327,   26.4303,   27.1780,   27.4136,   28.0081,   27.2918,   27.1400,   28.1263,   28.6118,   29.9428,   30.1394,   30.0479,   30.2682,   29.2066,   29.1803,   28.5122,   27.3775,   28.1915,   28.6849,   27.7329,   29.0089,   29.3295,   29.1898,
24-SEP-2002 20:01:02.63 ,    0.4294,    2.2458,    2.5847,    1.3109,    0.1131,    0.2670,    1.1326,    1.5747,    1.7466,    2.5924,    3.6172,    4.0455,    5.0313,    5.9433,    6.4964,    6.9700,    7.5191,    7.9588,    8.5873,    9.2588,    9.7304,   10.4532,   10.8334,   10.8780,   11.0986,   10.9247,   11.5399,   12.1382,   12.6876,   13.1009,   13.1888,   13.5372,   14.9868,   15.9636,   17.2408,   18.3279,   19.0256,   19.5888,   21.5532,   23.1512,   24.2801,   25.8030,   27.7003,   27.3991,   27.0646,   28.0038,   28.4295,   27.7387,   28.4605,   29.4159,   29.6661,   29.4322,   29.4571,   29.8755,   30.0883,   29.2649,   29.0737,   28.8076,   27.7917,   29.3821,   29.8942,   29.0873,   28.9297,   29.0029,   28.9008,
24-SEP-2002 20:03:43.94 ,    0.3863,    1.0090,    1.4358,   -0.0158,   -0.8891,    0.1698,    1.7099,    2.3970,    2.8505,    3.4306,    3.5220,    3.2461,    3.5669,    4.3710,    5.5525,    6.3777,    7.0720,    7.8472,    8.5946,    9.5295,    9.6638,   10.3290,    9.2637,    9.9233,   10.5010,   10.8592,   11.5062,   12.1639,   12.6021,   12.6868,   12.9112,   12.7721,   13.0479,   15.7815,   17.3462,   18.4317,   19.2315,   19.9790,   21.2098,   22.1842,   24.2991,   26.4943,   26.3851,   25.7549,   27.3428,   28.3744,   28.4693,   28.5791,   29.7062,   30.3167,   30.2114,   29.4310,   28.7824,   29.5044,   30.3125,   28.8648,   28.7083,   28.6895,   28.3368,   29.4260,   29.4675,   28.5397,   28.6171,   29.1577,   29.9605,
24-SEP-2002 20:06:25.67 ,    0.5585,    1.0374,    0.2803,   -0.4420,   -0.7037,    0.7441,    2.0956,    2.8394,    3.7214,    4.3861,    4.3593,    4.2867,    4.5694,    5.1691,    6.3941,    6.4838,    7.2109,    8.7222,    8.9220,    9.4128,    9.5133,   10.3164,   11.0891,   11.0222,   11.1965,   11.2329,   11.3343,   11.8187,   12.9940,   13.2898,   13.3205,   13.4513,   13.8075,   15.6189,   16.8045,   18.8064,   19.5837,   20.4697,   21.4519,   22.8296,   24.7148,   25.9006,   25.3904,   25.4336,   27.2703,   27.9182,   28.8659,   28.3223,   28.6599,   29.6086,   30.5079,   30.3390,   29.8519,   30.9900,   30.0810,   29.8321,   29.9464,   29.8884,   29.6504,   29.1460,   29.7221,   29.9576,   29.9313,   30.2870,   30.7014,
24-SEP-2002 20:09:07.38 ,    0.3714,    1.2563,    0.2115,    0.5241,    0.8518,    1.5512,    2.5699,    3.3875,    4.4368,    5.5374,    5.6087,    6.0884,    6.3837,    6.7650,    7.5617,    6.7931,    7.1950,    9.0970,    9.3490,    9.2382,    9.4604,   10.5047,    9.6585,   10.6659,   11.5387,   11.5866,   11.6676,   12.1036,   12.5287,   13.0254,   13.1829,   14.4220,   13.8178,   15.4864,   17.2551,   18.6514,   19.3856,   21.6253,   22.0624,   23.5225,   24.4246,   25.3919,   26.2943,   26.7043,   26.3408,   26.2622,   28.6320,   29.0300,   28.7426,   28.1639,   29.2908,   29.1488,   28.7115,   29.7549,   29.9116,   29.8703,   31.9207,   31.0971,   30.1709,   28.8930,   28.8531,   29.6239,   28.9196,   29.3573,   30.4235,
24-SEP-2002 20:52:38.28 ,   -1.1955,   -1.0350,   -1.0482,   -1.0297,   -0.0193,    1.2997,    2.1064,    2.7603,    3.7939,    4.5035,    4.7038,    5.4422,    6.0300,    6.2762,    6.7106,    7.1967,    7.8285,    8.4184,    9.1477,    9.8302,   10.0016,   10.4542,   11.3257,   10.3043,   11.2958,   12.0354,   11.6790,   11.2191,   12.0754,   12.9356,   13.0978,   13.8374,   15.2956,   16.9944,   18.2845,   18.2386,   18.7435,   19.3607,   21.4835,   23.2089,   23.4180,   23.5557,   24.7534,   26.0870,   26.8672,   27.1370,   27.7819,   28.2950,   26.7577,   27.5060,   28.0934,   27.5544,   29.0833,   30.9727,   30.0366,   30.1945,   30.2439,   30.8631,   29.4375,   29.9848,   29.5137,   27.7359,   28.4582,   29.5838,   31.9252,
24-SEP-2002 20:55:20.49 ,   -0.4574,   -0.9298,   -1.1885,   -0.8601,    0.5491,    2.2308,    2.5011,    3.2139,    4.1108,    4.5006,    4.8650,    5.8734,    6.5603,    6.8662,    7.2778,    7.5445,    7.8797,    8.7769,    9.4156,   10.2463,   10.5449,   10.4258,   11.3059,   11.9854,   11.6495,   11.7440,   11.5087,   11.7351,   12.3059,   13.3586,   13.6589,   13.8088,   14.8701,   16.6427,   18.6763,   18.6781,   19.6260,   20.0247,   21.4238,   22.7461,   23.1808,   23.8444,   24.9718,   26.5092,   26.9766,   27.0750,   27.3088,   28.3146,   26.5083,   26.4170,   28.0470,   28.6070,   30.4244,   30.9144,   30.1099,   31.0007,   30.2629,   30.7744,   30.1519,   28.9700,   27.7353,   26.7502,   27.6736,   29.1043,   31.1417,
24-SEP-2002 20:58:02.92 ,   -0.8769,   -2.0223,   -2.3313,   -0.6882,    0.4591,    1.4751,    1.7166,    2.8111,    4.5378,    4.5476,    4.6673,    5.3892,    6.6695,    7.1525,    7.4610,    7.9054,    8.2452,    8.9533,    9.3229,    9.8222,   10.3245,   10.9089,    9.5618,   11.1635,   12.3036,   12.6083,   12.3139,   12.5556,   12.3648,   12.5151,   13.1146,   13.8691,   14.7237,   16.0991,   17.2475,   17.7650,   18.3670,   19.0016,   20.7125,   21.2043,   22.7024,   23.7849,   24.2382,   25.2949,   27.0253,   27.8451,   27.6793,   27.5951,   26.2221,   26.9489,   28.6796,   29.4653,   30.2852,   29.7923,   29.6665,   30.0519,   30.0372,   30.7007,   29.3441,   29.0551,   27.9637,   28.9797,   28.8519,   29.9917,   30.7959,
24-SEP-2002 21:00:44.23 ,   -0.8269,   -2.0045,   -2.6567,   -0.3536,    0.4028,    1.6749,    1.6341,    2.7382,    4.6448,    4.1140,    4.5199,    5.2640,    6.3335,    6.6897,    7.1023,    7.6351,    7.9170,    8.4734,    9.0029,    9.0621,    9.5641,   10.5116,    9.8203,   10.3873,   10.9474,   11.9625,   11.7494,   11.1233,   11.7070,   11.9840,   13.4249,   14.4057,   15.4196,   16.4764,   17.4993,   17.5937,   18.0781,   19.3467,   21.0078,   21.3756,   22.4186,   23.4045,   23.8705,   24.8957,   26.1959,   27.0242,   26.8899,   27.1503,   27.7505,   27.6439,   28.4002,   29.0436,   28.6810,   28.1039,   29.2212,   30.6875,   30.4340,   30.7234,   30.6373,   29.8948,   28.6528,   28.4486,   28.3592,   29.9755,   30.3710,
24-SEP-2002 21:03:25.41 ,   -0.1418,   -0.9642,   -1.6029,   -0.5893,   -0.0347,    0.9162,    1.3961,    2.8466,    3.8711,    4.2689,    5.2844,    6.0756,    6.5662,    6.7780,    6.8819,    7.0949,    7.4048,    8.4764,    9.2966,    9.0356,    9.6357,   10.2982,   11.2839,   12.3292,   11.7593,   12.5071,   12.0179,   11.3338,   12.7822,   13.3364,   14.2868,   14.6218,   15.3566,   16.5248,   17.5448,   17.9918,   19.2634,   20.2428,   20.8886,   21.3925,   21.5810,   23.6328,   24.3761,   25.7440,   26.5682,   26.6972,   27.4306,   27.3940,   28.5947,   27.4959,   27.4860,   28.4644,   28.8709,   29.6942,   29.9789,   31.1482,   30.1523,   29.9324,   28.9713,   29.3721,   27.9730,   28.1413,   29.3869,   31.7556,   32.0922,
24-SEP-2002 21:06:07.37 ,    0.1725,   -0.7631,   -1.0189,   -0.1223,    0.0198,    0.4475,    1.1223,    2.5141,    3.1243,    4.7087,    5.4696,    6.8390,    6.9816,    7.0793,    7.0423,    7.2314,    7.8610,    8.8124,    9.4762,    9.1818,    9.9727,   10.7586,   10.0728,   10.7955,   11.5959,   12.1490,   12.2266,   12.1253,   12.1520,   13.5117,   13.7504,   14.8096,   15.7785,   16.6580,   17.5407,   18.1806,   18.9129,   19.3163,   20.3999,   21.0859,   21.4976,   22.6375,   24.0923,   25.6758,   26.7403,   27.1508,   28.0823,   28.8271,   29.0476,   28.1838,   28.2688,   29.3418,   29.9598,   29.7883,   30.2758,   31.0854,   30.5341,   29.6591,   30.4775,   29.1377,   28.0944,   27.8037,   28.7609,   31.3954,   31.0636,
24-SEP-2002 21:08:48.66 ,   -0.2413,   -0.6542,   -0.7094,    0.1211,    0.8881,    0.8344,    1.4015,    2.6523,    4.0733,    4.6133,    5.8184,    7.2076,    6.9453,    6.6799,    6.7642,    6.8510,    7.6901,    8.0702,    8.5348,    9.0473,    9.6757,   10.6125,    9.0430,    9.5347,   10.9865,   12.3090,   12.1300,   11.7052,   11.8154,   13.2987,   14.1435,   14.7494,   15.2553,   15.4336,   16.9519,   18.2113,   18.7855,   19.2769,   20.3023,   21.5505,   22.4261,   23.1530,   24.8802,   26.7028,   26.3711,   26.0884,   27.1714,   29.8528,   29.0102,   28.5467,   28.6119,   29.3630,   29.0147,   28.7479,   30.4816,   32.4396,   30.5654,   29.2871,   29.7197,   29.2350,   27.7016,   27.5195,   28.5805,   30.7446,   31.2689,
24-SEP-2002 21:11:30.00 ,   -0.0609,   -0.5759,   -0.8490,   -0.6001,    0.9641,    0.9360,    2.3549,    3.4145,    4.7502,    4.6438,    5.7214,    6.2996,    6.4401,    6.4749,    6.4727,    6.6876,    7.3070,    7.4242,    8.0899,    8.9383,    9.6604,   10.4606,    9.5184,   10.3228,   10.6335,   10.9699,   11.3690,   11.6340,   12.1354,   13.3659,   13.9213,   14.5240,   15.1538,   15.8329,   17.2053,   18.3383,   18.6475,   19.4898,   21.2447,   21.7559,   22.7867,   23.7811,   24.8324,   26.8149,   27.2603,   26.6093,   26.6172,   29.2341,   27.9003,   28.4999,   29.0113,   28.2728,   27.5807,   27.9492,   29.9708,   32.1011,   30.8289,   30.3512,   28.2168,   29.9029,   28.7245,   28.0220,   29.8184,   31.4433,   31.4175,
24-SEP-2002 21:14:11.42 ,    0.1721,   -0.9631,   -1.7572,   -1.1221,    0.3611,    0.8774,    3.4170,    3.8083,    4.0674,    4.3850,    4.7119,    5.4171,    6.0047,    6.3537,    6.3511,    6.6768,    7.1336,    7.7549,    8.5590,    9.1706,    9.8962,   10.5474,    9.8551,   10.8768,   11.0774,   10.9662,   11.3427,   12.3174,   12.9104,   13.3723,   13.7241,   14.2065,   15.5520,   16.3786,   17.4211,   18.2574,   18.3261,   19.7583,   21.3273,   22.3001,   23.2456,   23.6065,   24.6711,   26.8137,   27.7597,   25.9537,   26.6177,   28.1546,   27.6053,   26.8119,   27.6130,   26.7872,   28.3878,   29.0006,   30.3530,   32.5836,   31.3917,   31.0438,   28.7716,   29.6619,   29.0255,   28.2046,   30.5431,   31.5896,   31.0867,
24-SEP-2002 21:16:52.68 ,   -0.2374,   -1.2525,   -1.9801,   -1.0146,    0.1722,    0.6231,    3.1124,    3.9855,    4.2239,    4.0113,    4.2400,    4.9339,    5.4799,    5.7736,    5.9701,    6.4069,    6.7995,    7.4976,    8.0735,    8.6867,    9.5776,   10.5988,    9.7906,   10.7240,   10.5690,   10.7616,   11.3248,   11.5903,   12.1247,   12.9979,   14.0027,   15.1045,   15.8801,   16.3606,   17.2033,   17.8376,   18.7174,   19.9958,   20.8324,   22.0308,   23.1313,   23.7576,   26.3758,   27.3566,   26.6141,   26.2478,   27.2674,   28.1442,   28.9885,   28.4494,   28.8268,   27.7997,   30.3161,   29.5035,   29.8199,   30.9311,   30.5697,   30.5973,   29.1709,   29.6074,   29.4852,  999.0000,   31.0112,   32.3151,   32.0106,
24-SEP-2002 21:19:34.16 ,   -0.4767,   -1.3111,   -1.8181,   -0.6278,    0.0663,    0.5507,    2.1562,    3.6392,    3.9830,    3.6039,    4.2445,    5.1795,    5.8998,    6.1272,    6.2649,    6.7609,    7.0308,    7.6011,    8.4242,    8.9858,   10.0125,   10.7715,   10.2444,   10.4101,   10.3033,   10.5118,   10.9602,   11.5652,   12.2316,   13.0394,   13.7428,   15.1302,   16.0867,   16.5580,   16.6566,   17.4044,   19.3545,   20.5708,   21.3474,   21.9745,   22.9739,   24.4145,   26.5276,   27.2371,   27.5624,   27.2935,   27.8316,   28.3190,   29.1514,   22.4158,   28.7882,   29.0464,   30.1199,   29.3023,   30.0477,   29.4213,   29.6943,   29.7644,   28.8079,   29.3084,   29.1298,   28.4373,   30.3150,   32.3565,   32.9239,
24-SEP-2002 21:22:15.23 ,   -0.9481,   -1.6438,   -0.8950,    0.5463,   -0.0743,    0.9367,    2.5307,    3.6866,    4.1661,    4.4362,    4.7181,    6.0638,    6.4749,    6.2283,    6.3268,    6.8917,    7.1202,    7.5414,    8.3208,    9.2338,   10.5991,   11.1381,   10.1888,   11.1806,   11.3999,   11.4399,   11.4347,   11.4970,   12.2539,   13.0619,   14.1055,   15.7371,   16.4840,   16.8683,   16.9871,   18.1793,   19.2550,   20.1819,   21.4275,   22.3935,   23.5431,   24.1479,   26.2035,   26.5699,   26.9599,   27.2671,   26.9445,   27.9976,   28.4748,   27.7317,   28.0108,   28.4565,   29.8719,   29.3703,   30.1088,   29.6916,   30.7230,   30.8393,   30.9317,   29.3068,   29.6662,   28.5102,   31.4239,   32.3202,   31.9237,
24-SEP-2002 21:24:56.67 ,   -0.9345,   -1.5790,   -0.8584,    0.0021,   -0.1133,    1.2141,    2.6113,    3.7890,    4.1986,    4.7631,    4.8887,    5.7929,    6.1590,    6.0689,    6.1171,    6.5969,    7.0672,    7.6365,    8.1797,    9.1516,   10.6717,   11.0180,    9.8607,   10.7107,   11.0307,   11.2296,   11.4311,   11.2916,   12.6801,   13.7366,   14.4559,   15.0240,   15.4436,   16.4144,   16.8265,   17.5288,   18.4426,   19.2784,   20.3953,   21.8788,   23.0010,   24.3076,   25.6673,   26.1762,   26.5310,   27.1870,   27.1403,   26.8093,   28.4079,   27.7315,   28.0980,   28.5365,   29.8542,   31.6972,   30.9174,   30.0679,   30.8067,   29.4813,   28.9978,   28.5123,   31.5973,   28.8208,   31.1480,   32.6392,   32.8567,
24-SEP-2002 21:27:38.09 ,   -0.1289,   -1.1484,   -2.0029,   -2.0454,   -1.5938,    0.5155,    1.2002,    2.1682,    3.0485,    3.6110,    4.7421,    5.4399,    5.7431,    5.7273,    6.0887,    6.1912,    6.7343,    7.6143,    8.1618,    9.0235,   10.1134,   10.3252,    9.8701,   10.6272,   11.0950,   11.2409,   11.0990,   11.4765,   12.3967,   13.9369,   15.3409,   15.7973,   15.9159,   16.5781,   16.7255,   16.8049,   18.4370,   18.5582,   19.7727,   21.5500,   23.6479,   24.6556,   25.9352,   25.8108,   26.0285,   27.1429,   27.1860,   26.2952,   27.5155,   27.3422,   27.6398,   29.1161,   30.8902,   29.2101,   29.5470,   29.6029,   30.8344,   29.7898,   29.5573,   31.1961,   29.9310,   29.1028,   31.2102,   34.0324,   35.2472,
24-SEP-2002 21:30:19.34 ,    0.1204,   -1.2028,   -1.8091,   -1.2757,   -1.2952,    0.5129,    0.6496,    1.3656,    2.6507,    3.3693,    4.5474,    5.3396,    5.6316,    5.8864,    6.1505,    5.9813,    6.4972,    7.2598,    7.7694,    8.7968,    9.8072,   10.3902,   10.6753,   10.8743,   11.0399,   11.4476,   11.8572,   12.1513,   12.8945,   13.5574,   14.6505,   15.1885,   15.7867,   15.6783,   16.2031,   17.1177,   18.5345,   19.9187,   20.4941,   22.6350,   23.0941,   24.5358,   25.8288,   25.4293,   25.7406,   26.6222,   26.6701,   26.8942,   27.8647,   27.4379,   27.8172,   28.3129,   30.0289,   30.3955,   29.9490,   30.3427,   30.8924,   30.0733,   30.2950,   30.2201,   29.8604,   30.7604,   31.3066,   33.8741,   34.3217,
24-SEP-2002 21:33:00.53 ,   -1.1325,   -1.8484,   -2.0027,   -0.9030,    0.2491,    0.6610,    0.6983,    2.1661,    3.5711,    4.2250,    4.8065,    5.2747,    5.7542,    6.0647,    5.9877,    6.3303,    6.8879,    7.8149,    8.7375,    9.2167,    9.8916,   10.6261,   11.0724,   11.4419,   12.0388,   11.8418,   11.9260,   12.4874,   13.5623,   14.2423,   15.2105,   15.4154,   15.6122,   16.3510,   16.7776,   17.4292,   18.0917,   19.9377,   20.5953,   21.6836,   22.2499,   23.8963,   24.8377,   25.2070,   25.1080,   25.6538,   27.4676,   28.1241,   27.9057,   28.0401,   27.8233,   29.5865,   30.3936,   30.5490,   30.2341,   31.1360,   31.3342,   31.5289,   31.1553,   31.0786,   29.9748,   34.2485,   32.1458,   33.8272,   33.2446,
24-SEP-2002 21:35:41.61 ,   -1.4841,   -1.8538,   -2.4294,   -2.3477,   -0.7863,   -0.3579,    0.2363,    1.6702,    4.1437,    4.5577,    5.2792,    5.8295,    6.1937,    5.9817,    5.9689,    6.2933,    6.8145,    7.9440,    9.2041,    9.8713,   10.4295,   10.9049,   11.6295,   11.3904,   12.0083,   11.6537,   11.7342,   12.6981,   13.4853,   14.2750,   15.0818,   15.3250,   15.1702,   15.6856,   17.1609,   17.9161,   18.2641,   20.2983,   20.5227,   21.0384,   22.3945,   24.4585,   25.2667,   25.8331,   24.7923,   24.9233,   26.6082,   27.4289,   26.3632,   27.4967,   28.0628,   30.0294,   30.9731,   29.3362,   30.1085,   31.0065,   31.0849,   31.4392,   30.1746,   31.0262,   29.0938,   30.6180,   32.0977,   34.0061,   35.4430,
24-SEP-2002 21:38:22.79 ,   -0.4687,   -0.7934,   -0.8920,   -1.0528,   -0.8256,    0.3842,    1.9936,    2.9310,    4.6716,    4.6580,    5.2500,    6.1748,    6.4161,    6.4000,    6.4404,    6.6298,    7.1985,    7.9662,    8.7803,    9.6060,   10.4160,   11.0692,   11.2691,   11.6091,   11.6983,   11.7158,   11.7741,   12.4499,   13.0780,   13.6734,   14.3438,   15.1237,   15.5846,   15.9369,   16.9458,   17.5487,   17.8349,   19.2592,   19.7487,   20.5033,   21.9533,   23.7173,   24.8761,   25.7441,   25.6113,   25.7304,   26.3515,   26.4214,   26.3391,   26.9217,   28.0479,   29.5004,   30.9301,   29.9377,   29.5296,   31.1076,   30.3584,   30.6269,   30.2823,   30.1467,   28.9296,   30.6220,   33.1984,   34.5989,   34.9294,
24-SEP-2002 21:41:04.13 ,    1.4638,    1.5739,    1.4348,    1.5523,    1.5699,    2.6192,    4.0594,    5.2073,    5.1491,    4.9444,    5.3154,    6.3202,    6.6701,    6.7445,    6.5730,    6.5463,    7.0683,    7.6979,    8.4180,    9.5877,   10.6890,   11.3343,   10.9396,   11.2317,   11.5037,   11.9724,   11.8674,   11.9089,   12.5361,   13.3150,   14.0626,   15.1452,   16.0036,   16.4883,   16.7949,   17.2127,   17.4908,   20.8259,   20.5477,   21.2911,   22.2436,   24.1492,   25.1746,   25.7382,   25.9647,   25.9639,   26.4270,   27.1681,   26.6331,   26.8978,   27.2484,   29.1948,   29.0173,   29.4151,   31.4398,   31.5600,   30.6967,   30.9064,   28.3527,   29.3202,   29.0384,   30.2491,   32.5624,   34.6185,   35.1262,
24-SEP-2002 21:43:45.23 ,    1.3922,    1.4651,    0.9192,    1.0185,    1.6658,    2.0391,    3.6725,    4.8267,    5.0507,    4.7471,    5.0378,    6.1490,    6.6357,    6.7133,    6.6834,    6.4956,    6.6680,    7.6486,    8.7823,   10.0892,   11.3172,   11.8765,   12.1833,   11.6673,   11.7391,   11.7235,   11.6562,   11.9569,   12.8051,   14.1051,   14.8805,   15.4180,   15.9989,   16.1920,   17.0332,   17.5940,   17.7225,   19.0900,   20.1982,   22.1296,   23.8614,   24.8767,   25.6751,   25.9687,   26.3673,   26.2424,   26.8818,   27.6041,   26.6875,   27.2697,   26.7566,   27.2354,   29.4153,   29.3001,   30.4008,   30.8544,   30.9555,   30.1668,   28.0521,   28.9507,   28.3174,   30.3050,   32.0233,   32.7738,   34.9160,
24-SEP-2002 21:46:26.85 ,    0.2115,   -0.1946,   -0.7418,   -0.3002,    0.1547,    0.2965,    2.2092,    3.9083,    4.6059,    4.3190,    4.6129,    5.8693,    6.1214,    6.1943,    6.4748,    6.4819,    6.5629,    7.7026,    8.7897,    9.8317,   10.5894,   11.1172,   11.7433,   11.7851,   11.2652,   11.7029,   12.1676,   12.8496,   14.1403,   14.8484,   15.2391,   15.6935,   16.1323,   16.4000,   17.3371,   17.8184,   18.2344,   18.5089,   19.1008,   21.3129,   23.2362,   24.8334,   25.8136,   26.1852,   26.0630,   25.6004,   26.3397,   27.1691,   26.3439,   26.9396,   27.2782,   27.9732,   30.7713,   30.9200,   30.2115,   30.3969,   31.2017,   30.8645,   29.6539,   28.7243,   28.5701,   30.9114,   32.8533,   33.6208,   35.4072,
24-SEP-2002 21:49:09.06 ,   -0.1105,   -0.6192,   -0.7011,    0.0315,    0.2012,    0.4269,    2.0698,    3.6371,    4.4452,    4.3097,    4.4087,    5.6840,    6.2034,    6.0560,    5.9971,    6.0423,    6.3109,    7.2973,    8.3144,    9.4419,   10.3394,   10.5950,   10.2135,   10.7799,   11.0857,   11.3707,   12.1419,   12.7178,   13.6144,   14.5395,   15.1039,   15.7408,   15.9905,   16.1004,   16.7044,   17.3061,   18.2076,   19.1733,   19.1299,   20.4222,   21.2707,   24.1522,   25.3372,   25.0179,   25.5999,   25.7863,   26.6806,   27.4421,   27.5445,   27.8627,   27.9867,   29.0045,   30.2532,   30.5224,   29.7431,   29.6409,   30.4949,   30.4443,   29.4613,   28.7391,   28.5250,   30.5274,   33.4029,   35.7854,   36.5360,
24-SEP-2002 21:51:50.45 ,    0.3036,   -0.8750,   -1.0175,   -0.5067,    0.4906,    1.0828,    3.8287,    4.9868,    5.0731,    4.6927,    4.5399,    5.7461,    6.3289,    6.2152,    6.0685,    6.2171,    6.3140,    7.1569,    8.6457,    9.5618,   10.4392,   10.6225,    9.9731,   10.5888,   11.1474,   11.0718,   11.6042,   12.7900,   13.7686,   14.5700,   15.0818,   15.6584,   15.7340,   15.5525,   15.1214,   15.1186,   15.9137,   16.9560,   16.4408,   17.8410,   20.1067,   22.5585,   24.3944,   25.6421,   25.5980,   25.9640,   27.3798,   27.7160,   27.0877,   27.4146,   27.5774,   28.3368,   28.2205,   29.6829,   29.7509,   30.0615,   30.6307,   30.3827,   29.5319,   29.7646,   29.1911,   29.5269,   32.2925,   35.1233,   36.5835,
24-SEP-2002 21:54:31.52 ,    0.2540,   -0.6912,   -0.9040,   -0.2323,    0.8544,    1.0450,    3.7247,    4.9301,    5.0677,    4.6908,    4.5133,    5.1967,    5.9818,    6.1686,    6.1315,    6.2560,    6.6120,    7.4737,    8.7418,    9.6924,   10.3522,   10.4331,   10.2447,   10.8134,   11.4037,   11.6526,   12.3758,   13.5617,   14.3787,   14.6538,   15.0440,   15.7823,   15.6297,   15.4869,   13.6338,   11.6118,   11.3101,   11.7208,   12.2024,   12.8944,   15.8997,   18.9031,   22.2214,   25.1969,   25.4747,   25.4297,   26.4577,   27.6755,   26.9521,   26.4480,   27.8164,   28.4731,   27.1566,   28.4841,   29.5143,   29.6047,   29.2097,   29.8755,   30.2400,   29.2715,   28.9576,   30.0316,   31.6434,   33.2332,   35.2534,
24-SEP-2002 21:57:12.88 ,   -0.7616,   -0.4531,   -0.4414,    0.2298,    1.1626,    1.5989,    2.5496,    4.0879,    4.3508,    4.3092,    3.9794,    4.6138,    5.7298,    5.8025,    5.8558,    5.8603,    6.3124,    7.1190,    8.2614,    9.3848,   10.2321,   10.4769,   10.1211,   10.5262,   11.3608,   12.2198,   13.1371,   13.6448,   14.0628,   14.1175,   14.8820,   16.1281,   16.4454,   16.0985,   16.2136,   16.3729,   17.1269,   17.8309,   17.4710,   17.4966,   18.4509,   19.5712,   23.2692,   24.0874,   25.3291,   25.6334,   26.1324,   26.7685,   26.7497,   26.9775,   27.0927,   27.2251,   28.3434,   28.0431,   29.6240,   30.3256,   30.0342,   30.1976,   29.2607,   29.3380,   29.6663,   30.4516,   32.0250,   32.5872,   35.3402,
24-SEP-2002 21:59:54.12 ,  999.0000,  999.0000,  999.0000,  999.0000,    1.8129,    2.1516,    2.9263,    4.0268,    4.4411,    4.3522,    4.1920,    4.9865,    5.5093,    5.5868,    5.8168,    5.8906,    6.2001,    7.0203,    8.3531,    9.3942,   10.4927,   10.9229,    9.6691,   10.7095,   11.7362,   12.2592,   12.9072,   13.2778,   13.9943,   14.7162,   14.7260,   14.7937,   14.7129,   14.3012,   12.7664,   11.2206,   11.4702,   11.2909,   10.1104,    9.9948,   10.5889,   11.3722,   23.7348,   16.7941,   21.9759,   23.9040,   25.5266,   25.5207,   27.2515,   27.8305,   28.3617,   28.1879,   28.5133,   27.8560,   28.5047,   29.9843,   30.5455,   30.4632,   30.2948,   30.4626,   29.8127,   29.6714,   32.6555,   33.2648,   35.4347,
24-SEP-2002 22:02:35.89 ,  999.0000,  999.0000,  999.0000,  999.0000,    2.8624,    3.5998,    4.2121,    4.6840,    4.9602,    4.3031,    4.4497,    5.2767,    5.5480,    5.6657,    5.8275,    6.1139,    6.3323,    7.1853,    8.6055,    9.5341,   10.4452,   11.1038,    9.7671,   10.9089,   11.7810,   12.0392,   12.3851,   13.3553,   14.3344,   15.1282,   15.2567,   13.6709,   12.0000,   10.4038,   10.2911,    9.9896,    9.2468,    9.1328,    9.3687,    9.9217,   10.3433,   10.9773,   12.0361,   12.2842,   17.3083,   17.5918,   21.8793,   23.7697,   27.7261,   27.7504,   29.0047,   29.1702,   29.3838,   29.8345,   29.5422,   30.1633,   29.1249,   29.9912,   30.3440,   29.9868,   30.4326,   30.2548,   32.3559,   33.1757,   35.1396,
24-SEP-2002 22:05:17.21 ,   -0.7081,    0.5059,    0.9384,  999.0000,    2.5570,    3.7783,    4.1741,    4.7033,    4.5820,    4.0280,    4.2238,    5.0414,    5.7084,    5.6336,    5.7265,    5.9277,    5.9151,    6.6582,    8.1202,    9.4572,   10.3660,   11.0180,   11.8414,   12.4933,   11.6901,   12.0109,   12.9910,   13.9147,   14.6259,   15.8946,   16.1240,   16.0082,   15.6757,   16.4301,   17.3898,   15.3571,   12.1821,   11.4613,   11.6239,   12.1679,   12.0681,   12.8125,   15.0907,   15.4059,   26.9776,   18.7475,   22.4850,   28.0298,   28.0180,   28.4847,   29.3073,   28.7138,   30.0986,   29.9651,   30.2288,   30.9936,   29.6480,   29.6982,   30.1928,   29.8294,   29.1824,   31.0406,   32.2686,   33.9424,   35.9247,
24-SEP-2002 22:07:58.16 ,   -1.1078,    0.0420,    0.5823,    1.1080,    2.3683,    3.1956,    3.6583,    4.1341,    4.2750,    4.1085,    4.2280,    5.0578,    5.5478,    5.6184,    5.7367,    5.8259,    6.1277,    6.8977,    7.9833,    9.2620,   10.4352,   10.9659,   12.1055,   11.1274,   11.8147,   12.2726,   13.2353,   14.0427,   14.6251,   15.3543,   15.2315,   15.4338,   15.6769,   16.1889,   16.9489,   17.3238,   18.4389,   18.8798,   19.7064,   19.1505,   18.9756,   20.6371,   21.5922,   21.8007,   21.4165,   21.7099,   22.4897,   26.3314,   27.1581,   27.4428,   29.4487,   29.2109,   29.0869,   29.3058,   29.8093,   30.1000,   29.2565,   30.5296,   30.6979,   29.4466,   28.5449,   31.2650,   32.4629,   34.8694,   36.1011,
24-SEP-2002 22:10:39.79 ,   -0.1700,    0.0504,    0.1717,    0.0663,    1.5884,    2.4904,    3.3639,    4.2364,    4.1972,    4.3055,    4.5675,    5.4086,    6.0510,    5.9116,    5.8388,    5.8867,    6.2208,    7.1194,    8.0130,    8.8327,    9.8876,   10.3043,    9.5734,    9.9131,   10.7245,   11.5081,   13.1050,   14.3136,   14.6325,   14.4771,   14.3024,   14.9646,   15.4723,   15.7975,   16.6845,   17.4468,   18.5506,   19.2806,   19.6456,   17.2149,   15.5379,   15.4842,   15.7689,   16.0912,   15.5237,   15.6160,   16.2260,   26.7349,   27.8457,   27.6156,   27.5569,   29.3835,   29.7832,   28.6772,   29.2783,   28.9936,   27.5217,   28.3086,   29.0734,   28.9047,   29.1533,   30.7617,   33.0496,   35.2231,   36.0888,
24-SEP-2002 22:13:20.92 ,   -0.4560,   -0.4094,   -0.2692,   -0.3878,    0.1522,    1.2542,    2.1788,    3.6348,    3.8443,    4.2630,    4.9755,    5.8616,    6.0574,    5.8809,    5.5695,    5.4504,    5.8944,    6.5698,    7.4982,    8.2105,    8.9457,    9.5744,    9.0841,    9.4038,   10.2336,   11.6575,   12.9406,   13.8821,   14.2667,   14.3049,   14.4906,   14.9147,   15.0402,   15.4505,   16.4316,   17.0571,   18.5279,   19.9229,   18.5789,   18.2864,   19.0115,   20.0852,   21.9306,   23.0721,   22.6884,   22.1252,   22.0822,   22.9771,   24.4018,   24.1683,   27.7820,   29.2294,   28.9268,   28.4843,   29.0791,   28.6832,   28.2193,   27.8822,   29.4398,   28.4409,   29.6140,   35.0575,   33.2189,   35.2047,   36.5025,
24-SEP-2002 22:16:02.04 ,   -0.1250,   -0.4761,    0.0071,   -0.0255,   -0.4624,    0.8401,    1.1934,    2.2421,    3.1642,    3.8632,    4.9353,    6.2161,    6.2707,    6.1658,    5.7318,    5.6432,    6.0685,    6.5299,    7.5919,    8.6383,    9.1630,    9.7127,   10.3416,    9.5386,   10.8944,   12.4306,   13.3166,   14.1635,   14.7432,   14.7737,   14.9561,   15.3089,   15.1458,   15.2204,   16.5461,   17.3527,   18.5632,   20.4665,   17.7110,   15.9779,   15.0371,   14.3536,   14.6781,   15.5340,   15.7785,   15.6027,   15.6394,   15.9563,   16.1904,   16.3570,   28.5631,   28.8635,   27.5686,   27.6524,   28.7664,   29.3723,   30.0293,   29.6704,   29.5614,   28.3854,   29.1044,   32.0194,   33.4708,   34.4978,   36.0463,
24-SEP-2002 22:18:43.63 ,   -0.2253,   -0.8917,    0.1563,   -0.1101,   -0.0680,    1.5211,    1.8956,    1.9910,    2.7250,    3.7489,    4.9357,    5.9768,    6.1583,    6.1830,    5.7966,    5.9183,    6.3928,    6.8043,    7.9081,    9.3345,    9.6999,    9.7029,    9.7065,    9.7842,   10.2705,   11.4688,   12.8594,   14.0237,   14.4273,   14.7629,   14.9515,   15.7436,   15.9627,   16.1492,   16.9281,   17.6868,   18.5773,   20.4115,   20.9732,   20.3979,   21.2532,   23.1388,   23.9704,   25.6136,   26.0864,   25.9916,   25.9396,   26.7943,   26.6443,   26.6897,   28.3847,   28.8923,   27.4288,   27.7325,   28.9689,   29.0306,   30.2656,   30.1073,   29.3025,   27.9252,   28.6709,   30.8835,   32.1247,   33.5152,   34.6992,
24-SEP-2002 22:21:24.78 ,   -0.2333,   -0.2615,    0.2919,    0.5679,    1.1582,    2.2144,    3.1085,    3.4451,    3.3045,    3.9847,    5.0606,    5.9014,    5.9797,    5.8652,    5.4651,    5.7453,    6.1553,    6.7341,    7.7428,    8.7314,    9.4331,    9.9184,    9.7198,    9.6054,   10.0392,   11.6615,   13.1805,   14.4913,   15.3201,   15.3195,   15.2651,   15.7653,   15.8667,   15.7670,   16.6727,   17.9363,   18.7102,   19.4373,   20.2542,   20.3085,   21.4269,   22.9237,   24.9634,   25.2078,   25.5782,   26.3190,   26.9392,   27.3974,   27.7337,   28.1132,   28.4385,   28.8590,   29.0843,   28.7677,   29.8898,   28.9257,   28.9120,   29.9343,   28.2309,   28.8671,   29.3458,   30.6713,   32.3206,   33.4147,   34.6823,
24-SEP-2002 22:24:06.03 ,    0.1017,    0.8312,    0.5045,    1.7269,    2.0769,    2.4205,    3.5759,    4.0083,    4.1597,    4.1449,    5.1767,    6.0815,    6.1075,    5.8984,    5.3724,    5.6932,    5.9514,    6.9938,    8.2527,    8.6355,    9.3094,   10.1443,   11.0372,   11.8138,   10.5347,   11.4987,   12.8047,   14.6345,   15.4972,   15.1862,   15.0882,   15.7727,   15.6492,   15.8257,   17.1721,   18.7799,   19.2451,   19.7439,   20.6597,   20.8862,   21.5270,   22.7936,   24.8919,   25.9240,   25.8348,   26.4248,   26.3270,   26.4418,   27.1252,   27.4200,   27.5236,   29.7906,   29.9471,   29.1007,   29.7712,   29.8502,   29.6674,   29.8033,   28.9790,   28.5105,   29.8078,   30.1199,   33.1088,   34.1648,   35.9655,
24-SEP-2002 22:26:47.22 ,    0.3875,    1.2492,    0.8167,    1.3222,    1.5038,    1.6802,    2.4900,    3.0371,    3.6545,    3.6884,    4.6966,    5.1750,    5.3950,    5.5372,    5.2469,    5.4575,    5.9501,    6.9203,    8.0133,    8.6268,    8.8389,    9.6252,   10.5783,   10.0508,   10.8072,   11.6798,   13.3716,   14.5508,   14.9881,   15.0278,   15.0183,   15.7650,   16.6427,   17.0190,   17.1020,   18.0202,   18.6503,   20.0759,   20.9944,   21.9381,   22.8180,   24.4360,   26.0895,   26.8197,   26.1377,   26.6094,   26.0136,   27.4621,   27.9257,   28.1635,   29.5945,   31.0331,   28.6226,   27.4200,   27.8217,   27.8034,   29.0848,   29.7146,   28.2928,   27.5621,   28.9063,   29.7903,   32.5151,   34.0580,   35.0768,
24-SEP-2002 22:29:28.33 ,    0.2851,    0.3789,    0.0516,   -0.1233,    0.3297,    1.0358,    1.3720,    2.0972,    3.1251,    3.6614,    5.1705,    5.5181,    5.4407,    5.5868,    5.0593,    5.1754,    6.0248,    7.1462,    7.7451,    8.2951,    8.8005,    9.8307,    9.3381,    9.8349,   10.3987,   11.3936,   13.2257,   14.4469,   15.0591,   14.8606,   14.4959,   15.0227,   16.1805,   17.0727,   17.8231,   18.5587,   19.2767,   19.8870,   20.3974,   21.1344,   21.9243,   23.2247,   24.9928,   25.9761,   26.2828,   26.2699,   26.7496,   27.1292,   27.4646,   27.6256,   29.1567,   29.8627,   28.1415,   27.9785,   28.4816,   29.0225,   29.3313,   29.8512,   28.9010,   28.5955,   28.8126,   30.7622,   33.0882,   35.0209,   35.0618,
24-SEP-2002 22:32:09.61 ,   -0.1763,   -0.2083,   -0.4879,   -0.2892,    0.5172,    0.9128,    1.6866,    2.5194,    3.5278,    4.0335,    5.4824,    5.8211,    6.1007,    5.8626,    5.0067,    5.1813,    5.8458,    6.9501,    7.7626,    8.1516,    8.7706,   10.1926,   11.6996,    9.7964,   10.3907,   11.1432,   12.9721,   14.6105,   15.1230,   14.8446,   14.8567,   16.1938,   16.4863,   16.9115,   17.6989,   18.6074,   19.2753,   20.1826,   20.6933,   21.6402,   22.0111,   23.4250,   24.9801,   26.3088,   26.9393,   26.5722,   26.7203,   27.4713,   27.6018,   27.9164,   28.4291,   28.9399,   28.4626,   28.4025,   28.8132,   29.5539,   29.1597,   29.0053,   29.1900,   29.0550,   28.9442,   30.2364,   32.3488,   34.1604,   35.5669,
24-SEP-2002 22:34:50.87 ,   -0.6157,   -0.4634,   -0.6136,   -0.0878,    0.8117,    1.1446,    1.8583,    2.8854,    3.2402,    3.9168,    4.9794,    5.1017,    5.9490,    5.4981,    5.0068,    5.0606,    5.0489,    5.7399,    7.0410,    8.0717,    8.5352,    9.7604,    8.4743,    9.7603,   10.8081,   11.3930,   12.5658,   14.2769,   14.8428,   15.1295,   15.7432,   16.3774,   16.1587,   16.7419,   17.5435,   18.4133,   19.6888,   20.7078,   21.3966,   22.2137,   23.1143,   24.7278,   25.9534,   26.7581,   26.4912,   25.8206,   26.4724,   27.9261,   28.5173,   27.9820,   28.5103,   29.3525,   28.5479,   27.8475,   28.8497,   27.7759,   28.9133,   28.7580,   29.0856,   28.0239,   28.5487,   29.8096,   32.6384,   33.8412,   34.4262,
24-SEP-2002 22:37:32.08 ,   -0.1457,   -0.1624,    0.4899,    0.7900,    1.0764,    1.2651,    1.4512,    2.3974,    3.1698,    4.3051,    5.5445,    5.2935,    5.6518,    5.5338,    5.1703,    4.7315,    4.8827,    6.0205,    7.1056,    7.7559,    8.5197,    9.9202,   11.5582,    9.4586,   10.8819,   11.7822,   13.0094,   13.9777,   14.0922,   14.2356,   14.5046,   15.2756,   16.0116,   16.6453,   18.0110,   18.3718,   19.1195,   21.0387,   21.6874,   22.2556,   22.8009,   23.9239,   25.4854,   26.1030,   25.4167,   25.3346,   25.7803,   26.3211,   28.1628,   28.2639,   28.3299,   29.6667,   29.1054,   28.8165,   29.3767,   27.7960,   28.7455,   28.5996,   28.4126,   26.9585,   27.3622,   28.9176,   30.9478,   32.9489,   33.2545,
24-SEP-2002 22:40:14.61 ,    0.2952,    0.1933,    1.0603,    0.9423,    1.0709,    1.1965,    1.4438,    2.9446,    3.6408,    4.9674,    6.1292,    6.1037,    5.9702,    5.7038,    5.6565,    5.3756,    6.0364,    7.1509,    7.7066,    8.2157,    9.0885,   10.3508,    8.0758,    8.1517,    9.3397,   11.1408,   12.4426,   13.5871,   13.7690,   14.3950,   14.9090,   15.0510,   16.3741,   16.8850,   18.1644,   18.8662,   19.6378,   21.3402,   21.7321,   21.7329,   22.7498,   23.9108,   25.8111,   26.3386,   25.5925,   25.0850,   26.6323,   26.6465,   27.7515,   28.5385,   28.6412,   29.2838,   28.6048,   29.6479,   30.4333,   28.1960,   28.9085,   28.9669,   28.7245,   26.9431,   27.6896,   29.5429,   30.2233,   31.7830,   33.7850,
24-SEP-2002 22:42:55.84 ,    0.6439,    0.5199,    0.7578,    1.1694,    1.2237,    1.8303,    2.2404,    3.7153,    3.7513,    4.7758,    6.0098,    6.3028,    6.2129,    5.5806,    5.7778,    6.0720,    6.5023,    7.1723,    7.6479,    8.3879,    9.2038,   10.1731,    9.7293,   10.0495,   10.6607,   12.6844,   14.2708,   14.6251,   15.3203,   16.0749,   16.3867,   16.0825,   16.2383,   16.8845,   18.7506,   19.6170,   20.2375,   21.4264,   21.7954,   21.5685,   22.6324,   24.0423,   25.2546,   26.0037,   26.6805,   25.5567,   26.3335,   27.4057,   28.3713,   27.9715,   28.2021,   29.4904,   28.0828,   28.1877,   27.5619,   27.3894,   29.5724,   29.7824,   29.2941,   27.1217,   28.0694,   29.3666,   30.1809,   32.7422,   34.8703,
24-SEP-2002 22:45:37.06 ,    0.4361,    0.3261,    0.4586,    1.1025,    1.1784,    1.7846,    2.2609,    2.9573,    3.0779,    3.7940,    5.2365,    5.6300,    5.5925,    5.0422,    5.1547,    5.7211,    6.0324,    6.5544,    7.2547,    7.8687,    8.5474,    9.8237,   11.0930,    9.3826,   10.2901,   12.3323,   14.2539,   14.4538,   14.4405,   14.9849,   15.7584,   16.3964,   16.0464,   16.6586,   18.6986,   19.6054,   19.6842,   21.4954,   21.9434,   22.4747,   22.9213,   24.3058,   26.2460,   26.1614,   26.3720,   24.9422,   27.4490,   27.7097,   27.8545,   28.6160,   28.0061,   28.5250,   28.1395,   28.0550,   27.6015,   28.2289,   28.2540,   28.3068,   29.0089,   26.9628,   27.2939,   28.9906,   31.0353,   32.8650,   34.5666,
24-SEP-2002 22:48:18.20 ,    0.2778,   -0.1505,    0.2405,    0.5189,    0.9070,    1.2646,    1.6433,    2.4793,    2.7711,    3.7941,    5.2979,    5.5822,    5.7202,    5.4253,    5.4928,    5.9816,    6.1663,    6.8643,    7.9033,    8.3323,    8.8626,    9.8082,    9.2147,   10.0091,   10.5696,   11.9176,   13.0594,   13.3858,   14.1082,   14.6468,   15.2697,   15.6905,   15.6611,   16.6139,   18.1918,   18.8398,   19.1365,   19.9854,   20.2095,   21.1047,   22.3292,   23.7269,   26.3670,   27.0767,   26.6648,   25.1892,   26.7014,   26.4957,   27.1569,   28.0420,   26.6613,   27.3870,   29.1104,   28.1870,   27.8345,   28.2122,   27.9768,   28.1176,   27.1610,   24.8120,   25.4397,   28.6711,   30.8956,   33.4066,   34.4525,
24-SEP-2002 22:50:59.59 ,    0.7650,   -0.0462,   -0.0882,    0.4275,    1.2337,    1.4801,    1.5613,    2.7424,    3.3284,    4.3111,    5.4582,    6.0708,    6.0962,    5.9648,    6.0685,    6.0960,    6.1999,    6.8376,    7.7821,    8.2045,    9.0356,   10.0377,    9.5473,   11.0246,   11.4374,   11.8884,   12.7490,   13.4131,   13.8499,   14.5305,   15.4770,   15.6316,   16.1504,   17.1611,   18.6448,   18.9346,   19.7194,   20.6938,   21.1194,   21.3493,   21.9324,   24.5633,   26.0212,   26.7724,   26.2197,   25.7287,   26.2682,   27.2439,   27.3740,   27.8362,   27.9876,   28.6042,   28.5020,   28.0070,   27.6503,   28.3110,   28.8127,   28.8337,   27.5956,   25.6077,   27.5609,   29.5506,   31.6526,   32.7489,   33.5815,
24-SEP-2002 22:53:41.33 ,    0.7276,    0.4651,    0.3578,    0.4607,    1.4562,    1.6520,    1.8563,    2.9244,    4.1162,    4.6518,    5.4225,    5.9514,    5.6538,    5.6062,    5.5003,    5.9458,    6.4383,    6.7716,    7.3370,    7.9058,    9.0074,   10.1111,   11.5480,   10.8945,   11.0571,   11.6336,   13.0844,   14.0589,   14.4752,   14.4238,   15.0112,   15.3543,   16.7737,   17.9275,   18.6304,   19.4103,   20.3663,   20.7796,   21.1569,   21.9430,   21.2816,   23.7092,   24.9848,   26.0833,   26.0014,   25.7635,   26.8279,   27.6416,   26.9964,   27.4839,   28.3209,   28.3779,   29.1606,   28.5635,   28.8439,   29.2713,   29.6143,   28.4939,   27.0543,   27.1761,   30.0645,   32.7555,   32.7671,   33.5354,   34.9419,
24-SEP-2002 22:56:22.86 ,  999.0000,  999.0000,  999.0000,  999.0000,  999.0000,  999.0000,  999.0000,  999.0000,  999.0000,  999.0000,    5.4926,    5.9704,    5.7666,    5.4686,    5.3047,    5.8884,    6.3438,    6.8149,    7.4317,    7.9852,    9.0903,   10.3086,   11.1951,    9.3417,   11.0169,   12.3708,   13.2627,   13.5957,   14.1763,   14.7636,   15.1600,   15.3780,   16.1758,   18.5843,   18.7645,   20.2470,   21.3357,   21.8334,   22.6633,   22.4766,   23.6953,   24.3925,   25.1330,   26.1135,   26.0907,   26.3169,   27.0062,   27.1353,   27.2909,   27.8628,   27.7468,   28.0227,   27.9327,   29.0038,   28.9702,   28.9380,   29.8630,   29.1935,   28.4234,   26.5649,   27.7236,   30.7291,   31.8153,   33.3742,   34.4007,
24-SEP-2002 22:59:03.78 ,  999.0000,  999.0000,  999.0000,  999.0000,  999.0000,  999.0000,  999.0000,  999.0000,  999.0000,  999.0000,    5.4031,    6.3230,    6.0225,    5.6424,    5.5071,    5.7005,    5.9796,    6.3937,    6.9747,    7.2863,    8.4109,    9.8346,   10.6469,    9.3232,   10.9441,   12.0612,   12.7728,   13.1454,   13.3487,   13.9748,   14.8829,   15.5333,   15.8577,   17.5981,   18.6923,   19.3758,   20.7698,   21.8624,   22.3785,   21.9818,   23.1345,   24.1638,   25.2889,   26.0624,   26.8792,   26.5164,   26.7267,   26.4167,   26.1010,   27.1291,   28.0134,   28.3156,   28.7453,   29.0989,   29.2365,   29.2986,   29.8229,   28.4608,   27.7676,   27.2767,   27.8522,   29.3622,   31.8467,   33.1368,   33.6404,
24-SEP-2002 23:01:44.91 ,    0.8701,    0.3277,    0.1253,    1.4198,    2.4952,    2.6055,    2.9018,    3.6631,    4.8030,    4.9426,    5.5031,    6.1549,    5.9456,    5.4885,    5.3905,    5.7379,    6.2627,    6.2154,    6.6448,    7.2374,    8.0929,    9.6489,   10.8306,    9.2823,   10.5691,   11.5601,   12.7311,   13.5290,   13.4433,   13.4916,   14.3714,   14.9903,   15.1811,   16.0720,   18.0910,   19.3470,   20.2172,   20.9829,   22.1408,   21.6325,   22.3565,   23.7434,   25.1621,   24.9803,   25.8820,   25.6967,   26.4333,   26.6199,   26.6760,   27.5132,   28.4590,   28.5556,   28.2657,   28.8483,   29.0037,   29.7512,   29.3843,   30.2692,   29.2678,   28.7440,   29.1373,   31.3062,   34.1876,   35.6329,   37.2181,
24-SEP-2002 23:04:26.12 ,    0.3795,    0.1672,    0.6209,    1.0017,    1.9901,    2.5347,    3.0841,    3.8431,    4.4530,    4.3840,    5.0789,    5.3484,    5.8130,    5.3949,    5.3404,    5.7983,    6.4172,    6.4400,    6.7586,    7.6210,    8.2627,    9.3585,    7.2815,    8.5399,    9.2623,   10.9325,   12.8400,   13.2683,   13.5490,   13.9967,   14.7506,   15.2676,   16.1217,   17.5643,   19.0755,   19.7737,   20.2931,   21.0390,   21.1901,   21.1751,   22.6149,   23.9692,   25.3448,   25.7106,   25.3402,   24.7470,   25.9063,   27.1857,   27.2182,   28.8034,   29.2066,   28.4322,   27.5422,   29.2630,   29.0247,   29.8106,   29.0759,   29.2212,   29.3296,   28.5853,   29.7408,   32.9990,   34.1195,   35.6687,   36.1962,
24-SEP-2002 23:07:07.23 ,    0.4377,    0.6497,    0.9382,    1.0979,    1.8461,    2.4473,    2.5656,    3.1201,    3.1448,    3.5632,    4.8788,    5.2031,    5.5827,    5.6168,    5.5896,    5.9303,    6.4609,    6.9658,    7.3982,    7.8352,    8.3607,    9.4459,   11.1630,   12.5229,   10.9658,   12.1561,   13.3154,   13.5482,   13.1587,   13.3803,   14.5430,   15.3721,   16.5061,   17.8317,   18.8794,   19.5863,   20.0478,   20.7557,   21.1914,   20.8437,   22.2677,   23.4511,   24.9310,   26.1350,   26.3408,   26.4104,   26.4518,   26.8062,   27.4043,   28.3480,   28.7114,   29.0383,   28.3920,   29.4792,   29.6084,   29.6257,   29.2700,   29.9721,   29.5944,   28.8743,   29.5470,   32.0927,   33.9672,   35.3377,   36.1819,
24-SEP-2002 23:09:49.06 ,   -0.6898,   -0.9136,   -0.0983,    0.4102,    1.5085,    2.0016,    2.3029,    2.8400,    3.0298,    3.7383,    5.4062,    6.5166,    6.2994,    6.0896,    6.0615,    6.4601,    7.1695,    8.3382,    9.3578,    9.3457,    9.5848,   10.1864,    8.6964,    9.8364,   10.6789,   12.1872,   13.5330,   13.6461,   13.3889,   13.4866,   14.5574,   16.0391,   17.1111,   18.4817,   19.5695,   20.4240,   20.4346,   20.2530,   20.6351,   21.1616,   22.8467,   23.9625,   25.5037,   26.1012,   26.2939,   26.1150,   26.4050,   27.3608,   28.0318,   28.2355,   27.5889,   28.8407,   28.9724,   30.0280,   28.5159,   29.2252,   28.9202,   29.1887,   29.3219,   31.1506,   29.3551,   31.9973,   33.9891,   35.8970,   36.8234,
24-SEP-2002 23:12:30.29 ,   -0.8349,   -1.1196,    0.2232,    0.4934,    1.2699,    1.9408,    2.9411,    3.2648,    3.6708,    4.4194,    5.7167,    6.7280,    6.4760,    6.2643,    6.4194,    6.6821,    6.9458,    8.2308,    9.5788,    9.6401,    9.8154,   10.3992,   11.1595,   10.3827,   12.2704,   13.0667,   13.5133,   13.5227,   12.9976,   13.1752,   14.2987,   16.2251,   16.6072,   18.1347,   19.4505,   19.9585,   20.3517,   20.6977,   20.9143,   21.3016,   23.3635,   24.5945,   25.5341,   25.9117,   25.7405,   26.4001,   26.4825,   27.7415,   28.2447,   28.8454,   27.3689,   29.2036,   28.9577,   28.5679,   28.1700,   29.4509,   29.2050,   29.1063,   28.8843,   28.6001,   29.7230,   33.2797,   35.3643,   37.2420,   37.8259,
24-SEP-2002 23:15:11.32 ,   -0.1866,   -0.1606,    0.7492,    0.7482,    1.4305,    1.9377,    2.8430,    3.2674,    3.9323,    4.8347,    6.1296,    6.4593,    6.4973,    6.2899,    6.1669,    6.4357,    6.7780,    7.2199,    7.8065,    8.0211,    8.7016,   10.2673,    8.8572,   10.0787,   11.5716,   12.6845,   13.2774,   13.2432,   13.0082,   13.3147,   14.1278,   15.0929,   16.9452,   18.6330,   19.5268,   20.4181,   20.4351,   21.1710,   21.8625,   22.8670,   23.9209,   24.4154,   25.7847,   26.8021,   26.6760,   27.3210,   27.4822,   27.8497,   28.2583,   28.7359,   28.5506,   28.8026,   28.9739,   29.4579,   29.3933,   29.3955,   29.0978,   29.2868,   28.5853,   29.8024,   29.6349,   33.1284,   35.6219,   36.6042,   37.8503,
24-SEP-2002 23:17:52.87 ,   -0.2869,   -0.4126,   -0.0751,    0.1425,    1.2059,    1.3481,    2.0882,    2.8760,    3.4997,    4.3256,    5.4099,    5.9469,    6.1839,    6.2039,    6.1830,    6.4814,    6.8780,    7.0753,    7.4546,    7.8954,    9.1029,   10.4496,   11.4219,   12.2907,   10.6307,   11.8780,   12.2566,   11.9942,   12.0317,   12.3001,   13.0305,   14.4979,   15.4446,   16.8123,   17.7411,   18.0663,   18.3500,   18.9375,   19.7277,   20.4946,   21.9075,   21.5129,   22.4457,   23.2347,   23.7941,   23.5619,   25.6032,   26.8458,   28.8060,   29.5332,   29.1822,   30.4010,   29.8695,   29.7067,   28.6697,   28.7877,   29.4761,   29.9823,   29.3863,   29.0592,   30.1651,   32.8616,   34.9647,   37.4587,   39.2252,
24-SEP-2002 23:20:34.02 ,   -0.0646,   -0.2303,    0.1359,    1.1562,    1.5575,    1.2836,    2.3907,    3.0644,    3.3129,    4.0499,    5.1624,    5.6354,    6.0534,    6.2301,    6.2780,    6.5641,    7.1503,    7.4912,    7.6709,    8.2935,    9.3645,   10.8545,    9.5310,    8.4184,    8.1159,    7.9384,    7.1792,    6.8398,    7.6842,    8.2967,    8.6516,    9.4266,   10.0255,   10.2498,   10.4115,   10.5528,   11.0018,   10.8454,   10.8012,   11.6176,   12.2217,   12.6425,   13.5613,   14.0808,   13.5439,   13.9509,   18.3373,   27.9220,   28.0623,   27.5615,   27.9252,   29.3169,   28.7973,   28.7837,   29.3991,   29.7373,   29.8139,   28.9633,   27.3640,   28.6372,   30.6237,   32.5772,   35.1448,   37.4497,   38.8508,
24-SEP-2002 23:23:15.15 ,   -0.3167,    0.1519,    0.5615,    1.3366,    1.6720,    1.8589,    3.2719,    3.4078,    3.7057,    4.4057,    5.4711,    5.7044,    6.0990,    6.1438,    6.0379,    6.4483,    7.3183,    7.7205,    7.6923,    8.3165,    9.3500,   10.4543,   11.3083,    6.4213,    6.9465,    7.7564,    8.2021,    8.3229,    8.5869,    9.6589,   10.2438,   10.6492,   11.8145,   12.7430,   12.8194,   12.8451,   13.3671,   13.6051,   13.8418,   14.2202,   15.6210,   16.4917,   16.7665,   17.0091,   16.4021,   16.4530,   27.6409,   21.3946,   23.8752,   27.3933,   27.9294,   28.4993,   27.9377,   29.2057,   29.6696,   29.6307,   30.1164,   29.7399,   29.0764,   28.9242,   30.3548,   32.1676,   35.3381,   38.3795,   39.7738,
24-SEP-2002 23:25:56.48 ,    0.0830,    0.5867,    0.9482,    1.0079,    1.3854,    1.9218,    2.8647,    2.9534,    3.7051,    4.4935,    5.1793,    5.4628,    5.9126,    6.0849,    6.3371,    6.8030,    7.3483,    7.6806,    7.9624,    8.6325,    9.6557,   10.5930,   11.5094,   10.7804,   11.4780,   12.3345,   12.9930,   13.3179,   13.3626,   14.0840,   15.2169,   16.5234,   17.9129,   19.2813,   19.7509,   19.9286,   20.8661,   21.3293,   21.3419,   21.9525,   24.1086,   25.3910,   25.8260,   26.6461,   26.3654,   26.0093,   26.4783,   27.3888,   27.5569,   27.5567,   27.0457,   28.7848,   29.4758,   28.5807,   28.2468,   29.0376,   29.4490,   28.9583,   28.9123,   29.2334,   30.5021,   33.3993,   36.4353,   37.7361,   39.7576,
24-SEP-2002 23:28:37.64 ,    0.5718,    0.7367,    0.7445,    0.9247,    1.1331,    1.6609,    2.7896,    3.4009,    4.4846,    4.9814,    5.3255,    5.5693,    6.2603,    6.7985,    6.9341,    7.1525,    7.3477,    7.8066,    8.2792,    8.8985,    9.7922,   10.7717,   11.7098,    9.2753,    9.9731,   11.0115,   11.4810,   11.4719,   11.4392,   12.0363,   12.8007,   13.7990,   15.1536,   15.7122,   15.9904,   16.8919,   17.8925,   18.5910,   18.6077,   18.5919,   21.4145,   22.8826,   22.3478,   22.7096,   23.1490,   23.2859,   23.4047,   24.3165,   25.7753,   27.6404,   27.2149,   28.5430,   29.4460,   28.6898,   29.1066,   29.7939,   28.9532,   27.4734,   27.2581,   28.0875,   30.7592,   32.9817,   36.1514,   37.4172,   38.4970,
24-SEP-2002 23:31:18.57 ,    0.3149,    0.3030,   -0.0827,    0.7499,    1.0114,    1.5820,    3.0534,    3.8076,    4.5665,    5.0718,    5.5921,    5.5424,    6.1198,    7.0262,    6.9485,    6.9724,    7.3755,    8.0627,    8.5210,    9.0673,   10.0200,   11.1006,   11.8677,    6.7260,    7.2929,    7.9383,    8.1186,    8.1466,    8.3452,    8.7571,    9.4465,   10.2828,   11.3324,   12.0385,   12.6863,   12.9604,   13.4596,   13.7955,   13.5022,   13.7713,   14.8771,   15.9653,   16.7709,   16.4080,   16.2397,   16.3628,   16.4182,   19.8393,   21.8349,   27.3113,   27.4360,   28.1637,   28.1135,   28.2789,   28.7728,   29.7069,   29.6269,   28.1880,   27.4687,   27.9397,   30.5304,   33.3546,   36.1025,   37.4413,   37.2680,
24-SEP-2002 23:33:59.43 ,    0.1894,   -0.2992,   -0.2639,    0.4915,    1.3488,    1.7865,    2.8096,    3.2480,    3.6942,    4.5068,    5.3973,    5.6171,    6.0380,    6.4735,    6.6722,    7.1876,    8.1324,    8.3263,    8.6201,    9.1411,   10.3276,   11.5929,   10.5503,   11.3018,   11.9237,   12.6033,   12.9658,   12.8872,   13.1776,   13.5873,   14.2963,   15.5517,   18.0669,   19.4366,   19.9164,   20.4109,   20.7744,   20.8327,   21.6436,   22.7659,   23.5290,   24.4598,   25.5692,   25.6272,   26.0300,   26.3021,   26.3979,   27.4675,   26.3267,   27.6104,   27.8245,   27.2813,   27.7523,   28.4110,   27.5288,   28.7130,   28.8151,   27.6813,   27.5799,   28.4746,   30.1373,   33.0351,   36.4989,   36.7016,   38.4395,
24-SEP-2002 23:36:41.30 ,    0.2717,   -0.2518,    0.1475,    0.4608,    1.2798,    1.9429,    3.1116,    3.2998,    3.8429,    4.4903,    5.1734,    5.6501,    6.1028,    6.4214,    7.2918,    8.3828,    9.2199,    9.2462,    9.1999,    9.3756,   10.2053,   11.5014,   12.7583,   10.8702,   11.9974,   13.0936,   13.5530,   13.9344,   14.2420,   14.5207,   15.0417,   16.3594,   17.5620,   18.1080,   18.6390,   19.4463,   21.2358,   22.0309,   23.7842,   24.7563,   23.9276,   26.1042,   25.7299,   25.3835,   26.0020,   25.7678,   25.2075,   26.4073,   26.5005,   27.8402,   28.4418,   27.6255,   28.8066,   29.4391,   28.7729,   29.8464,   28.6284,   27.8688,   27.8565,   29.0627,   30.6163,   32.9517,   35.2197,   37.0814,   38.5187,
24-SEP-2002 23:39:22.39 ,    0.3054,    0.1429,    0.6500,    1.1452,    1.3616,    2.0696,    3.0000,    3.3369,    3.8878,    4.6414,    5.0967,    5.5749,    6.1465,    6.1314,    6.8118,    8.0820,    8.7664,    9.0582,    9.2168,    9.4752,   10.1397,   11.0950,    9.4419,    9.6817,   10.4997,   11.5843,   11.7978,   12.0134,   13.0386,   13.8902,   14.9424,   15.7064,   16.6006,   17.2274,   18.3095,   19.2724,   20.3047,   21.8921,   22.3627,   23.0584,   24.5891,   25.5000,   25.6792,   26.0826,   25.9346,   26.2412,   25.5643,   26.9591,   27.8768,   28.6340,   29.0219,   28.5651,   29.5548,   28.8493,   29.3441,   29.6790,   29.3562,   28.8190,   28.5201,   29.4560,   31.7552,   34.6414,   37.1337,   39.3317,   40.5439,
24-SEP-2002 23:42:06.33 ,    0.4204,    0.5275,    0.7267,    0.4877,    1.3589,    1.4516,    2.2522,    2.6192,    3.2680,    4.4753,    4.7942,    5.3838,    6.2028,    6.1799,    6.3840,    7.0819,    7.8567,    8.2880,    8.5978,    9.2843,    9.9062,   10.5590,    9.3744,    8.7816,    8.1261,    8.2176,    8.2620,    8.9907,   10.9365,   12.6171,   14.6285,   15.9667,   16.6750,   16.6632,   17.9877,   20.0425,   21.1609,   21.8687,   22.4679,   23.2482,   24.7145,   25.6872,   24.9441,   25.3069,   25.5154,   26.1161,   26.2216,   26.3139,   27.0526,   28.5918,   28.5764,   27.4239,   27.9845,   28.6080,   29.2659,   29.3280,   30.1494,   29.4416,   28.4826,   29.7824,   32.7270,   34.8948,   36.7648,   39.1170,   40.7589,
24-SEP-2002 23:44:47.70 ,    1.3415,    1.6090,    1.8347,    0.7149,    1.7564,    1.6795,    2.4751,    2.6105,    3.2755,    4.4115,    4.5519,    5.0772,    6.0638,    6.3077,    6.5068,    7.2950,    8.0809,    8.3918,    8.6015,    9.1763,   10.0398,   11.0589,   10.1457,   10.7703,   11.5314,   12.1896,   12.6383,   13.5508,   14.4869,   15.1541,   15.8043,   16.0934,   16.5783,   17.2153,   17.8863,   20.0596,   20.2479,   21.7737,   22.7099,   23.6510,   24.8048,   26.0480,   25.0631,   25.5376,   26.3789,   25.5021,   25.7358,   26.4048,   26.8020,   27.7307,   29.1326,   28.3827,   29.2232,   29.0107,   29.4064,   29.7247,   29.5119,   28.7310,   27.9049,   28.9573,   32.0490,   33.3973,   36.3310,   38.9793,   40.0297,
24-SEP-2002 23:47:29.28 ,    1.3132,    1.6332,    2.0902,    1.4666,    1.8728,    2.3997,    2.8936,    3.1291,    3.6223,    4.4058,    4.8885,    5.3721,    6.2645,    6.6699,    6.9538,    7.8944,    8.4984,    8.5787,    8.6988,    9.2222,   10.2261,   11.3518,    9.7502,   10.7803,   11.5765,   12.1599,   12.6825,   13.5426,   14.5572,   15.7864,   16.2548,   15.8342,   16.2197,   17.0849,   17.8320,   18.6843,   20.1124,   21.7213,   22.3970,   23.2332,   23.4513,   24.5508,   24.4774,   24.5723,   26.1499,   24.9688,   25.3907,   26.2761,   27.6388,   28.1133,   27.4961,   27.3223,   28.2155,   28.4141,   27.9296,   28.9389,   28.6943,   28.0573,   28.1187,   29.7378,   31.6357,   33.0142,   35.7231,   38.4949,   38.7509,
24-SEP-2002 23:50:12.17 ,    0.5324,    0.9891,    1.0693,    1.2954,    1.5192,    2.1797,    2.5854,    2.8352,    3.3217,    4.3210,    5.1511,    5.6634,    6.3013,    6.8390,    7.2321,    7.9250,    8.2156,    8.4793,    8.7299,    9.0028,    9.6426,   10.5722,    9.6665,   10.6451,   11.3436,   11.9222,   12.5727,   13.5372,   14.4782,   15.5451,   15.7958,   15.7386,   16.3721,   16.9616,   17.9479,   18.8056,   20.5457,   22.0559,   22.9065,   24.1953,   25.2409,   25.7838,   25.4090,   25.9794,   26.9094,   26.7751,   26.1889,   27.0303,   27.7016,   27.8043,   27.9883,   27.7893,   29.3934,   28.7895,   29.1450,   28.9431,   28.9906,   28.8903,   28.1128,   29.0991,   31.7533,   33.7645,   36.5038,   39.7317,   40.2119,
24-SEP-2002 23:52:53.73 ,    0.8471,    0.8526,    0.3264,    1.3572,    1.7860,    2.3065,    2.9643,    3.1747,    3.7019,    4.5573,    5.2504,    5.6860,    6.0580,    6.5752,    7.1665,    7.8712,    8.0418,    8.3109,    8.4601,    8.5447,    9.1701,   10.0588,    9.5974,   10.2872,   10.9720,   11.6027,   12.2824,   13.3232,   14.1614,   15.4433,   15.8720,   15.9899,   17.3812,   17.6216,   17.9912,   18.5693,   19.5590,   20.8195,   22.6591,   23.7953,   25.2239,   25.8704,   25.2763,   25.5404,   26.1516,   26.5721,   26.6082,   27.7052,   28.1925,   28.6553,   28.3163,   28.4542,   29.8976,   28.6132,   29.5411,   29.7232,   30.3138,   30.1955,   29.0767,   29.6549,   31.1836,   33.5216,   36.9103,   38.7285,   40.2596,
24-SEP-2002 23:55:34.88 ,    1.1927,    0.8444,    0.1994,    1.2410,    1.8907,    2.5348,    3.6025,    3.8198,    4.3854,    5.0332,    5.5001,    5.8097,    6.0007,    6.1633,    7.0674,    8.0841,    8.3599,    8.1720,    7.9594,    8.2674,    8.8996,    9.9433,    9.1723,   10.0327,   10.9663,   11.3697,   12.2540,   13.4491,   14.2076,   14.8212,   15.6465,   16.2781,   16.6062,   16.8750,   17.5075,   17.7400,   18.9719,   21.2240,   23.1783,   24.0857,   24.2991,   25.0612,   25.7102,   26.2623,   26.1319,   25.8934,   25.4459,   27.0293,   27.4644,   28.4609,   27.9660,   28.6505,   29.5598,   28.6450,   28.8939,   29.2452,   29.0356,   29.5296,   29.6663,   29.6215,   30.8521,   34.0547,   36.8259,   39.3240,   41.6205,
24-SEP-2002 23:58:16.07 ,    1.2325,    1.3612,    1.6946,    2.1922,    2.7027,    2.5165,    3.8797,    4.0855,    4.5543,    5.2339,    5.4724,    5.6234,    5.9780,    6.5032,    7.5651,    8.1641,    8.3673,    8.0806,    7.8877,    8.4884,    9.1177,    9.8966,   10.9353,   10.2995,   10.6218,   10.9988,   11.8858,   13.0835,   14.1106,   14.8314,   15.8094,   16.5630,   16.7994,   17.1001,   17.2681,   17.9701,   19.4560,   21.0615,   23.0311,   24.3627,   24.7563,   25.3598,   25.3586,   25.9380,   25.9431,   25.6034,   25.5915,   26.9626,   27.6125,   28.3193,   27.1124,   28.4055,   29.0659,   28.6837,   28.3630,   29.1837,   28.6162,   27.8784,   29.1530,   29.8450,   32.2201,   35.0363,   36.9691,   39.1927,   40.8245,
